<?xml version="1.0" encoding="UTF-8" standalone="no" ?>
<gpx xmlns="http://www.topografix.com/GPX/1/1" xmlns:xsi="http://www.w3.org/2001/XMLSchema-instance" xsi:schemaLocation="http://www.topografix.com/GPX/1/1 http://www.topografix.com/GPX/1/1/gpx.xsd" version="1.1" creator="VisuGPX - https://www.visugpx.com">
  <metadata>
    <name>rando Dentelles</name>
  </metadata>
  <trk>
    <name><![CDATA[rando JP Dentelles]]></name>
    <trkseg>
      <trkpt lat="44.10836" lon="4.98745">
        <ele>47</ele>
        <time>2015-06-24T06:43:18Z</time>
      </trkpt>
      <trkpt lat="44.10836" lon="4.98745">
        <ele>47</ele>
        <time>2015-06-24T06:43:19Z</time>
      </trkpt>
      <trkpt lat="44.10843" lon="4.98736">
        <ele>48</ele>
        <time>2015-06-24T06:43:55Z</time>
      </trkpt>
      <trkpt lat="44.10845" lon="4.9872">
        <ele>48.1</ele>
        <time>2015-06-24T06:44:00Z</time>
      </trkpt>
      <trkpt lat="44.10838" lon="4.98712">
        <ele>48.2</ele>
        <time>2015-06-24T06:44:05Z</time>
      </trkpt>
      <trkpt lat="44.10833" lon="4.98701">
        <ele>48.3</ele>
        <time>2015-06-24T06:44:10Z</time>
      </trkpt>
      <trkpt lat="44.10828" lon="4.98687">
        <ele>48.2</ele>
        <time>2015-06-24T06:44:51Z</time>
      </trkpt>
      <trkpt lat="44.10837" lon="4.98687">
        <ele>48.2</ele>
        <time>2015-06-24T06:44:57Z</time>
      </trkpt>
      <trkpt lat="44.10847" lon="4.98688">
        <ele>48.1</ele>
        <time>2015-06-24T06:45:03Z</time>
      </trkpt>
      <trkpt lat="44.10857" lon="4.98691">
        <ele>48.1</ele>
        <time>2015-06-24T06:45:09Z</time>
      </trkpt>
      <trkpt lat="44.10865" lon="4.987">
        <ele>48.4</ele>
        <time>2015-06-24T06:45:17Z</time>
      </trkpt>
      <trkpt lat="44.10876" lon="4.98699">
        <ele>48.8</ele>
        <time>2015-06-24T06:45:22Z</time>
      </trkpt>
      <trkpt lat="44.10889" lon="4.987">
        <ele>48.8</ele>
        <time>2015-06-24T06:45:26Z</time>
      </trkpt>
      <trkpt lat="44.109" lon="4.98699">
        <ele>48.6</ele>
        <time>2015-06-24T06:45:30Z</time>
      </trkpt>
      <trkpt lat="44.10912" lon="4.98697">
        <ele>48.5</ele>
        <time>2015-06-24T06:45:33Z</time>
      </trkpt>
      <trkpt lat="44.10906" lon="4.98687">
        <ele>48.3</ele>
        <time>2015-06-24T06:45:37Z</time>
      </trkpt>
      <trkpt lat="44.10898" lon="4.98678">
        <ele>47.6</ele>
        <time>2015-06-24T06:45:44Z</time>
      </trkpt>
      <trkpt lat="44.10903" lon="4.98695">
        <ele>48</ele>
        <time>2015-06-24T06:46:06Z</time>
      </trkpt>
      <trkpt lat="44.10909" lon="4.98708">
        <ele>48.3</ele>
        <time>2015-06-24T06:46:11Z</time>
      </trkpt>
      <trkpt lat="44.1092" lon="4.98729">
        <ele>48</ele>
        <time>2015-06-24T06:46:32Z</time>
      </trkpt>
      <trkpt lat="44.10926" lon="4.9874">
        <ele>49.3</ele>
        <time>2015-06-24T06:46:37Z</time>
      </trkpt>
      <trkpt lat="44.10929" lon="4.98753">
        <ele>49.6</ele>
        <time>2015-06-24T06:46:44Z</time>
      </trkpt>
      <trkpt lat="44.10934" lon="4.98763">
        <ele>49.7</ele>
        <time>2015-06-24T06:46:51Z</time>
      </trkpt>
      <trkpt lat="44.10939" lon="4.98773">
        <ele>49.9</ele>
        <time>2015-06-24T06:46:57Z</time>
      </trkpt>
      <trkpt lat="44.10947" lon="4.98782">
        <ele>49.9</ele>
        <time>2015-06-24T06:47:02Z</time>
      </trkpt>
      <trkpt lat="44.10957" lon="4.98793">
        <ele>49.9</ele>
        <time>2015-06-24T06:47:05Z</time>
      </trkpt>
      <trkpt lat="44.10965" lon="4.988">
        <ele>50</ele>
        <time>2015-06-24T06:47:08Z</time>
      </trkpt>
      <trkpt lat="44.10974" lon="4.9881">
        <ele>50</ele>
        <time>2015-06-24T06:47:11Z</time>
      </trkpt>
      <trkpt lat="44.10983" lon="4.98816">
        <ele>50</ele>
        <time>2015-06-24T06:47:14Z</time>
      </trkpt>
      <trkpt lat="44.10974" lon="4.98827">
        <ele>50.1</ele>
        <time>2015-06-24T06:47:17Z</time>
      </trkpt>
      <trkpt lat="44.10966" lon="4.98836">
        <ele>50.1</ele>
        <time>2015-06-24T06:47:20Z</time>
      </trkpt>
      <trkpt lat="44.10957" lon="4.9884">
        <ele>50.2</ele>
        <time>2015-06-24T06:47:25Z</time>
      </trkpt>
      <trkpt lat="44.10948" lon="4.98839">
        <ele>50.1</ele>
        <time>2015-06-24T06:47:33Z</time>
      </trkpt>
      <trkpt lat="44.10939" lon="4.98841">
        <ele>49.7</ele>
        <time>2015-06-24T06:47:40Z</time>
      </trkpt>
      <trkpt lat="44.10931" lon="4.98845">
        <ele>49.3</ele>
        <time>2015-06-24T06:47:48Z</time>
      </trkpt>
      <trkpt lat="44.10921" lon="4.98849">
        <ele>48.9</ele>
        <time>2015-06-24T06:47:56Z</time>
      </trkpt>
      <trkpt lat="44.1091" lon="4.98854">
        <ele>48.6</ele>
        <time>2015-06-24T06:48:04Z</time>
      </trkpt>
      <trkpt lat="44.109" lon="4.98856">
        <ele>48.1</ele>
        <time>2015-06-24T06:48:11Z</time>
      </trkpt>
      <trkpt lat="44.10897" lon="4.9887">
        <ele>47.7</ele>
        <time>2015-06-24T06:48:24Z</time>
      </trkpt>
      <trkpt lat="44.10899" lon="4.98883">
        <ele>47.8</ele>
        <time>2015-06-24T06:48:31Z</time>
      </trkpt>
      <trkpt lat="44.10903" lon="4.98894">
        <ele>47.8</ele>
        <time>2015-06-24T06:48:37Z</time>
      </trkpt>
      <trkpt lat="44.10906" lon="4.98907">
        <ele>47.5</ele>
        <time>2015-06-24T06:48:45Z</time>
      </trkpt>
      <trkpt lat="44.10912" lon="4.98919">
        <ele>47.1</ele>
        <time>2015-06-24T06:48:56Z</time>
      </trkpt>
      <trkpt lat="44.10916" lon="4.98931">
        <ele>47</ele>
        <time>2015-06-24T06:49:04Z</time>
      </trkpt>
      <trkpt lat="44.1092" lon="4.98943">
        <ele>47.1</ele>
        <time>2015-06-24T06:49:11Z</time>
      </trkpt>
      <trkpt lat="44.10924" lon="4.98957">
        <ele>47.3</ele>
        <time>2015-06-24T06:49:19Z</time>
      </trkpt>
      <trkpt lat="44.10925" lon="4.98971">
        <ele>47.5</ele>
        <time>2015-06-24T06:49:27Z</time>
      </trkpt>
      <trkpt lat="44.10917" lon="4.98979">
        <ele>47.5</ele>
        <time>2015-06-24T06:49:33Z</time>
      </trkpt>
      <trkpt lat="44.10907" lon="4.98983">
        <ele>48.1</ele>
        <time>2015-06-24T06:49:41Z</time>
      </trkpt>
      <trkpt lat="44.10899" lon="4.98988">
        <ele>48.5</ele>
        <time>2015-06-24T06:49:49Z</time>
      </trkpt>
      <trkpt lat="44.10891" lon="4.98997">
        <ele>48.8</ele>
        <time>2015-06-24T06:49:56Z</time>
      </trkpt>
      <trkpt lat="44.10882" lon="4.99001">
        <ele>49.2</ele>
        <time>2015-06-24T06:50:03Z</time>
      </trkpt>
      <trkpt lat="44.10874" lon="4.99007">
        <ele>49.6</ele>
        <time>2015-06-24T06:50:09Z</time>
      </trkpt>
      <trkpt lat="44.10864" lon="4.99009">
        <ele>49.6</ele>
        <time>2015-06-24T06:50:15Z</time>
      </trkpt>
      <trkpt lat="44.10855" lon="4.99013">
        <ele>49.6</ele>
        <time>2015-06-24T06:50:23Z</time>
      </trkpt>
      <trkpt lat="44.10846" lon="4.99015">
        <ele>49.3</ele>
        <time>2015-06-24T06:50:30Z</time>
      </trkpt>
      <trkpt lat="44.10836" lon="4.99016">
        <ele>49.1</ele>
        <time>2015-06-24T06:50:36Z</time>
      </trkpt>
      <trkpt lat="44.10826" lon="4.99014">
        <ele>48.8</ele>
        <time>2015-06-24T06:50:43Z</time>
      </trkpt>
      <trkpt lat="44.10816" lon="4.99016">
        <ele>48.5</ele>
        <time>2015-06-24T06:50:52Z</time>
      </trkpt>
      <trkpt lat="44.10807" lon="4.99016">
        <ele>48.2</ele>
        <time>2015-06-24T06:51:01Z</time>
      </trkpt>
      <trkpt lat="44.10797" lon="4.99017">
        <ele>48.1</ele>
        <time>2015-06-24T06:51:08Z</time>
      </trkpt>
      <trkpt lat="44.10787" lon="4.99019">
        <ele>47.9</ele>
        <time>2015-06-24T06:51:17Z</time>
      </trkpt>
      <trkpt lat="44.10778" lon="4.9902">
        <ele>47.4</ele>
        <time>2015-06-24T06:51:26Z</time>
      </trkpt>
      <trkpt lat="44.10773" lon="4.99033">
        <ele>47.8</ele>
        <time>2015-06-24T06:52:55Z</time>
      </trkpt>
      <trkpt lat="44.10773" lon="4.99046">
        <ele>47.4</ele>
        <time>2015-06-24T06:53:03Z</time>
      </trkpt>
      <trkpt lat="44.10775" lon="4.9906">
        <ele>47.2</ele>
        <time>2015-06-24T06:53:10Z</time>
      </trkpt>
      <trkpt lat="44.10776" lon="4.99073">
        <ele>46.8</ele>
        <time>2015-06-24T06:53:18Z</time>
      </trkpt>
      <trkpt lat="44.10776" lon="4.99088">
        <ele>46.5</ele>
        <time>2015-06-24T06:53:26Z</time>
      </trkpt>
      <trkpt lat="44.10779" lon="4.99101">
        <ele>46.2</ele>
        <time>2015-06-24T06:53:34Z</time>
      </trkpt>
      <trkpt lat="44.10784" lon="4.99114">
        <ele>46.1</ele>
        <time>2015-06-24T06:53:41Z</time>
      </trkpt>
      <trkpt lat="44.10791" lon="4.99125">
        <ele>46</ele>
        <time>2015-06-24T06:53:49Z</time>
      </trkpt>
      <trkpt lat="44.108" lon="4.99133">
        <ele>46</ele>
        <time>2015-06-24T06:53:56Z</time>
      </trkpt>
      <trkpt lat="44.10807" lon="4.99141">
        <ele>46</ele>
        <time>2015-06-24T06:54:02Z</time>
      </trkpt>
      <trkpt lat="44.1081" lon="4.99154">
        <ele>45.9</ele>
        <time>2015-06-24T06:54:11Z</time>
      </trkpt>
      <trkpt lat="44.10819" lon="4.99158">
        <ele>46</ele>
        <time>2015-06-24T06:54:20Z</time>
      </trkpt>
      <trkpt lat="44.10829" lon="4.99157">
        <ele>46</ele>
        <time>2015-06-24T06:54:27Z</time>
      </trkpt>
      <trkpt lat="44.10839" lon="4.99158">
        <ele>46</ele>
        <time>2015-06-24T06:54:31Z</time>
      </trkpt>
      <trkpt lat="44.10846" lon="4.99167">
        <ele>46</ele>
        <time>2015-06-24T06:54:37Z</time>
      </trkpt>
      <trkpt lat="44.10853" lon="4.99176">
        <ele>46</ele>
        <time>2015-06-24T06:54:43Z</time>
      </trkpt>
      <trkpt lat="44.1086" lon="4.99187">
        <ele>46.1</ele>
        <time>2015-06-24T06:54:51Z</time>
      </trkpt>
      <trkpt lat="44.10865" lon="4.99197">
        <ele>46.3</ele>
        <time>2015-06-24T06:55:01Z</time>
      </trkpt>
      <trkpt lat="44.10874" lon="4.99204">
        <ele>46.3</ele>
        <time>2015-06-24T06:55:08Z</time>
      </trkpt>
      <trkpt lat="44.10883" lon="4.99209">
        <ele>46.5</ele>
        <time>2015-06-24T06:55:14Z</time>
      </trkpt>
      <trkpt lat="44.10892" lon="4.99212">
        <ele>46.8</ele>
        <time>2015-06-24T06:55:20Z</time>
      </trkpt>
      <trkpt lat="44.10903" lon="4.99212">
        <ele>47.1</ele>
        <time>2015-06-24T06:55:27Z</time>
      </trkpt>
      <trkpt lat="44.10912" lon="4.9921">
        <ele>47.2</ele>
        <time>2015-06-24T06:55:32Z</time>
      </trkpt>
      <trkpt lat="44.10923" lon="4.99208">
        <ele>47.3</ele>
        <time>2015-06-24T06:55:36Z</time>
      </trkpt>
      <trkpt lat="44.10933" lon="4.99206">
        <ele>47.5</ele>
        <time>2015-06-24T06:55:40Z</time>
      </trkpt>
      <trkpt lat="44.10926" lon="4.99214">
        <ele>47.6</ele>
        <time>2015-06-24T06:55:42Z</time>
      </trkpt>
      <trkpt lat="44.10917" lon="4.99223">
        <ele>47.6</ele>
        <time>2015-06-24T06:55:43Z</time>
      </trkpt>
      <trkpt lat="44.10911" lon="4.99213">
        <ele>48</ele>
        <time>2015-06-24T06:55:54Z</time>
      </trkpt>
      <trkpt lat="44.10917" lon="4.99203">
        <ele>48.1</ele>
        <time>2015-06-24T06:55:58Z</time>
      </trkpt>
      <trkpt lat="44.10922" lon="4.9919">
        <ele>48.2</ele>
        <time>2015-06-24T06:56:03Z</time>
      </trkpt>
      <trkpt lat="44.10927" lon="4.99177">
        <ele>48.3</ele>
        <time>2015-06-24T06:56:10Z</time>
      </trkpt>
      <trkpt lat="44.10936" lon="4.99176">
        <ele>48.6</ele>
        <time>2015-06-24T06:56:17Z</time>
      </trkpt>
      <trkpt lat="44.10945" lon="4.9917">
        <ele>48.9</ele>
        <time>2015-06-24T06:56:23Z</time>
      </trkpt>
      <trkpt lat="44.10954" lon="4.99163">
        <ele>49.1</ele>
        <time>2015-06-24T06:56:28Z</time>
      </trkpt>
      <trkpt lat="44.10955" lon="4.99149">
        <ele>49.5</ele>
        <time>2015-06-24T06:56:34Z</time>
      </trkpt>
      <trkpt lat="44.10963" lon="4.99155">
        <ele>50.4</ele>
        <time>2015-06-24T06:56:46Z</time>
      </trkpt>
      <trkpt lat="44.10974" lon="4.99157">
        <ele>51.5</ele>
        <time>2015-06-24T06:57:07Z</time>
      </trkpt>
      <trkpt lat="44.10981" lon="4.99167">
        <ele>51.6</ele>
        <time>2015-06-24T06:57:11Z</time>
      </trkpt>
      <trkpt lat="44.10987" lon="4.99178">
        <ele>51.7</ele>
        <time>2015-06-24T06:57:14Z</time>
      </trkpt>
      <trkpt lat="44.10993" lon="4.99191">
        <ele>51.9</ele>
        <time>2015-06-24T06:57:18Z</time>
      </trkpt>
      <trkpt lat="44.11002" lon="4.99208">
        <ele>52.1</ele>
        <time>2015-06-24T06:57:22Z</time>
      </trkpt>
      <trkpt lat="44.11008" lon="4.9922">
        <ele>52.2</ele>
        <time>2015-06-24T06:57:25Z</time>
      </trkpt>
      <trkpt lat="44.11014" lon="4.99235">
        <ele>52.3</ele>
        <time>2015-06-24T06:57:28Z</time>
      </trkpt>
      <trkpt lat="44.11019" lon="4.99248">
        <ele>52.4</ele>
        <time>2015-06-24T06:57:32Z</time>
      </trkpt>
      <trkpt lat="44.11023" lon="4.99262">
        <ele>52.8</ele>
        <time>2015-06-24T06:57:36Z</time>
      </trkpt>
      <trkpt lat="44.11014" lon="4.99267">
        <ele>53.3</ele>
        <time>2015-06-24T06:57:40Z</time>
      </trkpt>
      <trkpt lat="44.1101" lon="4.99281">
        <ele>53.9</ele>
        <time>2015-06-24T06:57:47Z</time>
      </trkpt>
      <trkpt lat="44.11007" lon="4.99296">
        <ele>54</ele>
        <time>2015-06-24T06:57:52Z</time>
      </trkpt>
      <trkpt lat="44.11008" lon="4.99309">
        <ele>53.8</ele>
        <time>2015-06-24T06:57:56Z</time>
      </trkpt>
      <trkpt lat="44.1101" lon="4.99324">
        <ele>53.5</ele>
        <time>2015-06-24T06:58:00Z</time>
      </trkpt>
      <trkpt lat="44.11001" lon="4.99397">
        <ele>52</ele>
        <time>2015-06-24T06:58:07Z</time>
      </trkpt>
      <trkpt lat="44.10983" lon="4.99418">
        <ele>52.4</ele>
        <time>2015-06-24T06:58:12Z</time>
      </trkpt>
      <trkpt lat="44.10973" lon="4.99412">
        <ele>52.1</ele>
        <time>2015-06-24T06:58:16Z</time>
      </trkpt>
      <trkpt lat="44.10963" lon="4.99412">
        <ele>51.9</ele>
        <time>2015-06-24T06:58:20Z</time>
      </trkpt>
      <trkpt lat="44.10958" lon="4.99427">
        <ele>51.7</ele>
        <time>2015-06-24T06:58:25Z</time>
      </trkpt>
      <trkpt lat="44.10956" lon="4.9944">
        <ele>51.6</ele>
        <time>2015-06-24T06:58:28Z</time>
      </trkpt>
      <trkpt lat="44.10949" lon="4.9945">
        <ele>51.4</ele>
        <time>2015-06-24T06:58:34Z</time>
      </trkpt>
      <trkpt lat="44.10942" lon="4.99459">
        <ele>51</ele>
        <time>2015-06-24T06:58:41Z</time>
      </trkpt>
      <trkpt lat="44.10935" lon="4.99468">
        <ele>50.7</ele>
        <time>2015-06-24T06:58:46Z</time>
      </trkpt>
      <trkpt lat="44.10928" lon="4.99478">
        <ele>50.2</ele>
        <time>2015-06-24T06:58:51Z</time>
      </trkpt>
      <trkpt lat="44.10922" lon="4.99491">
        <ele>49.5</ele>
        <time>2015-06-24T06:58:57Z</time>
      </trkpt>
      <trkpt lat="44.1092" lon="4.99504">
        <ele>49.1</ele>
        <time>2015-06-24T06:59:02Z</time>
      </trkpt>
      <trkpt lat="44.10919" lon="4.99518">
        <ele>48.4</ele>
        <time>2015-06-24T06:59:08Z</time>
      </trkpt>
      <trkpt lat="44.10917" lon="4.99531">
        <ele>47.8</ele>
        <time>2015-06-24T06:59:13Z</time>
      </trkpt>
      <trkpt lat="44.10913" lon="4.99542">
        <ele>47.1</ele>
        <time>2015-06-24T06:59:20Z</time>
      </trkpt>
      <trkpt lat="44.10922" lon="4.99546">
        <ele>47.2</ele>
        <time>2015-06-24T06:59:28Z</time>
      </trkpt>
      <trkpt lat="44.10922" lon="4.9956">
        <ele>47.4</ele>
        <time>2015-06-24T06:59:41Z</time>
      </trkpt>
      <trkpt lat="44.10921" lon="4.99575">
        <ele>47.4</ele>
        <time>2015-06-24T06:59:46Z</time>
      </trkpt>
      <trkpt lat="44.10915" lon="4.99585">
        <ele>47.4</ele>
        <time>2015-06-24T06:59:51Z</time>
      </trkpt>
      <trkpt lat="44.10911" lon="4.99596">
        <ele>47.3</ele>
        <time>2015-06-24T06:59:56Z</time>
      </trkpt>
      <trkpt lat="44.10908" lon="4.99609">
        <ele>47.2</ele>
        <time>2015-06-24T07:00:02Z</time>
      </trkpt>
      <trkpt lat="44.10905" lon="4.99621">
        <ele>47.1</ele>
        <time>2015-06-24T07:00:08Z</time>
      </trkpt>
      <trkpt lat="44.10901" lon="4.99632">
        <ele>47</ele>
        <time>2015-06-24T07:00:14Z</time>
      </trkpt>
      <trkpt lat="44.10897" lon="4.99645">
        <ele>46.8</ele>
        <time>2015-06-24T07:00:21Z</time>
      </trkpt>
      <trkpt lat="44.10892" lon="4.99659">
        <ele>46.7</ele>
        <time>2015-06-24T07:00:28Z</time>
      </trkpt>
      <trkpt lat="44.10888" lon="4.99672">
        <ele>46.7</ele>
        <time>2015-06-24T07:00:35Z</time>
      </trkpt>
      <trkpt lat="44.10882" lon="4.99683">
        <ele>46.7</ele>
        <time>2015-06-24T07:00:41Z</time>
      </trkpt>
      <trkpt lat="44.10873" lon="4.99687">
        <ele>46.7</ele>
        <time>2015-06-24T07:00:48Z</time>
      </trkpt>
      <trkpt lat="44.10864" lon="4.99683">
        <ele>46.8</ele>
        <time>2015-06-24T07:00:56Z</time>
      </trkpt>
      <trkpt lat="44.10853" lon="4.99684">
        <ele>47.2</ele>
        <time>2015-06-24T07:01:03Z</time>
      </trkpt>
      <trkpt lat="44.10844" lon="4.99684">
        <ele>47.5</ele>
        <time>2015-06-24T07:01:09Z</time>
      </trkpt>
      <trkpt lat="44.10835" lon="4.99687">
        <ele>47.6</ele>
        <time>2015-06-24T07:01:16Z</time>
      </trkpt>
      <trkpt lat="44.10828" lon="4.99695">
        <ele>47.6</ele>
        <time>2015-06-24T07:01:24Z</time>
      </trkpt>
      <trkpt lat="44.10828" lon="4.99709">
        <ele>46.7</ele>
        <time>2015-06-24T07:02:04Z</time>
      </trkpt>
      <trkpt lat="44.10825" lon="4.99727">
        <ele>46.5</ele>
        <time>2015-06-24T07:02:09Z</time>
      </trkpt>
      <trkpt lat="44.10823" lon="4.99741">
        <ele>46.3</ele>
        <time>2015-06-24T07:02:13Z</time>
      </trkpt>
      <trkpt lat="44.1082" lon="4.99753">
        <ele>46.1</ele>
        <time>2015-06-24T07:02:17Z</time>
      </trkpt>
      <trkpt lat="44.10818" lon="4.99768">
        <ele>45.9</ele>
        <time>2015-06-24T07:02:22Z</time>
      </trkpt>
      <trkpt lat="44.10816" lon="4.9978">
        <ele>45.8</ele>
        <time>2015-06-24T07:02:28Z</time>
      </trkpt>
      <trkpt lat="44.10814" lon="4.99793">
        <ele>45.6</ele>
        <time>2015-06-24T07:02:42Z</time>
      </trkpt>
      <trkpt lat="44.10813" lon="4.99806">
        <ele>45.5</ele>
        <time>2015-06-24T07:02:49Z</time>
      </trkpt>
      <trkpt lat="44.1081" lon="4.99819">
        <ele>45.5</ele>
        <time>2015-06-24T07:02:56Z</time>
      </trkpt>
      <trkpt lat="44.10805" lon="4.9983">
        <ele>45.5</ele>
        <time>2015-06-24T07:03:05Z</time>
      </trkpt>
      <trkpt lat="44.10804" lon="4.99843">
        <ele>45.4</ele>
        <time>2015-06-24T07:03:11Z</time>
      </trkpt>
      <trkpt lat="44.10806" lon="4.99856">
        <ele>45.4</ele>
        <time>2015-06-24T07:03:18Z</time>
      </trkpt>
      <trkpt lat="44.10804" lon="4.99869">
        <ele>45.6</ele>
        <time>2015-06-24T07:03:26Z</time>
      </trkpt>
      <trkpt lat="44.10803" lon="4.99883">
        <ele>45.8</ele>
        <time>2015-06-24T07:03:34Z</time>
      </trkpt>
      <trkpt lat="44.108" lon="4.99896">
        <ele>45.8</ele>
        <time>2015-06-24T07:03:41Z</time>
      </trkpt>
      <trkpt lat="44.10798" lon="4.99908">
        <ele>45.9</ele>
        <time>2015-06-24T07:03:48Z</time>
      </trkpt>
      <trkpt lat="44.10795" lon="4.99921">
        <ele>45.9</ele>
        <time>2015-06-24T07:03:55Z</time>
      </trkpt>
      <trkpt lat="44.10789" lon="4.99933">
        <ele>46</ele>
        <time>2015-06-24T07:04:01Z</time>
      </trkpt>
      <trkpt lat="44.10786" lon="4.99946">
        <ele>46</ele>
        <time>2015-06-24T07:04:08Z</time>
      </trkpt>
      <trkpt lat="44.10784" lon="4.99959">
        <ele>46</ele>
        <time>2015-06-24T07:04:15Z</time>
      </trkpt>
      <trkpt lat="44.10784" lon="4.99972">
        <ele>46</ele>
        <time>2015-06-24T07:04:24Z</time>
      </trkpt>
      <trkpt lat="44.10781" lon="4.99985">
        <ele>46</ele>
        <time>2015-06-24T07:04:31Z</time>
      </trkpt>
      <trkpt lat="44.10779" lon="5">
        <ele>46.1</ele>
        <time>2015-06-24T07:04:38Z</time>
      </trkpt>
      <trkpt lat="44.10777" lon="5.00012">
        <ele>46.1</ele>
        <time>2015-06-24T07:04:44Z</time>
      </trkpt>
      <trkpt lat="44.10774" lon="5.00025">
        <ele>46</ele>
        <time>2015-06-24T07:04:51Z</time>
      </trkpt>
      <trkpt lat="44.1077" lon="5.00038">
        <ele>45.9</ele>
        <time>2015-06-24T07:04:58Z</time>
      </trkpt>
      <trkpt lat="44.10767" lon="5.0005">
        <ele>46.3</ele>
        <time>2015-06-24T07:05:06Z</time>
      </trkpt>
      <trkpt lat="44.10765" lon="5.00063">
        <ele>46.8</ele>
        <time>2015-06-24T07:05:13Z</time>
      </trkpt>
      <trkpt lat="44.10763" lon="5.00077">
        <ele>47.3</ele>
        <time>2015-06-24T07:05:22Z</time>
      </trkpt>
      <trkpt lat="44.10762" lon="5.0009">
        <ele>48</ele>
        <time>2015-06-24T07:05:32Z</time>
      </trkpt>
      <trkpt lat="44.10761" lon="5.00104">
        <ele>48.2</ele>
        <time>2015-06-24T07:05:40Z</time>
      </trkpt>
      <trkpt lat="44.10758" lon="5.00116">
        <ele>48.3</ele>
        <time>2015-06-24T07:05:49Z</time>
      </trkpt>
      <trkpt lat="44.10759" lon="5.00129">
        <ele>48.3</ele>
        <time>2015-06-24T07:05:57Z</time>
      </trkpt>
      <trkpt lat="44.10756" lon="5.00144">
        <ele>48.3</ele>
        <time>2015-06-24T07:06:03Z</time>
      </trkpt>
      <trkpt lat="44.10753" lon="5.00156">
        <ele>48.3</ele>
        <time>2015-06-24T07:06:12Z</time>
      </trkpt>
      <trkpt lat="44.10751" lon="5.00169">
        <ele>48.3</ele>
        <time>2015-06-24T07:06:20Z</time>
      </trkpt>
      <trkpt lat="44.10747" lon="5.00181">
        <ele>48.2</ele>
        <time>2015-06-24T07:06:28Z</time>
      </trkpt>
      <trkpt lat="44.10741" lon="5.00192">
        <ele>48</ele>
        <time>2015-06-24T07:06:34Z</time>
      </trkpt>
      <trkpt lat="44.10737" lon="5.00205">
        <ele>47.8</ele>
        <time>2015-06-24T07:06:44Z</time>
      </trkpt>
      <trkpt lat="44.10733" lon="5.00217">
        <ele>47.7</ele>
        <time>2015-06-24T07:06:52Z</time>
      </trkpt>
      <trkpt lat="44.10728" lon="5.00229">
        <ele>47.6</ele>
        <time>2015-06-24T07:06:58Z</time>
      </trkpt>
      <trkpt lat="44.10722" lon="5.00241">
        <ele>47.6</ele>
        <time>2015-06-24T07:07:06Z</time>
      </trkpt>
      <trkpt lat="44.10719" lon="5.00253">
        <ele>47.6</ele>
        <time>2015-06-24T07:07:14Z</time>
      </trkpt>
      <trkpt lat="44.10716" lon="5.00264">
        <ele>50.3</ele>
        <time>2015-06-24T07:07:35Z</time>
      </trkpt>
      <trkpt lat="44.10713" lon="5.00277">
        <ele>51.4</ele>
        <time>2015-06-24T07:07:44Z</time>
      </trkpt>
      <trkpt lat="44.10707" lon="5.00288">
        <ele>52.8</ele>
        <time>2015-06-24T07:07:58Z</time>
      </trkpt>
      <trkpt lat="44.10704" lon="5.00302">
        <ele>53.1</ele>
        <time>2015-06-24T07:08:05Z</time>
      </trkpt>
      <trkpt lat="44.10699" lon="5.00312">
        <ele>53.2</ele>
        <time>2015-06-24T07:08:11Z</time>
      </trkpt>
      <trkpt lat="44.10696" lon="5.00326">
        <ele>52.5</ele>
        <time>2015-06-24T07:08:26Z</time>
      </trkpt>
      <trkpt lat="44.10691" lon="5.00339">
        <ele>51.9</ele>
        <time>2015-06-24T07:08:33Z</time>
      </trkpt>
      <trkpt lat="44.10689" lon="5.00352">
        <ele>51.2</ele>
        <time>2015-06-24T07:08:40Z</time>
      </trkpt>
      <trkpt lat="44.10686" lon="5.00366">
        <ele>50.8</ele>
        <time>2015-06-24T07:08:47Z</time>
      </trkpt>
      <trkpt lat="44.10681" lon="5.00377">
        <ele>50.4</ele>
        <time>2015-06-24T07:08:54Z</time>
      </trkpt>
      <trkpt lat="44.1068" lon="5.0039">
        <ele>50.1</ele>
        <time>2015-06-24T07:09:01Z</time>
      </trkpt>
      <trkpt lat="44.10679" lon="5.00404">
        <ele>49.9</ele>
        <time>2015-06-24T07:09:10Z</time>
      </trkpt>
      <trkpt lat="44.10678" lon="5.00417">
        <ele>49.7</ele>
        <time>2015-06-24T07:09:17Z</time>
      </trkpt>
      <trkpt lat="44.10679" lon="5.0043">
        <ele>49.4</ele>
        <time>2015-06-24T07:09:25Z</time>
      </trkpt>
      <trkpt lat="44.10676" lon="5.00443">
        <ele>49.3</ele>
        <time>2015-06-24T07:09:32Z</time>
      </trkpt>
      <trkpt lat="44.10673" lon="5.00455">
        <ele>49.2</ele>
        <time>2015-06-24T07:09:38Z</time>
      </trkpt>
      <trkpt lat="44.10669" lon="5.00468">
        <ele>49.2</ele>
        <time>2015-06-24T07:09:45Z</time>
      </trkpt>
      <trkpt lat="44.1067" lon="5.00481">
        <ele>49.1</ele>
        <time>2015-06-24T07:09:53Z</time>
      </trkpt>
      <trkpt lat="44.1067" lon="5.00494">
        <ele>49.1</ele>
        <time>2015-06-24T07:10:02Z</time>
      </trkpt>
      <trkpt lat="44.10666" lon="5.00507">
        <ele>49.1</ele>
        <time>2015-06-24T07:10:08Z</time>
      </trkpt>
      <trkpt lat="44.10663" lon="5.00519">
        <ele>49.1</ele>
        <time>2015-06-24T07:10:14Z</time>
      </trkpt>
      <trkpt lat="44.10661" lon="5.00531">
        <ele>49.1</ele>
        <time>2015-06-24T07:10:20Z</time>
      </trkpt>
      <trkpt lat="44.10658" lon="5.00545">
        <ele>49.1</ele>
        <time>2015-06-24T07:10:26Z</time>
      </trkpt>
      <trkpt lat="44.10656" lon="5.00558">
        <ele>49.1</ele>
        <time>2015-06-24T07:10:33Z</time>
      </trkpt>
      <trkpt lat="44.10655" lon="5.00572">
        <ele>49.1</ele>
        <time>2015-06-24T07:10:41Z</time>
      </trkpt>
      <trkpt lat="44.10652" lon="5.00585">
        <ele>49.1</ele>
        <time>2015-06-24T07:10:50Z</time>
      </trkpt>
      <trkpt lat="44.10648" lon="5.00596">
        <ele>49.1</ele>
        <time>2015-06-24T07:10:56Z</time>
      </trkpt>
      <trkpt lat="44.10648" lon="5.00609">
        <ele>49.1</ele>
        <time>2015-06-24T07:11:02Z</time>
      </trkpt>
      <trkpt lat="44.1065" lon="5.00622">
        <ele>49.1</ele>
        <time>2015-06-24T07:11:11Z</time>
      </trkpt>
      <trkpt lat="44.10654" lon="5.00633">
        <ele>49.1</ele>
        <time>2015-06-24T07:11:18Z</time>
      </trkpt>
      <trkpt lat="44.10658" lon="5.00646">
        <ele>49.5</ele>
        <time>2015-06-24T07:11:27Z</time>
      </trkpt>
      <trkpt lat="44.10665" lon="5.00656">
        <ele>50.3</ele>
        <time>2015-06-24T07:11:37Z</time>
      </trkpt>
      <trkpt lat="44.10672" lon="5.00665">
        <ele>50.9</ele>
        <time>2015-06-24T07:11:42Z</time>
      </trkpt>
      <trkpt lat="44.1068" lon="5.00673">
        <ele>51.7</ele>
        <time>2015-06-24T07:11:49Z</time>
      </trkpt>
      <trkpt lat="44.10689" lon="5.00679">
        <ele>52.1</ele>
        <time>2015-06-24T07:11:54Z</time>
      </trkpt>
      <trkpt lat="44.10698" lon="5.00684">
        <ele>52.2</ele>
        <time>2015-06-24T07:11:57Z</time>
      </trkpt>
      <trkpt lat="44.10707" lon="5.00691">
        <ele>52.4</ele>
        <time>2015-06-24T07:12:01Z</time>
      </trkpt>
      <trkpt lat="44.10717" lon="5.00699">
        <ele>52.8</ele>
        <time>2015-06-24T07:12:05Z</time>
      </trkpt>
      <trkpt lat="44.10726" lon="5.00707">
        <ele>53.3</ele>
        <time>2015-06-24T07:12:09Z</time>
      </trkpt>
      <trkpt lat="44.10733" lon="5.00715">
        <ele>53.7</ele>
        <time>2015-06-24T07:12:12Z</time>
      </trkpt>
      <trkpt lat="44.10741" lon="5.00722">
        <ele>54.1</ele>
        <time>2015-06-24T07:12:15Z</time>
      </trkpt>
      <trkpt lat="44.1075" lon="5.00729">
        <ele>54.6</ele>
        <time>2015-06-24T07:12:18Z</time>
      </trkpt>
      <trkpt lat="44.1076" lon="5.00734">
        <ele>54.8</ele>
        <time>2015-06-24T07:12:20Z</time>
      </trkpt>
      <trkpt lat="44.1077" lon="5.00739">
        <ele>55.1</ele>
        <time>2015-06-24T07:12:23Z</time>
      </trkpt>
      <trkpt lat="44.10778" lon="5.00746">
        <ele>55.3</ele>
        <time>2015-06-24T07:12:26Z</time>
      </trkpt>
      <trkpt lat="44.10789" lon="5.00753">
        <ele>55.5</ele>
        <time>2015-06-24T07:12:29Z</time>
      </trkpt>
      <trkpt lat="44.10798" lon="5.00761">
        <ele>55.9</ele>
        <time>2015-06-24T07:12:32Z</time>
      </trkpt>
      <trkpt lat="44.10807" lon="5.00767">
        <ele>56.2</ele>
        <time>2015-06-24T07:12:35Z</time>
      </trkpt>
      <trkpt lat="44.10816" lon="5.00775">
        <ele>56.5</ele>
        <time>2015-06-24T07:12:39Z</time>
      </trkpt>
      <trkpt lat="44.10824" lon="5.00782">
        <ele>56.8</ele>
        <time>2015-06-24T07:12:42Z</time>
      </trkpt>
      <trkpt lat="44.10833" lon="5.0079">
        <ele>57</ele>
        <time>2015-06-24T07:12:45Z</time>
      </trkpt>
      <trkpt lat="44.10842" lon="5.008">
        <ele>57.2</ele>
        <time>2015-06-24T07:12:48Z</time>
      </trkpt>
      <trkpt lat="44.10852" lon="5.00811">
        <ele>57.4</ele>
        <time>2015-06-24T07:12:51Z</time>
      </trkpt>
      <trkpt lat="44.10859" lon="5.0082">
        <ele>57.5</ele>
        <time>2015-06-24T07:12:54Z</time>
      </trkpt>
      <trkpt lat="44.10867" lon="5.0083">
        <ele>57.6</ele>
        <time>2015-06-24T07:12:57Z</time>
      </trkpt>
      <trkpt lat="44.10877" lon="5.00837">
        <ele>57.7</ele>
        <time>2015-06-24T07:13:00Z</time>
      </trkpt>
      <trkpt lat="44.10886" lon="5.00846">
        <ele>57.8</ele>
        <time>2015-06-24T07:13:03Z</time>
      </trkpt>
      <trkpt lat="44.10895" lon="5.00854">
        <ele>57.8</ele>
        <time>2015-06-24T07:13:06Z</time>
      </trkpt>
      <trkpt lat="44.10903" lon="5.00863">
        <ele>57.9</ele>
        <time>2015-06-24T07:13:09Z</time>
      </trkpt>
      <trkpt lat="44.10912" lon="5.00873">
        <ele>58</ele>
        <time>2015-06-24T07:13:13Z</time>
      </trkpt>
      <trkpt lat="44.1092" lon="5.0088">
        <ele>58.2</ele>
        <time>2015-06-24T07:13:16Z</time>
      </trkpt>
      <trkpt lat="44.10928" lon="5.00889">
        <ele>58.4</ele>
        <time>2015-06-24T07:13:19Z</time>
      </trkpt>
      <trkpt lat="44.10937" lon="5.00893">
        <ele>58.6</ele>
        <time>2015-06-24T07:13:21Z</time>
      </trkpt>
      <trkpt lat="44.10945" lon="5.00901">
        <ele>58.8</ele>
        <time>2015-06-24T07:13:23Z</time>
      </trkpt>
      <trkpt lat="44.10953" lon="5.00908">
        <ele>59</ele>
        <time>2015-06-24T07:13:26Z</time>
      </trkpt>
      <trkpt lat="44.10961" lon="5.00917">
        <ele>59.6</ele>
        <time>2015-06-24T07:13:33Z</time>
      </trkpt>
      <trkpt lat="44.10969" lon="5.00923">
        <ele>60.1</ele>
        <time>2015-06-24T07:13:42Z</time>
      </trkpt>
      <trkpt lat="44.10978" lon="5.00932">
        <ele>59.8</ele>
        <time>2015-06-24T07:15:27Z</time>
      </trkpt>
      <trkpt lat="44.11025" lon="5.00971">
        <ele>59</ele>
        <time>2015-06-24T07:15:33Z</time>
      </trkpt>
      <trkpt lat="44.11054" lon="5.00994">
        <ele>59.8</ele>
        <time>2015-06-24T07:15:38Z</time>
      </trkpt>
      <trkpt lat="44.11062" lon="5.00999">
        <ele>59.9</ele>
        <time>2015-06-24T07:15:40Z</time>
      </trkpt>
      <trkpt lat="44.11069" lon="5.01008">
        <ele>59.9</ele>
        <time>2015-06-24T07:15:42Z</time>
      </trkpt>
      <trkpt lat="44.11078" lon="5.01015">
        <ele>59.9</ele>
        <time>2015-06-24T07:15:46Z</time>
      </trkpt>
      <trkpt lat="44.11085" lon="5.01025">
        <ele>59.7</ele>
        <time>2015-06-24T07:15:50Z</time>
      </trkpt>
      <trkpt lat="44.11092" lon="5.01034">
        <ele>59.4</ele>
        <time>2015-06-24T07:15:53Z</time>
      </trkpt>
      <trkpt lat="44.111" lon="5.01046">
        <ele>59</ele>
        <time>2015-06-24T07:15:59Z</time>
      </trkpt>
      <trkpt lat="44.1111" lon="5.01052">
        <ele>58.7</ele>
        <time>2015-06-24T07:16:04Z</time>
      </trkpt>
      <trkpt lat="44.11119" lon="5.01053">
        <ele>58.6</ele>
        <time>2015-06-24T07:16:09Z</time>
      </trkpt>
      <trkpt lat="44.11124" lon="5.01064">
        <ele>58.7</ele>
        <time>2015-06-24T07:16:23Z</time>
      </trkpt>
      <trkpt lat="44.11129" lon="5.01076">
        <ele>58.8</ele>
        <time>2015-06-24T07:16:30Z</time>
      </trkpt>
      <trkpt lat="44.11136" lon="5.01086">
        <ele>58.9</ele>
        <time>2015-06-24T07:16:36Z</time>
      </trkpt>
      <trkpt lat="44.11142" lon="5.01097">
        <ele>59.1</ele>
        <time>2015-06-24T07:16:42Z</time>
      </trkpt>
      <trkpt lat="44.11149" lon="5.01108">
        <ele>59.3</ele>
        <time>2015-06-24T07:16:48Z</time>
      </trkpt>
      <trkpt lat="44.11154" lon="5.01118">
        <ele>59.6</ele>
        <time>2015-06-24T07:16:55Z</time>
      </trkpt>
      <trkpt lat="44.11162" lon="5.01127">
        <ele>59.8</ele>
        <time>2015-06-24T07:17:01Z</time>
      </trkpt>
      <trkpt lat="44.11169" lon="5.01136">
        <ele>59.8</ele>
        <time>2015-06-24T07:17:08Z</time>
      </trkpt>
      <trkpt lat="44.11174" lon="5.01147">
        <ele>59.6</ele>
        <time>2015-06-24T07:17:14Z</time>
      </trkpt>
      <trkpt lat="44.11178" lon="5.01158">
        <ele>59.2</ele>
        <time>2015-06-24T07:17:20Z</time>
      </trkpt>
      <trkpt lat="44.11183" lon="5.01171">
        <ele>58.8</ele>
        <time>2015-06-24T07:17:27Z</time>
      </trkpt>
      <trkpt lat="44.11188" lon="5.01183">
        <ele>58.5</ele>
        <time>2015-06-24T07:17:35Z</time>
      </trkpt>
      <trkpt lat="44.11193" lon="5.01195">
        <ele>58.4</ele>
        <time>2015-06-24T07:17:43Z</time>
      </trkpt>
      <trkpt lat="44.11197" lon="5.01207">
        <ele>58.5</ele>
        <time>2015-06-24T07:17:50Z</time>
      </trkpt>
      <trkpt lat="44.11203" lon="5.01219">
        <ele>58.9</ele>
        <time>2015-06-24T07:17:57Z</time>
      </trkpt>
      <trkpt lat="44.11206" lon="5.01231">
        <ele>59.5</ele>
        <time>2015-06-24T07:18:04Z</time>
      </trkpt>
      <trkpt lat="44.11211" lon="5.01242">
        <ele>60.3</ele>
        <time>2015-06-24T07:18:11Z</time>
      </trkpt>
      <trkpt lat="44.11217" lon="5.01254">
        <ele>60.8</ele>
        <time>2015-06-24T07:18:17Z</time>
      </trkpt>
      <trkpt lat="44.11222" lon="5.01264">
        <ele>60.9</ele>
        <time>2015-06-24T07:18:23Z</time>
      </trkpt>
      <trkpt lat="44.11226" lon="5.01276">
        <ele>60.7</ele>
        <time>2015-06-24T07:18:31Z</time>
      </trkpt>
      <trkpt lat="44.11228" lon="5.01289">
        <ele>60.9</ele>
        <time>2015-06-24T07:18:40Z</time>
      </trkpt>
      <trkpt lat="44.11234" lon="5.013">
        <ele>61.3</ele>
        <time>2015-06-24T07:18:46Z</time>
      </trkpt>
      <trkpt lat="44.11236" lon="5.01313">
        <ele>61.7</ele>
        <time>2015-06-24T07:18:53Z</time>
      </trkpt>
      <trkpt lat="44.1124" lon="5.01326">
        <ele>62</ele>
        <time>2015-06-24T07:19:00Z</time>
      </trkpt>
      <trkpt lat="44.11246" lon="5.01336">
        <ele>62.1</ele>
        <time>2015-06-24T07:19:06Z</time>
      </trkpt>
      <trkpt lat="44.11252" lon="5.01346">
        <ele>62.1</ele>
        <time>2015-06-24T07:19:13Z</time>
      </trkpt>
      <trkpt lat="44.11257" lon="5.01357">
        <ele>62</ele>
        <time>2015-06-24T07:19:19Z</time>
      </trkpt>
      <trkpt lat="44.1126" lon="5.01371">
        <ele>61.9</ele>
        <time>2015-06-24T07:19:26Z</time>
      </trkpt>
      <trkpt lat="44.11264" lon="5.01384">
        <ele>61.8</ele>
        <time>2015-06-24T07:19:33Z</time>
      </trkpt>
      <trkpt lat="44.11267" lon="5.01397">
        <ele>61.7</ele>
        <time>2015-06-24T07:19:39Z</time>
      </trkpt>
      <trkpt lat="44.11271" lon="5.01411">
        <ele>61.7</ele>
        <time>2015-06-24T07:19:47Z</time>
      </trkpt>
      <trkpt lat="44.11276" lon="5.01423">
        <ele>61.6</ele>
        <time>2015-06-24T07:19:53Z</time>
      </trkpt>
      <trkpt lat="44.1128" lon="5.01435">
        <ele>61.2</ele>
        <time>2015-06-24T07:20:00Z</time>
      </trkpt>
      <trkpt lat="44.11284" lon="5.01447">
        <ele>60.9</ele>
        <time>2015-06-24T07:20:06Z</time>
      </trkpt>
      <trkpt lat="44.11287" lon="5.0146">
        <ele>60.7</ele>
        <time>2015-06-24T07:20:13Z</time>
      </trkpt>
      <trkpt lat="44.11291" lon="5.01473">
        <ele>60.6</ele>
        <time>2015-06-24T07:20:21Z</time>
      </trkpt>
      <trkpt lat="44.11291" lon="5.01487">
        <ele>61</ele>
        <time>2015-06-24T07:20:30Z</time>
      </trkpt>
      <trkpt lat="44.11297" lon="5.01498">
        <ele>61.6</ele>
        <time>2015-06-24T07:20:36Z</time>
      </trkpt>
      <trkpt lat="44.11301" lon="5.01511">
        <ele>62.4</ele>
        <time>2015-06-24T07:20:44Z</time>
      </trkpt>
      <trkpt lat="44.11305" lon="5.01522">
        <ele>63.2</ele>
        <time>2015-06-24T07:20:51Z</time>
      </trkpt>
      <trkpt lat="44.11312" lon="5.01534">
        <ele>63.8</ele>
        <time>2015-06-24T07:20:58Z</time>
      </trkpt>
      <trkpt lat="44.11319" lon="5.01548">
        <ele>64</ele>
        <time>2015-06-24T07:21:01Z</time>
      </trkpt>
      <trkpt lat="44.11324" lon="5.01559">
        <ele>64.1</ele>
        <time>2015-06-24T07:21:04Z</time>
      </trkpt>
      <trkpt lat="44.11328" lon="5.01571">
        <ele>64.3</ele>
        <time>2015-06-24T07:21:09Z</time>
      </trkpt>
      <trkpt lat="44.11334" lon="5.01587">
        <ele>64.4</ele>
        <time>2015-06-24T07:21:13Z</time>
      </trkpt>
      <trkpt lat="44.11341" lon="5.01598">
        <ele>64.5</ele>
        <time>2015-06-24T07:21:16Z</time>
      </trkpt>
      <trkpt lat="44.11347" lon="5.01612">
        <ele>64.5</ele>
        <time>2015-06-24T07:21:19Z</time>
      </trkpt>
      <trkpt lat="44.11353" lon="5.01627">
        <ele>64.7</ele>
        <time>2015-06-24T07:21:22Z</time>
      </trkpt>
      <trkpt lat="44.11359" lon="5.0164">
        <ele>64.7</ele>
        <time>2015-06-24T07:21:25Z</time>
      </trkpt>
      <trkpt lat="44.11365" lon="5.01653">
        <ele>64.9</ele>
        <time>2015-06-24T07:21:29Z</time>
      </trkpt>
      <trkpt lat="44.11371" lon="5.01664">
        <ele>65.2</ele>
        <time>2015-06-24T07:21:32Z</time>
      </trkpt>
      <trkpt lat="44.11377" lon="5.01676">
        <ele>65.5</ele>
        <time>2015-06-24T07:21:35Z</time>
      </trkpt>
      <trkpt lat="44.1138" lon="5.01691">
        <ele>65.8</ele>
        <time>2015-06-24T07:21:38Z</time>
      </trkpt>
      <trkpt lat="44.11382" lon="5.01708">
        <ele>66.3</ele>
        <time>2015-06-24T07:21:41Z</time>
      </trkpt>
      <trkpt lat="44.11388" lon="5.01719">
        <ele>66.7</ele>
        <time>2015-06-24T07:21:43Z</time>
      </trkpt>
      <trkpt lat="44.11394" lon="5.01734">
        <ele>67.2</ele>
        <time>2015-06-24T07:21:46Z</time>
      </trkpt>
      <trkpt lat="44.114" lon="5.01747">
        <ele>67.7</ele>
        <time>2015-06-24T07:21:49Z</time>
      </trkpt>
      <trkpt lat="44.11407" lon="5.0176">
        <ele>68.1</ele>
        <time>2015-06-24T07:21:52Z</time>
      </trkpt>
      <trkpt lat="44.11413" lon="5.01774">
        <ele>68.6</ele>
        <time>2015-06-24T07:21:55Z</time>
      </trkpt>
      <trkpt lat="44.11419" lon="5.01785">
        <ele>69.3</ele>
        <time>2015-06-24T07:22:00Z</time>
      </trkpt>
      <trkpt lat="44.11425" lon="5.01796">
        <ele>69.5</ele>
        <time>2015-06-24T07:22:06Z</time>
      </trkpt>
      <trkpt lat="44.11433" lon="5.01802">
        <ele>69.6</ele>
        <time>2015-06-24T07:22:12Z</time>
      </trkpt>
      <trkpt lat="44.11441" lon="5.01809">
        <ele>69.7</ele>
        <time>2015-06-24T07:22:18Z</time>
      </trkpt>
      <trkpt lat="44.1145" lon="5.01805">
        <ele>69.8</ele>
        <time>2015-06-24T07:22:26Z</time>
      </trkpt>
      <trkpt lat="44.11459" lon="5.01799">
        <ele>69.9</ele>
        <time>2015-06-24T07:22:35Z</time>
      </trkpt>
      <trkpt lat="44.11468" lon="5.01794">
        <ele>70</ele>
        <time>2015-06-24T07:22:42Z</time>
      </trkpt>
      <trkpt lat="44.11475" lon="5.01786">
        <ele>70.1</ele>
        <time>2015-06-24T07:22:48Z</time>
      </trkpt>
      <trkpt lat="44.11484" lon="5.01778">
        <ele>70.3</ele>
        <time>2015-06-24T07:22:55Z</time>
      </trkpt>
      <trkpt lat="44.11494" lon="5.01771">
        <ele>70.4</ele>
        <time>2015-06-24T07:23:02Z</time>
      </trkpt>
      <trkpt lat="44.11502" lon="5.01765">
        <ele>70.5</ele>
        <time>2015-06-24T07:23:08Z</time>
      </trkpt>
      <trkpt lat="44.11511" lon="5.0176">
        <ele>70.5</ele>
        <time>2015-06-24T07:23:14Z</time>
      </trkpt>
      <trkpt lat="44.11521" lon="5.01755">
        <ele>70.6</ele>
        <time>2015-06-24T07:23:20Z</time>
      </trkpt>
      <trkpt lat="44.11531" lon="5.01753">
        <ele>71</ele>
        <time>2015-06-24T07:23:28Z</time>
      </trkpt>
      <trkpt lat="44.11539" lon="5.01747">
        <ele>71.2</ele>
        <time>2015-06-24T07:23:34Z</time>
      </trkpt>
      <trkpt lat="44.11547" lon="5.01739">
        <ele>71.4</ele>
        <time>2015-06-24T07:23:41Z</time>
      </trkpt>
      <trkpt lat="44.11549" lon="5.01726">
        <ele>71.5</ele>
        <time>2015-06-24T07:23:47Z</time>
      </trkpt>
      <trkpt lat="44.11558" lon="5.01728">
        <ele>71</ele>
        <time>2015-06-24T07:24:24Z</time>
      </trkpt>
      <trkpt lat="44.11564" lon="5.01742">
        <ele>70.6</ele>
        <time>2015-06-24T07:24:30Z</time>
      </trkpt>
      <trkpt lat="44.11568" lon="5.01754">
        <ele>70.1</ele>
        <time>2015-06-24T07:24:36Z</time>
      </trkpt>
      <trkpt lat="44.11572" lon="5.01765">
        <ele>69.9</ele>
        <time>2015-06-24T07:24:43Z</time>
      </trkpt>
      <trkpt lat="44.11579" lon="5.01775">
        <ele>70.2</ele>
        <time>2015-06-24T07:24:52Z</time>
      </trkpt>
      <trkpt lat="44.11585" lon="5.01784">
        <ele>70.7</ele>
        <time>2015-06-24T07:25:00Z</time>
      </trkpt>
      <trkpt lat="44.11587" lon="5.01798">
        <ele>71.1</ele>
        <time>2015-06-24T07:25:09Z</time>
      </trkpt>
      <trkpt lat="44.1159" lon="5.01811">
        <ele>71.4</ele>
        <time>2015-06-24T07:25:16Z</time>
      </trkpt>
      <trkpt lat="44.11595" lon="5.01823">
        <ele>71.8</ele>
        <time>2015-06-24T07:25:23Z</time>
      </trkpt>
      <trkpt lat="44.11601" lon="5.01833">
        <ele>72.2</ele>
        <time>2015-06-24T07:25:29Z</time>
      </trkpt>
      <trkpt lat="44.11606" lon="5.01843">
        <ele>72.5</ele>
        <time>2015-06-24T07:25:34Z</time>
      </trkpt>
      <trkpt lat="44.11611" lon="5.01855">
        <ele>72.8</ele>
        <time>2015-06-24T07:25:41Z</time>
      </trkpt>
      <trkpt lat="44.11616" lon="5.01868">
        <ele>73.1</ele>
        <time>2015-06-24T07:25:48Z</time>
      </trkpt>
      <trkpt lat="44.11622" lon="5.01877">
        <ele>73.4</ele>
        <time>2015-06-24T07:25:54Z</time>
      </trkpt>
      <trkpt lat="44.11625" lon="5.01891">
        <ele>73.9</ele>
        <time>2015-06-24T07:26:01Z</time>
      </trkpt>
      <trkpt lat="44.11632" lon="5.019">
        <ele>74.3</ele>
        <time>2015-06-24T07:26:07Z</time>
      </trkpt>
      <trkpt lat="44.11637" lon="5.01911">
        <ele>74.6</ele>
        <time>2015-06-24T07:26:13Z</time>
      </trkpt>
      <trkpt lat="44.11645" lon="5.0192">
        <ele>75</ele>
        <time>2015-06-24T07:26:20Z</time>
      </trkpt>
      <trkpt lat="44.1165" lon="5.01932">
        <ele>75.5</ele>
        <time>2015-06-24T07:26:29Z</time>
      </trkpt>
      <trkpt lat="44.11657" lon="5.01942">
        <ele>75.9</ele>
        <time>2015-06-24T07:26:39Z</time>
      </trkpt>
      <trkpt lat="44.11663" lon="5.01952">
        <ele>75.9</ele>
        <time>2015-06-24T07:26:47Z</time>
      </trkpt>
      <trkpt lat="44.1167" lon="5.01962">
        <ele>75.9</ele>
        <time>2015-06-24T07:26:55Z</time>
      </trkpt>
      <trkpt lat="44.11674" lon="5.01974">
        <ele>76</ele>
        <time>2015-06-24T07:27:02Z</time>
      </trkpt>
      <trkpt lat="44.11677" lon="5.01987">
        <ele>76.4</ele>
        <time>2015-06-24T07:27:11Z</time>
      </trkpt>
      <trkpt lat="44.11684" lon="5.01996">
        <ele>76.6</ele>
        <time>2015-06-24T07:27:17Z</time>
      </trkpt>
      <trkpt lat="44.1169" lon="5.02007">
        <ele>76.8</ele>
        <time>2015-06-24T07:27:25Z</time>
      </trkpt>
      <trkpt lat="44.11695" lon="5.02018">
        <ele>77.2</ele>
        <time>2015-06-24T07:27:35Z</time>
      </trkpt>
      <trkpt lat="44.11703" lon="5.02028">
        <ele>77.5</ele>
        <time>2015-06-24T07:27:42Z</time>
      </trkpt>
      <trkpt lat="44.11711" lon="5.02037">
        <ele>77.6</ele>
        <time>2015-06-24T07:27:48Z</time>
      </trkpt>
      <trkpt lat="44.11717" lon="5.02046">
        <ele>77.8</ele>
        <time>2015-06-24T07:27:54Z</time>
      </trkpt>
      <trkpt lat="44.11724" lon="5.02056">
        <ele>78</ele>
        <time>2015-06-24T07:27:59Z</time>
      </trkpt>
      <trkpt lat="44.1173" lon="5.02065">
        <ele>78.2</ele>
        <time>2015-06-24T07:28:05Z</time>
      </trkpt>
      <trkpt lat="44.11736" lon="5.02076">
        <ele>78.4</ele>
        <time>2015-06-24T07:28:12Z</time>
      </trkpt>
      <trkpt lat="44.11743" lon="5.02084">
        <ele>78.5</ele>
        <time>2015-06-24T07:28:17Z</time>
      </trkpt>
      <trkpt lat="44.11751" lon="5.02093">
        <ele>78.6</ele>
        <time>2015-06-24T07:28:24Z</time>
      </trkpt>
      <trkpt lat="44.11758" lon="5.02103">
        <ele>78.7</ele>
        <time>2015-06-24T07:28:32Z</time>
      </trkpt>
      <trkpt lat="44.11765" lon="5.02112">
        <ele>78.6</ele>
        <time>2015-06-24T07:28:38Z</time>
      </trkpt>
      <trkpt lat="44.1177" lon="5.02124">
        <ele>78.5</ele>
        <time>2015-06-24T07:28:46Z</time>
      </trkpt>
      <trkpt lat="44.11776" lon="5.02135">
        <ele>78.6</ele>
        <time>2015-06-24T07:28:54Z</time>
      </trkpt>
      <trkpt lat="44.11783" lon="5.02145">
        <ele>78.7</ele>
        <time>2015-06-24T07:29:02Z</time>
      </trkpt>
      <trkpt lat="44.11788" lon="5.02158">
        <ele>78.8</ele>
        <time>2015-06-24T07:29:10Z</time>
      </trkpt>
      <trkpt lat="44.11791" lon="5.02171">
        <ele>78.9</ele>
        <time>2015-06-24T07:29:19Z</time>
      </trkpt>
      <trkpt lat="44.11796" lon="5.02183">
        <ele>79.1</ele>
        <time>2015-06-24T07:29:25Z</time>
      </trkpt>
      <trkpt lat="44.11801" lon="5.02196">
        <ele>79.3</ele>
        <time>2015-06-24T07:29:32Z</time>
      </trkpt>
      <trkpt lat="44.11804" lon="5.02209">
        <ele>79.6</ele>
        <time>2015-06-24T07:29:40Z</time>
      </trkpt>
      <trkpt lat="44.11805" lon="5.02222">
        <ele>79.9</ele>
        <time>2015-06-24T07:29:46Z</time>
      </trkpt>
      <trkpt lat="44.11806" lon="5.02236">
        <ele>80.1</ele>
        <time>2015-06-24T07:29:53Z</time>
      </trkpt>
      <trkpt lat="44.11807" lon="5.02248">
        <ele>80.2</ele>
        <time>2015-06-24T07:30:00Z</time>
      </trkpt>
      <trkpt lat="44.11808" lon="5.02262">
        <ele>80.3</ele>
        <time>2015-06-24T07:30:07Z</time>
      </trkpt>
      <trkpt lat="44.1181" lon="5.02276">
        <ele>80.4</ele>
        <time>2015-06-24T07:30:14Z</time>
      </trkpt>
      <trkpt lat="44.11808" lon="5.02288">
        <ele>80</ele>
        <time>2015-06-24T07:30:19Z</time>
      </trkpt>
      <trkpt lat="44.11808" lon="5.02301">
        <ele>79.5</ele>
        <time>2015-06-24T07:30:25Z</time>
      </trkpt>
      <trkpt lat="44.11811" lon="5.02314">
        <ele>79.2</ele>
        <time>2015-06-24T07:30:31Z</time>
      </trkpt>
      <trkpt lat="44.11812" lon="5.02326">
        <ele>79.6</ele>
        <time>2015-06-24T07:30:40Z</time>
      </trkpt>
      <trkpt lat="44.11811" lon="5.0234">
        <ele>79.8</ele>
        <time>2015-06-24T07:30:47Z</time>
      </trkpt>
      <trkpt lat="44.11809" lon="5.02353">
        <ele>80</ele>
        <time>2015-06-24T07:30:54Z</time>
      </trkpt>
      <trkpt lat="44.11811" lon="5.02366">
        <ele>80.2</ele>
        <time>2015-06-24T07:31:02Z</time>
      </trkpt>
      <trkpt lat="44.11811" lon="5.02381">
        <ele>80.4</ele>
        <time>2015-06-24T07:31:10Z</time>
      </trkpt>
      <trkpt lat="44.1181" lon="5.02395">
        <ele>80.6</ele>
        <time>2015-06-24T07:31:16Z</time>
      </trkpt>
      <trkpt lat="44.11809" lon="5.02409">
        <ele>80.9</ele>
        <time>2015-06-24T07:31:22Z</time>
      </trkpt>
      <trkpt lat="44.1181" lon="5.02422">
        <ele>81</ele>
        <time>2015-06-24T07:31:28Z</time>
      </trkpt>
      <trkpt lat="44.11809" lon="5.02436">
        <ele>81.3</ele>
        <time>2015-06-24T07:31:34Z</time>
      </trkpt>
      <trkpt lat="44.11808" lon="5.02448">
        <ele>81.5</ele>
        <time>2015-06-24T07:31:41Z</time>
      </trkpt>
      <trkpt lat="44.11809" lon="5.02461">
        <ele>81.7</ele>
        <time>2015-06-24T07:31:49Z</time>
      </trkpt>
      <trkpt lat="44.1181" lon="5.02476">
        <ele>81.9</ele>
        <time>2015-06-24T07:31:59Z</time>
      </trkpt>
      <trkpt lat="44.1181" lon="5.0249">
        <ele>82.2</ele>
        <time>2015-06-24T07:32:07Z</time>
      </trkpt>
      <trkpt lat="44.1181" lon="5.02504">
        <ele>82.3</ele>
        <time>2015-06-24T07:32:14Z</time>
      </trkpt>
      <trkpt lat="44.1181" lon="5.02519">
        <ele>82.5</ele>
        <time>2015-06-24T07:32:21Z</time>
      </trkpt>
      <trkpt lat="44.11811" lon="5.02532">
        <ele>82.6</ele>
        <time>2015-06-24T07:32:30Z</time>
      </trkpt>
      <trkpt lat="44.11812" lon="5.02546">
        <ele>82.7</ele>
        <time>2015-06-24T07:32:36Z</time>
      </trkpt>
      <trkpt lat="44.11811" lon="5.0256">
        <ele>82.9</ele>
        <time>2015-06-24T07:32:43Z</time>
      </trkpt>
      <trkpt lat="44.11809" lon="5.02574">
        <ele>83.1</ele>
        <time>2015-06-24T07:32:49Z</time>
      </trkpt>
      <trkpt lat="44.1181" lon="5.02587">
        <ele>83.4</ele>
        <time>2015-06-24T07:32:56Z</time>
      </trkpt>
      <trkpt lat="44.11814" lon="5.02599">
        <ele>83.8</ele>
        <time>2015-06-24T07:33:01Z</time>
      </trkpt>
      <trkpt lat="44.1182" lon="5.02612">
        <ele>84.3</ele>
        <time>2015-06-24T07:33:08Z</time>
      </trkpt>
      <trkpt lat="44.11827" lon="5.02621">
        <ele>84.5</ele>
        <time>2015-06-24T07:33:13Z</time>
      </trkpt>
      <trkpt lat="44.11834" lon="5.0263">
        <ele>84.8</ele>
        <time>2015-06-24T07:33:20Z</time>
      </trkpt>
      <trkpt lat="44.1184" lon="5.02641">
        <ele>85</ele>
        <time>2015-06-24T07:33:29Z</time>
      </trkpt>
      <trkpt lat="44.11846" lon="5.02651">
        <ele>85.2</ele>
        <time>2015-06-24T07:33:36Z</time>
      </trkpt>
      <trkpt lat="44.11853" lon="5.02659">
        <ele>85.3</ele>
        <time>2015-06-24T07:33:43Z</time>
      </trkpt>
      <trkpt lat="44.11862" lon="5.02667">
        <ele>85.5</ele>
        <time>2015-06-24T07:33:50Z</time>
      </trkpt>
      <trkpt lat="44.1187" lon="5.02674">
        <ele>85.9</ele>
        <time>2015-06-24T07:33:56Z</time>
      </trkpt>
      <trkpt lat="44.11879" lon="5.02678">
        <ele>86.3</ele>
        <time>2015-06-24T07:34:02Z</time>
      </trkpt>
      <trkpt lat="44.11889" lon="5.0268">
        <ele>86.9</ele>
        <time>2015-06-24T07:34:09Z</time>
      </trkpt>
      <trkpt lat="44.11898" lon="5.0268">
        <ele>87.4</ele>
        <time>2015-06-24T07:34:15Z</time>
      </trkpt>
      <trkpt lat="44.11908" lon="5.02679">
        <ele>88</ele>
        <time>2015-06-24T07:34:22Z</time>
      </trkpt>
      <trkpt lat="44.11917" lon="5.02679">
        <ele>88.4</ele>
        <time>2015-06-24T07:34:28Z</time>
      </trkpt>
      <trkpt lat="44.11926" lon="5.02675">
        <ele>88.7</ele>
        <time>2015-06-24T07:34:36Z</time>
      </trkpt>
      <trkpt lat="44.11935" lon="5.02671">
        <ele>88.9</ele>
        <time>2015-06-24T07:34:41Z</time>
      </trkpt>
      <trkpt lat="44.11945" lon="5.02667">
        <ele>89.2</ele>
        <time>2015-06-24T07:34:48Z</time>
      </trkpt>
      <trkpt lat="44.11954" lon="5.02663">
        <ele>89.6</ele>
        <time>2015-06-24T07:34:55Z</time>
      </trkpt>
      <trkpt lat="44.11962" lon="5.02657">
        <ele>90</ele>
        <time>2015-06-24T07:35:02Z</time>
      </trkpt>
      <trkpt lat="44.11971" lon="5.02653">
        <ele>90.8</ele>
        <time>2015-06-24T07:35:10Z</time>
      </trkpt>
      <trkpt lat="44.11979" lon="5.02648">
        <ele>91.4</ele>
        <time>2015-06-24T07:35:17Z</time>
      </trkpt>
      <trkpt lat="44.11988" lon="5.02645">
        <ele>91.7</ele>
        <time>2015-06-24T07:35:24Z</time>
      </trkpt>
      <trkpt lat="44.11998" lon="5.02642">
        <ele>92</ele>
        <time>2015-06-24T07:35:33Z</time>
      </trkpt>
      <trkpt lat="44.12007" lon="5.02638">
        <ele>92.2</ele>
        <time>2015-06-24T07:35:40Z</time>
      </trkpt>
      <trkpt lat="44.12016" lon="5.02635">
        <ele>92.4</ele>
        <time>2015-06-24T07:35:47Z</time>
      </trkpt>
      <trkpt lat="44.12027" lon="5.02631">
        <ele>92.8</ele>
        <time>2015-06-24T07:35:54Z</time>
      </trkpt>
      <trkpt lat="44.12036" lon="5.02629">
        <ele>92.9</ele>
        <time>2015-06-24T07:35:59Z</time>
      </trkpt>
      <trkpt lat="44.12046" lon="5.02625">
        <ele>93.1</ele>
        <time>2015-06-24T07:36:06Z</time>
      </trkpt>
      <trkpt lat="44.12055" lon="5.02624">
        <ele>93.3</ele>
        <time>2015-06-24T07:36:14Z</time>
      </trkpt>
      <trkpt lat="44.12065" lon="5.02623">
        <ele>93.5</ele>
        <time>2015-06-24T07:36:21Z</time>
      </trkpt>
      <trkpt lat="44.12072" lon="5.02632">
        <ele>93.7</ele>
        <time>2015-06-24T07:36:30Z</time>
      </trkpt>
      <trkpt lat="44.12067" lon="5.02643">
        <ele>93.9</ele>
        <time>2015-06-24T07:36:38Z</time>
      </trkpt>
      <trkpt lat="44.12065" lon="5.02657">
        <ele>93.9</ele>
        <time>2015-06-24T07:36:45Z</time>
      </trkpt>
      <trkpt lat="44.12066" lon="5.02671">
        <ele>93.7</ele>
        <time>2015-06-24T07:36:52Z</time>
      </trkpt>
      <trkpt lat="44.12064" lon="5.02685">
        <ele>93.6</ele>
        <time>2015-06-24T07:36:59Z</time>
      </trkpt>
      <trkpt lat="44.12059" lon="5.02697">
        <ele>93.6</ele>
        <time>2015-06-24T07:37:06Z</time>
      </trkpt>
      <trkpt lat="44.12059" lon="5.02711">
        <ele>93.6</ele>
        <time>2015-06-24T07:37:13Z</time>
      </trkpt>
      <trkpt lat="44.12061" lon="5.02723">
        <ele>93.6</ele>
        <time>2015-06-24T07:37:20Z</time>
      </trkpt>
      <trkpt lat="44.12066" lon="5.02737">
        <ele>93.7</ele>
        <time>2015-06-24T07:37:50Z</time>
      </trkpt>
      <trkpt lat="44.12057" lon="5.02741">
        <ele>94.9</ele>
        <time>2015-06-24T07:39:12Z</time>
      </trkpt>
      <trkpt lat="44.12066" lon="5.02745">
        <ele>97.7</ele>
        <time>2015-06-24T07:45:28Z</time>
      </trkpt>
      <trkpt lat="44.12076" lon="5.02746">
        <ele>97.5</ele>
        <time>2015-06-24T07:45:35Z</time>
      </trkpt>
      <trkpt lat="44.12083" lon="5.02755">
        <ele>97.3</ele>
        <time>2015-06-24T07:45:42Z</time>
      </trkpt>
      <trkpt lat="44.12087" lon="5.02768">
        <ele>97.5</ele>
        <time>2015-06-24T07:45:49Z</time>
      </trkpt>
      <trkpt lat="44.12089" lon="5.02781">
        <ele>97.7</ele>
        <time>2015-06-24T07:45:56Z</time>
      </trkpt>
      <trkpt lat="44.12092" lon="5.02794">
        <ele>97.9</ele>
        <time>2015-06-24T07:46:03Z</time>
      </trkpt>
      <trkpt lat="44.12094" lon="5.02807">
        <ele>98</ele>
        <time>2015-06-24T07:46:09Z</time>
      </trkpt>
      <trkpt lat="44.12096" lon="5.02819">
        <ele>98.1</ele>
        <time>2015-06-24T07:46:16Z</time>
      </trkpt>
      <trkpt lat="44.121" lon="5.02832">
        <ele>98.2</ele>
        <time>2015-06-24T07:46:23Z</time>
      </trkpt>
      <trkpt lat="44.12105" lon="5.02843">
        <ele>98.4</ele>
        <time>2015-06-24T07:46:31Z</time>
      </trkpt>
      <trkpt lat="44.12112" lon="5.02853">
        <ele>98.6</ele>
        <time>2015-06-24T07:46:40Z</time>
      </trkpt>
      <trkpt lat="44.1212" lon="5.02858">
        <ele>99.4</ele>
        <time>2015-06-24T07:46:48Z</time>
      </trkpt>
      <trkpt lat="44.12133" lon="5.02861">
        <ele>100.1</ele>
        <time>2015-06-24T07:46:52Z</time>
      </trkpt>
      <trkpt lat="44.12142" lon="5.02858">
        <ele>101.4</ele>
        <time>2015-06-24T07:47:00Z</time>
      </trkpt>
      <trkpt lat="44.1215" lon="5.02866">
        <ele>102.8</ele>
        <time>2015-06-24T07:47:09Z</time>
      </trkpt>
      <trkpt lat="44.12152" lon="5.02879">
        <ele>104.2</ele>
        <time>2015-06-24T07:47:19Z</time>
      </trkpt>
      <trkpt lat="44.12152" lon="5.02893">
        <ele>105.5</ele>
        <time>2015-06-24T07:47:29Z</time>
      </trkpt>
      <trkpt lat="44.12156" lon="5.02905">
        <ele>106.2</ele>
        <time>2015-06-24T07:47:37Z</time>
      </trkpt>
      <trkpt lat="44.12158" lon="5.02918">
        <ele>106.7</ele>
        <time>2015-06-24T07:47:45Z</time>
      </trkpt>
      <trkpt lat="44.12158" lon="5.02932">
        <ele>106.9</ele>
        <time>2015-06-24T07:47:52Z</time>
      </trkpt>
      <trkpt lat="44.12154" lon="5.02944">
        <ele>106.7</ele>
        <time>2015-06-24T07:47:57Z</time>
      </trkpt>
      <trkpt lat="44.1215" lon="5.02955">
        <ele>106.5</ele>
        <time>2015-06-24T07:48:01Z</time>
      </trkpt>
      <trkpt lat="44.12152" lon="5.02968">
        <ele>106.2</ele>
        <time>2015-06-24T07:48:05Z</time>
      </trkpt>
      <trkpt lat="44.12157" lon="5.0298">
        <ele>105.7</ele>
        <time>2015-06-24T07:48:11Z</time>
      </trkpt>
      <trkpt lat="44.12164" lon="5.0299">
        <ele>105.1</ele>
        <time>2015-06-24T07:48:18Z</time>
      </trkpt>
      <trkpt lat="44.12165" lon="5.03004">
        <ele>104.3</ele>
        <time>2015-06-24T07:48:26Z</time>
      </trkpt>
      <trkpt lat="44.12169" lon="5.03016">
        <ele>103.5</ele>
        <time>2015-06-24T07:48:37Z</time>
      </trkpt>
      <trkpt lat="44.12169" lon="5.03029">
        <ele>104</ele>
        <time>2015-06-24T07:48:46Z</time>
      </trkpt>
      <trkpt lat="44.12172" lon="5.03053">
        <ele>105</ele>
        <time>2015-06-24T07:49:07Z</time>
      </trkpt>
      <trkpt lat="44.12176" lon="5.03067">
        <ele>105.2</ele>
        <time>2015-06-24T07:49:13Z</time>
      </trkpt>
      <trkpt lat="44.12177" lon="5.0308">
        <ele>105.3</ele>
        <time>2015-06-24T07:49:21Z</time>
      </trkpt>
      <trkpt lat="44.12177" lon="5.03093">
        <ele>105.4</ele>
        <time>2015-06-24T07:49:29Z</time>
      </trkpt>
      <trkpt lat="44.12181" lon="5.03106">
        <ele>105.5</ele>
        <time>2015-06-24T07:49:35Z</time>
      </trkpt>
      <trkpt lat="44.12183" lon="5.03119">
        <ele>105.9</ele>
        <time>2015-06-24T07:49:44Z</time>
      </trkpt>
      <trkpt lat="44.12186" lon="5.03131">
        <ele>106.3</ele>
        <time>2015-06-24T07:49:51Z</time>
      </trkpt>
      <trkpt lat="44.12192" lon="5.03143">
        <ele>106.1</ele>
        <time>2015-06-24T07:49:57Z</time>
      </trkpt>
      <trkpt lat="44.12198" lon="5.03154">
        <ele>105.5</ele>
        <time>2015-06-24T07:50:06Z</time>
      </trkpt>
      <trkpt lat="44.12205" lon="5.03163">
        <ele>105.1</ele>
        <time>2015-06-24T07:50:13Z</time>
      </trkpt>
      <trkpt lat="44.1221" lon="5.03173">
        <ele>105.1</ele>
        <time>2015-06-24T07:50:18Z</time>
      </trkpt>
      <trkpt lat="44.12214" lon="5.03187">
        <ele>105.3</ele>
        <time>2015-06-24T07:50:24Z</time>
      </trkpt>
      <trkpt lat="44.12223" lon="5.03195">
        <ele>105.7</ele>
        <time>2015-06-24T07:50:30Z</time>
      </trkpt>
      <trkpt lat="44.12228" lon="5.03206">
        <ele>106.3</ele>
        <time>2015-06-24T07:50:37Z</time>
      </trkpt>
      <trkpt lat="44.12232" lon="5.03218">
        <ele>106.7</ele>
        <time>2015-06-24T07:50:43Z</time>
      </trkpt>
      <trkpt lat="44.12241" lon="5.03224">
        <ele>107</ele>
        <time>2015-06-24T07:50:49Z</time>
      </trkpt>
      <trkpt lat="44.12251" lon="5.03228">
        <ele>107.8</ele>
        <time>2015-06-24T07:50:56Z</time>
      </trkpt>
      <trkpt lat="44.12257" lon="5.03238">
        <ele>108.3</ele>
        <time>2015-06-24T07:51:02Z</time>
      </trkpt>
      <trkpt lat="44.12261" lon="5.03252">
        <ele>108.8</ele>
        <time>2015-06-24T07:51:09Z</time>
      </trkpt>
      <trkpt lat="44.12265" lon="5.03264">
        <ele>108.9</ele>
        <time>2015-06-24T07:51:17Z</time>
      </trkpt>
      <trkpt lat="44.1227" lon="5.03275">
        <ele>108.9</ele>
        <time>2015-06-24T07:51:23Z</time>
      </trkpt>
      <trkpt lat="44.12276" lon="5.03286">
        <ele>109</ele>
        <time>2015-06-24T07:51:30Z</time>
      </trkpt>
      <trkpt lat="44.12283" lon="5.03295">
        <ele>109</ele>
        <time>2015-06-24T07:51:38Z</time>
      </trkpt>
      <trkpt lat="44.12287" lon="5.03307">
        <ele>109.1</ele>
        <time>2015-06-24T07:51:45Z</time>
      </trkpt>
      <trkpt lat="44.12283" lon="5.0332">
        <ele>109.2</ele>
        <time>2015-06-24T07:51:53Z</time>
      </trkpt>
      <trkpt lat="44.12277" lon="5.0333">
        <ele>109.3</ele>
        <time>2015-06-24T07:52:01Z</time>
      </trkpt>
      <trkpt lat="44.1227" lon="5.03339">
        <ele>109.3</ele>
        <time>2015-06-24T07:52:09Z</time>
      </trkpt>
      <trkpt lat="44.12264" lon="5.03349">
        <ele>109.4</ele>
        <time>2015-06-24T07:52:15Z</time>
      </trkpt>
      <trkpt lat="44.12259" lon="5.03362">
        <ele>109.3</ele>
        <time>2015-06-24T07:52:21Z</time>
      </trkpt>
      <trkpt lat="44.12253" lon="5.03372">
        <ele>109.3</ele>
        <time>2015-06-24T07:52:28Z</time>
      </trkpt>
      <trkpt lat="44.1225" lon="5.03385">
        <ele>109.3</ele>
        <time>2015-06-24T07:52:35Z</time>
      </trkpt>
      <trkpt lat="44.12248" lon="5.03399">
        <ele>108.9</ele>
        <time>2015-06-24T07:52:44Z</time>
      </trkpt>
      <trkpt lat="44.12252" lon="5.03411">
        <ele>108.2</ele>
        <time>2015-06-24T07:52:51Z</time>
      </trkpt>
      <trkpt lat="44.12255" lon="5.03424">
        <ele>109.1</ele>
        <time>2015-06-24T07:54:22Z</time>
      </trkpt>
      <trkpt lat="44.12259" lon="5.03436">
        <ele>108.7</ele>
        <time>2015-06-24T07:54:30Z</time>
      </trkpt>
      <trkpt lat="44.12262" lon="5.03448">
        <ele>108.5</ele>
        <time>2015-06-24T07:54:37Z</time>
      </trkpt>
      <trkpt lat="44.12264" lon="5.03461">
        <ele>108.4</ele>
        <time>2015-06-24T07:54:45Z</time>
      </trkpt>
      <trkpt lat="44.12261" lon="5.03474">
        <ele>108.3</ele>
        <time>2015-06-24T07:54:51Z</time>
      </trkpt>
      <trkpt lat="44.12258" lon="5.03488">
        <ele>108.2</ele>
        <time>2015-06-24T07:54:58Z</time>
      </trkpt>
      <trkpt lat="44.12254" lon="5.035">
        <ele>108.2</ele>
        <time>2015-06-24T07:55:03Z</time>
      </trkpt>
      <trkpt lat="44.12251" lon="5.03515">
        <ele>108.2</ele>
        <time>2015-06-24T07:55:08Z</time>
      </trkpt>
      <trkpt lat="44.12251" lon="5.03528">
        <ele>108.2</ele>
        <time>2015-06-24T07:55:12Z</time>
      </trkpt>
      <trkpt lat="44.12253" lon="5.0354">
        <ele>108.3</ele>
        <time>2015-06-24T07:55:19Z</time>
      </trkpt>
      <trkpt lat="44.12257" lon="5.03554">
        <ele>108.4</ele>
        <time>2015-06-24T07:55:26Z</time>
      </trkpt>
      <trkpt lat="44.12262" lon="5.03566">
        <ele>108.5</ele>
        <time>2015-06-24T07:55:33Z</time>
      </trkpt>
      <trkpt lat="44.12266" lon="5.03578">
        <ele>108.5</ele>
        <time>2015-06-24T07:55:40Z</time>
      </trkpt>
      <trkpt lat="44.12271" lon="5.03591">
        <ele>108.5</ele>
        <time>2015-06-24T07:55:48Z</time>
      </trkpt>
      <trkpt lat="44.12273" lon="5.03604">
        <ele>108.8</ele>
        <time>2015-06-24T07:55:55Z</time>
      </trkpt>
      <trkpt lat="44.12278" lon="5.03615">
        <ele>109.1</ele>
        <time>2015-06-24T07:56:00Z</time>
      </trkpt>
      <trkpt lat="44.1228" lon="5.03631">
        <ele>109.5</ele>
        <time>2015-06-24T07:56:05Z</time>
      </trkpt>
      <trkpt lat="44.12281" lon="5.03644">
        <ele>109.8</ele>
        <time>2015-06-24T07:56:10Z</time>
      </trkpt>
      <trkpt lat="44.12283" lon="5.03658">
        <ele>110</ele>
        <time>2015-06-24T07:56:17Z</time>
      </trkpt>
      <trkpt lat="44.12283" lon="5.03672">
        <ele>110.2</ele>
        <time>2015-06-24T07:56:24Z</time>
      </trkpt>
      <trkpt lat="44.12284" lon="5.03685">
        <ele>110.2</ele>
        <time>2015-06-24T07:56:30Z</time>
      </trkpt>
      <trkpt lat="44.12288" lon="5.03698">
        <ele>110.2</ele>
        <time>2015-06-24T07:56:36Z</time>
      </trkpt>
      <trkpt lat="44.12289" lon="5.03712">
        <ele>110.1</ele>
        <time>2015-06-24T07:56:43Z</time>
      </trkpt>
      <trkpt lat="44.12291" lon="5.03725">
        <ele>109.9</ele>
        <time>2015-06-24T07:56:50Z</time>
      </trkpt>
      <trkpt lat="44.12294" lon="5.0374">
        <ele>109.8</ele>
        <time>2015-06-24T07:56:55Z</time>
      </trkpt>
      <trkpt lat="44.12298" lon="5.03751">
        <ele>109.5</ele>
        <time>2015-06-24T07:57:00Z</time>
      </trkpt>
      <trkpt lat="44.12299" lon="5.03764">
        <ele>109.4</ele>
        <time>2015-06-24T07:57:06Z</time>
      </trkpt>
      <trkpt lat="44.12301" lon="5.03776">
        <ele>109.2</ele>
        <time>2015-06-24T07:57:13Z</time>
      </trkpt>
      <trkpt lat="44.12306" lon="5.03788">
        <ele>109.1</ele>
        <time>2015-06-24T07:57:20Z</time>
      </trkpt>
      <trkpt lat="44.1231" lon="5.038">
        <ele>109</ele>
        <time>2015-06-24T07:57:25Z</time>
      </trkpt>
      <trkpt lat="44.12315" lon="5.03813">
        <ele>108.8</ele>
        <time>2015-06-24T07:57:32Z</time>
      </trkpt>
      <trkpt lat="44.12318" lon="5.03825">
        <ele>108.7</ele>
        <time>2015-06-24T07:57:37Z</time>
      </trkpt>
      <trkpt lat="44.1232" lon="5.03838">
        <ele>108.7</ele>
        <time>2015-06-24T07:57:44Z</time>
      </trkpt>
      <trkpt lat="44.12322" lon="5.03851">
        <ele>108.6</ele>
        <time>2015-06-24T07:57:53Z</time>
      </trkpt>
      <trkpt lat="44.12324" lon="5.03865">
        <ele>108.2</ele>
        <time>2015-06-24T07:58:02Z</time>
      </trkpt>
      <trkpt lat="44.12322" lon="5.03879">
        <ele>107.5</ele>
        <time>2015-06-24T07:58:09Z</time>
      </trkpt>
      <trkpt lat="44.12316" lon="5.0389">
        <ele>107</ele>
        <time>2015-06-24T07:58:16Z</time>
      </trkpt>
      <trkpt lat="44.12317" lon="5.03903">
        <ele>106.8</ele>
        <time>2015-06-24T07:58:20Z</time>
      </trkpt>
      <trkpt lat="44.12319" lon="5.03918">
        <ele>106.6</ele>
        <time>2015-06-24T07:58:24Z</time>
      </trkpt>
      <trkpt lat="44.12321" lon="5.03932">
        <ele>107.2</ele>
        <time>2015-06-24T07:58:32Z</time>
      </trkpt>
      <trkpt lat="44.12325" lon="5.03944">
        <ele>108.7</ele>
        <time>2015-06-24T07:58:40Z</time>
      </trkpt>
      <trkpt lat="44.12331" lon="5.03955">
        <ele>110.3</ele>
        <time>2015-06-24T07:58:47Z</time>
      </trkpt>
      <trkpt lat="44.12335" lon="5.03967">
        <ele>111.9</ele>
        <time>2015-06-24T07:58:54Z</time>
      </trkpt>
      <trkpt lat="44.12335" lon="5.0398">
        <ele>113.5</ele>
        <time>2015-06-24T07:59:01Z</time>
      </trkpt>
      <trkpt lat="44.12334" lon="5.03994">
        <ele>114.6</ele>
        <time>2015-06-24T07:59:08Z</time>
      </trkpt>
      <trkpt lat="44.1234" lon="5.04004">
        <ele>115.7</ele>
        <time>2015-06-24T07:59:16Z</time>
      </trkpt>
      <trkpt lat="44.12347" lon="5.04013">
        <ele>116.8</ele>
        <time>2015-06-24T07:59:23Z</time>
      </trkpt>
      <trkpt lat="44.12353" lon="5.04023">
        <ele>118.2</ele>
        <time>2015-06-24T07:59:32Z</time>
      </trkpt>
      <trkpt lat="44.12361" lon="5.04033">
        <ele>119</ele>
        <time>2015-06-24T07:59:38Z</time>
      </trkpt>
      <trkpt lat="44.12364" lon="5.04047">
        <ele>119.4</ele>
        <time>2015-06-24T07:59:41Z</time>
      </trkpt>
      <trkpt lat="44.12367" lon="5.04058">
        <ele>120</ele>
        <time>2015-06-24T07:59:45Z</time>
      </trkpt>
      <trkpt lat="44.1237" lon="5.04072">
        <ele>120.8</ele>
        <time>2015-06-24T07:59:50Z</time>
      </trkpt>
      <trkpt lat="44.12377" lon="5.04082">
        <ele>122.2</ele>
        <time>2015-06-24T07:59:58Z</time>
      </trkpt>
      <trkpt lat="44.12384" lon="5.0409">
        <ele>123.3</ele>
        <time>2015-06-24T08:00:05Z</time>
      </trkpt>
      <trkpt lat="44.1239" lon="5.04101">
        <ele>123.9</ele>
        <time>2015-06-24T08:00:12Z</time>
      </trkpt>
      <trkpt lat="44.12394" lon="5.04114">
        <ele>124.4</ele>
        <time>2015-06-24T08:00:20Z</time>
      </trkpt>
      <trkpt lat="44.12399" lon="5.04128">
        <ele>124.8</ele>
        <time>2015-06-24T08:00:27Z</time>
      </trkpt>
      <trkpt lat="44.12403" lon="5.04141">
        <ele>125.3</ele>
        <time>2015-06-24T08:00:32Z</time>
      </trkpt>
      <trkpt lat="44.12409" lon="5.04153">
        <ele>125.7</ele>
        <time>2015-06-24T08:00:39Z</time>
      </trkpt>
      <trkpt lat="44.12415" lon="5.04162">
        <ele>125.9</ele>
        <time>2015-06-24T08:00:46Z</time>
      </trkpt>
      <trkpt lat="44.12417" lon="5.04175">
        <ele>125.9</ele>
        <time>2015-06-24T08:00:52Z</time>
      </trkpt>
      <trkpt lat="44.12418" lon="5.04188">
        <ele>125.9</ele>
        <time>2015-06-24T08:00:59Z</time>
      </trkpt>
      <trkpt lat="44.12421" lon="5.04202">
        <ele>125.9</ele>
        <time>2015-06-24T08:01:05Z</time>
      </trkpt>
      <trkpt lat="44.12427" lon="5.04214">
        <ele>125.9</ele>
        <time>2015-06-24T08:01:11Z</time>
      </trkpt>
      <trkpt lat="44.12435" lon="5.04228">
        <ele>126</ele>
        <time>2015-06-24T08:01:18Z</time>
      </trkpt>
      <trkpt lat="44.1244" lon="5.04238">
        <ele>126.3</ele>
        <time>2015-06-24T08:01:23Z</time>
      </trkpt>
      <trkpt lat="44.12444" lon="5.04252">
        <ele>126.6</ele>
        <time>2015-06-24T08:01:28Z</time>
      </trkpt>
      <trkpt lat="44.12448" lon="5.04266">
        <ele>126.9</ele>
        <time>2015-06-24T08:01:34Z</time>
      </trkpt>
      <trkpt lat="44.12451" lon="5.04281">
        <ele>127.3</ele>
        <time>2015-06-24T08:01:40Z</time>
      </trkpt>
      <trkpt lat="44.12453" lon="5.04294">
        <ele>127.6</ele>
        <time>2015-06-24T08:01:47Z</time>
      </trkpt>
      <trkpt lat="44.12453" lon="5.04307">
        <ele>127.7</ele>
        <time>2015-06-24T08:01:55Z</time>
      </trkpt>
      <trkpt lat="44.12451" lon="5.0432">
        <ele>127.7</ele>
        <time>2015-06-24T08:02:01Z</time>
      </trkpt>
      <trkpt lat="44.12452" lon="5.04335">
        <ele>127.7</ele>
        <time>2015-06-24T08:02:07Z</time>
      </trkpt>
      <trkpt lat="44.12456" lon="5.04347">
        <ele>127.6</ele>
        <time>2015-06-24T08:02:12Z</time>
      </trkpt>
      <trkpt lat="44.12461" lon="5.04359">
        <ele>127.4</ele>
        <time>2015-06-24T08:02:18Z</time>
      </trkpt>
      <trkpt lat="44.12468" lon="5.04368">
        <ele>127.3</ele>
        <time>2015-06-24T08:02:23Z</time>
      </trkpt>
      <trkpt lat="44.12477" lon="5.04375">
        <ele>127.6</ele>
        <time>2015-06-24T08:02:29Z</time>
      </trkpt>
      <trkpt lat="44.12483" lon="5.04386">
        <ele>127.7</ele>
        <time>2015-06-24T08:02:38Z</time>
      </trkpt>
      <trkpt lat="44.1249" lon="5.04395">
        <ele>127.7</ele>
        <time>2015-06-24T08:02:47Z</time>
      </trkpt>
      <trkpt lat="44.12498" lon="5.04404">
        <ele>128.2</ele>
        <time>2015-06-24T08:03:01Z</time>
      </trkpt>
      <trkpt lat="44.12505" lon="5.04414">
        <ele>127.7</ele>
        <time>2015-06-24T08:03:10Z</time>
      </trkpt>
      <trkpt lat="44.12511" lon="5.04424">
        <ele>128.1</ele>
        <time>2015-06-24T08:03:15Z</time>
      </trkpt>
      <trkpt lat="44.1252" lon="5.04431">
        <ele>128.8</ele>
        <time>2015-06-24T08:03:22Z</time>
      </trkpt>
      <trkpt lat="44.12526" lon="5.0444">
        <ele>129.4</ele>
        <time>2015-06-24T08:03:27Z</time>
      </trkpt>
      <trkpt lat="44.12534" lon="5.0445">
        <ele>130.1</ele>
        <time>2015-06-24T08:03:34Z</time>
      </trkpt>
      <trkpt lat="44.1254" lon="5.0446">
        <ele>131.2</ele>
        <time>2015-06-24T08:03:41Z</time>
      </trkpt>
      <trkpt lat="44.12547" lon="5.04469">
        <ele>132.8</ele>
        <time>2015-06-24T08:03:48Z</time>
      </trkpt>
      <trkpt lat="44.12557" lon="5.04471">
        <ele>134.2</ele>
        <time>2015-06-24T08:03:56Z</time>
      </trkpt>
      <trkpt lat="44.12566" lon="5.04476">
        <ele>136.2</ele>
        <time>2015-06-24T08:04:04Z</time>
      </trkpt>
      <trkpt lat="44.12576" lon="5.04476">
        <ele>137.5</ele>
        <time>2015-06-24T08:04:12Z</time>
      </trkpt>
      <trkpt lat="44.12582" lon="5.04485">
        <ele>138.4</ele>
        <time>2015-06-24T08:04:18Z</time>
      </trkpt>
      <trkpt lat="44.12588" lon="5.04495">
        <ele>139.3</ele>
        <time>2015-06-24T08:04:25Z</time>
      </trkpt>
      <trkpt lat="44.12594" lon="5.04506">
        <ele>140.2</ele>
        <time>2015-06-24T08:04:31Z</time>
      </trkpt>
      <trkpt lat="44.126" lon="5.04516">
        <ele>141.1</ele>
        <time>2015-06-24T08:04:38Z</time>
      </trkpt>
      <trkpt lat="44.12606" lon="5.04524">
        <ele>141.6</ele>
        <time>2015-06-24T08:04:44Z</time>
      </trkpt>
      <trkpt lat="44.12613" lon="5.04534">
        <ele>141.9</ele>
        <time>2015-06-24T08:04:49Z</time>
      </trkpt>
      <trkpt lat="44.12617" lon="5.04545">
        <ele>142</ele>
        <time>2015-06-24T08:04:55Z</time>
      </trkpt>
      <trkpt lat="44.1262" lon="5.0456">
        <ele>141.9</ele>
        <time>2015-06-24T08:05:02Z</time>
      </trkpt>
      <trkpt lat="44.12621" lon="5.04572">
        <ele>141.5</ele>
        <time>2015-06-24T08:05:09Z</time>
      </trkpt>
      <trkpt lat="44.12621" lon="5.04587">
        <ele>140.9</ele>
        <time>2015-06-24T08:05:15Z</time>
      </trkpt>
      <trkpt lat="44.12624" lon="5.046">
        <ele>140.5</ele>
        <time>2015-06-24T08:05:20Z</time>
      </trkpt>
      <trkpt lat="44.12625" lon="5.04614">
        <ele>141.5</ele>
        <time>2015-06-24T08:05:29Z</time>
      </trkpt>
      <trkpt lat="44.12628" lon="5.04627">
        <ele>142.3</ele>
        <time>2015-06-24T08:05:37Z</time>
      </trkpt>
      <trkpt lat="44.12634" lon="5.04636">
        <ele>142.7</ele>
        <time>2015-06-24T08:05:45Z</time>
      </trkpt>
      <trkpt lat="44.12642" lon="5.04643">
        <ele>143.2</ele>
        <time>2015-06-24T08:05:52Z</time>
      </trkpt>
      <trkpt lat="44.12649" lon="5.04651">
        <ele>143.4</ele>
        <time>2015-06-24T08:06:02Z</time>
      </trkpt>
      <trkpt lat="44.12657" lon="5.0466">
        <ele>143.5</ele>
        <time>2015-06-24T08:06:10Z</time>
      </trkpt>
      <trkpt lat="44.12665" lon="5.04666">
        <ele>143.5</ele>
        <time>2015-06-24T08:06:19Z</time>
      </trkpt>
      <trkpt lat="44.12675" lon="5.04668">
        <ele>143.6</ele>
        <time>2015-06-24T08:06:25Z</time>
      </trkpt>
      <trkpt lat="44.12686" lon="5.04667">
        <ele>143.7</ele>
        <time>2015-06-24T08:06:29Z</time>
      </trkpt>
      <trkpt lat="44.12696" lon="5.0467">
        <ele>143.7</ele>
        <time>2015-06-24T08:06:34Z</time>
      </trkpt>
      <trkpt lat="44.12707" lon="5.04676">
        <ele>143.6</ele>
        <time>2015-06-24T08:06:38Z</time>
      </trkpt>
      <trkpt lat="44.12715" lon="5.0468">
        <ele>143.5</ele>
        <time>2015-06-24T08:06:43Z</time>
      </trkpt>
      <trkpt lat="44.12722" lon="5.04688">
        <ele>143</ele>
        <time>2015-06-24T08:06:51Z</time>
      </trkpt>
      <trkpt lat="44.12727" lon="5.047">
        <ele>141.9</ele>
        <time>2015-06-24T08:07:01Z</time>
      </trkpt>
      <trkpt lat="44.12734" lon="5.0471">
        <ele>140.7</ele>
        <time>2015-06-24T08:07:09Z</time>
      </trkpt>
      <trkpt lat="44.12741" lon="5.04717">
        <ele>139.6</ele>
        <time>2015-06-24T08:07:17Z</time>
      </trkpt>
      <trkpt lat="44.1275" lon="5.04724">
        <ele>138.6</ele>
        <time>2015-06-24T08:07:25Z</time>
      </trkpt>
      <trkpt lat="44.12759" lon="5.0473">
        <ele>138</ele>
        <time>2015-06-24T08:07:32Z</time>
      </trkpt>
      <trkpt lat="44.1277" lon="5.04732">
        <ele>137.6</ele>
        <time>2015-06-24T08:07:38Z</time>
      </trkpt>
      <trkpt lat="44.12778" lon="5.04728">
        <ele>137.2</ele>
        <time>2015-06-24T08:07:43Z</time>
      </trkpt>
      <trkpt lat="44.12786" lon="5.0472">
        <ele>136.6</ele>
        <time>2015-06-24T08:07:51Z</time>
      </trkpt>
      <trkpt lat="44.12789" lon="5.04707">
        <ele>136.2</ele>
        <time>2015-06-24T08:07:58Z</time>
      </trkpt>
      <trkpt lat="44.12796" lon="5.04697">
        <ele>135.5</ele>
        <time>2015-06-24T08:08:05Z</time>
      </trkpt>
      <trkpt lat="44.12803" lon="5.04687">
        <ele>134.8</ele>
        <time>2015-06-24T08:08:11Z</time>
      </trkpt>
      <trkpt lat="44.12806" lon="5.04673">
        <ele>134.1</ele>
        <time>2015-06-24T08:08:19Z</time>
      </trkpt>
      <trkpt lat="44.12808" lon="5.04661">
        <ele>133.3</ele>
        <time>2015-06-24T08:08:25Z</time>
      </trkpt>
      <trkpt lat="44.1281" lon="5.04647">
        <ele>132.2</ele>
        <time>2015-06-24T08:08:33Z</time>
      </trkpt>
      <trkpt lat="44.12813" lon="5.04634">
        <ele>131.4</ele>
        <time>2015-06-24T08:08:38Z</time>
      </trkpt>
      <trkpt lat="44.12815" lon="5.04622">
        <ele>130.5</ele>
        <time>2015-06-24T08:08:43Z</time>
      </trkpt>
      <trkpt lat="44.12825" lon="5.0462">
        <ele>129</ele>
        <time>2015-06-24T08:08:51Z</time>
      </trkpt>
      <trkpt lat="44.12832" lon="5.04629">
        <ele>128.2</ele>
        <time>2015-06-24T08:08:57Z</time>
      </trkpt>
      <trkpt lat="44.12841" lon="5.04639">
        <ele>127.7</ele>
        <time>2015-06-24T08:09:01Z</time>
      </trkpt>
      <trkpt lat="44.1285" lon="5.04643">
        <ele>127.3</ele>
        <time>2015-06-24T08:09:06Z</time>
      </trkpt>
      <trkpt lat="44.12859" lon="5.04649">
        <ele>127</ele>
        <time>2015-06-24T08:09:14Z</time>
      </trkpt>
      <trkpt lat="44.12868" lon="5.04654">
        <ele>126.6</ele>
        <time>2015-06-24T08:09:22Z</time>
      </trkpt>
      <trkpt lat="44.12878" lon="5.04659">
        <ele>126.2</ele>
        <time>2015-06-24T08:09:30Z</time>
      </trkpt>
      <trkpt lat="44.12887" lon="5.04662">
        <ele>126</ele>
        <time>2015-06-24T08:09:36Z</time>
      </trkpt>
      <trkpt lat="44.12897" lon="5.04664">
        <ele>125.7</ele>
        <time>2015-06-24T08:09:43Z</time>
      </trkpt>
      <trkpt lat="44.12906" lon="5.0466">
        <ele>125.3</ele>
        <time>2015-06-24T08:09:50Z</time>
      </trkpt>
      <trkpt lat="44.12908" lon="5.04646">
        <ele>124.9</ele>
        <time>2015-06-24T08:09:57Z</time>
      </trkpt>
      <trkpt lat="44.12909" lon="5.04632">
        <ele>124.6</ele>
        <time>2015-06-24T08:10:03Z</time>
      </trkpt>
      <trkpt lat="44.12911" lon="5.04619">
        <ele>124.4</ele>
        <time>2015-06-24T08:10:09Z</time>
      </trkpt>
      <trkpt lat="44.12914" lon="5.04606">
        <ele>124.2</ele>
        <time>2015-06-24T08:10:16Z</time>
      </trkpt>
      <trkpt lat="44.12921" lon="5.04597">
        <ele>123.9</ele>
        <time>2015-06-24T08:10:25Z</time>
      </trkpt>
      <trkpt lat="44.1293" lon="5.04601">
        <ele>123.7</ele>
        <time>2015-06-24T08:10:31Z</time>
      </trkpt>
      <trkpt lat="44.12938" lon="5.04605">
        <ele>123.5</ele>
        <time>2015-06-24T08:10:38Z</time>
      </trkpt>
      <trkpt lat="44.12946" lon="5.04614">
        <ele>123.3</ele>
        <time>2015-06-24T08:10:46Z</time>
      </trkpt>
      <trkpt lat="44.12955" lon="5.04617">
        <ele>123.2</ele>
        <time>2015-06-24T08:10:51Z</time>
      </trkpt>
      <trkpt lat="44.12965" lon="5.04618">
        <ele>123.1</ele>
        <time>2015-06-24T08:10:57Z</time>
      </trkpt>
      <trkpt lat="44.12973" lon="5.04625">
        <ele>123.1</ele>
        <time>2015-06-24T08:11:03Z</time>
      </trkpt>
      <trkpt lat="44.12983" lon="5.04632">
        <ele>123.5</ele>
        <time>2015-06-24T08:11:12Z</time>
      </trkpt>
      <trkpt lat="44.12992" lon="5.04637">
        <ele>124.1</ele>
        <time>2015-06-24T08:11:19Z</time>
      </trkpt>
      <trkpt lat="44.13" lon="5.04642">
        <ele>125.4</ele>
        <time>2015-06-24T08:11:27Z</time>
      </trkpt>
      <trkpt lat="44.13009" lon="5.04648">
        <ele>126.9</ele>
        <time>2015-06-24T08:11:36Z</time>
      </trkpt>
      <trkpt lat="44.13017" lon="5.04655">
        <ele>128</ele>
        <time>2015-06-24T08:11:45Z</time>
      </trkpt>
      <trkpt lat="44.13025" lon="5.04661">
        <ele>129.6</ele>
        <time>2015-06-24T08:11:53Z</time>
      </trkpt>
      <trkpt lat="44.13033" lon="5.04667">
        <ele>131.2</ele>
        <time>2015-06-24T08:12:00Z</time>
      </trkpt>
      <trkpt lat="44.13041" lon="5.04673">
        <ele>132</ele>
        <time>2015-06-24T08:12:05Z</time>
      </trkpt>
      <trkpt lat="44.13049" lon="5.0468">
        <ele>133</ele>
        <time>2015-06-24T08:12:12Z</time>
      </trkpt>
      <trkpt lat="44.1306" lon="5.04684">
        <ele>134</ele>
        <time>2015-06-24T08:12:19Z</time>
      </trkpt>
      <trkpt lat="44.13069" lon="5.04679">
        <ele>135</ele>
        <time>2015-06-24T08:12:25Z</time>
      </trkpt>
      <trkpt lat="44.13075" lon="5.04668">
        <ele>136.1</ele>
        <time>2015-06-24T08:12:32Z</time>
      </trkpt>
      <trkpt lat="44.13078" lon="5.04654">
        <ele>136.9</ele>
        <time>2015-06-24T08:12:39Z</time>
      </trkpt>
      <trkpt lat="44.1308" lon="5.0464">
        <ele>137.4</ele>
        <time>2015-06-24T08:12:45Z</time>
      </trkpt>
      <trkpt lat="44.13088" lon="5.04631">
        <ele>138.2</ele>
        <time>2015-06-24T08:12:53Z</time>
      </trkpt>
      <trkpt lat="44.13095" lon="5.04621">
        <ele>139.1</ele>
        <time>2015-06-24T08:13:00Z</time>
      </trkpt>
      <trkpt lat="44.13102" lon="5.04612">
        <ele>140</ele>
        <time>2015-06-24T08:13:08Z</time>
      </trkpt>
      <trkpt lat="44.13107" lon="5.04602">
        <ele>141.2</ele>
        <time>2015-06-24T08:13:17Z</time>
      </trkpt>
      <trkpt lat="44.13109" lon="5.04588">
        <ele>141.9</ele>
        <time>2015-06-24T08:13:24Z</time>
      </trkpt>
      <trkpt lat="44.13114" lon="5.04575">
        <ele>142.1</ele>
        <time>2015-06-24T08:13:29Z</time>
      </trkpt>
      <trkpt lat="44.13118" lon="5.04561">
        <ele>142.4</ele>
        <time>2015-06-24T08:13:36Z</time>
      </trkpt>
      <trkpt lat="44.13123" lon="5.04548">
        <ele>142.8</ele>
        <time>2015-06-24T08:13:42Z</time>
      </trkpt>
      <trkpt lat="44.13126" lon="5.04535">
        <ele>143.4</ele>
        <time>2015-06-24T08:13:49Z</time>
      </trkpt>
      <trkpt lat="44.13129" lon="5.04523">
        <ele>144.4</ele>
        <time>2015-06-24T08:13:59Z</time>
      </trkpt>
      <trkpt lat="44.13139" lon="5.04519">
        <ele>145.8</ele>
        <time>2015-06-24T08:14:09Z</time>
      </trkpt>
      <trkpt lat="44.13149" lon="5.04519">
        <ele>147</ele>
        <time>2015-06-24T08:14:15Z</time>
      </trkpt>
      <trkpt lat="44.13158" lon="5.04517">
        <ele>148.3</ele>
        <time>2015-06-24T08:14:21Z</time>
      </trkpt>
      <trkpt lat="44.13166" lon="5.0451">
        <ele>149.5</ele>
        <time>2015-06-24T08:14:26Z</time>
      </trkpt>
      <trkpt lat="44.13175" lon="5.0451">
        <ele>152.8</ele>
        <time>2015-06-24T08:14:41Z</time>
      </trkpt>
      <trkpt lat="44.13185" lon="5.04514">
        <ele>153.9</ele>
        <time>2015-06-24T08:14:50Z</time>
      </trkpt>
      <trkpt lat="44.13194" lon="5.04519">
        <ele>155.6</ele>
        <time>2015-06-24T08:15:01Z</time>
      </trkpt>
      <trkpt lat="44.132" lon="5.04531">
        <ele>156.8</ele>
        <time>2015-06-24T08:15:12Z</time>
      </trkpt>
      <trkpt lat="44.13202" lon="5.04544">
        <ele>157.7</ele>
        <time>2015-06-24T08:15:20Z</time>
      </trkpt>
      <trkpt lat="44.1321" lon="5.04555">
        <ele>158.2</ele>
        <time>2015-06-24T08:15:24Z</time>
      </trkpt>
      <trkpt lat="44.13212" lon="5.04568">
        <ele>159.4</ele>
        <time>2015-06-24T08:15:32Z</time>
      </trkpt>
      <trkpt lat="44.13217" lon="5.0458">
        <ele>161</ele>
        <time>2015-06-24T08:15:40Z</time>
      </trkpt>
      <trkpt lat="44.13217" lon="5.04594">
        <ele>163.1</ele>
        <time>2015-06-24T08:15:49Z</time>
      </trkpt>
      <trkpt lat="44.13217" lon="5.04609">
        <ele>164.8</ele>
        <time>2015-06-24T08:15:56Z</time>
      </trkpt>
      <trkpt lat="44.13222" lon="5.0462">
        <ele>166.8</ele>
        <time>2015-06-24T08:16:04Z</time>
      </trkpt>
      <trkpt lat="44.1323" lon="5.04628">
        <ele>169.2</ele>
        <time>2015-06-24T08:16:13Z</time>
      </trkpt>
      <trkpt lat="44.13239" lon="5.04634">
        <ele>171.2</ele>
        <time>2015-06-24T08:16:21Z</time>
      </trkpt>
      <trkpt lat="44.13248" lon="5.04643">
        <ele>173</ele>
        <time>2015-06-24T08:16:29Z</time>
      </trkpt>
      <trkpt lat="44.13254" lon="5.04654">
        <ele>175.2</ele>
        <time>2015-06-24T08:16:37Z</time>
      </trkpt>
      <trkpt lat="44.13257" lon="5.04667">
        <ele>176.4</ele>
        <time>2015-06-24T08:16:41Z</time>
      </trkpt>
      <trkpt lat="44.13261" lon="5.04679">
        <ele>179</ele>
        <time>2015-06-24T08:16:49Z</time>
      </trkpt>
      <trkpt lat="44.1326" lon="5.04693">
        <ele>182.9</ele>
        <time>2015-06-24T08:17:01Z</time>
      </trkpt>
      <trkpt lat="44.13263" lon="5.04705">
        <ele>186.3</ele>
        <time>2015-06-24T08:17:14Z</time>
      </trkpt>
      <trkpt lat="44.13268" lon="5.04717">
        <ele>188.1</ele>
        <time>2015-06-24T08:17:21Z</time>
      </trkpt>
      <trkpt lat="44.13267" lon="5.0473">
        <ele>191.2</ele>
        <time>2015-06-24T08:17:32Z</time>
      </trkpt>
      <trkpt lat="44.1327" lon="5.04744">
        <ele>193.1</ele>
        <time>2015-06-24T08:17:38Z</time>
      </trkpt>
      <trkpt lat="44.1327" lon="5.04758">
        <ele>195.3</ele>
        <time>2015-06-24T08:17:46Z</time>
      </trkpt>
      <trkpt lat="44.1327" lon="5.04771">
        <ele>197.8</ele>
        <time>2015-06-24T08:17:56Z</time>
      </trkpt>
      <trkpt lat="44.13272" lon="5.04785">
        <ele>200.4</ele>
        <time>2015-06-24T08:18:06Z</time>
      </trkpt>
      <trkpt lat="44.13273" lon="5.04799">
        <ele>203.7</ele>
        <time>2015-06-24T08:18:18Z</time>
      </trkpt>
      <trkpt lat="44.13276" lon="5.04812">
        <ele>205.9</ele>
        <time>2015-06-24T08:18:26Z</time>
      </trkpt>
      <trkpt lat="44.13279" lon="5.04824">
        <ele>208.4</ele>
        <time>2015-06-24T08:18:36Z</time>
      </trkpt>
      <trkpt lat="44.13279" lon="5.04838">
        <ele>209.2</ele>
        <time>2015-06-24T08:18:40Z</time>
      </trkpt>
      <trkpt lat="44.13279" lon="5.04851">
        <ele>210.7</ele>
        <time>2015-06-24T08:18:48Z</time>
      </trkpt>
      <trkpt lat="44.13281" lon="5.04864">
        <ele>211.7</ele>
        <time>2015-06-24T08:18:53Z</time>
      </trkpt>
      <trkpt lat="44.1328" lon="5.04879">
        <ele>213.1</ele>
        <time>2015-06-24T08:19:00Z</time>
      </trkpt>
      <trkpt lat="44.13279" lon="5.04891">
        <ele>215.3</ele>
        <time>2015-06-24T08:19:10Z</time>
      </trkpt>
      <trkpt lat="44.13276" lon="5.04908">
        <ele>219.3</ele>
        <time>2015-06-24T08:20:06Z</time>
      </trkpt>
      <trkpt lat="44.13282" lon="5.04918">
        <ele>219.1</ele>
        <time>2015-06-24T08:20:15Z</time>
      </trkpt>
      <trkpt lat="44.13285" lon="5.04933">
        <ele>219.6</ele>
        <time>2015-06-24T08:20:23Z</time>
      </trkpt>
      <trkpt lat="44.13281" lon="5.04947">
        <ele>220.1</ele>
        <time>2015-06-24T08:20:27Z</time>
      </trkpt>
      <trkpt lat="44.13281" lon="5.0496">
        <ele>221.4</ele>
        <time>2015-06-24T08:20:35Z</time>
      </trkpt>
      <trkpt lat="44.1328" lon="5.04973">
        <ele>223.9</ele>
        <time>2015-06-24T08:20:47Z</time>
      </trkpt>
      <trkpt lat="44.13287" lon="5.04982">
        <ele>225.1</ele>
        <time>2015-06-24T08:20:53Z</time>
      </trkpt>
      <trkpt lat="44.13286" lon="5.04997">
        <ele>227.5</ele>
        <time>2015-06-24T08:21:06Z</time>
      </trkpt>
      <trkpt lat="44.1329" lon="5.05011">
        <ele>228.2</ele>
        <time>2015-06-24T08:21:12Z</time>
      </trkpt>
      <trkpt lat="44.13288" lon="5.05025">
        <ele>229</ele>
        <time>2015-06-24T08:21:21Z</time>
      </trkpt>
      <trkpt lat="44.13284" lon="5.05037">
        <ele>229.7</ele>
        <time>2015-06-24T08:21:30Z</time>
      </trkpt>
      <trkpt lat="44.13284" lon="5.0505">
        <ele>230.2</ele>
        <time>2015-06-24T08:21:41Z</time>
      </trkpt>
      <trkpt lat="44.13283" lon="5.05064">
        <ele>230.4</ele>
        <time>2015-06-24T08:21:50Z</time>
      </trkpt>
      <trkpt lat="44.13284" lon="5.05077">
        <ele>230.4</ele>
        <time>2015-06-24T08:21:57Z</time>
      </trkpt>
      <trkpt lat="44.13286" lon="5.05094">
        <ele>230.4</ele>
        <time>2015-06-24T08:22:04Z</time>
      </trkpt>
      <trkpt lat="44.13282" lon="5.05105">
        <ele>230.3</ele>
        <time>2015-06-24T08:22:10Z</time>
      </trkpt>
      <trkpt lat="44.1328" lon="5.05119">
        <ele>230.2</ele>
        <time>2015-06-24T08:22:18Z</time>
      </trkpt>
      <trkpt lat="44.13277" lon="5.05132">
        <ele>230.1</ele>
        <time>2015-06-24T08:22:27Z</time>
      </trkpt>
      <trkpt lat="44.13278" lon="5.05145">
        <ele>230.2</ele>
        <time>2015-06-24T08:22:34Z</time>
      </trkpt>
      <trkpt lat="44.13278" lon="5.05158">
        <ele>230.4</ele>
        <time>2015-06-24T08:22:43Z</time>
      </trkpt>
      <trkpt lat="44.13278" lon="5.05171">
        <ele>231.3</ele>
        <time>2015-06-24T08:22:54Z</time>
      </trkpt>
      <trkpt lat="44.13277" lon="5.05185">
        <ele>232</ele>
        <time>2015-06-24T08:23:02Z</time>
      </trkpt>
      <trkpt lat="44.13276" lon="5.05197">
        <ele>232.8</ele>
        <time>2015-06-24T08:23:10Z</time>
      </trkpt>
      <trkpt lat="44.13275" lon="5.0521">
        <ele>233.2</ele>
        <time>2015-06-24T08:23:17Z</time>
      </trkpt>
      <trkpt lat="44.13274" lon="5.05224">
        <ele>233.6</ele>
        <time>2015-06-24T08:23:25Z</time>
      </trkpt>
      <trkpt lat="44.13271" lon="5.05238">
        <ele>233.9</ele>
        <time>2015-06-24T08:23:31Z</time>
      </trkpt>
      <trkpt lat="44.13267" lon="5.05251">
        <ele>234.1</ele>
        <time>2015-06-24T08:23:38Z</time>
      </trkpt>
      <trkpt lat="44.13272" lon="5.05262">
        <ele>234.6</ele>
        <time>2015-06-24T08:23:48Z</time>
      </trkpt>
      <trkpt lat="44.13275" lon="5.05275">
        <ele>235.3</ele>
        <time>2015-06-24T08:23:58Z</time>
      </trkpt>
      <trkpt lat="44.13276" lon="5.05288">
        <ele>235.8</ele>
        <time>2015-06-24T08:24:06Z</time>
      </trkpt>
      <trkpt lat="44.13273" lon="5.05301">
        <ele>236.2</ele>
        <time>2015-06-24T08:24:14Z</time>
      </trkpt>
      <trkpt lat="44.13273" lon="5.05315">
        <ele>236</ele>
        <time>2015-06-24T08:24:22Z</time>
      </trkpt>
      <trkpt lat="44.13273" lon="5.05328">
        <ele>235.9</ele>
        <time>2015-06-24T08:24:29Z</time>
      </trkpt>
      <trkpt lat="44.13272" lon="5.05341">
        <ele>235.7</ele>
        <time>2015-06-24T08:24:36Z</time>
      </trkpt>
      <trkpt lat="44.13272" lon="5.05359">
        <ele>235.3</ele>
        <time>2015-06-24T08:25:04Z</time>
      </trkpt>
      <trkpt lat="44.13272" lon="5.05372">
        <ele>235.2</ele>
        <time>2015-06-24T08:25:11Z</time>
      </trkpt>
      <trkpt lat="44.13272" lon="5.05385">
        <ele>234.9</ele>
        <time>2015-06-24T08:25:19Z</time>
      </trkpt>
      <trkpt lat="44.13272" lon="5.05398">
        <ele>234.6</ele>
        <time>2015-06-24T08:25:29Z</time>
      </trkpt>
      <trkpt lat="44.13273" lon="5.05412">
        <ele>234.3</ele>
        <time>2015-06-24T08:25:38Z</time>
      </trkpt>
      <trkpt lat="44.13273" lon="5.05426">
        <ele>234</ele>
        <time>2015-06-24T08:25:47Z</time>
      </trkpt>
      <trkpt lat="44.13275" lon="5.05439">
        <ele>233.9</ele>
        <time>2015-06-24T08:25:56Z</time>
      </trkpt>
      <trkpt lat="44.13274" lon="5.05452">
        <ele>233.7</ele>
        <time>2015-06-24T08:26:02Z</time>
      </trkpt>
      <trkpt lat="44.13271" lon="5.05465">
        <ele>234</ele>
        <time>2015-06-24T08:26:05Z</time>
      </trkpt>
      <trkpt lat="44.13273" lon="5.05479">
        <ele>234.1</ele>
        <time>2015-06-24T08:26:10Z</time>
      </trkpt>
      <trkpt lat="44.13277" lon="5.05492">
        <ele>234.1</ele>
        <time>2015-06-24T08:26:38Z</time>
      </trkpt>
      <trkpt lat="44.13282" lon="5.05504">
        <ele>233.9</ele>
        <time>2015-06-24T08:26:45Z</time>
      </trkpt>
      <trkpt lat="44.13285" lon="5.05517">
        <ele>233.8</ele>
        <time>2015-06-24T08:26:55Z</time>
      </trkpt>
      <trkpt lat="44.1329" lon="5.05528">
        <ele>234.3</ele>
        <time>2015-06-24T08:27:02Z</time>
      </trkpt>
      <trkpt lat="44.13296" lon="5.0554">
        <ele>234.7</ele>
        <time>2015-06-24T08:27:10Z</time>
      </trkpt>
      <trkpt lat="44.13303" lon="5.0555">
        <ele>235.2</ele>
        <time>2015-06-24T08:27:15Z</time>
      </trkpt>
      <trkpt lat="44.1331" lon="5.05558">
        <ele>236</ele>
        <time>2015-06-24T08:27:21Z</time>
      </trkpt>
      <trkpt lat="44.13319" lon="5.05566">
        <ele>236.3</ele>
        <time>2015-06-24T08:27:29Z</time>
      </trkpt>
      <trkpt lat="44.13328" lon="5.05572">
        <ele>236.1</ele>
        <time>2015-06-24T08:27:36Z</time>
      </trkpt>
      <trkpt lat="44.13336" lon="5.05578">
        <ele>235.9</ele>
        <time>2015-06-24T08:27:46Z</time>
      </trkpt>
      <trkpt lat="44.13345" lon="5.05584">
        <ele>235.8</ele>
        <time>2015-06-24T08:27:55Z</time>
      </trkpt>
      <trkpt lat="44.13354" lon="5.05588">
        <ele>236.1</ele>
        <time>2015-06-24T08:28:03Z</time>
      </trkpt>
      <trkpt lat="44.13363" lon="5.05592">
        <ele>236.8</ele>
        <time>2015-06-24T08:28:11Z</time>
      </trkpt>
      <trkpt lat="44.1337" lon="5.05599">
        <ele>238</ele>
        <time>2015-06-24T08:28:19Z</time>
      </trkpt>
      <trkpt lat="44.13377" lon="5.05609">
        <ele>238.6</ele>
        <time>2015-06-24T08:28:26Z</time>
      </trkpt>
      <trkpt lat="44.13385" lon="5.05617">
        <ele>239</ele>
        <time>2015-06-24T08:28:37Z</time>
      </trkpt>
      <trkpt lat="44.1339" lon="5.05629">
        <ele>239.1</ele>
        <time>2015-06-24T08:28:45Z</time>
      </trkpt>
      <trkpt lat="44.13392" lon="5.05643">
        <ele>239</ele>
        <time>2015-06-24T08:28:52Z</time>
      </trkpt>
      <trkpt lat="44.13398" lon="5.05654">
        <ele>238.7</ele>
        <time>2015-06-24T08:28:59Z</time>
      </trkpt>
      <trkpt lat="44.13404" lon="5.05663">
        <ele>238.5</ele>
        <time>2015-06-24T08:29:06Z</time>
      </trkpt>
      <trkpt lat="44.13407" lon="5.05677">
        <ele>238.2</ele>
        <time>2015-06-24T08:29:13Z</time>
      </trkpt>
      <trkpt lat="44.13403" lon="5.0569">
        <ele>238</ele>
        <time>2015-06-24T08:29:21Z</time>
      </trkpt>
      <trkpt lat="44.13399" lon="5.05703">
        <ele>237.8</ele>
        <time>2015-06-24T08:29:30Z</time>
      </trkpt>
      <trkpt lat="44.13395" lon="5.05715">
        <ele>237.6</ele>
        <time>2015-06-24T08:29:37Z</time>
      </trkpt>
      <trkpt lat="44.13395" lon="5.0573">
        <ele>237.3</ele>
        <time>2015-06-24T08:29:45Z</time>
      </trkpt>
      <trkpt lat="44.13397" lon="5.05744">
        <ele>237.1</ele>
        <time>2015-06-24T08:29:52Z</time>
      </trkpt>
      <trkpt lat="44.13399" lon="5.05756">
        <ele>236.5</ele>
        <time>2015-06-24T08:29:58Z</time>
      </trkpt>
      <trkpt lat="44.13402" lon="5.05769">
        <ele>236</ele>
        <time>2015-06-24T08:30:05Z</time>
      </trkpt>
      <trkpt lat="44.13403" lon="5.05782">
        <ele>235.5</ele>
        <time>2015-06-24T08:30:13Z</time>
      </trkpt>
      <trkpt lat="44.13408" lon="5.05796">
        <ele>235.1</ele>
        <time>2015-06-24T08:30:21Z</time>
      </trkpt>
      <trkpt lat="44.1341" lon="5.05809">
        <ele>234.6</ele>
        <time>2015-06-24T08:30:27Z</time>
      </trkpt>
      <trkpt lat="44.1341" lon="5.05823">
        <ele>234.1</ele>
        <time>2015-06-24T08:30:34Z</time>
      </trkpt>
      <trkpt lat="44.13413" lon="5.05835">
        <ele>233.7</ele>
        <time>2015-06-24T08:30:41Z</time>
      </trkpt>
      <trkpt lat="44.13413" lon="5.05848">
        <ele>233</ele>
        <time>2015-06-24T08:30:48Z</time>
      </trkpt>
      <trkpt lat="44.13413" lon="5.05861">
        <ele>232.2</ele>
        <time>2015-06-24T08:30:56Z</time>
      </trkpt>
      <trkpt lat="44.13413" lon="5.05875">
        <ele>231.4</ele>
        <time>2015-06-24T08:31:05Z</time>
      </trkpt>
      <trkpt lat="44.13411" lon="5.05887">
        <ele>231</ele>
        <time>2015-06-24T08:31:13Z</time>
      </trkpt>
      <trkpt lat="44.13407" lon="5.05899">
        <ele>230.2</ele>
        <time>2015-06-24T08:31:21Z</time>
      </trkpt>
      <trkpt lat="44.13399" lon="5.05906">
        <ele>229</ele>
        <time>2015-06-24T08:31:30Z</time>
      </trkpt>
      <trkpt lat="44.1339" lon="5.05912">
        <ele>228.2</ele>
        <time>2015-06-24T08:31:37Z</time>
      </trkpt>
      <trkpt lat="44.1338" lon="5.05915">
        <ele>227.5</ele>
        <time>2015-06-24T08:31:43Z</time>
      </trkpt>
      <trkpt lat="44.13371" lon="5.05911">
        <ele>226.3</ele>
        <time>2015-06-24T08:31:51Z</time>
      </trkpt>
      <trkpt lat="44.13361" lon="5.05909">
        <ele>225.1</ele>
        <time>2015-06-24T08:31:58Z</time>
      </trkpt>
      <trkpt lat="44.13352" lon="5.05916">
        <ele>223.6</ele>
        <time>2015-06-24T08:32:08Z</time>
      </trkpt>
      <trkpt lat="44.13344" lon="5.05924">
        <ele>222.2</ele>
        <time>2015-06-24T08:32:16Z</time>
      </trkpt>
      <trkpt lat="44.13337" lon="5.05934">
        <ele>220.6</ele>
        <time>2015-06-24T08:32:24Z</time>
      </trkpt>
      <trkpt lat="44.13329" lon="5.05942">
        <ele>219.3</ele>
        <time>2015-06-24T08:32:31Z</time>
      </trkpt>
      <trkpt lat="44.13328" lon="5.05956">
        <ele>217.6</ele>
        <time>2015-06-24T08:32:40Z</time>
      </trkpt>
      <trkpt lat="44.13327" lon="5.05969">
        <ele>216.9</ele>
        <time>2015-06-24T08:32:46Z</time>
      </trkpt>
      <trkpt lat="44.13327" lon="5.05984">
        <ele>216.4</ele>
        <time>2015-06-24T08:32:53Z</time>
      </trkpt>
      <trkpt lat="44.13326" lon="5.05997">
        <ele>216.1</ele>
        <time>2015-06-24T08:33:00Z</time>
      </trkpt>
      <trkpt lat="44.13325" lon="5.0601">
        <ele>216.1</ele>
        <time>2015-06-24T08:33:07Z</time>
      </trkpt>
      <trkpt lat="44.13327" lon="5.06022">
        <ele>216.4</ele>
        <time>2015-06-24T08:33:14Z</time>
      </trkpt>
      <trkpt lat="44.13332" lon="5.06034">
        <ele>216.7</ele>
        <time>2015-06-24T08:33:21Z</time>
      </trkpt>
      <trkpt lat="44.13339" lon="5.06042">
        <ele>217.1</ele>
        <time>2015-06-24T08:33:27Z</time>
      </trkpt>
      <trkpt lat="44.13347" lon="5.06049">
        <ele>218.4</ele>
        <time>2015-06-24T08:33:35Z</time>
      </trkpt>
      <trkpt lat="44.13356" lon="5.06055">
        <ele>219.3</ele>
        <time>2015-06-24T08:33:44Z</time>
      </trkpt>
      <trkpt lat="44.13366" lon="5.06051">
        <ele>220.3</ele>
        <time>2015-06-24T08:33:51Z</time>
      </trkpt>
      <trkpt lat="44.13375" lon="5.06054">
        <ele>221.5</ele>
        <time>2015-06-24T08:33:57Z</time>
      </trkpt>
      <trkpt lat="44.13384" lon="5.06058">
        <ele>222.7</ele>
        <time>2015-06-24T08:34:04Z</time>
      </trkpt>
      <trkpt lat="44.13385" lon="5.06073">
        <ele>224.8</ele>
        <time>2015-06-24T08:34:20Z</time>
      </trkpt>
      <trkpt lat="44.13381" lon="5.06085">
        <ele>225.3</ele>
        <time>2015-06-24T08:34:26Z</time>
      </trkpt>
      <trkpt lat="44.13379" lon="5.06098">
        <ele>225.7</ele>
        <time>2015-06-24T08:34:32Z</time>
      </trkpt>
      <trkpt lat="44.13377" lon="5.06112">
        <ele>226.1</ele>
        <time>2015-06-24T08:34:40Z</time>
      </trkpt>
      <trkpt lat="44.13374" lon="5.06125">
        <ele>226.2</ele>
        <time>2015-06-24T08:34:47Z</time>
      </trkpt>
      <trkpt lat="44.13369" lon="5.06137">
        <ele>226.4</ele>
        <time>2015-06-24T08:34:54Z</time>
      </trkpt>
      <trkpt lat="44.13368" lon="5.06151">
        <ele>226.6</ele>
        <time>2015-06-24T08:35:02Z</time>
      </trkpt>
      <trkpt lat="44.13366" lon="5.06164">
        <ele>227.1</ele>
        <time>2015-06-24T08:35:10Z</time>
      </trkpt>
      <trkpt lat="44.13361" lon="5.06175">
        <ele>227.6</ele>
        <time>2015-06-24T08:35:17Z</time>
      </trkpt>
      <trkpt lat="44.13359" lon="5.06188">
        <ele>228.2</ele>
        <time>2015-06-24T08:35:25Z</time>
      </trkpt>
      <trkpt lat="44.13356" lon="5.06201">
        <ele>228.7</ele>
        <time>2015-06-24T08:35:33Z</time>
      </trkpt>
      <trkpt lat="44.13353" lon="5.06215">
        <ele>229.1</ele>
        <time>2015-06-24T08:35:40Z</time>
      </trkpt>
      <trkpt lat="44.13347" lon="5.06226">
        <ele>229.9</ele>
        <time>2015-06-24T08:35:46Z</time>
      </trkpt>
      <trkpt lat="44.13343" lon="5.06238">
        <ele>231</ele>
        <time>2015-06-24T08:35:54Z</time>
      </trkpt>
      <trkpt lat="44.13338" lon="5.06249">
        <ele>231.6</ele>
        <time>2015-06-24T08:36:01Z</time>
      </trkpt>
      <trkpt lat="44.13333" lon="5.0626">
        <ele>231.9</ele>
        <time>2015-06-24T08:36:06Z</time>
      </trkpt>
      <trkpt lat="44.1333" lon="5.06273">
        <ele>232.9</ele>
        <time>2015-06-24T08:36:14Z</time>
      </trkpt>
      <trkpt lat="44.13323" lon="5.06283">
        <ele>233.6</ele>
        <time>2015-06-24T08:36:22Z</time>
      </trkpt>
      <trkpt lat="44.13316" lon="5.06294">
        <ele>233.9</ele>
        <time>2015-06-24T08:36:28Z</time>
      </trkpt>
      <trkpt lat="44.13312" lon="5.06306">
        <ele>234</ele>
        <time>2015-06-24T08:36:35Z</time>
      </trkpt>
      <trkpt lat="44.13307" lon="5.06317">
        <ele>233.8</ele>
        <time>2015-06-24T08:36:42Z</time>
      </trkpt>
      <trkpt lat="44.13305" lon="5.06331">
        <ele>233.5</ele>
        <time>2015-06-24T08:36:51Z</time>
      </trkpt>
      <trkpt lat="44.13302" lon="5.06344">
        <ele>233</ele>
        <time>2015-06-24T08:36:59Z</time>
      </trkpt>
      <trkpt lat="44.13302" lon="5.06358">
        <ele>232.6</ele>
        <time>2015-06-24T08:37:07Z</time>
      </trkpt>
      <trkpt lat="44.13301" lon="5.06371">
        <ele>232.5</ele>
        <time>2015-06-24T08:37:14Z</time>
      </trkpt>
      <trkpt lat="44.13299" lon="5.06384">
        <ele>232.7</ele>
        <time>2015-06-24T08:37:21Z</time>
      </trkpt>
      <trkpt lat="44.13299" lon="5.06398">
        <ele>233</ele>
        <time>2015-06-24T08:37:29Z</time>
      </trkpt>
      <trkpt lat="44.13296" lon="5.0641">
        <ele>233.5</ele>
        <time>2015-06-24T08:37:36Z</time>
      </trkpt>
      <trkpt lat="44.13293" lon="5.06423">
        <ele>233.9</ele>
        <time>2015-06-24T08:37:44Z</time>
      </trkpt>
      <trkpt lat="44.1329" lon="5.06435">
        <ele>234.5</ele>
        <time>2015-06-24T08:37:51Z</time>
      </trkpt>
      <trkpt lat="44.13291" lon="5.06448">
        <ele>235.2</ele>
        <time>2015-06-24T08:37:58Z</time>
      </trkpt>
      <trkpt lat="44.13287" lon="5.0646">
        <ele>235.7</ele>
        <time>2015-06-24T08:38:04Z</time>
      </trkpt>
      <trkpt lat="44.13282" lon="5.06472">
        <ele>236.7</ele>
        <time>2015-06-24T08:38:14Z</time>
      </trkpt>
      <trkpt lat="44.13279" lon="5.06484">
        <ele>237.6</ele>
        <time>2015-06-24T08:38:23Z</time>
      </trkpt>
      <trkpt lat="44.13278" lon="5.06497">
        <ele>238.1</ele>
        <time>2015-06-24T08:38:30Z</time>
      </trkpt>
      <trkpt lat="44.13275" lon="5.0651">
        <ele>238.4</ele>
        <time>2015-06-24T08:38:37Z</time>
      </trkpt>
      <trkpt lat="44.13278" lon="5.06522">
        <ele>238.4</ele>
        <time>2015-06-24T08:38:46Z</time>
      </trkpt>
      <trkpt lat="44.1328" lon="5.06535">
        <ele>238.4</ele>
        <time>2015-06-24T08:38:55Z</time>
      </trkpt>
      <trkpt lat="44.13283" lon="5.06548">
        <ele>238.5</ele>
        <time>2015-06-24T08:39:03Z</time>
      </trkpt>
      <trkpt lat="44.13281" lon="5.06561">
        <ele>238.6</ele>
        <time>2015-06-24T08:39:08Z</time>
      </trkpt>
      <trkpt lat="44.13277" lon="5.06574">
        <ele>238.6</ele>
        <time>2015-06-24T08:39:15Z</time>
      </trkpt>
      <trkpt lat="44.13277" lon="5.06587">
        <ele>238.7</ele>
        <time>2015-06-24T08:39:23Z</time>
      </trkpt>
      <trkpt lat="44.13277" lon="5.06601">
        <ele>238.7</ele>
        <time>2015-06-24T08:39:30Z</time>
      </trkpt>
      <trkpt lat="44.13276" lon="5.06614">
        <ele>238.7</ele>
        <time>2015-06-24T08:39:36Z</time>
      </trkpt>
      <trkpt lat="44.13277" lon="5.06626">
        <ele>238.8</ele>
        <time>2015-06-24T08:39:45Z</time>
      </trkpt>
      <trkpt lat="44.13278" lon="5.06639">
        <ele>238.9</ele>
        <time>2015-06-24T08:39:56Z</time>
      </trkpt>
      <trkpt lat="44.13279" lon="5.06652">
        <ele>239.2</ele>
        <time>2015-06-24T08:40:03Z</time>
      </trkpt>
      <trkpt lat="44.13279" lon="5.06667">
        <ele>239.6</ele>
        <time>2015-06-24T08:40:10Z</time>
      </trkpt>
      <trkpt lat="44.1328" lon="5.06681">
        <ele>239.9</ele>
        <time>2015-06-24T08:40:17Z</time>
      </trkpt>
      <trkpt lat="44.13285" lon="5.06693">
        <ele>240.3</ele>
        <time>2015-06-24T08:40:26Z</time>
      </trkpt>
      <trkpt lat="44.13291" lon="5.06703">
        <ele>240.7</ele>
        <time>2015-06-24T08:40:33Z</time>
      </trkpt>
      <trkpt lat="44.13293" lon="5.06715">
        <ele>241.1</ele>
        <time>2015-06-24T08:40:41Z</time>
      </trkpt>
      <trkpt lat="44.13296" lon="5.06729">
        <ele>241.4</ele>
        <time>2015-06-24T08:40:48Z</time>
      </trkpt>
      <trkpt lat="44.13298" lon="5.06745">
        <ele>241.7</ele>
        <time>2015-06-24T08:40:56Z</time>
      </trkpt>
      <trkpt lat="44.13299" lon="5.06758">
        <ele>242.2</ele>
        <time>2015-06-24T08:41:05Z</time>
      </trkpt>
      <trkpt lat="44.13303" lon="5.0677">
        <ele>243</ele>
        <time>2015-06-24T08:41:13Z</time>
      </trkpt>
      <trkpt lat="44.13309" lon="5.06781">
        <ele>244.1</ele>
        <time>2015-06-24T08:41:22Z</time>
      </trkpt>
      <trkpt lat="44.13317" lon="5.06788">
        <ele>245.1</ele>
        <time>2015-06-24T08:41:28Z</time>
      </trkpt>
      <trkpt lat="44.13325" lon="5.06796">
        <ele>246.5</ele>
        <time>2015-06-24T08:41:37Z</time>
      </trkpt>
      <trkpt lat="44.13331" lon="5.06807">
        <ele>247.2</ele>
        <time>2015-06-24T08:41:44Z</time>
      </trkpt>
      <trkpt lat="44.13339" lon="5.06813">
        <ele>248.2</ele>
        <time>2015-06-24T08:41:51Z</time>
      </trkpt>
      <trkpt lat="44.13347" lon="5.0682">
        <ele>250</ele>
        <time>2015-06-24T08:42:01Z</time>
      </trkpt>
      <trkpt lat="44.13356" lon="5.06825">
        <ele>251.9</ele>
        <time>2015-06-24T08:42:11Z</time>
      </trkpt>
      <trkpt lat="44.13365" lon="5.06831">
        <ele>254.2</ele>
        <time>2015-06-24T08:42:23Z</time>
      </trkpt>
      <trkpt lat="44.13375" lon="5.06833">
        <ele>255.5</ele>
        <time>2015-06-24T08:42:30Z</time>
      </trkpt>
      <trkpt lat="44.13383" lon="5.0684">
        <ele>256.6</ele>
        <time>2015-06-24T08:42:37Z</time>
      </trkpt>
      <trkpt lat="44.13392" lon="5.06846">
        <ele>257.9</ele>
        <time>2015-06-24T08:42:44Z</time>
      </trkpt>
      <trkpt lat="44.13396" lon="5.06857">
        <ele>259</ele>
        <time>2015-06-24T08:42:52Z</time>
      </trkpt>
      <trkpt lat="44.13403" lon="5.06865">
        <ele>259.9</ele>
        <time>2015-06-24T08:42:58Z</time>
      </trkpt>
      <trkpt lat="44.13409" lon="5.06876">
        <ele>261.4</ele>
        <time>2015-06-24T08:43:05Z</time>
      </trkpt>
      <trkpt lat="44.13416" lon="5.06884">
        <ele>262.9</ele>
        <time>2015-06-24T08:43:12Z</time>
      </trkpt>
      <trkpt lat="44.13423" lon="5.06894">
        <ele>265.4</ele>
        <time>2015-06-24T08:43:24Z</time>
      </trkpt>
      <trkpt lat="44.13428" lon="5.06905">
        <ele>267.4</ele>
        <time>2015-06-24T08:43:34Z</time>
      </trkpt>
      <trkpt lat="44.13431" lon="5.06917">
        <ele>268.9</ele>
        <time>2015-06-24T08:43:44Z</time>
      </trkpt>
      <trkpt lat="44.13437" lon="5.06927">
        <ele>270.1</ele>
        <time>2015-06-24T08:43:54Z</time>
      </trkpt>
      <trkpt lat="44.13443" lon="5.06938">
        <ele>270.9</ele>
        <time>2015-06-24T08:44:03Z</time>
      </trkpt>
      <trkpt lat="44.13454" lon="5.06939">
        <ele>271.9</ele>
        <time>2015-06-24T08:44:11Z</time>
      </trkpt>
      <trkpt lat="44.13463" lon="5.06944">
        <ele>272.3</ele>
        <time>2015-06-24T08:44:14Z</time>
      </trkpt>
      <trkpt lat="44.13471" lon="5.06952">
        <ele>273.9</ele>
        <time>2015-06-24T08:44:23Z</time>
      </trkpt>
      <trkpt lat="44.13478" lon="5.0696">
        <ele>276.2</ele>
        <time>2015-06-24T08:44:35Z</time>
      </trkpt>
      <trkpt lat="44.13486" lon="5.0697">
        <ele>278</ele>
        <time>2015-06-24T08:44:44Z</time>
      </trkpt>
      <trkpt lat="44.13493" lon="5.06977">
        <ele>279</ele>
        <time>2015-06-24T08:44:49Z</time>
      </trkpt>
      <trkpt lat="44.13503" lon="5.06981">
        <ele>280.2</ele>
        <time>2015-06-24T08:44:58Z</time>
      </trkpt>
      <trkpt lat="44.13512" lon="5.06987">
        <ele>281.3</ele>
        <time>2015-06-24T08:45:08Z</time>
      </trkpt>
      <trkpt lat="44.1352" lon="5.06992">
        <ele>282.2</ele>
        <time>2015-06-24T08:45:16Z</time>
      </trkpt>
      <trkpt lat="44.13527" lon="5.07002">
        <ele>283.4</ele>
        <time>2015-06-24T08:45:27Z</time>
      </trkpt>
      <trkpt lat="44.13532" lon="5.07014">
        <ele>284.3</ele>
        <time>2015-06-24T08:45:34Z</time>
      </trkpt>
      <trkpt lat="44.13536" lon="5.07027">
        <ele>284.9</ele>
        <time>2015-06-24T08:45:41Z</time>
      </trkpt>
      <trkpt lat="44.1354" lon="5.07042">
        <ele>285.3</ele>
        <time>2015-06-24T08:45:48Z</time>
      </trkpt>
      <trkpt lat="44.13539" lon="5.07055">
        <ele>285.6</ele>
        <time>2015-06-24T08:45:56Z</time>
      </trkpt>
      <trkpt lat="44.1354" lon="5.07071">
        <ele>285.9</ele>
        <time>2015-06-24T08:46:04Z</time>
      </trkpt>
      <trkpt lat="44.1354" lon="5.07084">
        <ele>286.4</ele>
        <time>2015-06-24T08:46:11Z</time>
      </trkpt>
      <trkpt lat="44.13539" lon="5.07097">
        <ele>287</ele>
        <time>2015-06-24T08:46:19Z</time>
      </trkpt>
      <trkpt lat="44.1354" lon="5.0711">
        <ele>288.4</ele>
        <time>2015-06-24T08:46:29Z</time>
      </trkpt>
      <trkpt lat="44.13539" lon="5.07123">
        <ele>290.4</ele>
        <time>2015-06-24T08:46:38Z</time>
      </trkpt>
      <trkpt lat="44.13539" lon="5.07136">
        <ele>291.9</ele>
        <time>2015-06-24T08:46:44Z</time>
      </trkpt>
      <trkpt lat="44.13536" lon="5.07153">
        <ele>293.5</ele>
        <time>2015-06-24T08:46:50Z</time>
      </trkpt>
      <trkpt lat="44.13542" lon="5.07164">
        <ele>296.1</ele>
        <time>2015-06-24T08:46:58Z</time>
      </trkpt>
      <trkpt lat="44.13544" lon="5.07179">
        <ele>298.5</ele>
        <time>2015-06-24T08:47:08Z</time>
      </trkpt>
      <trkpt lat="44.13543" lon="5.07193">
        <ele>300</ele>
        <time>2015-06-24T08:47:20Z</time>
      </trkpt>
      <trkpt lat="44.13539" lon="5.07205">
        <ele>300.8</ele>
        <time>2015-06-24T08:47:30Z</time>
      </trkpt>
      <trkpt lat="44.1354" lon="5.07219">
        <ele>301.2</ele>
        <time>2015-06-24T08:47:38Z</time>
      </trkpt>
      <trkpt lat="44.13542" lon="5.07232">
        <ele>301.4</ele>
        <time>2015-06-24T08:47:45Z</time>
      </trkpt>
      <trkpt lat="44.13544" lon="5.07244">
        <ele>301.5</ele>
        <time>2015-06-24T08:47:52Z</time>
      </trkpt>
      <trkpt lat="44.1355" lon="5.07255">
        <ele>301.5</ele>
        <time>2015-06-24T08:47:59Z</time>
      </trkpt>
      <trkpt lat="44.13555" lon="5.07265">
        <ele>301.4</ele>
        <time>2015-06-24T08:48:06Z</time>
      </trkpt>
      <trkpt lat="44.13562" lon="5.07273">
        <ele>300.9</ele>
        <time>2015-06-24T08:48:13Z</time>
      </trkpt>
      <trkpt lat="44.13569" lon="5.07284">
        <ele>300.6</ele>
        <time>2015-06-24T08:48:22Z</time>
      </trkpt>
      <trkpt lat="44.13571" lon="5.07297">
        <ele>300.4</ele>
        <time>2015-06-24T08:48:30Z</time>
      </trkpt>
      <trkpt lat="44.13572" lon="5.07312">
        <ele>300.2</ele>
        <time>2015-06-24T08:48:39Z</time>
      </trkpt>
      <trkpt lat="44.13573" lon="5.07324">
        <ele>300</ele>
        <time>2015-06-24T08:48:45Z</time>
      </trkpt>
      <trkpt lat="44.13574" lon="5.07338">
        <ele>299.8</ele>
        <time>2015-06-24T08:48:52Z</time>
      </trkpt>
      <trkpt lat="44.13574" lon="5.07352">
        <ele>299.7</ele>
        <time>2015-06-24T08:48:57Z</time>
      </trkpt>
      <trkpt lat="44.13568" lon="5.07341">
        <ele>299.5</ele>
        <time>2015-06-24T08:49:26Z</time>
      </trkpt>
      <trkpt lat="44.13556" lon="5.0734">
        <ele>299.6</ele>
        <time>2015-06-24T08:49:34Z</time>
      </trkpt>
      <trkpt lat="44.13547" lon="5.07345">
        <ele>299.6</ele>
        <time>2015-06-24T08:49:41Z</time>
      </trkpt>
      <trkpt lat="44.13538" lon="5.07353">
        <ele>299.6</ele>
        <time>2015-06-24T08:49:49Z</time>
      </trkpt>
      <trkpt lat="44.1353" lon="5.07362">
        <ele>299.5</ele>
        <time>2015-06-24T08:49:56Z</time>
      </trkpt>
      <trkpt lat="44.13524" lon="5.07372">
        <ele>299.1</ele>
        <time>2015-06-24T08:50:03Z</time>
      </trkpt>
      <trkpt lat="44.13517" lon="5.07381">
        <ele>298.9</ele>
        <time>2015-06-24T08:50:08Z</time>
      </trkpt>
      <trkpt lat="44.13511" lon="5.07391">
        <ele>298.6</ele>
        <time>2015-06-24T08:50:15Z</time>
      </trkpt>
      <trkpt lat="44.13504" lon="5.074">
        <ele>297.8</ele>
        <time>2015-06-24T08:50:25Z</time>
      </trkpt>
      <trkpt lat="44.13498" lon="5.0741">
        <ele>297.6</ele>
        <time>2015-06-24T08:50:32Z</time>
      </trkpt>
      <trkpt lat="44.13493" lon="5.07423">
        <ele>297.7</ele>
        <time>2015-06-24T08:50:40Z</time>
      </trkpt>
      <trkpt lat="44.13487" lon="5.07433">
        <ele>298.4</ele>
        <time>2015-06-24T08:50:49Z</time>
      </trkpt>
      <trkpt lat="44.13481" lon="5.07444">
        <ele>299.4</ele>
        <time>2015-06-24T08:50:57Z</time>
      </trkpt>
      <trkpt lat="44.13474" lon="5.07453">
        <ele>300.7</ele>
        <time>2015-06-24T08:51:04Z</time>
      </trkpt>
      <trkpt lat="44.13467" lon="5.07462">
        <ele>302.2</ele>
        <time>2015-06-24T08:51:12Z</time>
      </trkpt>
      <trkpt lat="44.13461" lon="5.07472">
        <ele>303.9</ele>
        <time>2015-06-24T08:51:20Z</time>
      </trkpt>
      <trkpt lat="44.13454" lon="5.07483">
        <ele>305.8</ele>
        <time>2015-06-24T08:51:29Z</time>
      </trkpt>
      <trkpt lat="44.13449" lon="5.07494">
        <ele>307.5</ele>
        <time>2015-06-24T08:51:37Z</time>
      </trkpt>
      <trkpt lat="44.13445" lon="5.07506">
        <ele>309.2</ele>
        <time>2015-06-24T08:51:44Z</time>
      </trkpt>
      <trkpt lat="44.13441" lon="5.07518">
        <ele>311</ele>
        <time>2015-06-24T08:51:53Z</time>
      </trkpt>
      <trkpt lat="44.13435" lon="5.07529">
        <ele>312.5</ele>
        <time>2015-06-24T08:52:01Z</time>
      </trkpt>
      <trkpt lat="44.13429" lon="5.0754">
        <ele>313.6</ele>
        <time>2015-06-24T08:52:08Z</time>
      </trkpt>
      <trkpt lat="44.13422" lon="5.07549">
        <ele>314.9</ele>
        <time>2015-06-24T08:52:15Z</time>
      </trkpt>
      <trkpt lat="44.13415" lon="5.0756">
        <ele>316.9</ele>
        <time>2015-06-24T08:52:22Z</time>
      </trkpt>
      <trkpt lat="44.13413" lon="5.07574">
        <ele>318.9</ele>
        <time>2015-06-24T08:52:29Z</time>
      </trkpt>
      <trkpt lat="44.13408" lon="5.07584">
        <ele>323.7</ele>
        <time>2015-06-24T08:52:50Z</time>
      </trkpt>
      <trkpt lat="44.13413" lon="5.07598">
        <ele>326.6</ele>
        <time>2015-06-24T08:53:08Z</time>
      </trkpt>
      <trkpt lat="44.13416" lon="5.07609">
        <ele>328.3</ele>
        <time>2015-06-24T08:53:19Z</time>
      </trkpt>
      <trkpt lat="44.13424" lon="5.07614">
        <ele>330.8</ele>
        <time>2015-06-24T08:53:30Z</time>
      </trkpt>
      <trkpt lat="44.1343" lon="5.07625">
        <ele>333.8</ele>
        <time>2015-06-24T08:53:44Z</time>
      </trkpt>
      <trkpt lat="44.13434" lon="5.07637">
        <ele>334.6</ele>
        <time>2015-06-24T08:53:49Z</time>
      </trkpt>
      <trkpt lat="44.13443" lon="5.07643">
        <ele>335.3</ele>
        <time>2015-06-24T08:53:54Z</time>
      </trkpt>
      <trkpt lat="44.13445" lon="5.07656">
        <ele>336.2</ele>
        <time>2015-06-24T08:53:58Z</time>
      </trkpt>
      <trkpt lat="44.1344" lon="5.07669">
        <ele>337.5</ele>
        <time>2015-06-24T08:54:05Z</time>
      </trkpt>
      <trkpt lat="44.13443" lon="5.07683">
        <ele>338.7</ele>
        <time>2015-06-24T08:54:14Z</time>
      </trkpt>
      <trkpt lat="44.13436" lon="5.07696">
        <ele>339.2</ele>
        <time>2015-06-24T08:54:18Z</time>
      </trkpt>
      <trkpt lat="44.13433" lon="5.07709">
        <ele>340.1</ele>
        <time>2015-06-24T08:54:24Z</time>
      </trkpt>
      <trkpt lat="44.13439" lon="5.0772">
        <ele>342.5</ele>
        <time>2015-06-24T08:54:38Z</time>
      </trkpt>
      <trkpt lat="44.13435" lon="5.07732">
        <ele>343.8</ele>
        <time>2015-06-24T08:54:49Z</time>
      </trkpt>
      <trkpt lat="44.13438" lon="5.07746">
        <ele>344.4</ele>
        <time>2015-06-24T08:54:55Z</time>
      </trkpt>
      <trkpt lat="44.13429" lon="5.0775">
        <ele>347.1</ele>
        <time>2015-06-24T08:55:16Z</time>
      </trkpt>
      <trkpt lat="44.13436" lon="5.07759">
        <ele>347.5</ele>
        <time>2015-06-24T08:55:21Z</time>
      </trkpt>
      <trkpt lat="44.13438" lon="5.07772">
        <ele>348.5</ele>
        <time>2015-06-24T08:55:43Z</time>
      </trkpt>
      <trkpt lat="44.13445" lon="5.0778">
        <ele>348.9</ele>
        <time>2015-06-24T08:55:59Z</time>
      </trkpt>
      <trkpt lat="44.13454" lon="5.07777">
        <ele>348.9</ele>
        <time>2015-06-24T08:56:21Z</time>
      </trkpt>
      <trkpt lat="44.13461" lon="5.07769">
        <ele>347.8</ele>
        <time>2015-06-24T08:56:32Z</time>
      </trkpt>
      <trkpt lat="44.1347" lon="5.07761">
        <ele>346.8</ele>
        <time>2015-06-24T08:56:39Z</time>
      </trkpt>
      <trkpt lat="44.13475" lon="5.07749">
        <ele>346</ele>
        <time>2015-06-24T08:56:45Z</time>
      </trkpt>
      <trkpt lat="44.13483" lon="5.07741">
        <ele>345.2</ele>
        <time>2015-06-24T08:56:50Z</time>
      </trkpt>
      <trkpt lat="44.13494" lon="5.07741">
        <ele>344.4</ele>
        <time>2015-06-24T08:56:56Z</time>
      </trkpt>
      <trkpt lat="44.13503" lon="5.07741">
        <ele>343.2</ele>
        <time>2015-06-24T08:57:05Z</time>
      </trkpt>
      <trkpt lat="44.13513" lon="5.07742">
        <ele>341.6</ele>
        <time>2015-06-24T08:57:17Z</time>
      </trkpt>
      <trkpt lat="44.13504" lon="5.07739">
        <ele>340.9</ele>
        <time>2015-06-24T08:57:23Z</time>
      </trkpt>
      <trkpt lat="44.13503" lon="5.07725">
        <ele>340</ele>
        <time>2015-06-24T08:57:37Z</time>
      </trkpt>
      <trkpt lat="44.13514" lon="5.0773">
        <ele>339.5</ele>
        <time>2015-06-24T08:57:47Z</time>
      </trkpt>
      <trkpt lat="44.1352" lon="5.07745">
        <ele>339.2</ele>
        <time>2015-06-24T08:57:52Z</time>
      </trkpt>
      <trkpt lat="44.13509" lon="5.07753">
        <ele>339.1</ele>
        <time>2015-06-24T08:57:54Z</time>
      </trkpt>
      <trkpt lat="44.13513" lon="5.07765">
        <ele>337</ele>
        <time>2015-06-24T08:58:16Z</time>
      </trkpt>
      <trkpt lat="44.13511" lon="5.07778">
        <ele>334.4</ele>
        <time>2015-06-24T08:58:37Z</time>
      </trkpt>
      <trkpt lat="44.1351" lon="5.07791">
        <ele>331.7</ele>
        <time>2015-06-24T08:58:51Z</time>
      </trkpt>
      <trkpt lat="44.13509" lon="5.07804">
        <ele>330.6</ele>
        <time>2015-06-24T08:58:57Z</time>
      </trkpt>
      <trkpt lat="44.13506" lon="5.07819">
        <ele>329.8</ele>
        <time>2015-06-24T08:59:00Z</time>
      </trkpt>
      <trkpt lat="44.13503" lon="5.07831">
        <ele>328.9</ele>
        <time>2015-06-24T08:59:03Z</time>
      </trkpt>
      <trkpt lat="44.13499" lon="5.07843">
        <ele>327.1</ele>
        <time>2015-06-24T08:59:09Z</time>
      </trkpt>
      <trkpt lat="44.13499" lon="5.07856">
        <ele>325</ele>
        <time>2015-06-24T08:59:17Z</time>
      </trkpt>
      <trkpt lat="44.13506" lon="5.07865">
        <ele>316.7</ele>
        <time>2015-06-24T09:01:41Z</time>
      </trkpt>
      <trkpt lat="44.13509" lon="5.07879">
        <ele>316</ele>
        <time>2015-06-24T09:01:46Z</time>
      </trkpt>
      <trkpt lat="44.13516" lon="5.07889">
        <ele>315.4</ele>
        <time>2015-06-24T09:01:51Z</time>
      </trkpt>
      <trkpt lat="44.13519" lon="5.07901">
        <ele>315.1</ele>
        <time>2015-06-24T09:01:56Z</time>
      </trkpt>
      <trkpt lat="44.13518" lon="5.07916">
        <ele>315.1</ele>
        <time>2015-06-24T09:02:03Z</time>
      </trkpt>
      <trkpt lat="44.13522" lon="5.07928">
        <ele>315.4</ele>
        <time>2015-06-24T09:02:08Z</time>
      </trkpt>
      <trkpt lat="44.13521" lon="5.07941">
        <ele>316.1</ele>
        <time>2015-06-24T09:02:17Z</time>
      </trkpt>
      <trkpt lat="44.13525" lon="5.07953">
        <ele>316.5</ele>
        <time>2015-06-24T09:02:23Z</time>
      </trkpt>
      <trkpt lat="44.1353" lon="5.07966">
        <ele>316.8</ele>
        <time>2015-06-24T09:02:31Z</time>
      </trkpt>
      <trkpt lat="44.13535" lon="5.07978">
        <ele>317.4</ele>
        <time>2015-06-24T09:02:38Z</time>
      </trkpt>
      <trkpt lat="44.13539" lon="5.0799">
        <ele>317.9</ele>
        <time>2015-06-24T09:02:43Z</time>
      </trkpt>
      <trkpt lat="44.13542" lon="5.08003">
        <ele>318.7</ele>
        <time>2015-06-24T09:02:48Z</time>
      </trkpt>
      <trkpt lat="44.13547" lon="5.08014">
        <ele>320.2</ele>
        <time>2015-06-24T09:02:55Z</time>
      </trkpt>
      <trkpt lat="44.13552" lon="5.08025">
        <ele>322</ele>
        <time>2015-06-24T09:03:03Z</time>
      </trkpt>
      <trkpt lat="44.13553" lon="5.08039">
        <ele>323.6</ele>
        <time>2015-06-24T09:03:11Z</time>
      </trkpt>
      <trkpt lat="44.13562" lon="5.08044">
        <ele>325.7</ele>
        <time>2015-06-24T09:03:21Z</time>
      </trkpt>
      <trkpt lat="44.13561" lon="5.08058">
        <ele>326.8</ele>
        <time>2015-06-24T09:03:30Z</time>
      </trkpt>
      <trkpt lat="44.13553" lon="5.08069">
        <ele>328.1</ele>
        <time>2015-06-24T09:03:36Z</time>
      </trkpt>
      <trkpt lat="44.13542" lon="5.08075">
        <ele>328.5</ele>
        <time>2015-06-24T09:03:38Z</time>
      </trkpt>
      <trkpt lat="44.13529" lon="5.08083">
        <ele>328.9</ele>
        <time>2015-06-24T09:03:40Z</time>
      </trkpt>
      <trkpt lat="44.1352" lon="5.08087">
        <ele>329</ele>
        <time>2015-06-24T09:03:41Z</time>
      </trkpt>
      <trkpt lat="44.13505" lon="5.08091">
        <ele>329.1</ele>
        <time>2015-06-24T09:03:42Z</time>
      </trkpt>
      <trkpt lat="44.13493" lon="5.08096">
        <ele>329.4</ele>
        <time>2015-06-24T09:03:43Z</time>
      </trkpt>
      <trkpt lat="44.13481" lon="5.081">
        <ele>329.7</ele>
        <time>2015-06-24T09:03:44Z</time>
      </trkpt>
      <trkpt lat="44.1347" lon="5.08104">
        <ele>330</ele>
        <time>2015-06-24T09:03:45Z</time>
      </trkpt>
      <trkpt lat="44.13459" lon="5.08108">
        <ele>330.2</ele>
        <time>2015-06-24T09:03:46Z</time>
      </trkpt>
      <trkpt lat="44.13449" lon="5.08112">
        <ele>330.5</ele>
        <time>2015-06-24T09:03:47Z</time>
      </trkpt>
      <trkpt lat="44.13438" lon="5.08117">
        <ele>330.7</ele>
        <time>2015-06-24T09:03:48Z</time>
      </trkpt>
      <trkpt lat="44.13423" lon="5.08121">
        <ele>330.9</ele>
        <time>2015-06-24T09:03:49Z</time>
      </trkpt>
      <trkpt lat="44.13408" lon="5.08124">
        <ele>331.1</ele>
        <time>2015-06-24T09:03:50Z</time>
      </trkpt>
      <trkpt lat="44.13392" lon="5.08128">
        <ele>331.3</ele>
        <time>2015-06-24T09:03:51Z</time>
      </trkpt>
      <trkpt lat="44.13382" lon="5.08131">
        <ele>331.5</ele>
        <time>2015-06-24T09:03:52Z</time>
      </trkpt>
      <trkpt lat="44.13368" lon="5.08135">
        <ele>331.7</ele>
        <time>2015-06-24T09:03:53Z</time>
      </trkpt>
      <trkpt lat="44.13353" lon="5.08139">
        <ele>331.9</ele>
        <time>2015-06-24T09:03:54Z</time>
      </trkpt>
      <trkpt lat="44.13336" lon="5.08142">
        <ele>332.2</ele>
        <time>2015-06-24T09:03:55Z</time>
      </trkpt>
      <trkpt lat="44.13317" lon="5.08144">
        <ele>332.4</ele>
        <time>2015-06-24T09:03:56Z</time>
      </trkpt>
      <trkpt lat="44.13297" lon="5.08151">
        <ele>332.5</ele>
        <time>2015-06-24T09:03:57Z</time>
      </trkpt>
      <trkpt lat="44.13277" lon="5.08156">
        <ele>332.7</ele>
        <time>2015-06-24T09:03:58Z</time>
      </trkpt>
      <trkpt lat="44.13259" lon="5.08161">
        <ele>332.9</ele>
        <time>2015-06-24T09:03:59Z</time>
      </trkpt>
      <trkpt lat="44.13248" lon="5.08165">
        <ele>333.1</ele>
        <time>2015-06-24T09:04:00Z</time>
      </trkpt>
      <trkpt lat="44.13238" lon="5.08168">
        <ele>333.3</ele>
        <time>2015-06-24T09:04:01Z</time>
      </trkpt>
      <trkpt lat="44.13225" lon="5.08172">
        <ele>333.5</ele>
        <time>2015-06-24T09:04:02Z</time>
      </trkpt>
      <trkpt lat="44.13208" lon="5.08173">
        <ele>333.7</ele>
        <time>2015-06-24T09:04:03Z</time>
      </trkpt>
      <trkpt lat="44.13188" lon="5.08174">
        <ele>334</ele>
        <time>2015-06-24T09:04:05Z</time>
      </trkpt>
      <trkpt lat="44.13175" lon="5.08177">
        <ele>334.2</ele>
        <time>2015-06-24T09:04:06Z</time>
      </trkpt>
      <trkpt lat="44.13166" lon="5.08179">
        <ele>334.3</ele>
        <time>2015-06-24T09:04:07Z</time>
      </trkpt>
      <trkpt lat="44.13154" lon="5.08179">
        <ele>334.4</ele>
        <time>2015-06-24T09:04:08Z</time>
      </trkpt>
      <trkpt lat="44.13142" lon="5.08182">
        <ele>334.6</ele>
        <time>2015-06-24T09:04:09Z</time>
      </trkpt>
      <trkpt lat="44.13131" lon="5.08185">
        <ele>334.7</ele>
        <time>2015-06-24T09:04:10Z</time>
      </trkpt>
      <trkpt lat="44.1312" lon="5.08187">
        <ele>334.8</ele>
        <time>2015-06-24T09:04:11Z</time>
      </trkpt>
      <trkpt lat="44.1311" lon="5.0819">
        <ele>335</ele>
        <time>2015-06-24T09:04:12Z</time>
      </trkpt>
      <trkpt lat="44.131" lon="5.08193">
        <ele>335</ele>
        <time>2015-06-24T09:04:17Z</time>
      </trkpt>
      <trkpt lat="44.13113" lon="5.08192">
        <ele>336.6</ele>
        <time>2015-06-24T09:04:26Z</time>
      </trkpt>
      <trkpt lat="44.13125" lon="5.0819">
        <ele>336.8</ele>
        <time>2015-06-24T09:04:28Z</time>
      </trkpt>
      <trkpt lat="44.13134" lon="5.0819">
        <ele>337</ele>
        <time>2015-06-24T09:04:30Z</time>
      </trkpt>
      <trkpt lat="44.13144" lon="5.0819">
        <ele>337.3</ele>
        <time>2015-06-24T09:04:35Z</time>
      </trkpt>
      <trkpt lat="44.13154" lon="5.08195">
        <ele>338.3</ele>
        <time>2015-06-24T09:04:51Z</time>
      </trkpt>
      <trkpt lat="44.13163" lon="5.08196">
        <ele>338.6</ele>
        <time>2015-06-24T09:04:55Z</time>
      </trkpt>
      <trkpt lat="44.13175" lon="5.08197">
        <ele>338.9</ele>
        <time>2015-06-24T09:04:59Z</time>
      </trkpt>
      <trkpt lat="44.13188" lon="5.082">
        <ele>339.1</ele>
        <time>2015-06-24T09:05:02Z</time>
      </trkpt>
      <trkpt lat="44.13198" lon="5.08203">
        <ele>339.2</ele>
        <time>2015-06-24T09:05:04Z</time>
      </trkpt>
      <trkpt lat="44.13208" lon="5.08204">
        <ele>339.3</ele>
        <time>2015-06-24T09:05:06Z</time>
      </trkpt>
      <trkpt lat="44.13218" lon="5.08207">
        <ele>339.4</ele>
        <time>2015-06-24T09:05:08Z</time>
      </trkpt>
      <trkpt lat="44.13231" lon="5.0821">
        <ele>339.6</ele>
        <time>2015-06-24T09:05:11Z</time>
      </trkpt>
      <trkpt lat="44.1371" lon="5.08137">
        <ele>340</ele>
        <time>2015-06-24T09:05:17Z</time>
      </trkpt>
      <trkpt lat="44.13757" lon="5.08134">
        <ele>340.4</ele>
        <time>2015-06-24T09:05:22Z</time>
      </trkpt>
      <trkpt lat="44.13766" lon="5.0814">
        <ele>340.7</ele>
        <time>2015-06-24T09:05:25Z</time>
      </trkpt>
      <trkpt lat="44.13775" lon="5.08145">
        <ele>341.1</ele>
        <time>2015-06-24T09:05:29Z</time>
      </trkpt>
      <trkpt lat="44.13771" lon="5.08157">
        <ele>342.5</ele>
        <time>2015-06-24T09:05:43Z</time>
      </trkpt>
      <trkpt lat="44.13771" lon="5.08173">
        <ele>344.1</ele>
        <time>2015-06-24T09:05:54Z</time>
      </trkpt>
      <trkpt lat="44.13762" lon="5.08182">
        <ele>344.6</ele>
        <time>2015-06-24T09:05:57Z</time>
      </trkpt>
      <trkpt lat="44.13753" lon="5.08174">
        <ele>345.9</ele>
        <time>2015-06-24T09:06:04Z</time>
      </trkpt>
      <trkpt lat="44.13747" lon="5.08165">
        <ele>349.6</ele>
        <time>2015-06-24T09:06:23Z</time>
      </trkpt>
      <trkpt lat="44.13736" lon="5.08165">
        <ele>350.4</ele>
        <time>2015-06-24T09:06:28Z</time>
      </trkpt>
      <trkpt lat="44.13727" lon="5.08159">
        <ele>351.1</ele>
        <time>2015-06-24T09:06:35Z</time>
      </trkpt>
      <trkpt lat="44.13722" lon="5.0817">
        <ele>352.3</ele>
        <time>2015-06-24T09:06:45Z</time>
      </trkpt>
      <trkpt lat="44.13725" lon="5.08183">
        <ele>353.8</ele>
        <time>2015-06-24T09:06:54Z</time>
      </trkpt>
      <trkpt lat="44.13728" lon="5.08197">
        <ele>354.9</ele>
        <time>2015-06-24T09:07:04Z</time>
      </trkpt>
      <trkpt lat="44.13731" lon="5.08209">
        <ele>355.6</ele>
        <time>2015-06-24T09:07:12Z</time>
      </trkpt>
      <trkpt lat="44.13731" lon="5.08221">
        <ele>356.4</ele>
        <time>2015-06-24T09:07:22Z</time>
      </trkpt>
      <trkpt lat="44.13726" lon="5.08209">
        <ele>357.5</ele>
        <time>2015-06-24T09:07:31Z</time>
      </trkpt>
      <trkpt lat="44.1372" lon="5.08198">
        <ele>358.7</ele>
        <time>2015-06-24T09:07:40Z</time>
      </trkpt>
      <trkpt lat="44.13711" lon="5.08191">
        <ele>359.5</ele>
        <time>2015-06-24T09:07:47Z</time>
      </trkpt>
      <trkpt lat="44.13703" lon="5.08186">
        <ele>361</ele>
        <time>2015-06-24T09:07:56Z</time>
      </trkpt>
      <trkpt lat="44.13693" lon="5.08185">
        <ele>362.5</ele>
        <time>2015-06-24T09:08:07Z</time>
      </trkpt>
      <trkpt lat="44.13684" lon="5.08184">
        <ele>363.5</ele>
        <time>2015-06-24T09:08:16Z</time>
      </trkpt>
      <trkpt lat="44.13675" lon="5.0818">
        <ele>365.3</ele>
        <time>2015-06-24T09:08:27Z</time>
      </trkpt>
      <trkpt lat="44.13667" lon="5.08175">
        <ele>367.6</ele>
        <time>2015-06-24T09:08:45Z</time>
      </trkpt>
      <trkpt lat="44.13659" lon="5.08168">
        <ele>368.4</ele>
        <time>2015-06-24T09:08:55Z</time>
      </trkpt>
      <trkpt lat="44.13649" lon="5.08166">
        <ele>368.7</ele>
        <time>2015-06-24T09:09:03Z</time>
      </trkpt>
      <trkpt lat="44.13641" lon="5.08161">
        <ele>369</ele>
        <time>2015-06-24T09:09:13Z</time>
      </trkpt>
      <trkpt lat="44.13631" lon="5.08159">
        <ele>369.3</ele>
        <time>2015-06-24T09:09:21Z</time>
      </trkpt>
      <trkpt lat="44.13635" lon="5.0817">
        <ele>370</ele>
        <time>2015-06-24T09:09:31Z</time>
      </trkpt>
      <trkpt lat="44.13644" lon="5.08178">
        <ele>370.5</ele>
        <time>2015-06-24T09:09:41Z</time>
      </trkpt>
      <trkpt lat="44.13639" lon="5.0819">
        <ele>371.3</ele>
        <time>2015-06-24T09:09:53Z</time>
      </trkpt>
      <trkpt lat="44.1363" lon="5.08194">
        <ele>372.7</ele>
        <time>2015-06-24T09:10:02Z</time>
      </trkpt>
      <trkpt lat="44.13626" lon="5.08208">
        <ele>375.4</ele>
        <time>2015-06-24T09:10:18Z</time>
      </trkpt>
      <trkpt lat="44.13625" lon="5.08222">
        <ele>376.6</ele>
        <time>2015-06-24T09:10:25Z</time>
      </trkpt>
      <trkpt lat="44.13617" lon="5.0823">
        <ele>377.5</ele>
        <time>2015-06-24T09:10:32Z</time>
      </trkpt>
      <trkpt lat="44.13608" lon="5.08236">
        <ele>378.5</ele>
        <time>2015-06-24T09:10:45Z</time>
      </trkpt>
      <trkpt lat="44.13604" lon="5.08248">
        <ele>379</ele>
        <time>2015-06-24T09:10:54Z</time>
      </trkpt>
      <trkpt lat="44.13605" lon="5.08262">
        <ele>379.5</ele>
        <time>2015-06-24T09:11:08Z</time>
      </trkpt>
      <trkpt lat="44.13598" lon="5.08273">
        <ele>379.7</ele>
        <time>2015-06-24T09:11:15Z</time>
      </trkpt>
      <trkpt lat="44.13596" lon="5.08286">
        <ele>379.7</ele>
        <time>2015-06-24T09:11:22Z</time>
      </trkpt>
      <trkpt lat="44.1359" lon="5.08295">
        <ele>379.8</ele>
        <time>2015-06-24T09:11:32Z</time>
      </trkpt>
      <trkpt lat="44.13587" lon="5.08307">
        <ele>379.9</ele>
        <time>2015-06-24T09:11:39Z</time>
      </trkpt>
      <trkpt lat="44.13578" lon="5.08314">
        <ele>379.9</ele>
        <time>2015-06-24T09:11:48Z</time>
      </trkpt>
      <trkpt lat="44.13569" lon="5.08316">
        <ele>380</ele>
        <time>2015-06-24T09:11:54Z</time>
      </trkpt>
      <trkpt lat="44.13561" lon="5.08328">
        <ele>380.2</ele>
        <time>2015-06-24T09:12:10Z</time>
      </trkpt>
      <trkpt lat="44.13558" lon="5.08341">
        <ele>380.1</ele>
        <time>2015-06-24T09:12:22Z</time>
      </trkpt>
      <trkpt lat="44.13554" lon="5.08353">
        <ele>378.9</ele>
        <time>2015-06-24T09:12:41Z</time>
      </trkpt>
      <trkpt lat="44.1355" lon="5.08365">
        <ele>377.9</ele>
        <time>2015-06-24T09:12:47Z</time>
      </trkpt>
      <trkpt lat="44.13544" lon="5.08375">
        <ele>376.8</ele>
        <time>2015-06-24T09:12:54Z</time>
      </trkpt>
      <trkpt lat="44.13534" lon="5.08378">
        <ele>375.9</ele>
        <time>2015-06-24T09:13:01Z</time>
      </trkpt>
      <trkpt lat="44.13528" lon="5.08387">
        <ele>375.2</ele>
        <time>2015-06-24T09:13:09Z</time>
      </trkpt>
      <trkpt lat="44.1352" lon="5.08394">
        <ele>374.8</ele>
        <time>2015-06-24T09:13:19Z</time>
      </trkpt>
      <trkpt lat="44.13511" lon="5.08397">
        <ele>374.5</ele>
        <time>2015-06-24T09:13:52Z</time>
      </trkpt>
      <trkpt lat="44.13508" lon="5.08412">
        <ele>373.8</ele>
        <time>2015-06-24T09:14:03Z</time>
      </trkpt>
      <trkpt lat="44.13503" lon="5.08423">
        <ele>373.3</ele>
        <time>2015-06-24T09:14:49Z</time>
      </trkpt>
      <trkpt lat="44.13511" lon="5.08428">
        <ele>368.2</ele>
        <time>2015-06-24T09:15:23Z</time>
      </trkpt>
      <trkpt lat="44.13513" lon="5.08441">
        <ele>366.9</ele>
        <time>2015-06-24T09:15:34Z</time>
      </trkpt>
      <trkpt lat="44.13519" lon="5.08451">
        <ele>365.2</ele>
        <time>2015-06-24T09:15:44Z</time>
      </trkpt>
      <trkpt lat="44.13528" lon="5.08444">
        <ele>360.1</ele>
        <time>2015-06-24T09:16:15Z</time>
      </trkpt>
      <trkpt lat="44.13535" lon="5.08435">
        <ele>359.4</ele>
        <time>2015-06-24T09:16:24Z</time>
      </trkpt>
      <trkpt lat="44.13544" lon="5.08429">
        <ele>359</ele>
        <time>2015-06-24T09:16:35Z</time>
      </trkpt>
      <trkpt lat="44.13552" lon="5.08424">
        <ele>358.9</ele>
        <time>2015-06-24T09:16:43Z</time>
      </trkpt>
      <trkpt lat="44.13561" lon="5.08419">
        <ele>358.8</ele>
        <time>2015-06-24T09:16:48Z</time>
      </trkpt>
      <trkpt lat="44.1357" lon="5.08416">
        <ele>358.8</ele>
        <time>2015-06-24T09:16:51Z</time>
      </trkpt>
      <trkpt lat="44.13581" lon="5.08406">
        <ele>358.7</ele>
        <time>2015-06-24T09:16:54Z</time>
      </trkpt>
      <trkpt lat="44.1359" lon="5.08401">
        <ele>358.7</ele>
        <time>2015-06-24T09:16:56Z</time>
      </trkpt>
      <trkpt lat="44.136" lon="5.08395">
        <ele>358.7</ele>
        <time>2015-06-24T09:17:00Z</time>
      </trkpt>
      <trkpt lat="44.13608" lon="5.084">
        <ele>358.7</ele>
        <time>2015-06-24T09:17:24Z</time>
      </trkpt>
      <trkpt lat="44.13616" lon="5.08393">
        <ele>358.7</ele>
        <time>2015-06-24T09:17:39Z</time>
      </trkpt>
      <trkpt lat="44.13626" lon="5.08396">
        <ele>359</ele>
        <time>2015-06-24T09:17:52Z</time>
      </trkpt>
      <trkpt lat="44.13636" lon="5.08398">
        <ele>358.7</ele>
        <time>2015-06-24T09:18:02Z</time>
      </trkpt>
      <trkpt lat="44.13645" lon="5.08402">
        <ele>358.2</ele>
        <time>2015-06-24T09:18:16Z</time>
      </trkpt>
      <trkpt lat="44.13638" lon="5.08411">
        <ele>356</ele>
        <time>2015-06-24T09:18:32Z</time>
      </trkpt>
      <trkpt lat="44.13636" lon="5.08425">
        <ele>354.6</ele>
        <time>2015-06-24T09:18:45Z</time>
      </trkpt>
      <trkpt lat="44.13643" lon="5.08434">
        <ele>353.2</ele>
        <time>2015-06-24T09:18:55Z</time>
      </trkpt>
      <trkpt lat="44.13651" lon="5.0844">
        <ele>351.7</ele>
        <time>2015-06-24T09:19:04Z</time>
      </trkpt>
      <trkpt lat="44.13661" lon="5.08439">
        <ele>350.2</ele>
        <time>2015-06-24T09:19:12Z</time>
      </trkpt>
      <trkpt lat="44.13671" lon="5.08437">
        <ele>349</ele>
        <time>2015-06-24T09:19:21Z</time>
      </trkpt>
      <trkpt lat="44.13678" lon="5.08429">
        <ele>348</ele>
        <time>2015-06-24T09:19:32Z</time>
      </trkpt>
      <trkpt lat="44.13687" lon="5.08424">
        <ele>347.6</ele>
        <time>2015-06-24T09:19:44Z</time>
      </trkpt>
      <trkpt lat="44.13696" lon="5.08421">
        <ele>347.7</ele>
        <time>2015-06-24T09:19:55Z</time>
      </trkpt>
      <trkpt lat="44.13703" lon="5.08413">
        <ele>347.7</ele>
        <time>2015-06-24T09:20:01Z</time>
      </trkpt>
      <trkpt lat="44.13713" lon="5.08411">
        <ele>347.8</ele>
        <time>2015-06-24T09:20:11Z</time>
      </trkpt>
      <trkpt lat="44.13722" lon="5.08409">
        <ele>347.8</ele>
        <time>2015-06-24T09:20:20Z</time>
      </trkpt>
      <trkpt lat="44.13732" lon="5.08408">
        <ele>347.8</ele>
        <time>2015-06-24T09:20:33Z</time>
      </trkpt>
      <trkpt lat="44.13741" lon="5.08405">
        <ele>347.8</ele>
        <time>2015-06-24T09:20:40Z</time>
      </trkpt>
      <trkpt lat="44.13749" lon="5.08398">
        <ele>347.6</ele>
        <time>2015-06-24T09:20:48Z</time>
      </trkpt>
      <trkpt lat="44.13758" lon="5.08394">
        <ele>347.1</ele>
        <time>2015-06-24T09:20:56Z</time>
      </trkpt>
      <trkpt lat="44.13763" lon="5.08383">
        <ele>346.7</ele>
        <time>2015-06-24T09:21:01Z</time>
      </trkpt>
      <trkpt lat="44.13771" lon="5.08377">
        <ele>346.1</ele>
        <time>2015-06-24T09:21:13Z</time>
      </trkpt>
      <trkpt lat="44.13778" lon="5.08367">
        <ele>345.6</ele>
        <time>2015-06-24T09:21:24Z</time>
      </trkpt>
      <trkpt lat="44.13779" lon="5.08354">
        <ele>344.7</ele>
        <time>2015-06-24T09:21:37Z</time>
      </trkpt>
      <trkpt lat="44.13777" lon="5.08341">
        <ele>344</ele>
        <time>2015-06-24T09:21:47Z</time>
      </trkpt>
      <trkpt lat="44.13779" lon="5.08327">
        <ele>343.4</ele>
        <time>2015-06-24T09:21:53Z</time>
      </trkpt>
      <trkpt lat="44.1378" lon="5.08315">
        <ele>343</ele>
        <time>2015-06-24T09:21:59Z</time>
      </trkpt>
      <trkpt lat="44.13779" lon="5.08301">
        <ele>342.5</ele>
        <time>2015-06-24T09:22:06Z</time>
      </trkpt>
      <trkpt lat="44.1378" lon="5.08288">
        <ele>342.1</ele>
        <time>2015-06-24T09:22:12Z</time>
      </trkpt>
      <trkpt lat="44.13776" lon="5.08275">
        <ele>341.9</ele>
        <time>2015-06-24T09:22:17Z</time>
      </trkpt>
      <trkpt lat="44.13783" lon="5.08258">
        <ele>341.7</ele>
        <time>2015-06-24T09:22:21Z</time>
      </trkpt>
      <trkpt lat="44.13788" lon="5.08244">
        <ele>341.5</ele>
        <time>2015-06-24T09:22:28Z</time>
      </trkpt>
      <trkpt lat="44.1379" lon="5.08231">
        <ele>341.1</ele>
        <time>2015-06-24T09:22:33Z</time>
      </trkpt>
      <trkpt lat="44.13794" lon="5.08215">
        <ele>340.8</ele>
        <time>2015-06-24T09:22:39Z</time>
      </trkpt>
      <trkpt lat="44.13798" lon="5.08202">
        <ele>340.7</ele>
        <time>2015-06-24T09:22:42Z</time>
      </trkpt>
      <trkpt lat="44.13799" lon="5.08181">
        <ele>340.5</ele>
        <time>2015-06-24T09:22:46Z</time>
      </trkpt>
      <trkpt lat="44.13809" lon="5.08177">
        <ele>340.4</ele>
        <time>2015-06-24T09:22:49Z</time>
      </trkpt>
      <trkpt lat="44.13814" lon="5.08189">
        <ele>338.9</ele>
        <time>2015-06-24T09:23:02Z</time>
      </trkpt>
      <trkpt lat="44.13823" lon="5.08194">
        <ele>337.8</ele>
        <time>2015-06-24T09:23:09Z</time>
      </trkpt>
      <trkpt lat="44.13832" lon="5.08191">
        <ele>336.1</ele>
        <time>2015-06-24T09:23:17Z</time>
      </trkpt>
      <trkpt lat="44.13841" lon="5.08191">
        <ele>335.3</ele>
        <time>2015-06-24T09:23:21Z</time>
      </trkpt>
      <trkpt lat="44.1385" lon="5.08192">
        <ele>334</ele>
        <time>2015-06-24T09:23:28Z</time>
      </trkpt>
      <trkpt lat="44.13861" lon="5.08191">
        <ele>332.6</ele>
        <time>2015-06-24T09:23:36Z</time>
      </trkpt>
      <trkpt lat="44.13865" lon="5.08177">
        <ele>331.8</ele>
        <time>2015-06-24T09:23:42Z</time>
      </trkpt>
      <trkpt lat="44.13875" lon="5.08171">
        <ele>331.4</ele>
        <time>2015-06-24T09:23:48Z</time>
      </trkpt>
      <trkpt lat="44.13885" lon="5.0817">
        <ele>331.1</ele>
        <time>2015-06-24T09:23:55Z</time>
      </trkpt>
      <trkpt lat="44.13894" lon="5.08165">
        <ele>330.9</ele>
        <time>2015-06-24T09:24:08Z</time>
      </trkpt>
      <trkpt lat="44.13902" lon="5.0816">
        <ele>330.8</ele>
        <time>2015-06-24T09:24:16Z</time>
      </trkpt>
      <trkpt lat="44.13912" lon="5.0816">
        <ele>331</ele>
        <time>2015-06-24T09:24:25Z</time>
      </trkpt>
      <trkpt lat="44.13921" lon="5.08158">
        <ele>331</ele>
        <time>2015-06-24T09:24:29Z</time>
      </trkpt>
      <trkpt lat="44.13929" lon="5.08148">
        <ele>330.7</ele>
        <time>2015-06-24T09:24:34Z</time>
      </trkpt>
      <trkpt lat="44.13936" lon="5.08137">
        <ele>329.7</ele>
        <time>2015-06-24T09:24:38Z</time>
      </trkpt>
      <trkpt lat="44.13942" lon="5.08126">
        <ele>329</ele>
        <time>2015-06-24T09:24:43Z</time>
      </trkpt>
      <trkpt lat="44.13949" lon="5.08117">
        <ele>328.5</ele>
        <time>2015-06-24T09:24:49Z</time>
      </trkpt>
      <trkpt lat="44.13959" lon="5.08117">
        <ele>328.1</ele>
        <time>2015-06-24T09:24:56Z</time>
      </trkpt>
      <trkpt lat="44.13968" lon="5.08126">
        <ele>328</ele>
        <time>2015-06-24T09:24:59Z</time>
      </trkpt>
      <trkpt lat="44.13976" lon="5.08131">
        <ele>327.9</ele>
        <time>2015-06-24T09:25:05Z</time>
      </trkpt>
      <trkpt lat="44.13985" lon="5.08124">
        <ele>327.9</ele>
        <time>2015-06-24T09:25:10Z</time>
      </trkpt>
      <trkpt lat="44.13991" lon="5.08114">
        <ele>328.1</ele>
        <time>2015-06-24T09:25:17Z</time>
      </trkpt>
      <trkpt lat="44.13998" lon="5.08105">
        <ele>328.6</ele>
        <time>2015-06-24T09:25:25Z</time>
      </trkpt>
      <trkpt lat="44.14006" lon="5.08099">
        <ele>329.7</ele>
        <time>2015-06-24T09:25:35Z</time>
      </trkpt>
      <trkpt lat="44.14015" lon="5.08093">
        <ele>330.5</ele>
        <time>2015-06-24T09:25:41Z</time>
      </trkpt>
      <trkpt lat="44.14024" lon="5.0809">
        <ele>331.1</ele>
        <time>2015-06-24T09:25:45Z</time>
      </trkpt>
      <trkpt lat="44.14032" lon="5.08081">
        <ele>332</ele>
        <time>2015-06-24T09:25:51Z</time>
      </trkpt>
      <trkpt lat="44.1404" lon="5.08073">
        <ele>332.9</ele>
        <time>2015-06-24T09:25:57Z</time>
      </trkpt>
      <trkpt lat="44.1405" lon="5.08069">
        <ele>334.6</ele>
        <time>2015-06-24T09:26:09Z</time>
      </trkpt>
      <trkpt lat="44.14058" lon="5.08076">
        <ele>335.7</ele>
        <time>2015-06-24T09:26:16Z</time>
      </trkpt>
      <trkpt lat="44.14065" lon="5.08085">
        <ele>336.8</ele>
        <time>2015-06-24T09:26:24Z</time>
      </trkpt>
      <trkpt lat="44.14074" lon="5.08084">
        <ele>338.2</ele>
        <time>2015-06-24T09:26:33Z</time>
      </trkpt>
      <trkpt lat="44.14083" lon="5.08084">
        <ele>339.6</ele>
        <time>2015-06-24T09:26:41Z</time>
      </trkpt>
      <trkpt lat="44.14092" lon="5.08088">
        <ele>341.3</ele>
        <time>2015-06-24T09:26:49Z</time>
      </trkpt>
      <trkpt lat="44.14101" lon="5.08095">
        <ele>342.8</ele>
        <time>2015-06-24T09:26:56Z</time>
      </trkpt>
      <trkpt lat="44.1411" lon="5.0809">
        <ele>344.9</ele>
        <time>2015-06-24T09:27:05Z</time>
      </trkpt>
      <trkpt lat="44.14119" lon="5.08087">
        <ele>348.9</ele>
        <time>2015-06-24T09:27:19Z</time>
      </trkpt>
      <trkpt lat="44.14129" lon="5.08086">
        <ele>352.4</ele>
        <time>2015-06-24T09:27:33Z</time>
      </trkpt>
      <trkpt lat="44.14138" lon="5.08087">
        <ele>355.6</ele>
        <time>2015-06-24T09:27:47Z</time>
      </trkpt>
      <trkpt lat="44.14147" lon="5.0809">
        <ele>357.8</ele>
        <time>2015-06-24T09:28:01Z</time>
      </trkpt>
      <trkpt lat="44.14152" lon="5.081">
        <ele>358.7</ele>
        <time>2015-06-24T09:28:07Z</time>
      </trkpt>
      <trkpt lat="44.14162" lon="5.08101">
        <ele>359.1</ele>
        <time>2015-06-24T09:28:11Z</time>
      </trkpt>
      <trkpt lat="44.1417" lon="5.08107">
        <ele>359.6</ele>
        <time>2015-06-24T09:28:17Z</time>
      </trkpt>
      <trkpt lat="44.14177" lon="5.08114">
        <ele>360</ele>
        <time>2015-06-24T09:28:26Z</time>
      </trkpt>
      <trkpt lat="44.14191" lon="5.08119">
        <ele>360.9</ele>
        <time>2015-06-24T09:28:41Z</time>
      </trkpt>
      <trkpt lat="44.142" lon="5.08118">
        <ele>361.3</ele>
        <time>2015-06-24T09:28:44Z</time>
      </trkpt>
      <trkpt lat="44.1421" lon="5.08116">
        <ele>362.2</ele>
        <time>2015-06-24T09:28:50Z</time>
      </trkpt>
      <trkpt lat="44.14219" lon="5.08118">
        <ele>364.2</ele>
        <time>2015-06-24T09:29:02Z</time>
      </trkpt>
      <trkpt lat="44.14227" lon="5.08114">
        <ele>365.7</ele>
        <time>2015-06-24T09:29:10Z</time>
      </trkpt>
      <trkpt lat="44.14236" lon="5.08105">
        <ele>367.9</ele>
        <time>2015-06-24T09:29:22Z</time>
      </trkpt>
      <trkpt lat="44.14242" lon="5.08096">
        <ele>368.7</ele>
        <time>2015-06-24T09:29:26Z</time>
      </trkpt>
      <trkpt lat="44.1425" lon="5.08089">
        <ele>370.5</ele>
        <time>2015-06-24T09:29:34Z</time>
      </trkpt>
      <trkpt lat="44.1426" lon="5.08085">
        <ele>372.4</ele>
        <time>2015-06-24T09:29:44Z</time>
      </trkpt>
      <trkpt lat="44.14266" lon="5.08096">
        <ele>374.5</ele>
        <time>2015-06-24T09:29:55Z</time>
      </trkpt>
      <trkpt lat="44.14274" lon="5.08104">
        <ele>375</ele>
        <time>2015-06-24T09:30:03Z</time>
      </trkpt>
      <trkpt lat="44.14283" lon="5.08108">
        <ele>375.5</ele>
        <time>2015-06-24T09:30:12Z</time>
      </trkpt>
      <trkpt lat="44.14292" lon="5.08111">
        <ele>376</ele>
        <time>2015-06-24T09:30:21Z</time>
      </trkpt>
      <trkpt lat="44.14301" lon="5.08106">
        <ele>376.5</ele>
        <time>2015-06-24T09:30:30Z</time>
      </trkpt>
      <trkpt lat="44.1431" lon="5.08102">
        <ele>377.2</ele>
        <time>2015-06-24T09:30:39Z</time>
      </trkpt>
      <trkpt lat="44.14318" lon="5.08095">
        <ele>378</ele>
        <time>2015-06-24T09:30:52Z</time>
      </trkpt>
      <trkpt lat="44.1433" lon="5.08091">
        <ele>378.3</ele>
        <time>2015-06-24T09:30:58Z</time>
      </trkpt>
      <trkpt lat="44.14338" lon="5.08099">
        <ele>378.5</ele>
        <time>2015-06-24T09:31:05Z</time>
      </trkpt>
      <trkpt lat="44.14341" lon="5.08111">
        <ele>378.7</ele>
        <time>2015-06-24T09:31:12Z</time>
      </trkpt>
      <trkpt lat="44.14345" lon="5.08123">
        <ele>378.6</ele>
        <time>2015-06-24T09:31:21Z</time>
      </trkpt>
      <trkpt lat="44.14352" lon="5.08132">
        <ele>378.3</ele>
        <time>2015-06-24T09:31:29Z</time>
      </trkpt>
      <trkpt lat="44.14359" lon="5.08141">
        <ele>378.1</ele>
        <time>2015-06-24T09:31:37Z</time>
      </trkpt>
      <trkpt lat="44.14365" lon="5.08151">
        <ele>378.7</ele>
        <time>2015-06-24T09:31:47Z</time>
      </trkpt>
      <trkpt lat="44.14389" lon="5.08159">
        <ele>384</ele>
        <time>2015-06-24T09:36:07Z</time>
      </trkpt>
      <trkpt lat="44.14398" lon="5.08157">
        <ele>384.7</ele>
        <time>2015-06-24T09:36:19Z</time>
      </trkpt>
      <trkpt lat="44.14407" lon="5.0816">
        <ele>385.1</ele>
        <time>2015-06-24T09:36:53Z</time>
      </trkpt>
      <trkpt lat="44.14417" lon="5.08157">
        <ele>385.1</ele>
        <time>2015-06-24T09:37:07Z</time>
      </trkpt>
      <trkpt lat="44.14425" lon="5.08151">
        <ele>385.2</ele>
        <time>2015-06-24T09:37:15Z</time>
      </trkpt>
      <trkpt lat="44.14432" lon="5.08142">
        <ele>385.4</ele>
        <time>2015-06-24T09:37:21Z</time>
      </trkpt>
      <trkpt lat="44.14437" lon="5.08129">
        <ele>385.8</ele>
        <time>2015-06-24T09:37:27Z</time>
      </trkpt>
      <trkpt lat="44.14441" lon="5.08116">
        <ele>386.3</ele>
        <time>2015-06-24T09:37:33Z</time>
      </trkpt>
      <trkpt lat="44.14442" lon="5.08102">
        <ele>387.1</ele>
        <time>2015-06-24T09:37:41Z</time>
      </trkpt>
      <trkpt lat="44.14444" lon="5.0809">
        <ele>388</ele>
        <time>2015-06-24T09:37:48Z</time>
      </trkpt>
      <trkpt lat="44.14445" lon="5.08076">
        <ele>389.2</ele>
        <time>2015-06-24T09:37:56Z</time>
      </trkpt>
      <trkpt lat="44.14449" lon="5.08063">
        <ele>390.4</ele>
        <time>2015-06-24T09:38:04Z</time>
      </trkpt>
      <trkpt lat="44.14451" lon="5.0805">
        <ele>392.2</ele>
        <time>2015-06-24T09:38:13Z</time>
      </trkpt>
      <trkpt lat="44.14453" lon="5.08037">
        <ele>393.7</ele>
        <time>2015-06-24T09:38:21Z</time>
      </trkpt>
      <trkpt lat="44.14456" lon="5.08024">
        <ele>395.1</ele>
        <time>2015-06-24T09:38:29Z</time>
      </trkpt>
      <trkpt lat="44.14459" lon="5.08011">
        <ele>396.4</ele>
        <time>2015-06-24T09:38:37Z</time>
      </trkpt>
      <trkpt lat="44.14458" lon="5.07997">
        <ele>397.5</ele>
        <time>2015-06-24T09:38:45Z</time>
      </trkpt>
      <trkpt lat="44.14461" lon="5.07984">
        <ele>398.7</ele>
        <time>2015-06-24T09:38:53Z</time>
      </trkpt>
      <trkpt lat="44.14456" lon="5.07971">
        <ele>399.8</ele>
        <time>2015-06-24T09:39:00Z</time>
      </trkpt>
      <trkpt lat="44.14454" lon="5.07957">
        <ele>400.8</ele>
        <time>2015-06-24T09:39:07Z</time>
      </trkpt>
      <trkpt lat="44.14459" lon="5.07945">
        <ele>401.8</ele>
        <time>2015-06-24T09:39:14Z</time>
      </trkpt>
      <trkpt lat="44.14451" lon="5.07933">
        <ele>402.9</ele>
        <time>2015-06-24T09:39:21Z</time>
      </trkpt>
      <trkpt lat="44.14452" lon="5.0792">
        <ele>404.6</ele>
        <time>2015-06-24T09:39:31Z</time>
      </trkpt>
      <trkpt lat="44.14457" lon="5.07908">
        <ele>406.2</ele>
        <time>2015-06-24T09:39:41Z</time>
      </trkpt>
      <trkpt lat="44.1446" lon="5.07896">
        <ele>407.5</ele>
        <time>2015-06-24T09:39:49Z</time>
      </trkpt>
      <trkpt lat="44.14464" lon="5.07884">
        <ele>408.6</ele>
        <time>2015-06-24T09:39:57Z</time>
      </trkpt>
      <trkpt lat="44.14465" lon="5.0787">
        <ele>409.8</ele>
        <time>2015-06-24T09:40:06Z</time>
      </trkpt>
      <trkpt lat="44.1447" lon="5.07858">
        <ele>410.5</ele>
        <time>2015-06-24T09:40:14Z</time>
      </trkpt>
      <trkpt lat="44.14472" lon="5.07845">
        <ele>411.3</ele>
        <time>2015-06-24T09:40:22Z</time>
      </trkpt>
      <trkpt lat="44.14474" lon="5.07831">
        <ele>412.1</ele>
        <time>2015-06-24T09:40:30Z</time>
      </trkpt>
      <trkpt lat="44.14478" lon="5.0782">
        <ele>413.1</ele>
        <time>2015-06-24T09:40:39Z</time>
      </trkpt>
      <trkpt lat="44.1448" lon="5.07807">
        <ele>414.2</ele>
        <time>2015-06-24T09:40:49Z</time>
      </trkpt>
      <trkpt lat="44.14486" lon="5.07798">
        <ele>415.1</ele>
        <time>2015-06-24T09:40:57Z</time>
      </trkpt>
      <trkpt lat="44.14492" lon="5.07787">
        <ele>415.9</ele>
        <time>2015-06-24T09:41:09Z</time>
      </trkpt>
      <trkpt lat="44.14501" lon="5.0778">
        <ele>416.3</ele>
        <time>2015-06-24T09:41:18Z</time>
      </trkpt>
      <trkpt lat="44.14509" lon="5.07775">
        <ele>417.2</ele>
        <time>2015-06-24T09:41:54Z</time>
      </trkpt>
      <trkpt lat="44.14519" lon="5.07774">
        <ele>418.9</ele>
        <time>2015-06-24T09:43:52Z</time>
      </trkpt>
      <trkpt lat="44.14529" lon="5.07775">
        <ele>418.9</ele>
        <time>2015-06-24T09:43:59Z</time>
      </trkpt>
      <trkpt lat="44.14539" lon="5.07777">
        <ele>418.6</ele>
        <time>2015-06-24T09:44:09Z</time>
      </trkpt>
      <trkpt lat="44.14549" lon="5.07778">
        <ele>418</ele>
        <time>2015-06-24T09:44:18Z</time>
      </trkpt>
      <trkpt lat="44.14559" lon="5.07779">
        <ele>417.4</ele>
        <time>2015-06-24T09:44:27Z</time>
      </trkpt>
      <trkpt lat="44.14567" lon="5.07785">
        <ele>416.7</ele>
        <time>2015-06-24T09:44:37Z</time>
      </trkpt>
      <trkpt lat="44.14575" lon="5.07792">
        <ele>416.2</ele>
        <time>2015-06-24T09:44:45Z</time>
      </trkpt>
      <trkpt lat="44.14584" lon="5.07795">
        <ele>415.4</ele>
        <time>2015-06-24T09:44:53Z</time>
      </trkpt>
      <trkpt lat="44.14593" lon="5.07788">
        <ele>414.2</ele>
        <time>2015-06-24T09:45:04Z</time>
      </trkpt>
      <trkpt lat="44.14599" lon="5.07778">
        <ele>413.6</ele>
        <time>2015-06-24T09:45:10Z</time>
      </trkpt>
      <trkpt lat="44.14606" lon="5.0777">
        <ele>412.5</ele>
        <time>2015-06-24T09:45:18Z</time>
      </trkpt>
      <trkpt lat="44.14613" lon="5.0776">
        <ele>411.1</ele>
        <time>2015-06-24T09:45:28Z</time>
      </trkpt>
      <trkpt lat="44.14621" lon="5.07752">
        <ele>410.4</ele>
        <time>2015-06-24T09:45:34Z</time>
      </trkpt>
      <trkpt lat="44.14626" lon="5.07742">
        <ele>410</ele>
        <time>2015-06-24T09:45:39Z</time>
      </trkpt>
      <trkpt lat="44.14633" lon="5.07733">
        <ele>409.4</ele>
        <time>2015-06-24T09:45:45Z</time>
      </trkpt>
      <trkpt lat="44.14639" lon="5.07723">
        <ele>408.7</ele>
        <time>2015-06-24T09:45:50Z</time>
      </trkpt>
      <trkpt lat="44.14648" lon="5.07714">
        <ele>407.5</ele>
        <time>2015-06-24T09:45:59Z</time>
      </trkpt>
      <trkpt lat="44.14655" lon="5.07705">
        <ele>406.4</ele>
        <time>2015-06-24T09:46:07Z</time>
      </trkpt>
      <trkpt lat="44.14661" lon="5.07694">
        <ele>405.3</ele>
        <time>2015-06-24T09:46:16Z</time>
      </trkpt>
      <trkpt lat="44.14668" lon="5.07685">
        <ele>404.5</ele>
        <time>2015-06-24T09:46:25Z</time>
      </trkpt>
      <trkpt lat="44.14676" lon="5.0768">
        <ele>403.8</ele>
        <time>2015-06-24T09:46:32Z</time>
      </trkpt>
      <trkpt lat="44.14681" lon="5.07669">
        <ele>403.3</ele>
        <time>2015-06-24T09:46:38Z</time>
      </trkpt>
      <trkpt lat="44.14689" lon="5.07661">
        <ele>402.4</ele>
        <time>2015-06-24T09:46:51Z</time>
      </trkpt>
      <trkpt lat="44.14699" lon="5.07662">
        <ele>401.3</ele>
        <time>2015-06-24T09:47:02Z</time>
      </trkpt>
      <trkpt lat="44.14705" lon="5.07671">
        <ele>400.3</ele>
        <time>2015-06-24T09:47:23Z</time>
      </trkpt>
      <trkpt lat="44.14713" lon="5.07681">
        <ele>399.2</ele>
        <time>2015-06-24T09:47:35Z</time>
      </trkpt>
      <trkpt lat="44.14722" lon="5.07686">
        <ele>398.4</ele>
        <time>2015-06-24T09:47:42Z</time>
      </trkpt>
      <trkpt lat="44.1473" lon="5.07693">
        <ele>397</ele>
        <time>2015-06-24T09:47:53Z</time>
      </trkpt>
      <trkpt lat="44.14738" lon="5.07699">
        <ele>395.2</ele>
        <time>2015-06-24T09:48:03Z</time>
      </trkpt>
      <trkpt lat="44.14744" lon="5.07708">
        <ele>393.7</ele>
        <time>2015-06-24T09:48:13Z</time>
      </trkpt>
      <trkpt lat="44.14749" lon="5.07719">
        <ele>391.5</ele>
        <time>2015-06-24T09:48:26Z</time>
      </trkpt>
      <trkpt lat="44.14757" lon="5.07727">
        <ele>389.7</ele>
        <time>2015-06-24T09:48:34Z</time>
      </trkpt>
      <trkpt lat="44.14765" lon="5.07735">
        <ele>387.6</ele>
        <time>2015-06-24T09:48:45Z</time>
      </trkpt>
      <trkpt lat="44.14773" lon="5.07748">
        <ele>386.3</ele>
        <time>2015-06-24T09:48:52Z</time>
      </trkpt>
      <trkpt lat="44.14779" lon="5.0776">
        <ele>385.6</ele>
        <time>2015-06-24T09:48:56Z</time>
      </trkpt>
      <trkpt lat="44.14785" lon="5.07772">
        <ele>384.6</ele>
        <time>2015-06-24T09:49:03Z</time>
      </trkpt>
      <trkpt lat="44.1479" lon="5.07783">
        <ele>383.6</ele>
        <time>2015-06-24T09:49:09Z</time>
      </trkpt>
      <trkpt lat="44.14796" lon="5.07793">
        <ele>382.6</ele>
        <time>2015-06-24T09:49:16Z</time>
      </trkpt>
      <trkpt lat="44.14803" lon="5.07803">
        <ele>381.2</ele>
        <time>2015-06-24T09:49:25Z</time>
      </trkpt>
      <trkpt lat="44.14804" lon="5.0779">
        <ele>378.9</ele>
        <time>2015-06-24T09:49:41Z</time>
      </trkpt>
      <trkpt lat="44.14798" lon="5.0778">
        <ele>377.8</ele>
        <time>2015-06-24T09:49:48Z</time>
      </trkpt>
      <trkpt lat="44.14793" lon="5.07768">
        <ele>376.3</ele>
        <time>2015-06-24T09:49:58Z</time>
      </trkpt>
      <trkpt lat="44.14789" lon="5.07756">
        <ele>375.1</ele>
        <time>2015-06-24T09:50:10Z</time>
      </trkpt>
      <trkpt lat="44.14795" lon="5.07767">
        <ele>371</ele>
        <time>2015-06-24T09:50:41Z</time>
      </trkpt>
      <trkpt lat="44.14803" lon="5.07773">
        <ele>369.5</ele>
        <time>2015-06-24T09:50:50Z</time>
      </trkpt>
      <trkpt lat="44.14815" lon="5.0777">
        <ele>367.4</ele>
        <time>2015-06-24T09:51:04Z</time>
      </trkpt>
      <trkpt lat="44.14823" lon="5.07764">
        <ele>365.8</ele>
        <time>2015-06-24T09:51:14Z</time>
      </trkpt>
      <trkpt lat="44.14833" lon="5.07762">
        <ele>364.4</ele>
        <time>2015-06-24T09:51:24Z</time>
      </trkpt>
      <trkpt lat="44.14842" lon="5.07759">
        <ele>363.3</ele>
        <time>2015-06-24T09:51:33Z</time>
      </trkpt>
      <trkpt lat="44.14851" lon="5.07754">
        <ele>361.8</ele>
        <time>2015-06-24T09:51:41Z</time>
      </trkpt>
      <trkpt lat="44.14861" lon="5.07756">
        <ele>359.4</ele>
        <time>2015-06-24T09:51:49Z</time>
      </trkpt>
      <trkpt lat="44.14865" lon="5.07769">
        <ele>357.5</ele>
        <time>2015-06-24T09:52:01Z</time>
      </trkpt>
      <trkpt lat="44.1487" lon="5.07781">
        <ele>357</ele>
        <time>2015-06-24T09:52:09Z</time>
      </trkpt>
      <trkpt lat="44.14877" lon="5.0779">
        <ele>357</ele>
        <time>2015-06-24T09:52:18Z</time>
      </trkpt>
      <trkpt lat="44.14885" lon="5.07799">
        <ele>357.4</ele>
        <time>2015-06-24T09:52:24Z</time>
      </trkpt>
      <trkpt lat="44.14894" lon="5.07801">
        <ele>358.2</ele>
        <time>2015-06-24T09:52:35Z</time>
      </trkpt>
      <trkpt lat="44.14904" lon="5.07804">
        <ele>358.7</ele>
        <time>2015-06-24T09:52:42Z</time>
      </trkpt>
      <trkpt lat="44.14912" lon="5.07811">
        <ele>359.4</ele>
        <time>2015-06-24T09:52:53Z</time>
      </trkpt>
      <trkpt lat="44.14921" lon="5.07815">
        <ele>362.6</ele>
        <time>2015-06-24T09:53:47Z</time>
      </trkpt>
      <trkpt lat="44.14926" lon="5.0783">
        <ele>361.4</ele>
        <time>2015-06-24T09:54:10Z</time>
      </trkpt>
      <trkpt lat="44.14934" lon="5.07839">
        <ele>360.6</ele>
        <time>2015-06-24T09:54:33Z</time>
      </trkpt>
      <trkpt lat="44.14939" lon="5.0785">
        <ele>360.5</ele>
        <time>2015-06-24T09:54:45Z</time>
      </trkpt>
      <trkpt lat="44.14944" lon="5.0786">
        <ele>360.8</ele>
        <time>2015-06-24T09:55:04Z</time>
      </trkpt>
      <trkpt lat="44.14952" lon="5.07869">
        <ele>360.8</ele>
        <time>2015-06-24T09:55:13Z</time>
      </trkpt>
      <trkpt lat="44.14959" lon="5.07879">
        <ele>360.7</ele>
        <time>2015-06-24T09:55:24Z</time>
      </trkpt>
      <trkpt lat="44.14967" lon="5.07885">
        <ele>360.6</ele>
        <time>2015-06-24T09:55:31Z</time>
      </trkpt>
      <trkpt lat="44.14974" lon="5.07892">
        <ele>360.2</ele>
        <time>2015-06-24T09:55:42Z</time>
      </trkpt>
      <trkpt lat="44.14983" lon="5.07898">
        <ele>360.4</ele>
        <time>2015-06-24T09:56:58Z</time>
      </trkpt>
      <trkpt lat="44.14991" lon="5.07905">
        <ele>360.4</ele>
        <time>2015-06-24T09:57:04Z</time>
      </trkpt>
      <trkpt lat="44.14996" lon="5.07917">
        <ele>360</ele>
        <time>2015-06-24T09:57:14Z</time>
      </trkpt>
      <trkpt lat="44.15004" lon="5.07925">
        <ele>359.6</ele>
        <time>2015-06-24T09:57:24Z</time>
      </trkpt>
      <trkpt lat="44.15012" lon="5.07931">
        <ele>359.3</ele>
        <time>2015-06-24T09:57:33Z</time>
      </trkpt>
      <trkpt lat="44.15018" lon="5.0794">
        <ele>358.8</ele>
        <time>2015-06-24T09:57:43Z</time>
      </trkpt>
      <trkpt lat="44.15025" lon="5.07949">
        <ele>358.3</ele>
        <time>2015-06-24T09:57:52Z</time>
      </trkpt>
      <trkpt lat="44.15032" lon="5.07959">
        <ele>357.6</ele>
        <time>2015-06-24T09:58:01Z</time>
      </trkpt>
      <trkpt lat="44.15038" lon="5.07969">
        <ele>356.7</ele>
        <time>2015-06-24T09:58:13Z</time>
      </trkpt>
      <trkpt lat="44.15047" lon="5.07974">
        <ele>356.3</ele>
        <time>2015-06-24T09:58:20Z</time>
      </trkpt>
      <trkpt lat="44.15055" lon="5.07981">
        <ele>355.5</ele>
        <time>2015-06-24T09:58:27Z</time>
      </trkpt>
      <trkpt lat="44.15061" lon="5.0799">
        <ele>354.6</ele>
        <time>2015-06-24T09:58:36Z</time>
      </trkpt>
      <trkpt lat="44.15065" lon="5.08003">
        <ele>354</ele>
        <time>2015-06-24T09:58:45Z</time>
      </trkpt>
      <trkpt lat="44.15067" lon="5.08015">
        <ele>353.6</ele>
        <time>2015-06-24T09:58:56Z</time>
      </trkpt>
      <trkpt lat="44.15066" lon="5.08029">
        <ele>353.1</ele>
        <time>2015-06-24T09:59:08Z</time>
      </trkpt>
      <trkpt lat="44.15067" lon="5.08043">
        <ele>352</ele>
        <time>2015-06-24T09:59:19Z</time>
      </trkpt>
      <trkpt lat="44.15068" lon="5.08055">
        <ele>350.8</ele>
        <time>2015-06-24T09:59:27Z</time>
      </trkpt>
      <trkpt lat="44.15069" lon="5.0807">
        <ele>350</ele>
        <time>2015-06-24T09:59:33Z</time>
      </trkpt>
      <trkpt lat="44.15065" lon="5.08081">
        <ele>349.4</ele>
        <time>2015-06-24T09:59:38Z</time>
      </trkpt>
      <trkpt lat="44.15063" lon="5.08095">
        <ele>348.2</ele>
        <time>2015-06-24T09:59:49Z</time>
      </trkpt>
      <trkpt lat="44.15063" lon="5.08108">
        <ele>346.8</ele>
        <time>2015-06-24T09:59:59Z</time>
      </trkpt>
      <trkpt lat="44.1506" lon="5.0812">
        <ele>345.5</ele>
        <time>2015-06-24T10:00:07Z</time>
      </trkpt>
      <trkpt lat="44.15058" lon="5.08133">
        <ele>344</ele>
        <time>2015-06-24T10:00:16Z</time>
      </trkpt>
      <trkpt lat="44.15057" lon="5.08145">
        <ele>342.6</ele>
        <time>2015-06-24T10:00:25Z</time>
      </trkpt>
      <trkpt lat="44.15064" lon="5.08173">
        <ele>338</ele>
        <time>2015-06-24T10:00:49Z</time>
      </trkpt>
      <trkpt lat="44.15067" lon="5.08185">
        <ele>337.7</ele>
        <time>2015-06-24T10:00:56Z</time>
      </trkpt>
      <trkpt lat="44.15064" lon="5.08199">
        <ele>336.7</ele>
        <time>2015-06-24T10:01:04Z</time>
      </trkpt>
      <trkpt lat="44.15061" lon="5.08212">
        <ele>336.1</ele>
        <time>2015-06-24T10:01:10Z</time>
      </trkpt>
      <trkpt lat="44.15055" lon="5.08222">
        <ele>335.4</ele>
        <time>2015-06-24T10:01:18Z</time>
      </trkpt>
      <trkpt lat="44.15048" lon="5.08232">
        <ele>334.9</ele>
        <time>2015-06-24T10:01:22Z</time>
      </trkpt>
      <trkpt lat="44.1504" lon="5.0824">
        <ele>333.8</ele>
        <time>2015-06-24T10:01:29Z</time>
      </trkpt>
      <trkpt lat="44.15034" lon="5.08251">
        <ele>332.2</ele>
        <time>2015-06-24T10:01:38Z</time>
      </trkpt>
      <trkpt lat="44.15022" lon="5.08282">
        <ele>327</ele>
        <time>2015-06-24T10:02:06Z</time>
      </trkpt>
      <trkpt lat="44.15019" lon="5.08294">
        <ele>326.5</ele>
        <time>2015-06-24T10:02:12Z</time>
      </trkpt>
      <trkpt lat="44.15019" lon="5.08307">
        <ele>325</ele>
        <time>2015-06-24T10:02:20Z</time>
      </trkpt>
      <trkpt lat="44.15017" lon="5.08319">
        <ele>324.2</ele>
        <time>2015-06-24T10:02:26Z</time>
      </trkpt>
      <trkpt lat="44.15015" lon="5.08332">
        <ele>323.4</ele>
        <time>2015-06-24T10:02:30Z</time>
      </trkpt>
      <trkpt lat="44.1502" lon="5.08344">
        <ele>321.5</ele>
        <time>2015-06-24T10:02:41Z</time>
      </trkpt>
      <trkpt lat="44.15028" lon="5.08338">
        <ele>320.3</ele>
        <time>2015-06-24T10:02:50Z</time>
      </trkpt>
      <trkpt lat="44.15036" lon="5.0833">
        <ele>319.6</ele>
        <time>2015-06-24T10:02:56Z</time>
      </trkpt>
      <trkpt lat="44.15042" lon="5.08319">
        <ele>318.8</ele>
        <time>2015-06-24T10:03:03Z</time>
      </trkpt>
      <trkpt lat="44.15047" lon="5.08308">
        <ele>318.3</ele>
        <time>2015-06-24T10:03:07Z</time>
      </trkpt>
      <trkpt lat="44.15053" lon="5.08298">
        <ele>317.5</ele>
        <time>2015-06-24T10:03:14Z</time>
      </trkpt>
      <trkpt lat="44.15061" lon="5.08291">
        <ele>316.4</ele>
        <time>2015-06-24T10:03:24Z</time>
      </trkpt>
      <trkpt lat="44.15069" lon="5.08285">
        <ele>315.7</ele>
        <time>2015-06-24T10:03:34Z</time>
      </trkpt>
      <trkpt lat="44.15078" lon="5.08279">
        <ele>315.1</ele>
        <time>2015-06-24T10:03:41Z</time>
      </trkpt>
      <trkpt lat="44.15085" lon="5.08272">
        <ele>314.5</ele>
        <time>2015-06-24T10:03:48Z</time>
      </trkpt>
      <trkpt lat="44.15092" lon="5.08262">
        <ele>314</ele>
        <time>2015-06-24T10:03:56Z</time>
      </trkpt>
      <trkpt lat="44.15097" lon="5.08251">
        <ele>313.4</ele>
        <time>2015-06-24T10:04:04Z</time>
      </trkpt>
      <trkpt lat="44.15101" lon="5.08238">
        <ele>312.7</ele>
        <time>2015-06-24T10:04:12Z</time>
      </trkpt>
      <trkpt lat="44.15104" lon="5.08226">
        <ele>311.9</ele>
        <time>2015-06-24T10:04:21Z</time>
      </trkpt>
      <trkpt lat="44.15111" lon="5.08216">
        <ele>311.1</ele>
        <time>2015-06-24T10:04:29Z</time>
      </trkpt>
      <trkpt lat="44.15117" lon="5.08205">
        <ele>310.4</ele>
        <time>2015-06-24T10:04:38Z</time>
      </trkpt>
      <trkpt lat="44.15121" lon="5.08192">
        <ele>309.4</ele>
        <time>2015-06-24T10:04:47Z</time>
      </trkpt>
      <trkpt lat="44.15127" lon="5.08182">
        <ele>308.5</ele>
        <time>2015-06-24T10:04:56Z</time>
      </trkpt>
      <trkpt lat="44.15134" lon="5.08173">
        <ele>307.7</ele>
        <time>2015-06-24T10:05:04Z</time>
      </trkpt>
      <trkpt lat="44.15139" lon="5.08161">
        <ele>306.9</ele>
        <time>2015-06-24T10:05:12Z</time>
      </trkpt>
      <trkpt lat="44.15144" lon="5.08151">
        <ele>306</ele>
        <time>2015-06-24T10:05:20Z</time>
      </trkpt>
      <trkpt lat="44.15149" lon="5.08139">
        <ele>304.9</ele>
        <time>2015-06-24T10:05:30Z</time>
      </trkpt>
      <trkpt lat="44.15152" lon="5.08126">
        <ele>304.2</ele>
        <time>2015-06-24T10:05:37Z</time>
      </trkpt>
      <trkpt lat="44.15156" lon="5.08112">
        <ele>303.7</ele>
        <time>2015-06-24T10:05:43Z</time>
      </trkpt>
      <trkpt lat="44.15161" lon="5.08101">
        <ele>303.2</ele>
        <time>2015-06-24T10:05:49Z</time>
      </trkpt>
      <trkpt lat="44.15165" lon="5.08088">
        <ele>302.6</ele>
        <time>2015-06-24T10:05:57Z</time>
      </trkpt>
      <trkpt lat="44.1517" lon="5.08076">
        <ele>302.1</ele>
        <time>2015-06-24T10:06:05Z</time>
      </trkpt>
      <trkpt lat="44.15176" lon="5.08064">
        <ele>301.8</ele>
        <time>2015-06-24T10:06:11Z</time>
      </trkpt>
      <trkpt lat="44.1518" lon="5.08052">
        <ele>301.3</ele>
        <time>2015-06-24T10:06:18Z</time>
      </trkpt>
      <trkpt lat="44.15184" lon="5.08041">
        <ele>300.6</ele>
        <time>2015-06-24T10:06:26Z</time>
      </trkpt>
      <trkpt lat="44.15186" lon="5.08028">
        <ele>299.6</ele>
        <time>2015-06-24T10:06:35Z</time>
      </trkpt>
      <trkpt lat="44.1519" lon="5.08016">
        <ele>298.7</ele>
        <time>2015-06-24T10:06:42Z</time>
      </trkpt>
      <trkpt lat="44.15192" lon="5.08003">
        <ele>297.6</ele>
        <time>2015-06-24T10:06:52Z</time>
      </trkpt>
      <trkpt lat="44.15196" lon="5.0799">
        <ele>296.7</ele>
        <time>2015-06-24T10:07:01Z</time>
      </trkpt>
      <trkpt lat="44.15199" lon="5.07978">
        <ele>295.7</ele>
        <time>2015-06-24T10:07:10Z</time>
      </trkpt>
      <trkpt lat="44.15197" lon="5.07962">
        <ele>294.1</ele>
        <time>2015-06-24T10:07:21Z</time>
      </trkpt>
      <trkpt lat="44.15202" lon="5.0795">
        <ele>293</ele>
        <time>2015-06-24T10:07:29Z</time>
      </trkpt>
      <trkpt lat="44.15206" lon="5.07938">
        <ele>292.1</ele>
        <time>2015-06-24T10:07:35Z</time>
      </trkpt>
      <trkpt lat="44.15205" lon="5.07924">
        <ele>291.1</ele>
        <time>2015-06-24T10:07:42Z</time>
      </trkpt>
      <trkpt lat="44.15204" lon="5.07911">
        <ele>290.3</ele>
        <time>2015-06-24T10:07:47Z</time>
      </trkpt>
      <trkpt lat="44.15208" lon="5.07899">
        <ele>289.1</ele>
        <time>2015-06-24T10:07:55Z</time>
      </trkpt>
      <trkpt lat="44.15207" lon="5.07886">
        <ele>288.1</ele>
        <time>2015-06-24T10:08:03Z</time>
      </trkpt>
      <trkpt lat="44.15204" lon="5.07874">
        <ele>287.1</ele>
        <time>2015-06-24T10:08:11Z</time>
      </trkpt>
      <trkpt lat="44.15201" lon="5.07861">
        <ele>286.4</ele>
        <time>2015-06-24T10:08:18Z</time>
      </trkpt>
      <trkpt lat="44.15193" lon="5.07852">
        <ele>285.3</ele>
        <time>2015-06-24T10:08:27Z</time>
      </trkpt>
      <trkpt lat="44.15188" lon="5.0784">
        <ele>284.4</ele>
        <time>2015-06-24T10:08:33Z</time>
      </trkpt>
      <trkpt lat="44.15181" lon="5.07831">
        <ele>283.8</ele>
        <time>2015-06-24T10:08:40Z</time>
      </trkpt>
      <trkpt lat="44.15172" lon="5.07825">
        <ele>283.4</ele>
        <time>2015-06-24T10:08:47Z</time>
      </trkpt>
      <trkpt lat="44.15164" lon="5.07819">
        <ele>283.3</ele>
        <time>2015-06-24T10:08:54Z</time>
      </trkpt>
      <trkpt lat="44.15156" lon="5.07814">
        <ele>283.3</ele>
        <time>2015-06-24T10:09:01Z</time>
      </trkpt>
      <trkpt lat="44.15146" lon="5.07809">
        <ele>283.3</ele>
        <time>2015-06-24T10:09:09Z</time>
      </trkpt>
      <trkpt lat="44.15137" lon="5.07806">
        <ele>283.3</ele>
        <time>2015-06-24T10:09:16Z</time>
      </trkpt>
      <trkpt lat="44.15127" lon="5.07803">
        <ele>283.4</ele>
        <time>2015-06-24T10:09:23Z</time>
      </trkpt>
      <trkpt lat="44.15119" lon="5.07797">
        <ele>283.4</ele>
        <time>2015-06-24T10:09:29Z</time>
      </trkpt>
      <trkpt lat="44.15109" lon="5.07793">
        <ele>283.8</ele>
        <time>2015-06-24T10:09:38Z</time>
      </trkpt>
      <trkpt lat="44.15101" lon="5.07787">
        <ele>284.2</ele>
        <time>2015-06-24T10:09:45Z</time>
      </trkpt>
      <trkpt lat="44.15092" lon="5.0778">
        <ele>284.6</ele>
        <time>2015-06-24T10:09:52Z</time>
      </trkpt>
      <trkpt lat="44.15083" lon="5.07768">
        <ele>285.5</ele>
        <time>2015-06-24T10:10:08Z</time>
      </trkpt>
      <trkpt lat="44.15092" lon="5.07776">
        <ele>285.7</ele>
        <time>2015-06-24T10:10:24Z</time>
      </trkpt>
      <trkpt lat="44.15101" lon="5.07782">
        <ele>285.4</ele>
        <time>2015-06-24T10:10:29Z</time>
      </trkpt>
      <trkpt lat="44.15109" lon="5.07787">
        <ele>284.3</ele>
        <time>2015-06-24T10:10:41Z</time>
      </trkpt>
      <trkpt lat="44.15118" lon="5.07784">
        <ele>283.3</ele>
        <time>2015-06-24T10:10:56Z</time>
      </trkpt>
      <trkpt lat="44.15127" lon="5.07789">
        <ele>282</ele>
        <time>2015-06-24T10:11:15Z</time>
      </trkpt>
      <trkpt lat="44.15135" lon="5.07794">
        <ele>280.4</ele>
        <time>2015-06-24T10:11:37Z</time>
      </trkpt>
      <trkpt lat="44.15145" lon="5.07796">
        <ele>279</ele>
        <time>2015-06-24T10:11:51Z</time>
      </trkpt>
      <trkpt lat="44.1515" lon="5.07785">
        <ele>278</ele>
        <time>2015-06-24T10:12:00Z</time>
      </trkpt>
      <trkpt lat="44.15157" lon="5.07777">
        <ele>276</ele>
        <time>2015-06-24T10:12:14Z</time>
      </trkpt>
      <trkpt lat="44.15161" lon="5.07765">
        <ele>273.6</ele>
        <time>2015-06-24T10:12:26Z</time>
      </trkpt>
      <trkpt lat="44.1516" lon="5.0775">
        <ele>271.7</ele>
        <time>2015-06-24T10:12:34Z</time>
      </trkpt>
      <trkpt lat="44.1516" lon="5.07737">
        <ele>268.9</ele>
        <time>2015-06-24T10:12:45Z</time>
      </trkpt>
      <trkpt lat="44.15161" lon="5.07723">
        <ele>266.6</ele>
        <time>2015-06-24T10:12:54Z</time>
      </trkpt>
      <trkpt lat="44.15168" lon="5.07715">
        <ele>264.2</ele>
        <time>2015-06-24T10:13:02Z</time>
      </trkpt>
      <trkpt lat="44.15176" lon="5.07708">
        <ele>261.4</ele>
        <time>2015-06-24T10:13:14Z</time>
      </trkpt>
      <trkpt lat="44.15179" lon="5.07696">
        <ele>258.3</ele>
        <time>2015-06-24T10:13:26Z</time>
      </trkpt>
      <trkpt lat="44.15188" lon="5.0769">
        <ele>255.4</ele>
        <time>2015-06-24T10:13:38Z</time>
      </trkpt>
      <trkpt lat="44.15194" lon="5.0768">
        <ele>253.4</ele>
        <time>2015-06-24T10:13:46Z</time>
      </trkpt>
      <trkpt lat="44.15197" lon="5.07668">
        <ele>250.2</ele>
        <time>2015-06-24T10:13:58Z</time>
      </trkpt>
      <trkpt lat="44.15203" lon="5.07658">
        <ele>247.6</ele>
        <time>2015-06-24T10:14:08Z</time>
      </trkpt>
      <trkpt lat="44.15204" lon="5.07645">
        <ele>245.1</ele>
        <time>2015-06-24T10:14:18Z</time>
      </trkpt>
      <trkpt lat="44.1521" lon="5.07635">
        <ele>243.3</ele>
        <time>2015-06-24T10:14:25Z</time>
      </trkpt>
      <trkpt lat="44.15218" lon="5.07631">
        <ele>241.3</ele>
        <time>2015-06-24T10:14:33Z</time>
      </trkpt>
      <trkpt lat="44.15227" lon="5.07637">
        <ele>239.2</ele>
        <time>2015-06-24T10:14:41Z</time>
      </trkpt>
      <trkpt lat="44.15234" lon="5.07646">
        <ele>237.5</ele>
        <time>2015-06-24T10:14:48Z</time>
      </trkpt>
      <trkpt lat="44.15243" lon="5.07648">
        <ele>235.9</ele>
        <time>2015-06-24T10:14:56Z</time>
      </trkpt>
      <trkpt lat="44.15253" lon="5.07645">
        <ele>231.7</ele>
        <time>2015-06-24T10:15:51Z</time>
      </trkpt>
      <trkpt lat="44.15256" lon="5.07632">
        <ele>230.9</ele>
        <time>2015-06-24T10:16:05Z</time>
      </trkpt>
      <trkpt lat="44.15251" lon="5.07621">
        <ele>229.8</ele>
        <time>2015-06-24T10:16:13Z</time>
      </trkpt>
      <trkpt lat="44.15244" lon="5.07613">
        <ele>229</ele>
        <time>2015-06-24T10:16:19Z</time>
      </trkpt>
      <trkpt lat="44.15237" lon="5.07604">
        <ele>228.3</ele>
        <time>2015-06-24T10:16:25Z</time>
      </trkpt>
      <trkpt lat="44.1523" lon="5.07595">
        <ele>227.4</ele>
        <time>2015-06-24T10:16:32Z</time>
      </trkpt>
      <trkpt lat="44.15223" lon="5.07587">
        <ele>226.6</ele>
        <time>2015-06-24T10:16:38Z</time>
      </trkpt>
      <trkpt lat="44.15215" lon="5.07579">
        <ele>226</ele>
        <time>2015-06-24T10:16:44Z</time>
      </trkpt>
      <trkpt lat="44.15208" lon="5.07572">
        <ele>225.4</ele>
        <time>2015-06-24T10:16:51Z</time>
      </trkpt>
      <trkpt lat="44.152" lon="5.07566">
        <ele>225</ele>
        <time>2015-06-24T10:16:59Z</time>
      </trkpt>
      <trkpt lat="44.15191" lon="5.0756">
        <ele>224.7</ele>
        <time>2015-06-24T10:17:05Z</time>
      </trkpt>
      <trkpt lat="44.15184" lon="5.07553">
        <ele>224.5</ele>
        <time>2015-06-24T10:17:10Z</time>
      </trkpt>
      <trkpt lat="44.15178" lon="5.07543">
        <ele>224.1</ele>
        <time>2015-06-24T10:17:17Z</time>
      </trkpt>
      <trkpt lat="44.1517" lon="5.07535">
        <ele>223.7</ele>
        <time>2015-06-24T10:17:24Z</time>
      </trkpt>
      <trkpt lat="44.15164" lon="5.07526">
        <ele>223.3</ele>
        <time>2015-06-24T10:17:30Z</time>
      </trkpt>
      <trkpt lat="44.15161" lon="5.07512">
        <ele>222.7</ele>
        <time>2015-06-24T10:17:37Z</time>
      </trkpt>
      <trkpt lat="44.15171" lon="5.07511">
        <ele>222.1</ele>
        <time>2015-06-24T10:17:51Z</time>
      </trkpt>
      <trkpt lat="44.1518" lon="5.07514">
        <ele>221.2</ele>
        <time>2015-06-24T10:18:00Z</time>
      </trkpt>
      <trkpt lat="44.1519" lon="5.07517">
        <ele>219.8</ele>
        <time>2015-06-24T10:18:09Z</time>
      </trkpt>
      <trkpt lat="44.15199" lon="5.0752">
        <ele>218.2</ele>
        <time>2015-06-24T10:18:20Z</time>
      </trkpt>
      <trkpt lat="44.15208" lon="5.07523">
        <ele>217.2</ele>
        <time>2015-06-24T10:18:27Z</time>
      </trkpt>
      <trkpt lat="44.15217" lon="5.0753">
        <ele>215.9</ele>
        <time>2015-06-24T10:18:34Z</time>
      </trkpt>
      <trkpt lat="44.15225" lon="5.07536">
        <ele>215</ele>
        <time>2015-06-24T10:18:39Z</time>
      </trkpt>
      <trkpt lat="44.15234" lon="5.0754">
        <ele>214</ele>
        <time>2015-06-24T10:18:46Z</time>
      </trkpt>
      <trkpt lat="44.15242" lon="5.07545">
        <ele>212.8</ele>
        <time>2015-06-24T10:18:54Z</time>
      </trkpt>
      <trkpt lat="44.15253" lon="5.07551">
        <ele>211.7</ele>
        <time>2015-06-24T10:19:01Z</time>
      </trkpt>
      <trkpt lat="44.15262" lon="5.07552">
        <ele>210</ele>
        <time>2015-06-24T10:19:10Z</time>
      </trkpt>
      <trkpt lat="44.15293" lon="5.07563">
        <ele>203</ele>
        <time>2015-06-24T10:22:11Z</time>
      </trkpt>
      <trkpt lat="44.15301" lon="5.07569">
        <ele>203.3</ele>
        <time>2015-06-24T10:22:21Z</time>
      </trkpt>
      <trkpt lat="44.15311" lon="5.07573">
        <ele>203.8</ele>
        <time>2015-06-24T10:22:29Z</time>
      </trkpt>
      <trkpt lat="44.1532" lon="5.07576">
        <ele>204.2</ele>
        <time>2015-06-24T10:22:35Z</time>
      </trkpt>
      <trkpt lat="44.15329" lon="5.07582">
        <ele>204.5</ele>
        <time>2015-06-24T10:22:40Z</time>
      </trkpt>
      <trkpt lat="44.15338" lon="5.07587">
        <ele>204.7</ele>
        <time>2015-06-24T10:22:45Z</time>
      </trkpt>
      <trkpt lat="44.15347" lon="5.07589">
        <ele>205.4</ele>
        <time>2015-06-24T10:22:54Z</time>
      </trkpt>
      <trkpt lat="44.15356" lon="5.07593">
        <ele>205.9</ele>
        <time>2015-06-24T10:22:59Z</time>
      </trkpt>
      <trkpt lat="44.15365" lon="5.07598">
        <ele>206.3</ele>
        <time>2015-06-24T10:23:05Z</time>
      </trkpt>
      <trkpt lat="44.15375" lon="5.076">
        <ele>206.8</ele>
        <time>2015-06-24T10:23:12Z</time>
      </trkpt>
      <trkpt lat="44.15384" lon="5.07599">
        <ele>207.1</ele>
        <time>2015-06-24T10:23:17Z</time>
      </trkpt>
      <trkpt lat="44.15394" lon="5.07598">
        <ele>207.3</ele>
        <time>2015-06-24T10:23:23Z</time>
      </trkpt>
      <trkpt lat="44.154" lon="5.07586">
        <ele>207.5</ele>
        <time>2015-06-24T10:23:30Z</time>
      </trkpt>
      <trkpt lat="44.15402" lon="5.07574">
        <ele>207.9</ele>
        <time>2015-06-24T10:23:37Z</time>
      </trkpt>
      <trkpt lat="44.15402" lon="5.0756">
        <ele>208.8</ele>
        <time>2015-06-24T10:23:45Z</time>
      </trkpt>
      <trkpt lat="44.15401" lon="5.07547">
        <ele>209.5</ele>
        <time>2015-06-24T10:23:51Z</time>
      </trkpt>
      <trkpt lat="44.15401" lon="5.07535">
        <ele>210.1</ele>
        <time>2015-06-24T10:23:56Z</time>
      </trkpt>
      <trkpt lat="44.15404" lon="5.07522">
        <ele>210.8</ele>
        <time>2015-06-24T10:24:03Z</time>
      </trkpt>
      <trkpt lat="44.15413" lon="5.07514">
        <ele>211.4</ele>
        <time>2015-06-24T10:24:10Z</time>
      </trkpt>
      <trkpt lat="44.15424" lon="5.07512">
        <ele>212.2</ele>
        <time>2015-06-24T10:24:18Z</time>
      </trkpt>
      <trkpt lat="44.15434" lon="5.07511">
        <ele>212.8</ele>
        <time>2015-06-24T10:24:25Z</time>
      </trkpt>
      <trkpt lat="44.15442" lon="5.07506">
        <ele>213.3</ele>
        <time>2015-06-24T10:24:32Z</time>
      </trkpt>
      <trkpt lat="44.1545" lon="5.07499">
        <ele>213.8</ele>
        <time>2015-06-24T10:24:41Z</time>
      </trkpt>
      <trkpt lat="44.15455" lon="5.07487">
        <ele>214.2</ele>
        <time>2015-06-24T10:24:49Z</time>
      </trkpt>
      <trkpt lat="44.15464" lon="5.0748">
        <ele>214.6</ele>
        <time>2015-06-24T10:24:56Z</time>
      </trkpt>
      <trkpt lat="44.15473" lon="5.07475">
        <ele>215.1</ele>
        <time>2015-06-24T10:25:02Z</time>
      </trkpt>
      <trkpt lat="44.15482" lon="5.07472">
        <ele>215.6</ele>
        <time>2015-06-24T10:25:07Z</time>
      </trkpt>
      <trkpt lat="44.15491" lon="5.07465">
        <ele>216</ele>
        <time>2015-06-24T10:25:12Z</time>
      </trkpt>
      <trkpt lat="44.15499" lon="5.07458">
        <ele>216.5</ele>
        <time>2015-06-24T10:25:19Z</time>
      </trkpt>
      <trkpt lat="44.15509" lon="5.07453">
        <ele>217.1</ele>
        <time>2015-06-24T10:25:26Z</time>
      </trkpt>
      <trkpt lat="44.15518" lon="5.07448">
        <ele>217.4</ele>
        <time>2015-06-24T10:25:32Z</time>
      </trkpt>
      <trkpt lat="44.15527" lon="5.07439">
        <ele>218</ele>
        <time>2015-06-24T10:25:40Z</time>
      </trkpt>
      <trkpt lat="44.15536" lon="5.07432">
        <ele>218.5</ele>
        <time>2015-06-24T10:25:47Z</time>
      </trkpt>
      <trkpt lat="44.15542" lon="5.0742">
        <ele>218.9</ele>
        <time>2015-06-24T10:25:54Z</time>
      </trkpt>
      <trkpt lat="44.15543" lon="5.07406">
        <ele>219.5</ele>
        <time>2015-06-24T10:26:00Z</time>
      </trkpt>
      <trkpt lat="44.15554" lon="5.07405">
        <ele>221.1</ele>
        <time>2015-06-24T10:26:11Z</time>
      </trkpt>
      <trkpt lat="44.15552" lon="5.07418">
        <ele>222</ele>
        <time>2015-06-24T10:26:20Z</time>
      </trkpt>
      <trkpt lat="44.15545" lon="5.07429">
        <ele>222.5</ele>
        <time>2015-06-24T10:26:28Z</time>
      </trkpt>
      <trkpt lat="44.15539" lon="5.07439">
        <ele>222.8</ele>
        <time>2015-06-24T10:26:35Z</time>
      </trkpt>
      <trkpt lat="44.15531" lon="5.07447">
        <ele>223.1</ele>
        <time>2015-06-24T10:26:41Z</time>
      </trkpt>
      <trkpt lat="44.15524" lon="5.07455">
        <ele>223.8</ele>
        <time>2015-06-24T10:26:47Z</time>
      </trkpt>
      <trkpt lat="44.15519" lon="5.07466">
        <ele>224.6</ele>
        <time>2015-06-24T10:26:55Z</time>
      </trkpt>
      <trkpt lat="44.15514" lon="5.07478">
        <ele>225</ele>
        <time>2015-06-24T10:27:02Z</time>
      </trkpt>
      <trkpt lat="44.15511" lon="5.07491">
        <ele>225.1</ele>
        <time>2015-06-24T10:27:08Z</time>
      </trkpt>
      <trkpt lat="44.15507" lon="5.07503">
        <ele>225.2</ele>
        <time>2015-06-24T10:27:15Z</time>
      </trkpt>
      <trkpt lat="44.15505" lon="5.07517">
        <ele>225.8</ele>
        <time>2015-06-24T10:27:23Z</time>
      </trkpt>
      <trkpt lat="44.15511" lon="5.07527">
        <ele>226.5</ele>
        <time>2015-06-24T10:27:32Z</time>
      </trkpt>
      <trkpt lat="44.1552" lon="5.07534">
        <ele>227.2</ele>
        <time>2015-06-24T10:27:40Z</time>
      </trkpt>
      <trkpt lat="44.15529" lon="5.07538">
        <ele>228.2</ele>
        <time>2015-06-24T10:27:48Z</time>
      </trkpt>
      <trkpt lat="44.15538" lon="5.07535">
        <ele>229.5</ele>
        <time>2015-06-24T10:27:55Z</time>
      </trkpt>
      <trkpt lat="44.15547" lon="5.07531">
        <ele>230.8</ele>
        <time>2015-06-24T10:28:03Z</time>
      </trkpt>
      <trkpt lat="44.15557" lon="5.07527">
        <ele>231.8</ele>
        <time>2015-06-24T10:28:09Z</time>
      </trkpt>
      <trkpt lat="44.15565" lon="5.07535">
        <ele>233</ele>
        <time>2015-06-24T10:28:16Z</time>
      </trkpt>
      <trkpt lat="44.15574" lon="5.07542">
        <ele>233.8</ele>
        <time>2015-06-24T10:28:23Z</time>
      </trkpt>
      <trkpt lat="44.15583" lon="5.07547">
        <ele>234.4</ele>
        <time>2015-06-24T10:28:30Z</time>
      </trkpt>
      <trkpt lat="44.15593" lon="5.07553">
        <ele>234.6</ele>
        <time>2015-06-24T10:28:36Z</time>
      </trkpt>
      <trkpt lat="44.15602" lon="5.07557">
        <ele>234.8</ele>
        <time>2015-06-24T10:28:43Z</time>
      </trkpt>
      <trkpt lat="44.15611" lon="5.07562">
        <ele>234.9</ele>
        <time>2015-06-24T10:28:50Z</time>
      </trkpt>
      <trkpt lat="44.1562" lon="5.07568">
        <ele>234.9</ele>
        <time>2015-06-24T10:28:57Z</time>
      </trkpt>
      <trkpt lat="44.15629" lon="5.07572">
        <ele>234.8</ele>
        <time>2015-06-24T10:29:04Z</time>
      </trkpt>
      <trkpt lat="44.1564" lon="5.07574">
        <ele>234.7</ele>
        <time>2015-06-24T10:29:12Z</time>
      </trkpt>
      <trkpt lat="44.15648" lon="5.07577">
        <ele>234.7</ele>
        <time>2015-06-24T10:29:18Z</time>
      </trkpt>
      <trkpt lat="44.15659" lon="5.0758">
        <ele>234.9</ele>
        <time>2015-06-24T10:29:24Z</time>
      </trkpt>
      <trkpt lat="44.15668" lon="5.07582">
        <ele>235</ele>
        <time>2015-06-24T10:29:32Z</time>
      </trkpt>
      <trkpt lat="44.15678" lon="5.07584">
        <ele>235.1</ele>
        <time>2015-06-24T10:29:39Z</time>
      </trkpt>
      <trkpt lat="44.15687" lon="5.07586">
        <ele>235.2</ele>
        <time>2015-06-24T10:29:46Z</time>
      </trkpt>
      <trkpt lat="44.15697" lon="5.07584">
        <ele>235.5</ele>
        <time>2015-06-24T10:29:53Z</time>
      </trkpt>
      <trkpt lat="44.15706" lon="5.07584">
        <ele>235.8</ele>
        <time>2015-06-24T10:30:00Z</time>
      </trkpt>
      <trkpt lat="44.15715" lon="5.07587">
        <ele>236.1</ele>
        <time>2015-06-24T10:30:08Z</time>
      </trkpt>
      <trkpt lat="44.15725" lon="5.07587">
        <ele>236.4</ele>
        <time>2015-06-24T10:30:15Z</time>
      </trkpt>
      <trkpt lat="44.15735" lon="5.07588">
        <ele>236.6</ele>
        <time>2015-06-24T10:30:23Z</time>
      </trkpt>
      <trkpt lat="44.15744" lon="5.07586">
        <ele>237</ele>
        <time>2015-06-24T10:30:31Z</time>
      </trkpt>
      <trkpt lat="44.15753" lon="5.07586">
        <ele>238.4</ele>
        <time>2015-06-24T10:30:59Z</time>
      </trkpt>
      <trkpt lat="44.15763" lon="5.07585">
        <ele>238.7</ele>
        <time>2015-06-24T10:31:08Z</time>
      </trkpt>
      <trkpt lat="44.1577" lon="5.07593">
        <ele>240</ele>
        <time>2015-06-24T10:31:29Z</time>
      </trkpt>
      <trkpt lat="44.15779" lon="5.07589">
        <ele>240.2</ele>
        <time>2015-06-24T10:31:36Z</time>
      </trkpt>
      <trkpt lat="44.15789" lon="5.07586">
        <ele>240.5</ele>
        <time>2015-06-24T10:31:41Z</time>
      </trkpt>
      <trkpt lat="44.15799" lon="5.07586">
        <ele>241.3</ele>
        <time>2015-06-24T10:31:50Z</time>
      </trkpt>
      <trkpt lat="44.15808" lon="5.07586">
        <ele>241.9</ele>
        <time>2015-06-24T10:31:58Z</time>
      </trkpt>
      <trkpt lat="44.15818" lon="5.07584">
        <ele>242.4</ele>
        <time>2015-06-24T10:32:04Z</time>
      </trkpt>
      <trkpt lat="44.15829" lon="5.07582">
        <ele>242.8</ele>
        <time>2015-06-24T10:32:09Z</time>
      </trkpt>
      <trkpt lat="44.15839" lon="5.07584">
        <ele>243.2</ele>
        <time>2015-06-24T10:32:12Z</time>
      </trkpt>
      <trkpt lat="44.15847" lon="5.07592">
        <ele>244.1</ele>
        <time>2015-06-24T10:32:18Z</time>
      </trkpt>
      <trkpt lat="44.15851" lon="5.07605">
        <ele>245</ele>
        <time>2015-06-24T10:32:25Z</time>
      </trkpt>
      <trkpt lat="44.15856" lon="5.07618">
        <ele>245.5</ele>
        <time>2015-06-24T10:32:33Z</time>
      </trkpt>
      <trkpt lat="44.15861" lon="5.07628">
        <ele>245.5</ele>
        <time>2015-06-24T10:32:40Z</time>
      </trkpt>
      <trkpt lat="44.15864" lon="5.07641">
        <ele>245.3</ele>
        <time>2015-06-24T10:32:47Z</time>
      </trkpt>
      <trkpt lat="44.15866" lon="5.07654">
        <ele>245.1</ele>
        <time>2015-06-24T10:32:54Z</time>
      </trkpt>
      <trkpt lat="44.1587" lon="5.07666">
        <ele>244.9</ele>
        <time>2015-06-24T10:33:00Z</time>
      </trkpt>
      <trkpt lat="44.15877" lon="5.07675">
        <ele>244.6</ele>
        <time>2015-06-24T10:33:07Z</time>
      </trkpt>
      <trkpt lat="44.15886" lon="5.07681">
        <ele>244</ele>
        <time>2015-06-24T10:33:16Z</time>
      </trkpt>
      <trkpt lat="44.15894" lon="5.07688">
        <ele>243.6</ele>
        <time>2015-06-24T10:33:24Z</time>
      </trkpt>
      <trkpt lat="44.15902" lon="5.07696">
        <ele>243.2</ele>
        <time>2015-06-24T10:33:32Z</time>
      </trkpt>
      <trkpt lat="44.15909" lon="5.07705">
        <ele>243</ele>
        <time>2015-06-24T10:33:38Z</time>
      </trkpt>
      <trkpt lat="44.15917" lon="5.07715">
        <ele>242.7</ele>
        <time>2015-06-24T10:33:45Z</time>
      </trkpt>
      <trkpt lat="44.15925" lon="5.07723">
        <ele>242.5</ele>
        <time>2015-06-24T10:33:52Z</time>
      </trkpt>
      <trkpt lat="44.15934" lon="5.0773">
        <ele>242.2</ele>
        <time>2015-06-24T10:34:00Z</time>
      </trkpt>
      <trkpt lat="44.15942" lon="5.07739">
        <ele>241.7</ele>
        <time>2015-06-24T10:34:07Z</time>
      </trkpt>
      <trkpt lat="44.15949" lon="5.07746">
        <ele>241.2</ele>
        <time>2015-06-24T10:34:13Z</time>
      </trkpt>
      <trkpt lat="44.15957" lon="5.07752">
        <ele>240.6</ele>
        <time>2015-06-24T10:34:18Z</time>
      </trkpt>
      <trkpt lat="44.15967" lon="5.07758">
        <ele>240.5</ele>
        <time>2015-06-24T10:34:27Z</time>
      </trkpt>
      <trkpt lat="44.15976" lon="5.0776">
        <ele>240.1</ele>
        <time>2015-06-24T10:34:34Z</time>
      </trkpt>
      <trkpt lat="44.15985" lon="5.07759">
        <ele>239.8</ele>
        <time>2015-06-24T10:34:43Z</time>
      </trkpt>
      <trkpt lat="44.15994" lon="5.07767">
        <ele>239.7</ele>
        <time>2015-06-24T10:34:48Z</time>
      </trkpt>
      <trkpt lat="44.15997" lon="5.07779">
        <ele>239.6</ele>
        <time>2015-06-24T10:34:55Z</time>
      </trkpt>
      <trkpt lat="44.16003" lon="5.0779">
        <ele>239.5</ele>
        <time>2015-06-24T10:35:03Z</time>
      </trkpt>
      <trkpt lat="44.1601" lon="5.07799">
        <ele>239.5</ele>
        <time>2015-06-24T10:35:12Z</time>
      </trkpt>
      <trkpt lat="44.16019" lon="5.07807">
        <ele>239.5</ele>
        <time>2015-06-24T10:35:22Z</time>
      </trkpt>
      <trkpt lat="44.16027" lon="5.07814">
        <ele>239.4</ele>
        <time>2015-06-24T10:35:28Z</time>
      </trkpt>
      <trkpt lat="44.16033" lon="5.07825">
        <ele>239.3</ele>
        <time>2015-06-24T10:35:35Z</time>
      </trkpt>
      <trkpt lat="44.16041" lon="5.07835">
        <ele>239</ele>
        <time>2015-06-24T10:35:42Z</time>
      </trkpt>
      <trkpt lat="44.16048" lon="5.07844">
        <ele>238.7</ele>
        <time>2015-06-24T10:35:50Z</time>
      </trkpt>
      <trkpt lat="44.16057" lon="5.07848">
        <ele>238.5</ele>
        <time>2015-06-24T10:35:58Z</time>
      </trkpt>
      <trkpt lat="44.16064" lon="5.07859">
        <ele>238.3</ele>
        <time>2015-06-24T10:36:04Z</time>
      </trkpt>
      <trkpt lat="44.16071" lon="5.07871">
        <ele>238.2</ele>
        <time>2015-06-24T10:36:10Z</time>
      </trkpt>
      <trkpt lat="44.16076" lon="5.07882">
        <ele>237.9</ele>
        <time>2015-06-24T10:36:15Z</time>
      </trkpt>
      <trkpt lat="44.16081" lon="5.07893">
        <ele>237.6</ele>
        <time>2015-06-24T10:36:20Z</time>
      </trkpt>
      <trkpt lat="44.16087" lon="5.07905">
        <ele>237.2</ele>
        <time>2015-06-24T10:36:27Z</time>
      </trkpt>
      <trkpt lat="44.16088" lon="5.07918">
        <ele>236.9</ele>
        <time>2015-06-24T10:36:32Z</time>
      </trkpt>
      <trkpt lat="44.16091" lon="5.0793">
        <ele>236.5</ele>
        <time>2015-06-24T10:36:39Z</time>
      </trkpt>
      <trkpt lat="44.16088" lon="5.07943">
        <ele>236</ele>
        <time>2015-06-24T10:36:46Z</time>
      </trkpt>
      <trkpt lat="44.1609" lon="5.07956">
        <ele>235.7</ele>
        <time>2015-06-24T10:36:53Z</time>
      </trkpt>
      <trkpt lat="44.16092" lon="5.0797">
        <ele>235.5</ele>
        <time>2015-06-24T10:36:59Z</time>
      </trkpt>
      <trkpt lat="44.16101" lon="5.07974">
        <ele>236.8</ele>
        <time>2015-06-24T10:37:19Z</time>
      </trkpt>
      <trkpt lat="44.1611" lon="5.07977">
        <ele>237.1</ele>
        <time>2015-06-24T10:37:27Z</time>
      </trkpt>
      <trkpt lat="44.16119" lon="5.07973">
        <ele>236.8</ele>
        <time>2015-06-24T10:39:01Z</time>
      </trkpt>
      <trkpt lat="44.16125" lon="5.07984">
        <ele>235.9</ele>
        <time>2015-06-24T10:39:07Z</time>
      </trkpt>
      <trkpt lat="44.16129" lon="5.07996">
        <ele>234.9</ele>
        <time>2015-06-24T10:39:13Z</time>
      </trkpt>
      <trkpt lat="44.16131" lon="5.08008">
        <ele>233.5</ele>
        <time>2015-06-24T10:39:23Z</time>
      </trkpt>
      <trkpt lat="44.16138" lon="5.08016">
        <ele>232.3</ele>
        <time>2015-06-24T10:39:33Z</time>
      </trkpt>
      <trkpt lat="44.16147" lon="5.08021">
        <ele>231.6</ele>
        <time>2015-06-24T10:39:45Z</time>
      </trkpt>
      <trkpt lat="44.16153" lon="5.08031">
        <ele>230.9</ele>
        <time>2015-06-24T10:40:06Z</time>
      </trkpt>
      <trkpt lat="44.16158" lon="5.08043">
        <ele>230.7</ele>
        <time>2015-06-24T10:40:15Z</time>
      </trkpt>
      <trkpt lat="44.16161" lon="5.08056">
        <ele>230.7</ele>
        <time>2015-06-24T10:40:23Z</time>
      </trkpt>
      <trkpt lat="44.16165" lon="5.08068">
        <ele>230.7</ele>
        <time>2015-06-24T10:40:30Z</time>
      </trkpt>
      <trkpt lat="44.1617" lon="5.08079">
        <ele>230.8</ele>
        <time>2015-06-24T10:40:36Z</time>
      </trkpt>
      <trkpt lat="44.16173" lon="5.08091">
        <ele>231</ele>
        <time>2015-06-24T10:40:44Z</time>
      </trkpt>
      <trkpt lat="44.16175" lon="5.08104">
        <ele>231.5</ele>
        <time>2015-06-24T10:40:55Z</time>
      </trkpt>
      <trkpt lat="44.16173" lon="5.08119">
        <ele>231.6</ele>
        <time>2015-06-24T10:41:02Z</time>
      </trkpt>
      <trkpt lat="44.16172" lon="5.08132">
        <ele>231.7</ele>
        <time>2015-06-24T10:41:07Z</time>
      </trkpt>
      <trkpt lat="44.16177" lon="5.08143">
        <ele>231.8</ele>
        <time>2015-06-24T10:41:12Z</time>
      </trkpt>
      <trkpt lat="44.16179" lon="5.08159">
        <ele>231.8</ele>
        <time>2015-06-24T10:41:19Z</time>
      </trkpt>
      <trkpt lat="44.16181" lon="5.08171">
        <ele>231.8</ele>
        <time>2015-06-24T10:41:24Z</time>
      </trkpt>
      <trkpt lat="44.16185" lon="5.08184">
        <ele>231.8</ele>
        <time>2015-06-24T10:41:30Z</time>
      </trkpt>
      <trkpt lat="44.16189" lon="5.08195">
        <ele>232</ele>
        <time>2015-06-24T10:41:36Z</time>
      </trkpt>
      <trkpt lat="44.16186" lon="5.08207">
        <ele>232.2</ele>
        <time>2015-06-24T10:41:44Z</time>
      </trkpt>
      <trkpt lat="44.1618" lon="5.08218">
        <ele>232.6</ele>
        <time>2015-06-24T10:41:52Z</time>
      </trkpt>
      <trkpt lat="44.16191" lon="5.08231">
        <ele>232.9</ele>
        <time>2015-06-24T10:41:59Z</time>
      </trkpt>
      <trkpt lat="44.16198" lon="5.08239">
        <ele>233</ele>
        <time>2015-06-24T10:42:03Z</time>
      </trkpt>
      <trkpt lat="44.16207" lon="5.08246">
        <ele>233.4</ele>
        <time>2015-06-24T10:42:09Z</time>
      </trkpt>
      <trkpt lat="44.16215" lon="5.08254">
        <ele>234</ele>
        <time>2015-06-24T10:42:16Z</time>
      </trkpt>
      <trkpt lat="44.16223" lon="5.0826">
        <ele>234.6</ele>
        <time>2015-06-24T10:42:22Z</time>
      </trkpt>
      <trkpt lat="44.16231" lon="5.0827">
        <ele>235.5</ele>
        <time>2015-06-24T10:42:29Z</time>
      </trkpt>
      <trkpt lat="44.16237" lon="5.08278">
        <ele>235.6</ele>
        <time>2015-06-24T10:42:38Z</time>
      </trkpt>
      <trkpt lat="44.16245" lon="5.08285">
        <ele>236.4</ele>
        <time>2015-06-24T10:42:57Z</time>
      </trkpt>
      <trkpt lat="44.16252" lon="5.08297">
        <ele>237.3</ele>
        <time>2015-06-24T10:43:07Z</time>
      </trkpt>
      <trkpt lat="44.1626" lon="5.08305">
        <ele>238.4</ele>
        <time>2015-06-24T10:43:14Z</time>
      </trkpt>
      <trkpt lat="44.16265" lon="5.08315">
        <ele>240</ele>
        <time>2015-06-24T10:43:24Z</time>
      </trkpt>
      <trkpt lat="44.16272" lon="5.08325">
        <ele>240.8</ele>
        <time>2015-06-24T10:43:31Z</time>
      </trkpt>
      <trkpt lat="44.1628" lon="5.08331">
        <ele>241.6</ele>
        <time>2015-06-24T10:43:37Z</time>
      </trkpt>
      <trkpt lat="44.1629" lon="5.08337">
        <ele>242.5</ele>
        <time>2015-06-24T10:43:44Z</time>
      </trkpt>
      <trkpt lat="44.16299" lon="5.08344">
        <ele>243.1</ele>
        <time>2015-06-24T10:43:48Z</time>
      </trkpt>
      <trkpt lat="44.16308" lon="5.08352">
        <ele>243.8</ele>
        <time>2015-06-24T10:43:51Z</time>
      </trkpt>
      <trkpt lat="44.16307" lon="5.08365">
        <ele>246.3</ele>
        <time>2015-06-24T10:44:03Z</time>
      </trkpt>
      <trkpt lat="44.16299" lon="5.08373">
        <ele>247.6</ele>
        <time>2015-06-24T10:44:12Z</time>
      </trkpt>
      <trkpt lat="44.16289" lon="5.08379">
        <ele>248.6</ele>
        <time>2015-06-24T10:44:20Z</time>
      </trkpt>
      <trkpt lat="44.16279" lon="5.08382">
        <ele>249.4</ele>
        <time>2015-06-24T10:44:25Z</time>
      </trkpt>
      <trkpt lat="44.1627" lon="5.08384">
        <ele>250.5</ele>
        <time>2015-06-24T10:44:32Z</time>
      </trkpt>
      <trkpt lat="44.16261" lon="5.08381">
        <ele>252.1</ele>
        <time>2015-06-24T10:44:40Z</time>
      </trkpt>
      <trkpt lat="44.16253" lon="5.08373">
        <ele>253.6</ele>
        <time>2015-06-24T10:44:48Z</time>
      </trkpt>
      <trkpt lat="44.16252" lon="5.08387">
        <ele>257.8</ele>
        <time>2015-06-24T10:45:14Z</time>
      </trkpt>
      <trkpt lat="44.16247" lon="5.08399">
        <ele>258.4</ele>
        <time>2015-06-24T10:45:21Z</time>
      </trkpt>
      <trkpt lat="44.16243" lon="5.0841">
        <ele>258.8</ele>
        <time>2015-06-24T10:45:29Z</time>
      </trkpt>
      <trkpt lat="44.16239" lon="5.08421">
        <ele>259</ele>
        <time>2015-06-24T10:45:35Z</time>
      </trkpt>
      <trkpt lat="44.16233" lon="5.08431">
        <ele>259.1</ele>
        <time>2015-06-24T10:45:41Z</time>
      </trkpt>
      <trkpt lat="44.1623" lon="5.08444">
        <ele>258.9</ele>
        <time>2015-06-24T10:45:47Z</time>
      </trkpt>
      <trkpt lat="44.1623" lon="5.08457">
        <ele>258.7</ele>
        <time>2015-06-24T10:45:54Z</time>
      </trkpt>
      <trkpt lat="44.16225" lon="5.08468">
        <ele>258.6</ele>
        <time>2015-06-24T10:46:04Z</time>
      </trkpt>
      <trkpt lat="44.16222" lon="5.08482">
        <ele>258.4</ele>
        <time>2015-06-24T10:46:11Z</time>
      </trkpt>
      <trkpt lat="44.16221" lon="5.08496">
        <ele>258</ele>
        <time>2015-06-24T10:46:18Z</time>
      </trkpt>
      <trkpt lat="44.16224" lon="5.08508">
        <ele>257.6</ele>
        <time>2015-06-24T10:46:24Z</time>
      </trkpt>
      <trkpt lat="44.16227" lon="5.08521">
        <ele>257.3</ele>
        <time>2015-06-24T10:46:31Z</time>
      </trkpt>
      <trkpt lat="44.16231" lon="5.08533">
        <ele>257.1</ele>
        <time>2015-06-24T10:46:38Z</time>
      </trkpt>
      <trkpt lat="44.16234" lon="5.08545">
        <ele>257</ele>
        <time>2015-06-24T10:46:44Z</time>
      </trkpt>
      <trkpt lat="44.16238" lon="5.08558">
        <ele>257.1</ele>
        <time>2015-06-24T10:46:51Z</time>
      </trkpt>
      <trkpt lat="44.16241" lon="5.08572">
        <ele>257.3</ele>
        <time>2015-06-24T10:46:58Z</time>
      </trkpt>
      <trkpt lat="44.16242" lon="5.08585">
        <ele>257.6</ele>
        <time>2015-06-24T10:47:07Z</time>
      </trkpt>
      <trkpt lat="44.16249" lon="5.08596">
        <ele>258</ele>
        <time>2015-06-24T10:47:13Z</time>
      </trkpt>
      <trkpt lat="44.16251" lon="5.08609">
        <ele>258.5</ele>
        <time>2015-06-24T10:47:20Z</time>
      </trkpt>
      <trkpt lat="44.16251" lon="5.08622">
        <ele>258.8</ele>
        <time>2015-06-24T10:47:26Z</time>
      </trkpt>
      <trkpt lat="44.16255" lon="5.08634">
        <ele>259.3</ele>
        <time>2015-06-24T10:47:35Z</time>
      </trkpt>
      <trkpt lat="44.16264" lon="5.0864">
        <ele>259.9</ele>
        <time>2015-06-24T10:47:42Z</time>
      </trkpt>
      <trkpt lat="44.16274" lon="5.08642">
        <ele>260.3</ele>
        <time>2015-06-24T10:47:46Z</time>
      </trkpt>
      <trkpt lat="44.16284" lon="5.08637">
        <ele>261.5</ele>
        <time>2015-06-24T10:47:53Z</time>
      </trkpt>
      <trkpt lat="44.16294" lon="5.08641">
        <ele>263.1</ele>
        <time>2015-06-24T10:48:01Z</time>
      </trkpt>
      <trkpt lat="44.16301" lon="5.08648">
        <ele>265.9</ele>
        <time>2015-06-24T10:48:19Z</time>
      </trkpt>
      <trkpt lat="44.1631" lon="5.0864">
        <ele>267.2</ele>
        <time>2015-06-24T10:49:07Z</time>
      </trkpt>
      <trkpt lat="44.16319" lon="5.08642">
        <ele>267.6</ele>
        <time>2015-06-24T10:49:11Z</time>
      </trkpt>
      <trkpt lat="44.16328" lon="5.08644">
        <ele>267.9</ele>
        <time>2015-06-24T10:49:14Z</time>
      </trkpt>
      <trkpt lat="44.16337" lon="5.08652">
        <ele>271.3</ele>
        <time>2015-06-24T10:49:41Z</time>
      </trkpt>
      <trkpt lat="44.16345" lon="5.08658">
        <ele>272.2</ele>
        <time>2015-06-24T10:50:01Z</time>
      </trkpt>
      <trkpt lat="44.16355" lon="5.08662">
        <ele>272.2</ele>
        <time>2015-06-24T10:50:09Z</time>
      </trkpt>
      <trkpt lat="44.16364" lon="5.08666">
        <ele>272.5</ele>
        <time>2015-06-24T10:50:19Z</time>
      </trkpt>
      <trkpt lat="44.16372" lon="5.08658">
        <ele>273</ele>
        <time>2015-06-24T10:50:25Z</time>
      </trkpt>
      <trkpt lat="44.1638" lon="5.08666">
        <ele>273.6</ele>
        <time>2015-06-24T10:50:33Z</time>
      </trkpt>
      <trkpt lat="44.16389" lon="5.08672">
        <ele>274</ele>
        <time>2015-06-24T10:50:41Z</time>
      </trkpt>
      <trkpt lat="44.16399" lon="5.08672">
        <ele>274.3</ele>
        <time>2015-06-24T10:50:45Z</time>
      </trkpt>
      <trkpt lat="44.16408" lon="5.08672">
        <ele>275.2</ele>
        <time>2015-06-24T10:50:56Z</time>
      </trkpt>
      <trkpt lat="44.16416" lon="5.08681">
        <ele>277</ele>
        <time>2015-06-24T10:51:07Z</time>
      </trkpt>
      <trkpt lat="44.16421" lon="5.08692">
        <ele>278</ele>
        <time>2015-06-24T10:51:14Z</time>
      </trkpt>
      <trkpt lat="44.16426" lon="5.08703">
        <ele>278.7</ele>
        <time>2015-06-24T10:51:21Z</time>
      </trkpt>
      <trkpt lat="44.16426" lon="5.08716">
        <ele>279.2</ele>
        <time>2015-06-24T10:51:29Z</time>
      </trkpt>
      <trkpt lat="44.16428" lon="5.08728">
        <ele>279.5</ele>
        <time>2015-06-24T10:51:37Z</time>
      </trkpt>
      <trkpt lat="44.16431" lon="5.08741">
        <ele>279.8</ele>
        <time>2015-06-24T10:51:43Z</time>
      </trkpt>
      <trkpt lat="44.16433" lon="5.08754">
        <ele>280.3</ele>
        <time>2015-06-24T10:51:50Z</time>
      </trkpt>
      <trkpt lat="44.16441" lon="5.08762">
        <ele>280.5</ele>
        <time>2015-06-24T10:51:55Z</time>
      </trkpt>
      <trkpt lat="44.16448" lon="5.08772">
        <ele>280.7</ele>
        <time>2015-06-24T10:52:02Z</time>
      </trkpt>
      <trkpt lat="44.16455" lon="5.0878">
        <ele>280.8</ele>
        <time>2015-06-24T10:52:07Z</time>
      </trkpt>
      <trkpt lat="44.16462" lon="5.08787">
        <ele>281.1</ele>
        <time>2015-06-24T10:52:14Z</time>
      </trkpt>
      <trkpt lat="44.1647" lon="5.08796">
        <ele>282</ele>
        <time>2015-06-24T10:52:23Z</time>
      </trkpt>
      <trkpt lat="44.16478" lon="5.08802">
        <ele>282.9</ele>
        <time>2015-06-24T10:52:33Z</time>
      </trkpt>
      <trkpt lat="44.16488" lon="5.08805">
        <ele>283.2</ele>
        <time>2015-06-24T10:52:38Z</time>
      </trkpt>
      <trkpt lat="44.16495" lon="5.08814">
        <ele>283.7</ele>
        <time>2015-06-24T10:52:43Z</time>
      </trkpt>
      <trkpt lat="44.16503" lon="5.0882">
        <ele>284</ele>
        <time>2015-06-24T10:52:48Z</time>
      </trkpt>
      <trkpt lat="44.16513" lon="5.08821">
        <ele>284.4</ele>
        <time>2015-06-24T10:52:56Z</time>
      </trkpt>
      <trkpt lat="44.16523" lon="5.08815">
        <ele>284.6</ele>
        <time>2015-06-24T10:53:03Z</time>
      </trkpt>
      <trkpt lat="44.16533" lon="5.08816">
        <ele>284.9</ele>
        <time>2015-06-24T10:53:09Z</time>
      </trkpt>
      <trkpt lat="44.16538" lon="5.08806">
        <ele>285.7</ele>
        <time>2015-06-24T10:53:37Z</time>
      </trkpt>
      <trkpt lat="44.16535" lon="5.08818">
        <ele>285.2</ele>
        <time>2015-06-24T10:54:09Z</time>
      </trkpt>
      <trkpt lat="44.16525" lon="5.08825">
        <ele>286.9</ele>
        <time>2015-06-24T10:56:55Z</time>
      </trkpt>
      <trkpt lat="44.16522" lon="5.08837">
        <ele>287</ele>
        <time>2015-06-24T10:57:52Z</time>
      </trkpt>
      <trkpt lat="44.16522" lon="5.08837">
        <ele>287.2</ele>
        <time>2015-06-24T10:58:00Z</time>
      </trkpt>
      <trkpt lat="44.16527" lon="5.08826">
        <ele>285.4</ele>
        <time>2015-06-24T11:59:17Z</time>
      </trkpt>
      <trkpt lat="44.16518" lon="5.08823">
        <ele>285.1</ele>
        <time>2015-06-24T12:00:06Z</time>
      </trkpt>
      <trkpt lat="44.16525" lon="5.08833">
        <ele>285</ele>
        <time>2015-06-24T12:01:47Z</time>
      </trkpt>
      <trkpt lat="44.1652" lon="5.08822">
        <ele>285.6</ele>
        <time>2015-06-24T12:02:45Z</time>
      </trkpt>
      <trkpt lat="44.16527" lon="5.08815">
        <ele>285.4</ele>
        <time>2015-06-24T12:07:11Z</time>
      </trkpt>
      <trkpt lat="44.1653" lon="5.08802">
        <ele>284.8</ele>
        <time>2015-06-24T12:07:21Z</time>
      </trkpt>
      <trkpt lat="44.16539" lon="5.08796">
        <ele>283.9</ele>
        <time>2015-06-24T12:07:31Z</time>
      </trkpt>
      <trkpt lat="44.16549" lon="5.08794">
        <ele>283.5</ele>
        <time>2015-06-24T12:07:37Z</time>
      </trkpt>
      <trkpt lat="44.16558" lon="5.08794">
        <ele>283.2</ele>
        <time>2015-06-24T12:07:44Z</time>
      </trkpt>
      <trkpt lat="44.16567" lon="5.08793">
        <ele>282.9</ele>
        <time>2015-06-24T12:07:51Z</time>
      </trkpt>
      <trkpt lat="44.16577" lon="5.08794">
        <ele>282.7</ele>
        <time>2015-06-24T12:08:01Z</time>
      </trkpt>
      <trkpt lat="44.16586" lon="5.08796">
        <ele>282.7</ele>
        <time>2015-06-24T12:08:09Z</time>
      </trkpt>
      <trkpt lat="44.16596" lon="5.08794">
        <ele>283</ele>
        <time>2015-06-24T12:08:17Z</time>
      </trkpt>
      <trkpt lat="44.16605" lon="5.08793">
        <ele>283.2</ele>
        <time>2015-06-24T12:08:24Z</time>
      </trkpt>
      <trkpt lat="44.16615" lon="5.08794">
        <ele>283.7</ele>
        <time>2015-06-24T12:08:34Z</time>
      </trkpt>
      <trkpt lat="44.16624" lon="5.08795">
        <ele>284</ele>
        <time>2015-06-24T12:08:40Z</time>
      </trkpt>
      <trkpt lat="44.16633" lon="5.08795">
        <ele>284.4</ele>
        <time>2015-06-24T12:08:49Z</time>
      </trkpt>
      <trkpt lat="44.16643" lon="5.08795">
        <ele>284.8</ele>
        <time>2015-06-24T12:08:57Z</time>
      </trkpt>
      <trkpt lat="44.16652" lon="5.08795">
        <ele>285.5</ele>
        <time>2015-06-24T12:09:05Z</time>
      </trkpt>
      <trkpt lat="44.16662" lon="5.08792">
        <ele>286.7</ele>
        <time>2015-06-24T12:09:15Z</time>
      </trkpt>
      <trkpt lat="44.16672" lon="5.08792">
        <ele>287.3</ele>
        <time>2015-06-24T12:09:23Z</time>
      </trkpt>
      <trkpt lat="44.16682" lon="5.08792">
        <ele>287.8</ele>
        <time>2015-06-24T12:09:32Z</time>
      </trkpt>
      <trkpt lat="44.16692" lon="5.08792">
        <ele>288</ele>
        <time>2015-06-24T12:09:39Z</time>
      </trkpt>
      <trkpt lat="44.16701" lon="5.08793">
        <ele>288.1</ele>
        <time>2015-06-24T12:09:48Z</time>
      </trkpt>
      <trkpt lat="44.16711" lon="5.08797">
        <ele>288</ele>
        <time>2015-06-24T12:09:59Z</time>
      </trkpt>
      <trkpt lat="44.16721" lon="5.08799">
        <ele>287.9</ele>
        <time>2015-06-24T12:10:06Z</time>
      </trkpt>
      <trkpt lat="44.1673" lon="5.08799">
        <ele>287.8</ele>
        <time>2015-06-24T12:10:15Z</time>
      </trkpt>
      <trkpt lat="44.16739" lon="5.088">
        <ele>287.8</ele>
        <time>2015-06-24T12:10:23Z</time>
      </trkpt>
      <trkpt lat="44.16749" lon="5.08801">
        <ele>287.7</ele>
        <time>2015-06-24T12:10:31Z</time>
      </trkpt>
      <trkpt lat="44.16758" lon="5.08799">
        <ele>287.1</ele>
        <time>2015-06-24T12:10:45Z</time>
      </trkpt>
      <trkpt lat="44.16767" lon="5.08799">
        <ele>286.6</ele>
        <time>2015-06-24T12:11:45Z</time>
      </trkpt>
      <trkpt lat="44.16768" lon="5.08798">
        <ele>286.5</ele>
        <time>2015-06-24T12:11:46Z</time>
      </trkpt>
      <trkpt lat="44.16776" lon="5.08794">
        <ele>285.7</ele>
        <time>2015-06-24T12:11:54Z</time>
      </trkpt>
      <trkpt lat="44.16778" lon="5.08781">
        <ele>285.7</ele>
        <time>2015-06-24T12:11:59Z</time>
      </trkpt>
      <trkpt lat="44.16772" lon="5.08771">
        <ele>285.8</ele>
        <time>2015-06-24T12:12:05Z</time>
      </trkpt>
      <trkpt lat="44.16765" lon="5.08764">
        <ele>285.3</ele>
        <time>2015-06-24T12:12:11Z</time>
      </trkpt>
      <trkpt lat="44.16756" lon="5.08758">
        <ele>284.3</ele>
        <time>2015-06-24T12:12:17Z</time>
      </trkpt>
      <trkpt lat="44.16748" lon="5.0875">
        <ele>283.3</ele>
        <time>2015-06-24T12:12:24Z</time>
      </trkpt>
      <trkpt lat="44.16745" lon="5.08737">
        <ele>283.5</ele>
        <time>2015-06-24T12:12:33Z</time>
      </trkpt>
      <trkpt lat="44.16741" lon="5.08725">
        <ele>283.8</ele>
        <time>2015-06-24T12:12:42Z</time>
      </trkpt>
      <trkpt lat="44.16739" lon="5.08712">
        <ele>284.1</ele>
        <time>2015-06-24T12:12:51Z</time>
      </trkpt>
      <trkpt lat="44.16733" lon="5.08698">
        <ele>284.3</ele>
        <time>2015-06-24T12:12:59Z</time>
      </trkpt>
      <trkpt lat="44.16725" lon="5.08691">
        <ele>284.2</ele>
        <time>2015-06-24T12:13:04Z</time>
      </trkpt>
      <trkpt lat="44.16718" lon="5.08683">
        <ele>283.9</ele>
        <time>2015-06-24T12:13:09Z</time>
      </trkpt>
      <trkpt lat="44.16711" lon="5.08674">
        <ele>283.3</ele>
        <time>2015-06-24T12:13:19Z</time>
      </trkpt>
      <trkpt lat="44.16701" lon="5.08667">
        <ele>282.8</ele>
        <time>2015-06-24T12:13:26Z</time>
      </trkpt>
      <trkpt lat="44.16693" lon="5.08659">
        <ele>282.4</ele>
        <time>2015-06-24T12:13:31Z</time>
      </trkpt>
      <trkpt lat="44.16686" lon="5.08649">
        <ele>281.1</ele>
        <time>2015-06-24T12:13:42Z</time>
      </trkpt>
      <trkpt lat="44.16681" lon="5.08639">
        <ele>280.1</ele>
        <time>2015-06-24T12:13:51Z</time>
      </trkpt>
      <trkpt lat="44.16676" lon="5.08628">
        <ele>279.2</ele>
        <time>2015-06-24T12:14:01Z</time>
      </trkpt>
      <trkpt lat="44.1667" lon="5.08617">
        <ele>278.6</ele>
        <time>2015-06-24T12:14:09Z</time>
      </trkpt>
      <trkpt lat="44.16659" lon="5.08612">
        <ele>278.5</ele>
        <time>2015-06-24T12:14:12Z</time>
      </trkpt>
      <trkpt lat="44.16653" lon="5.08601">
        <ele>278.5</ele>
        <time>2015-06-24T12:14:17Z</time>
      </trkpt>
      <trkpt lat="44.16646" lon="5.08591">
        <ele>278.3</ele>
        <time>2015-06-24T12:14:24Z</time>
      </trkpt>
      <trkpt lat="44.1664" lon="5.08581">
        <ele>277.8</ele>
        <time>2015-06-24T12:14:30Z</time>
      </trkpt>
      <trkpt lat="44.16634" lon="5.08571">
        <ele>277.1</ele>
        <time>2015-06-24T12:14:37Z</time>
      </trkpt>
      <trkpt lat="44.16626" lon="5.0856">
        <ele>276.3</ele>
        <time>2015-06-24T12:14:44Z</time>
      </trkpt>
      <trkpt lat="44.16623" lon="5.08547">
        <ele>275.3</ele>
        <time>2015-06-24T12:14:51Z</time>
      </trkpt>
      <trkpt lat="44.16621" lon="5.08534">
        <ele>274.5</ele>
        <time>2015-06-24T12:14:59Z</time>
      </trkpt>
      <trkpt lat="44.16617" lon="5.08522">
        <ele>273.5</ele>
        <time>2015-06-24T12:15:07Z</time>
      </trkpt>
      <trkpt lat="44.16614" lon="5.08507">
        <ele>273.3</ele>
        <time>2015-06-24T12:15:15Z</time>
      </trkpt>
      <trkpt lat="44.16611" lon="5.08495">
        <ele>273.9</ele>
        <time>2015-06-24T12:15:24Z</time>
      </trkpt>
      <trkpt lat="44.16608" lon="5.08482">
        <ele>275.6</ele>
        <time>2015-06-24T12:15:33Z</time>
      </trkpt>
      <trkpt lat="44.16604" lon="5.0847">
        <ele>277.7</ele>
        <time>2015-06-24T12:15:41Z</time>
      </trkpt>
      <trkpt lat="44.16598" lon="5.08458">
        <ele>279</ele>
        <time>2015-06-24T12:15:48Z</time>
      </trkpt>
      <trkpt lat="44.16595" lon="5.08445">
        <ele>280.4</ele>
        <time>2015-06-24T12:15:57Z</time>
      </trkpt>
      <trkpt lat="44.16597" lon="5.08433">
        <ele>282.1</ele>
        <time>2015-06-24T12:16:06Z</time>
      </trkpt>
      <trkpt lat="44.16599" lon="5.0842">
        <ele>282.9</ele>
        <time>2015-06-24T12:16:14Z</time>
      </trkpt>
      <trkpt lat="44.16596" lon="5.08407">
        <ele>283.4</ele>
        <time>2015-06-24T12:16:22Z</time>
      </trkpt>
      <trkpt lat="44.16595" lon="5.08392">
        <ele>283.8</ele>
        <time>2015-06-24T12:16:27Z</time>
      </trkpt>
      <trkpt lat="44.16591" lon="5.0838">
        <ele>284.1</ele>
        <time>2015-06-24T12:16:34Z</time>
      </trkpt>
      <trkpt lat="44.16582" lon="5.08375">
        <ele>284.1</ele>
        <time>2015-06-24T12:16:43Z</time>
      </trkpt>
      <trkpt lat="44.16574" lon="5.08369">
        <ele>284.5</ele>
        <time>2015-06-24T12:16:50Z</time>
      </trkpt>
      <trkpt lat="44.16565" lon="5.08365">
        <ele>284.5</ele>
        <time>2015-06-24T12:16:55Z</time>
      </trkpt>
      <trkpt lat="44.16554" lon="5.0836">
        <ele>284.1</ele>
        <time>2015-06-24T12:17:01Z</time>
      </trkpt>
      <trkpt lat="44.16546" lon="5.08354">
        <ele>283.9</ele>
        <time>2015-06-24T12:17:09Z</time>
      </trkpt>
      <trkpt lat="44.16536" lon="5.08351">
        <ele>283.4</ele>
        <time>2015-06-24T12:17:19Z</time>
      </trkpt>
      <trkpt lat="44.16527" lon="5.08343">
        <ele>282.2</ele>
        <time>2015-06-24T12:17:29Z</time>
      </trkpt>
      <trkpt lat="44.16522" lon="5.08332">
        <ele>281.2</ele>
        <time>2015-06-24T12:17:36Z</time>
      </trkpt>
      <trkpt lat="44.16515" lon="5.08324">
        <ele>280.5</ele>
        <time>2015-06-24T12:17:42Z</time>
      </trkpt>
      <trkpt lat="44.16513" lon="5.0831">
        <ele>279.7</ele>
        <time>2015-06-24T12:17:51Z</time>
      </trkpt>
      <trkpt lat="44.16512" lon="5.08297">
        <ele>279.3</ele>
        <time>2015-06-24T12:17:59Z</time>
      </trkpt>
      <trkpt lat="44.16508" lon="5.08285">
        <ele>279.1</ele>
        <time>2015-06-24T12:18:08Z</time>
      </trkpt>
      <trkpt lat="44.16503" lon="5.08273">
        <ele>278.5</ele>
        <time>2015-06-24T12:18:16Z</time>
      </trkpt>
      <trkpt lat="44.16497" lon="5.08262">
        <ele>277.4</ele>
        <time>2015-06-24T12:18:23Z</time>
      </trkpt>
      <trkpt lat="44.16496" lon="5.08248">
        <ele>276.7</ele>
        <time>2015-06-24T12:18:31Z</time>
      </trkpt>
      <trkpt lat="44.16496" lon="5.08234">
        <ele>276.3</ele>
        <time>2015-06-24T12:18:35Z</time>
      </trkpt>
      <trkpt lat="44.16499" lon="5.08247">
        <ele>274.1</ele>
        <time>2015-06-24T12:18:50Z</time>
      </trkpt>
      <trkpt lat="44.16505" lon="5.08256">
        <ele>273.3</ele>
        <time>2015-06-24T12:19:00Z</time>
      </trkpt>
      <trkpt lat="44.16514" lon="5.08262">
        <ele>272.7</ele>
        <time>2015-06-24T12:19:08Z</time>
      </trkpt>
      <trkpt lat="44.16526" lon="5.08265">
        <ele>272.2</ele>
        <time>2015-06-24T12:19:13Z</time>
      </trkpt>
      <trkpt lat="44.16536" lon="5.08266">
        <ele>271.4</ele>
        <time>2015-06-24T12:19:18Z</time>
      </trkpt>
      <trkpt lat="44.16547" lon="5.08268">
        <ele>270.6</ele>
        <time>2015-06-24T12:19:25Z</time>
      </trkpt>
      <trkpt lat="44.16556" lon="5.08271">
        <ele>270</ele>
        <time>2015-06-24T12:19:33Z</time>
      </trkpt>
      <trkpt lat="44.16565" lon="5.08273">
        <ele>269.3</ele>
        <time>2015-06-24T12:19:41Z</time>
      </trkpt>
      <trkpt lat="44.16574" lon="5.08272">
        <ele>268.7</ele>
        <time>2015-06-24T12:19:48Z</time>
      </trkpt>
      <trkpt lat="44.16584" lon="5.08268">
        <ele>267.9</ele>
        <time>2015-06-24T12:19:57Z</time>
      </trkpt>
      <trkpt lat="44.16593" lon="5.08263">
        <ele>266.5</ele>
        <time>2015-06-24T12:20:09Z</time>
      </trkpt>
      <trkpt lat="44.16601" lon="5.08259">
        <ele>265.6</ele>
        <time>2015-06-24T12:20:17Z</time>
      </trkpt>
      <trkpt lat="44.16612" lon="5.08257">
        <ele>264.9</ele>
        <time>2015-06-24T12:20:24Z</time>
      </trkpt>
      <trkpt lat="44.16621" lon="5.08258">
        <ele>264.2</ele>
        <time>2015-06-24T12:20:30Z</time>
      </trkpt>
      <trkpt lat="44.16631" lon="5.08253">
        <ele>263.5</ele>
        <time>2015-06-24T12:20:38Z</time>
      </trkpt>
      <trkpt lat="44.1664" lon="5.08252">
        <ele>262.4</ele>
        <time>2015-06-24T12:20:48Z</time>
      </trkpt>
      <trkpt lat="44.16649" lon="5.08249">
        <ele>261.3</ele>
        <time>2015-06-24T12:20:57Z</time>
      </trkpt>
      <trkpt lat="44.16656" lon="5.0824">
        <ele>260</ele>
        <time>2015-06-24T12:21:13Z</time>
      </trkpt>
      <trkpt lat="44.16659" lon="5.08227">
        <ele>259.2</ele>
        <time>2015-06-24T12:21:27Z</time>
      </trkpt>
      <trkpt lat="44.16658" lon="5.08214">
        <ele>259.3</ele>
        <time>2015-06-24T12:21:36Z</time>
      </trkpt>
      <trkpt lat="44.16657" lon="5.08201">
        <ele>259.8</ele>
        <time>2015-06-24T12:21:44Z</time>
      </trkpt>
      <trkpt lat="44.16648" lon="5.08193">
        <ele>260.2</ele>
        <time>2015-06-24T12:21:52Z</time>
      </trkpt>
      <trkpt lat="44.16639" lon="5.08186">
        <ele>260.4</ele>
        <time>2015-06-24T12:21:59Z</time>
      </trkpt>
      <trkpt lat="44.16632" lon="5.08177">
        <ele>260.6</ele>
        <time>2015-06-24T12:22:05Z</time>
      </trkpt>
      <trkpt lat="44.16628" lon="5.08165">
        <ele>261.1</ele>
        <time>2015-06-24T12:22:12Z</time>
      </trkpt>
      <trkpt lat="44.16631" lon="5.0815">
        <ele>262.8</ele>
        <time>2015-06-24T12:22:28Z</time>
      </trkpt>
      <trkpt lat="44.16638" lon="5.08142">
        <ele>266.6</ele>
        <time>2015-06-24T12:23:36Z</time>
      </trkpt>
      <trkpt lat="44.1664" lon="5.08128">
        <ele>266.8</ele>
        <time>2015-06-24T12:23:45Z</time>
      </trkpt>
      <trkpt lat="44.16639" lon="5.08116">
        <ele>267</ele>
        <time>2015-06-24T12:23:54Z</time>
      </trkpt>
      <trkpt lat="44.16637" lon="5.08104">
        <ele>267.7</ele>
        <time>2015-06-24T12:24:21Z</time>
      </trkpt>
      <trkpt lat="44.16632" lon="5.08093">
        <ele>267.5</ele>
        <time>2015-06-24T12:24:28Z</time>
      </trkpt>
      <trkpt lat="44.16629" lon="5.08081">
        <ele>266.9</ele>
        <time>2015-06-24T12:24:36Z</time>
      </trkpt>
      <trkpt lat="44.16628" lon="5.08096">
        <ele>266.3</ele>
        <time>2015-06-24T12:24:56Z</time>
      </trkpt>
      <trkpt lat="44.1663" lon="5.08109">
        <ele>266.2</ele>
        <time>2015-06-24T12:25:02Z</time>
      </trkpt>
      <trkpt lat="44.16629" lon="5.08122">
        <ele>266.4</ele>
        <time>2015-06-24T12:25:07Z</time>
      </trkpt>
      <trkpt lat="44.1663" lon="5.08135">
        <ele>266.5</ele>
        <time>2015-06-24T12:25:15Z</time>
      </trkpt>
      <trkpt lat="44.16632" lon="5.08147">
        <ele>266.6</ele>
        <time>2015-06-24T12:25:24Z</time>
      </trkpt>
      <trkpt lat="44.16628" lon="5.08159">
        <ele>265.9</ele>
        <time>2015-06-24T12:25:54Z</time>
      </trkpt>
      <trkpt lat="44.16629" lon="5.08172">
        <ele>264.9</ele>
        <time>2015-06-24T12:26:03Z</time>
      </trkpt>
      <trkpt lat="44.16633" lon="5.08184">
        <ele>264.4</ele>
        <time>2015-06-24T12:26:10Z</time>
      </trkpt>
      <trkpt lat="44.1664" lon="5.08194">
        <ele>264.2</ele>
        <time>2015-06-24T12:26:15Z</time>
      </trkpt>
      <trkpt lat="44.16649" lon="5.08199">
        <ele>263.7</ele>
        <time>2015-06-24T12:26:21Z</time>
      </trkpt>
      <trkpt lat="44.16657" lon="5.08207">
        <ele>263.2</ele>
        <time>2015-06-24T12:26:29Z</time>
      </trkpt>
      <trkpt lat="44.16661" lon="5.08218">
        <ele>262.9</ele>
        <time>2015-06-24T12:26:36Z</time>
      </trkpt>
      <trkpt lat="44.1667" lon="5.08222">
        <ele>262.6</ele>
        <time>2015-06-24T12:26:42Z</time>
      </trkpt>
      <trkpt lat="44.16679" lon="5.0822">
        <ele>262.3</ele>
        <time>2015-06-24T12:26:49Z</time>
      </trkpt>
      <trkpt lat="44.16689" lon="5.0822">
        <ele>262.2</ele>
        <time>2015-06-24T12:26:54Z</time>
      </trkpt>
      <trkpt lat="44.16698" lon="5.08222">
        <ele>262</ele>
        <time>2015-06-24T12:27:00Z</time>
      </trkpt>
      <trkpt lat="44.16708" lon="5.08228">
        <ele>261.8</ele>
        <time>2015-06-24T12:27:07Z</time>
      </trkpt>
      <trkpt lat="44.16717" lon="5.08231">
        <ele>261.8</ele>
        <time>2015-06-24T12:27:14Z</time>
      </trkpt>
      <trkpt lat="44.16727" lon="5.08229">
        <ele>261.7</ele>
        <time>2015-06-24T12:27:20Z</time>
      </trkpt>
      <trkpt lat="44.16738" lon="5.08228">
        <ele>261.8</ele>
        <time>2015-06-24T12:27:26Z</time>
      </trkpt>
      <trkpt lat="44.16748" lon="5.08225">
        <ele>261.9</ele>
        <time>2015-06-24T12:27:32Z</time>
      </trkpt>
      <trkpt lat="44.16756" lon="5.0823">
        <ele>262</ele>
        <time>2015-06-24T12:27:38Z</time>
      </trkpt>
      <trkpt lat="44.16764" lon="5.08241">
        <ele>262.1</ele>
        <time>2015-06-24T12:27:43Z</time>
      </trkpt>
      <trkpt lat="44.16774" lon="5.08243">
        <ele>262.1</ele>
        <time>2015-06-24T12:27:49Z</time>
      </trkpt>
      <trkpt lat="44.16784" lon="5.08246">
        <ele>262.4</ele>
        <time>2015-06-24T12:27:55Z</time>
      </trkpt>
      <trkpt lat="44.16794" lon="5.08247">
        <ele>262.9</ele>
        <time>2015-06-24T12:28:00Z</time>
      </trkpt>
      <trkpt lat="44.16803" lon="5.08246">
        <ele>263.8</ele>
        <time>2015-06-24T12:28:08Z</time>
      </trkpt>
      <trkpt lat="44.16813" lon="5.08246">
        <ele>264.4</ele>
        <time>2015-06-24T12:28:17Z</time>
      </trkpt>
      <trkpt lat="44.16821" lon="5.08242">
        <ele>265.3</ele>
        <time>2015-06-24T12:28:28Z</time>
      </trkpt>
      <trkpt lat="44.16829" lon="5.0825">
        <ele>265.7</ele>
        <time>2015-06-24T12:28:34Z</time>
      </trkpt>
      <trkpt lat="44.16836" lon="5.08258">
        <ele>266</ele>
        <time>2015-06-24T12:28:40Z</time>
      </trkpt>
      <trkpt lat="44.16846" lon="5.08264">
        <ele>266.2</ele>
        <time>2015-06-24T12:28:46Z</time>
      </trkpt>
      <trkpt lat="44.16853" lon="5.08271">
        <ele>267</ele>
        <time>2015-06-24T12:28:52Z</time>
      </trkpt>
      <trkpt lat="44.16863" lon="5.08277">
        <ele>268.1</ele>
        <time>2015-06-24T12:28:58Z</time>
      </trkpt>
      <trkpt lat="44.16871" lon="5.08284">
        <ele>269.4</ele>
        <time>2015-06-24T12:29:04Z</time>
      </trkpt>
      <trkpt lat="44.1688" lon="5.08291">
        <ele>271.2</ele>
        <time>2015-06-24T12:29:12Z</time>
      </trkpt>
      <trkpt lat="44.16885" lon="5.08302">
        <ele>272.6</ele>
        <time>2015-06-24T12:29:19Z</time>
      </trkpt>
      <trkpt lat="44.1689" lon="5.08314">
        <ele>273.5</ele>
        <time>2015-06-24T12:29:25Z</time>
      </trkpt>
      <trkpt lat="44.16892" lon="5.08328">
        <ele>274.7</ele>
        <time>2015-06-24T12:29:32Z</time>
      </trkpt>
      <trkpt lat="44.16896" lon="5.08341">
        <ele>275.5</ele>
        <time>2015-06-24T12:29:38Z</time>
      </trkpt>
      <trkpt lat="44.16904" lon="5.08348">
        <ele>276</ele>
        <time>2015-06-24T12:29:42Z</time>
      </trkpt>
      <trkpt lat="44.16914" lon="5.08354">
        <ele>276.4</ele>
        <time>2015-06-24T12:29:45Z</time>
      </trkpt>
      <trkpt lat="44.16921" lon="5.08363">
        <ele>277.4</ele>
        <time>2015-06-24T12:29:53Z</time>
      </trkpt>
      <trkpt lat="44.16913" lon="5.08373">
        <ele>278.5</ele>
        <time>2015-06-24T12:30:01Z</time>
      </trkpt>
      <trkpt lat="44.16916" lon="5.08385">
        <ele>279.8</ele>
        <time>2015-06-24T12:30:10Z</time>
      </trkpt>
      <trkpt lat="44.1692" lon="5.08396">
        <ele>280.9</ele>
        <time>2015-06-24T12:30:19Z</time>
      </trkpt>
      <trkpt lat="44.16921" lon="5.0841">
        <ele>282.2</ele>
        <time>2015-06-24T12:30:29Z</time>
      </trkpt>
      <trkpt lat="44.16922" lon="5.08422">
        <ele>283.6</ele>
        <time>2015-06-24T12:30:36Z</time>
      </trkpt>
      <trkpt lat="44.16921" lon="5.08436">
        <ele>285.1</ele>
        <time>2015-06-24T12:30:44Z</time>
      </trkpt>
      <trkpt lat="44.16919" lon="5.08449">
        <ele>287</ele>
        <time>2015-06-24T12:30:54Z</time>
      </trkpt>
      <trkpt lat="44.16919" lon="5.08461">
        <ele>288.6</ele>
        <time>2015-06-24T12:31:02Z</time>
      </trkpt>
      <trkpt lat="44.16917" lon="5.08476">
        <ele>289.7</ele>
        <time>2015-06-24T12:31:08Z</time>
      </trkpt>
      <trkpt lat="44.16921" lon="5.08488">
        <ele>291.4</ele>
        <time>2015-06-24T12:31:16Z</time>
      </trkpt>
      <trkpt lat="44.1693" lon="5.08493">
        <ele>293.5</ele>
        <time>2015-06-24T12:31:24Z</time>
      </trkpt>
      <trkpt lat="44.16939" lon="5.08487">
        <ele>295.6</ele>
        <time>2015-06-24T12:31:33Z</time>
      </trkpt>
      <trkpt lat="44.16946" lon="5.08477">
        <ele>296.8</ele>
        <time>2015-06-24T12:31:39Z</time>
      </trkpt>
      <trkpt lat="44.16954" lon="5.08469">
        <ele>297.8</ele>
        <time>2015-06-24T12:31:44Z</time>
      </trkpt>
      <trkpt lat="44.16963" lon="5.08474">
        <ele>300</ele>
        <time>2015-06-24T12:31:56Z</time>
      </trkpt>
      <trkpt lat="44.16969" lon="5.08485">
        <ele>301</ele>
        <time>2015-06-24T12:32:02Z</time>
      </trkpt>
      <trkpt lat="44.16972" lon="5.08497">
        <ele>302.5</ele>
        <time>2015-06-24T12:32:10Z</time>
      </trkpt>
      <trkpt lat="44.16972" lon="5.0851">
        <ele>303.6</ele>
        <time>2015-06-24T12:32:16Z</time>
      </trkpt>
      <trkpt lat="44.16979" lon="5.08521">
        <ele>304.8</ele>
        <time>2015-06-24T12:32:22Z</time>
      </trkpt>
      <trkpt lat="44.16979" lon="5.08535">
        <ele>307.2</ele>
        <time>2015-06-24T12:32:34Z</time>
      </trkpt>
      <trkpt lat="44.16988" lon="5.08524">
        <ele>310.3</ele>
        <time>2015-06-24T12:32:48Z</time>
      </trkpt>
      <trkpt lat="44.16988" lon="5.0851">
        <ele>310.7</ele>
        <time>2015-06-24T12:32:55Z</time>
      </trkpt>
      <trkpt lat="44.16994" lon="5.085">
        <ele>310.6</ele>
        <time>2015-06-24T12:33:00Z</time>
      </trkpt>
      <trkpt lat="44.16996" lon="5.08488">
        <ele>310.5</ele>
        <time>2015-06-24T12:33:04Z</time>
      </trkpt>
      <trkpt lat="44.16996" lon="5.08475">
        <ele>310.6</ele>
        <time>2015-06-24T12:33:08Z</time>
      </trkpt>
      <trkpt lat="44.17006" lon="5.0847">
        <ele>312</ele>
        <time>2015-06-24T12:33:36Z</time>
      </trkpt>
      <trkpt lat="44.17015" lon="5.08468">
        <ele>312.6</ele>
        <time>2015-06-24T12:33:44Z</time>
      </trkpt>
      <trkpt lat="44.17024" lon="5.08462">
        <ele>313.3</ele>
        <time>2015-06-24T12:33:51Z</time>
      </trkpt>
      <trkpt lat="44.17033" lon="5.08455">
        <ele>313.8</ele>
        <time>2015-06-24T12:33:57Z</time>
      </trkpt>
      <trkpt lat="44.1704" lon="5.08446">
        <ele>314.8</ele>
        <time>2015-06-24T12:34:04Z</time>
      </trkpt>
      <trkpt lat="44.17046" lon="5.08437">
        <ele>315.3</ele>
        <time>2015-06-24T12:34:10Z</time>
      </trkpt>
      <trkpt lat="44.17046" lon="5.08423">
        <ele>315.7</ele>
        <time>2015-06-24T12:34:19Z</time>
      </trkpt>
      <trkpt lat="44.17047" lon="5.0841">
        <ele>316</ele>
        <time>2015-06-24T12:34:27Z</time>
      </trkpt>
      <trkpt lat="44.17051" lon="5.08397">
        <ele>316.1</ele>
        <time>2015-06-24T12:34:35Z</time>
      </trkpt>
      <trkpt lat="44.17055" lon="5.08383">
        <ele>316.2</ele>
        <time>2015-06-24T12:34:41Z</time>
      </trkpt>
      <trkpt lat="44.17056" lon="5.08367">
        <ele>316.2</ele>
        <time>2015-06-24T12:34:44Z</time>
      </trkpt>
      <trkpt lat="44.17062" lon="5.08356">
        <ele>316.1</ele>
        <time>2015-06-24T12:34:51Z</time>
      </trkpt>
      <trkpt lat="44.17069" lon="5.08346">
        <ele>316.1</ele>
        <time>2015-06-24T12:34:59Z</time>
      </trkpt>
      <trkpt lat="44.17074" lon="5.08335">
        <ele>316</ele>
        <time>2015-06-24T12:35:07Z</time>
      </trkpt>
      <trkpt lat="44.17082" lon="5.08327">
        <ele>315.6</ele>
        <time>2015-06-24T12:35:18Z</time>
      </trkpt>
      <trkpt lat="44.17091" lon="5.0832">
        <ele>315.1</ele>
        <time>2015-06-24T12:35:27Z</time>
      </trkpt>
      <trkpt lat="44.17101" lon="5.08313">
        <ele>314.6</ele>
        <time>2015-06-24T12:35:33Z</time>
      </trkpt>
      <trkpt lat="44.17109" lon="5.08308">
        <ele>314.3</ele>
        <time>2015-06-24T12:35:37Z</time>
      </trkpt>
      <trkpt lat="44.17114" lon="5.08297">
        <ele>313.7</ele>
        <time>2015-06-24T12:35:45Z</time>
      </trkpt>
      <trkpt lat="44.17124" lon="5.08292">
        <ele>312.7</ele>
        <time>2015-06-24T12:35:57Z</time>
      </trkpt>
      <trkpt lat="44.17131" lon="5.08285">
        <ele>312.2</ele>
        <time>2015-06-24T12:36:07Z</time>
      </trkpt>
      <trkpt lat="44.17135" lon="5.08272">
        <ele>311.8</ele>
        <time>2015-06-24T12:36:16Z</time>
      </trkpt>
      <trkpt lat="44.17135" lon="5.08285">
        <ele>311.5</ele>
        <time>2015-06-24T12:36:31Z</time>
      </trkpt>
      <trkpt lat="44.17138" lon="5.08297">
        <ele>312.2</ele>
        <time>2015-06-24T12:36:36Z</time>
      </trkpt>
      <trkpt lat="44.17139" lon="5.08311">
        <ele>314</ele>
        <time>2015-06-24T12:36:45Z</time>
      </trkpt>
      <trkpt lat="44.17143" lon="5.08323">
        <ele>316.4</ele>
        <time>2015-06-24T12:36:55Z</time>
      </trkpt>
      <trkpt lat="44.17152" lon="5.0833">
        <ele>319.1</ele>
        <time>2015-06-24T12:37:05Z</time>
      </trkpt>
      <trkpt lat="44.17163" lon="5.08329">
        <ele>320.4</ele>
        <time>2015-06-24T12:37:09Z</time>
      </trkpt>
      <trkpt lat="44.17172" lon="5.08327">
        <ele>322.4</ele>
        <time>2015-06-24T12:37:17Z</time>
      </trkpt>
      <trkpt lat="44.17181" lon="5.08324">
        <ele>324.1</ele>
        <time>2015-06-24T12:37:25Z</time>
      </trkpt>
      <trkpt lat="44.1719" lon="5.08318">
        <ele>325.5</ele>
        <time>2015-06-24T12:37:32Z</time>
      </trkpt>
      <trkpt lat="44.17201" lon="5.0832">
        <ele>327.5</ele>
        <time>2015-06-24T12:37:40Z</time>
      </trkpt>
      <trkpt lat="44.17195" lon="5.0833">
        <ele>331.5</ele>
        <time>2015-06-24T12:37:56Z</time>
      </trkpt>
      <trkpt lat="44.17188" lon="5.0834">
        <ele>332.7</ele>
        <time>2015-06-24T12:38:03Z</time>
      </trkpt>
      <trkpt lat="44.17182" lon="5.08349">
        <ele>334.1</ele>
        <time>2015-06-24T12:38:11Z</time>
      </trkpt>
      <trkpt lat="44.17175" lon="5.08358">
        <ele>334.9</ele>
        <time>2015-06-24T12:38:16Z</time>
      </trkpt>
      <trkpt lat="44.1717" lon="5.0837">
        <ele>336.3</ele>
        <time>2015-06-24T12:38:23Z</time>
      </trkpt>
      <trkpt lat="44.17164" lon="5.0838">
        <ele>337.2</ele>
        <time>2015-06-24T12:38:29Z</time>
      </trkpt>
      <trkpt lat="44.17163" lon="5.08394">
        <ele>338</ele>
        <time>2015-06-24T12:38:36Z</time>
      </trkpt>
      <trkpt lat="44.17164" lon="5.08407">
        <ele>338.6</ele>
        <time>2015-06-24T12:38:43Z</time>
      </trkpt>
      <trkpt lat="44.17168" lon="5.08418">
        <ele>339.2</ele>
        <time>2015-06-24T12:38:50Z</time>
      </trkpt>
      <trkpt lat="44.17173" lon="5.08429">
        <ele>340.2</ele>
        <time>2015-06-24T12:38:58Z</time>
      </trkpt>
      <trkpt lat="44.17178" lon="5.0844">
        <ele>341.7</ele>
        <time>2015-06-24T12:39:06Z</time>
      </trkpt>
      <trkpt lat="44.17179" lon="5.08453">
        <ele>343.1</ele>
        <time>2015-06-24T12:39:12Z</time>
      </trkpt>
      <trkpt lat="44.17179" lon="5.08467">
        <ele>345.1</ele>
        <time>2015-06-24T12:39:20Z</time>
      </trkpt>
      <trkpt lat="44.17171" lon="5.08477">
        <ele>346.8</ele>
        <time>2015-06-24T12:39:26Z</time>
      </trkpt>
      <trkpt lat="44.17161" lon="5.08482">
        <ele>348.3</ele>
        <time>2015-06-24T12:39:33Z</time>
      </trkpt>
      <trkpt lat="44.17152" lon="5.08489">
        <ele>349</ele>
        <time>2015-06-24T12:39:38Z</time>
      </trkpt>
      <trkpt lat="44.17144" lon="5.08497">
        <ele>349.5</ele>
        <time>2015-06-24T12:39:46Z</time>
      </trkpt>
      <trkpt lat="44.17145" lon="5.08511">
        <ele>351.8</ele>
        <time>2015-06-24T12:40:31Z</time>
      </trkpt>
      <trkpt lat="44.17154" lon="5.08517">
        <ele>351.7</ele>
        <time>2015-06-24T12:40:41Z</time>
      </trkpt>
      <trkpt lat="44.17158" lon="5.08528">
        <ele>352.8</ele>
        <time>2015-06-24T12:40:51Z</time>
      </trkpt>
      <trkpt lat="44.17161" lon="5.08541">
        <ele>354.5</ele>
        <time>2015-06-24T12:41:00Z</time>
      </trkpt>
      <trkpt lat="44.17166" lon="5.08553">
        <ele>356.7</ele>
        <time>2015-06-24T12:41:11Z</time>
      </trkpt>
      <trkpt lat="44.17173" lon="5.08563">
        <ele>358.3</ele>
        <time>2015-06-24T12:41:19Z</time>
      </trkpt>
      <trkpt lat="44.1718" lon="5.08574">
        <ele>359.3</ele>
        <time>2015-06-24T12:41:26Z</time>
      </trkpt>
      <trkpt lat="44.17187" lon="5.08583">
        <ele>359.8</ele>
        <time>2015-06-24T12:41:31Z</time>
      </trkpt>
      <trkpt lat="44.17191" lon="5.08594">
        <ele>360.3</ele>
        <time>2015-06-24T12:41:39Z</time>
      </trkpt>
      <trkpt lat="44.17195" lon="5.08607">
        <ele>360.4</ele>
        <time>2015-06-24T12:41:48Z</time>
      </trkpt>
      <trkpt lat="44.17199" lon="5.08618">
        <ele>359.8</ele>
        <time>2015-06-24T12:41:59Z</time>
      </trkpt>
      <trkpt lat="44.17204" lon="5.0863">
        <ele>359</ele>
        <time>2015-06-24T12:42:07Z</time>
      </trkpt>
      <trkpt lat="44.17211" lon="5.08639">
        <ele>358</ele>
        <time>2015-06-24T12:42:15Z</time>
      </trkpt>
      <trkpt lat="44.17221" lon="5.08638">
        <ele>356.8</ele>
        <time>2015-06-24T12:42:23Z</time>
      </trkpt>
      <trkpt lat="44.1723" lon="5.08634">
        <ele>355.8</ele>
        <time>2015-06-24T12:42:29Z</time>
      </trkpt>
      <trkpt lat="44.17239" lon="5.0863">
        <ele>355.3</ele>
        <time>2015-06-24T12:42:34Z</time>
      </trkpt>
      <trkpt lat="44.17249" lon="5.08628">
        <ele>354.8</ele>
        <time>2015-06-24T12:42:38Z</time>
      </trkpt>
      <trkpt lat="44.17259" lon="5.08627">
        <ele>354.4</ele>
        <time>2015-06-24T12:42:43Z</time>
      </trkpt>
      <trkpt lat="44.17269" lon="5.08627">
        <ele>354.2</ele>
        <time>2015-06-24T12:42:47Z</time>
      </trkpt>
      <trkpt lat="44.17278" lon="5.08625">
        <ele>354.5</ele>
        <time>2015-06-24T12:42:52Z</time>
      </trkpt>
      <trkpt lat="44.17288" lon="5.08623">
        <ele>354.9</ele>
        <time>2015-06-24T12:43:00Z</time>
      </trkpt>
      <trkpt lat="44.17297" lon="5.08619">
        <ele>355.1</ele>
        <time>2015-06-24T12:43:05Z</time>
      </trkpt>
      <trkpt lat="44.17306" lon="5.08618">
        <ele>355.2</ele>
        <time>2015-06-24T12:43:09Z</time>
      </trkpt>
      <trkpt lat="44.17316" lon="5.08616">
        <ele>355.4</ele>
        <time>2015-06-24T12:43:19Z</time>
      </trkpt>
      <trkpt lat="44.17325" lon="5.08612">
        <ele>355.3</ele>
        <time>2015-06-24T12:43:31Z</time>
      </trkpt>
      <trkpt lat="44.17335" lon="5.08608">
        <ele>355.2</ele>
        <time>2015-06-24T12:43:37Z</time>
      </trkpt>
      <trkpt lat="44.17345" lon="5.08605">
        <ele>355.1</ele>
        <time>2015-06-24T12:43:44Z</time>
      </trkpt>
      <trkpt lat="44.17354" lon="5.08602">
        <ele>355</ele>
        <time>2015-06-24T12:43:50Z</time>
      </trkpt>
      <trkpt lat="44.17363" lon="5.08597">
        <ele>355</ele>
        <time>2015-06-24T12:43:55Z</time>
      </trkpt>
      <trkpt lat="44.1737" lon="5.08586">
        <ele>355</ele>
        <time>2015-06-24T12:44:03Z</time>
      </trkpt>
      <trkpt lat="44.17377" lon="5.08577">
        <ele>355.3</ele>
        <time>2015-06-24T12:44:15Z</time>
      </trkpt>
      <trkpt lat="44.17385" lon="5.08571">
        <ele>356.1</ele>
        <time>2015-06-24T12:44:22Z</time>
      </trkpt>
      <trkpt lat="44.17394" lon="5.08566">
        <ele>356.7</ele>
        <time>2015-06-24T12:44:29Z</time>
      </trkpt>
      <trkpt lat="44.17403" lon="5.08563">
        <ele>357.8</ele>
        <time>2015-06-24T12:44:36Z</time>
      </trkpt>
      <trkpt lat="44.17413" lon="5.0856">
        <ele>359.1</ele>
        <time>2015-06-24T12:44:43Z</time>
      </trkpt>
      <trkpt lat="44.17423" lon="5.08557">
        <ele>361.1</ele>
        <time>2015-06-24T12:44:54Z</time>
      </trkpt>
      <trkpt lat="44.17434" lon="5.08557">
        <ele>362.2</ele>
        <time>2015-06-24T12:45:01Z</time>
      </trkpt>
      <trkpt lat="44.17444" lon="5.08555">
        <ele>364.1</ele>
        <time>2015-06-24T12:45:11Z</time>
      </trkpt>
      <trkpt lat="44.17453" lon="5.08552">
        <ele>365.4</ele>
        <time>2015-06-24T12:45:19Z</time>
      </trkpt>
      <trkpt lat="44.17462" lon="5.08547">
        <ele>366.4</ele>
        <time>2015-06-24T12:45:27Z</time>
      </trkpt>
      <trkpt lat="44.17471" lon="5.08541">
        <ele>367</ele>
        <time>2015-06-24T12:45:34Z</time>
      </trkpt>
      <trkpt lat="44.1748" lon="5.08538">
        <ele>367.9</ele>
        <time>2015-06-24T12:45:41Z</time>
      </trkpt>
      <trkpt lat="44.1749" lon="5.08535">
        <ele>368.9</ele>
        <time>2015-06-24T12:45:49Z</time>
      </trkpt>
      <trkpt lat="44.17499" lon="5.08534">
        <ele>369.9</ele>
        <time>2015-06-24T12:45:56Z</time>
      </trkpt>
      <trkpt lat="44.17509" lon="5.08533">
        <ele>372</ele>
        <time>2015-06-24T12:46:07Z</time>
      </trkpt>
      <trkpt lat="44.17519" lon="5.08535">
        <ele>373.3</ele>
        <time>2015-06-24T12:46:14Z</time>
      </trkpt>
      <trkpt lat="44.17527" lon="5.08532">
        <ele>375.5</ele>
        <time>2015-06-24T12:46:24Z</time>
      </trkpt>
      <trkpt lat="44.17537" lon="5.0853">
        <ele>377.8</ele>
        <time>2015-06-24T12:46:35Z</time>
      </trkpt>
      <trkpt lat="44.17545" lon="5.08538">
        <ele>380.3</ele>
        <time>2015-06-24T12:46:47Z</time>
      </trkpt>
      <trkpt lat="44.17554" lon="5.08539">
        <ele>384.6</ele>
        <time>2015-06-24T12:47:02Z</time>
      </trkpt>
      <trkpt lat="44.17573" lon="5.08536">
        <ele>390</ele>
        <time>2015-06-24T12:47:23Z</time>
      </trkpt>
      <trkpt lat="44.17583" lon="5.08541">
        <ele>391.6</ele>
        <time>2015-06-24T12:47:30Z</time>
      </trkpt>
      <trkpt lat="44.17591" lon="5.08547">
        <ele>393.2</ele>
        <time>2015-06-24T12:47:39Z</time>
      </trkpt>
      <trkpt lat="44.17597" lon="5.08559">
        <ele>394.4</ele>
        <time>2015-06-24T12:47:46Z</time>
      </trkpt>
      <trkpt lat="44.17605" lon="5.08567">
        <ele>395.3</ele>
        <time>2015-06-24T12:47:53Z</time>
      </trkpt>
      <trkpt lat="44.17613" lon="5.08576">
        <ele>396</ele>
        <time>2015-06-24T12:47:59Z</time>
      </trkpt>
      <trkpt lat="44.17616" lon="5.08589">
        <ele>396.7</ele>
        <time>2015-06-24T12:48:07Z</time>
      </trkpt>
      <trkpt lat="44.17622" lon="5.086">
        <ele>397.6</ele>
        <time>2015-06-24T12:48:15Z</time>
      </trkpt>
      <trkpt lat="44.1763" lon="5.08609">
        <ele>398.6</ele>
        <time>2015-06-24T12:48:23Z</time>
      </trkpt>
      <trkpt lat="44.17635" lon="5.0862">
        <ele>399.7</ele>
        <time>2015-06-24T12:48:31Z</time>
      </trkpt>
      <trkpt lat="44.17641" lon="5.0863">
        <ele>400.9</ele>
        <time>2015-06-24T12:48:38Z</time>
      </trkpt>
      <trkpt lat="44.17651" lon="5.08635">
        <ele>401.5</ele>
        <time>2015-06-24T12:48:41Z</time>
      </trkpt>
      <trkpt lat="44.17656" lon="5.08646">
        <ele>402.8</ele>
        <time>2015-06-24T12:48:48Z</time>
      </trkpt>
      <trkpt lat="44.17662" lon="5.08656">
        <ele>403.7</ele>
        <time>2015-06-24T12:48:53Z</time>
      </trkpt>
      <trkpt lat="44.17668" lon="5.08667">
        <ele>404.9</ele>
        <time>2015-06-24T12:48:59Z</time>
      </trkpt>
      <trkpt lat="44.17671" lon="5.08682">
        <ele>406.2</ele>
        <time>2015-06-24T12:49:06Z</time>
      </trkpt>
      <trkpt lat="44.1768" lon="5.08684">
        <ele>407.2</ele>
        <time>2015-06-24T12:49:13Z</time>
      </trkpt>
      <trkpt lat="44.17686" lon="5.08674">
        <ele>408.9</ele>
        <time>2015-06-24T12:49:21Z</time>
      </trkpt>
      <trkpt lat="44.17689" lon="5.08661">
        <ele>410.4</ele>
        <time>2015-06-24T12:49:29Z</time>
      </trkpt>
      <trkpt lat="44.17689" lon="5.08647">
        <ele>411.5</ele>
        <time>2015-06-24T12:49:39Z</time>
      </trkpt>
      <trkpt lat="44.17691" lon="5.08633">
        <ele>411.8</ele>
        <time>2015-06-24T12:49:47Z</time>
      </trkpt>
      <trkpt lat="44.17693" lon="5.0862">
        <ele>411.9</ele>
        <time>2015-06-24T12:49:58Z</time>
      </trkpt>
      <trkpt lat="44.17699" lon="5.0861">
        <ele>412.3</ele>
        <time>2015-06-24T12:50:04Z</time>
      </trkpt>
      <trkpt lat="44.17705" lon="5.08598">
        <ele>413.5</ele>
        <time>2015-06-24T12:50:11Z</time>
      </trkpt>
      <trkpt lat="44.17711" lon="5.08587">
        <ele>414.8</ele>
        <time>2015-06-24T12:50:18Z</time>
      </trkpt>
      <trkpt lat="44.17716" lon="5.08576">
        <ele>415.8</ele>
        <time>2015-06-24T12:50:27Z</time>
      </trkpt>
      <trkpt lat="44.17725" lon="5.08576">
        <ele>416.7</ele>
        <time>2015-06-24T12:50:39Z</time>
      </trkpt>
      <trkpt lat="44.17737" lon="5.08577">
        <ele>418.3</ele>
        <time>2015-06-24T12:50:52Z</time>
      </trkpt>
      <trkpt lat="44.17747" lon="5.08576">
        <ele>419.1</ele>
        <time>2015-06-24T12:50:57Z</time>
      </trkpt>
      <trkpt lat="44.17757" lon="5.08572">
        <ele>420.1</ele>
        <time>2015-06-24T12:51:03Z</time>
      </trkpt>
      <trkpt lat="44.17766" lon="5.08568">
        <ele>421.7</ele>
        <time>2015-06-24T12:51:10Z</time>
      </trkpt>
      <trkpt lat="44.17775" lon="5.08564">
        <ele>423.2</ele>
        <time>2015-06-24T12:51:18Z</time>
      </trkpt>
      <trkpt lat="44.17785" lon="5.08567">
        <ele>424.5</ele>
        <time>2015-06-24T12:51:27Z</time>
      </trkpt>
      <trkpt lat="44.17793" lon="5.08573">
        <ele>425.3</ele>
        <time>2015-06-24T12:51:33Z</time>
      </trkpt>
      <trkpt lat="44.17802" lon="5.08569">
        <ele>426.2</ele>
        <time>2015-06-24T12:51:42Z</time>
      </trkpt>
      <trkpt lat="44.17812" lon="5.08564">
        <ele>427</ele>
        <time>2015-06-24T12:51:53Z</time>
      </trkpt>
      <trkpt lat="44.17822" lon="5.0856">
        <ele>427.4</ele>
        <time>2015-06-24T12:52:01Z</time>
      </trkpt>
      <trkpt lat="44.17832" lon="5.08555">
        <ele>427.7</ele>
        <time>2015-06-24T12:52:09Z</time>
      </trkpt>
      <trkpt lat="44.1784" lon="5.08547">
        <ele>428.9</ele>
        <time>2015-06-24T12:52:18Z</time>
      </trkpt>
      <trkpt lat="44.17845" lon="5.08537">
        <ele>430</ele>
        <time>2015-06-24T12:52:26Z</time>
      </trkpt>
      <trkpt lat="44.17849" lon="5.08524">
        <ele>431.3</ele>
        <time>2015-06-24T12:52:35Z</time>
      </trkpt>
      <trkpt lat="44.17855" lon="5.08514">
        <ele>431.9</ele>
        <time>2015-06-24T12:52:43Z</time>
      </trkpt>
      <trkpt lat="44.17864" lon="5.08504">
        <ele>433.2</ele>
        <time>2015-06-24T12:52:49Z</time>
      </trkpt>
      <trkpt lat="44.17872" lon="5.08495">
        <ele>434.1</ele>
        <time>2015-06-24T12:52:55Z</time>
      </trkpt>
      <trkpt lat="44.17874" lon="5.08482">
        <ele>435.7</ele>
        <time>2015-06-24T12:53:04Z</time>
      </trkpt>
      <trkpt lat="44.17877" lon="5.08469">
        <ele>437.3</ele>
        <time>2015-06-24T12:53:11Z</time>
      </trkpt>
      <trkpt lat="44.17882" lon="5.08458">
        <ele>438.7</ele>
        <time>2015-06-24T12:53:24Z</time>
      </trkpt>
      <trkpt lat="44.17891" lon="5.08458">
        <ele>440.2</ele>
        <time>2015-06-24T12:53:35Z</time>
      </trkpt>
      <trkpt lat="44.17899" lon="5.0845">
        <ele>441.9</ele>
        <time>2015-06-24T12:53:48Z</time>
      </trkpt>
      <trkpt lat="44.17909" lon="5.08448">
        <ele>442.9</ele>
        <time>2015-06-24T12:53:55Z</time>
      </trkpt>
      <trkpt lat="44.17918" lon="5.08443">
        <ele>444</ele>
        <time>2015-06-24T12:54:02Z</time>
      </trkpt>
      <trkpt lat="44.17927" lon="5.08442">
        <ele>445.4</ele>
        <time>2015-06-24T12:54:13Z</time>
      </trkpt>
      <trkpt lat="44.17936" lon="5.08439">
        <ele>446.1</ele>
        <time>2015-06-24T12:54:19Z</time>
      </trkpt>
      <trkpt lat="44.17945" lon="5.08435">
        <ele>447.1</ele>
        <time>2015-06-24T12:54:26Z</time>
      </trkpt>
      <trkpt lat="44.17951" lon="5.08424">
        <ele>448</ele>
        <time>2015-06-24T12:54:33Z</time>
      </trkpt>
      <trkpt lat="44.17959" lon="5.08417">
        <ele>449.6</ele>
        <time>2015-06-24T12:54:43Z</time>
      </trkpt>
      <trkpt lat="44.17962" lon="5.08405">
        <ele>450.8</ele>
        <time>2015-06-24T12:54:53Z</time>
      </trkpt>
      <trkpt lat="44.17968" lon="5.08394">
        <ele>451.4</ele>
        <time>2015-06-24T12:55:00Z</time>
      </trkpt>
      <trkpt lat="44.17978" lon="5.08375">
        <ele>452</ele>
        <time>2015-06-24T12:57:24Z</time>
      </trkpt>
      <trkpt lat="44.17982" lon="5.08363">
        <ele>450.8</ele>
        <time>2015-06-24T12:58:13Z</time>
      </trkpt>
      <trkpt lat="44.17988" lon="5.08353">
        <ele>450.6</ele>
        <time>2015-06-24T12:58:22Z</time>
      </trkpt>
      <trkpt lat="44.17998" lon="5.08345">
        <ele>449.8</ele>
        <time>2015-06-24T12:58:30Z</time>
      </trkpt>
      <trkpt lat="44.18007" lon="5.08342">
        <ele>449.9</ele>
        <time>2015-06-24T12:58:36Z</time>
      </trkpt>
      <trkpt lat="44.18013" lon="5.08332">
        <ele>449.7</ele>
        <time>2015-06-24T12:58:54Z</time>
      </trkpt>
      <trkpt lat="44.18021" lon="5.08324">
        <ele>449.3</ele>
        <time>2015-06-24T12:59:06Z</time>
      </trkpt>
      <trkpt lat="44.18032" lon="5.08315">
        <ele>448.9</ele>
        <time>2015-06-24T12:59:15Z</time>
      </trkpt>
      <trkpt lat="44.18042" lon="5.08311">
        <ele>448.6</ele>
        <time>2015-06-24T12:59:20Z</time>
      </trkpt>
      <trkpt lat="44.18048" lon="5.08303">
        <ele>448.1</ele>
        <time>2015-06-24T12:59:28Z</time>
      </trkpt>
      <trkpt lat="44.18044" lon="5.08292">
        <ele>447.3</ele>
        <time>2015-06-24T12:59:37Z</time>
      </trkpt>
      <trkpt lat="44.18043" lon="5.08278">
        <ele>446.6</ele>
        <time>2015-06-24T12:59:45Z</time>
      </trkpt>
      <trkpt lat="44.18036" lon="5.08267">
        <ele>446.1</ele>
        <time>2015-06-24T12:59:53Z</time>
      </trkpt>
      <trkpt lat="44.1803" lon="5.08257">
        <ele>446</ele>
        <time>2015-06-24T12:59:57Z</time>
      </trkpt>
      <trkpt lat="44.18029" lon="5.08245">
        <ele>446.6</ele>
        <time>2015-06-24T13:00:04Z</time>
      </trkpt>
      <trkpt lat="44.1803" lon="5.08231">
        <ele>447.6</ele>
        <time>2015-06-24T13:00:12Z</time>
      </trkpt>
      <trkpt lat="44.18035" lon="5.0822">
        <ele>447.5</ele>
        <time>2015-06-24T13:00:20Z</time>
      </trkpt>
      <trkpt lat="44.18039" lon="5.08207">
        <ele>447.4</ele>
        <time>2015-06-24T13:00:26Z</time>
      </trkpt>
      <trkpt lat="44.18039" lon="5.08194">
        <ele>447.6</ele>
        <time>2015-06-24T13:00:32Z</time>
      </trkpt>
      <trkpt lat="44.18037" lon="5.08181">
        <ele>448.1</ele>
        <time>2015-06-24T13:00:38Z</time>
      </trkpt>
      <trkpt lat="44.18035" lon="5.08168">
        <ele>448.4</ele>
        <time>2015-06-24T13:00:44Z</time>
      </trkpt>
      <trkpt lat="44.18035" lon="5.08153">
        <ele>448.6</ele>
        <time>2015-06-24T13:00:50Z</time>
      </trkpt>
      <trkpt lat="44.1803" lon="5.08141">
        <ele>448.7</ele>
        <time>2015-06-24T13:01:02Z</time>
      </trkpt>
      <trkpt lat="44.18029" lon="5.08128">
        <ele>448.4</ele>
        <time>2015-06-24T13:01:11Z</time>
      </trkpt>
      <trkpt lat="44.18034" lon="5.08117">
        <ele>447.9</ele>
        <time>2015-06-24T13:01:21Z</time>
      </trkpt>
      <trkpt lat="44.18033" lon="5.08104">
        <ele>447.7</ele>
        <time>2015-06-24T13:01:29Z</time>
      </trkpt>
      <trkpt lat="44.18027" lon="5.08094">
        <ele>447.7</ele>
        <time>2015-06-24T13:01:35Z</time>
      </trkpt>
      <trkpt lat="44.18021" lon="5.08084">
        <ele>448.2</ele>
        <time>2015-06-24T13:01:45Z</time>
      </trkpt>
      <trkpt lat="44.18018" lon="5.0807">
        <ele>449</ele>
        <time>2015-06-24T13:01:54Z</time>
      </trkpt>
      <trkpt lat="44.18015" lon="5.08058">
        <ele>449.8</ele>
        <time>2015-06-24T13:02:03Z</time>
      </trkpt>
      <trkpt lat="44.18015" lon="5.08045">
        <ele>450.7</ele>
        <time>2015-06-24T13:02:10Z</time>
      </trkpt>
      <trkpt lat="44.18016" lon="5.08032">
        <ele>451.8</ele>
        <time>2015-06-24T13:02:19Z</time>
      </trkpt>
      <trkpt lat="44.18017" lon="5.08019">
        <ele>452.6</ele>
        <time>2015-06-24T13:02:26Z</time>
      </trkpt>
      <trkpt lat="44.18016" lon="5.07979">
        <ele>455</ele>
        <time>2015-06-24T13:03:04Z</time>
      </trkpt>
      <trkpt lat="44.18014" lon="5.07962">
        <ele>456.3</ele>
        <time>2015-06-24T13:03:09Z</time>
      </trkpt>
      <trkpt lat="44.18013" lon="5.07949">
        <ele>456.5</ele>
        <time>2015-06-24T13:03:13Z</time>
      </trkpt>
      <trkpt lat="44.1801" lon="5.07937">
        <ele>456.8</ele>
        <time>2015-06-24T13:03:19Z</time>
      </trkpt>
      <trkpt lat="44.18005" lon="5.07926">
        <ele>457.1</ele>
        <time>2015-06-24T13:03:30Z</time>
      </trkpt>
      <trkpt lat="44.18004" lon="5.0791">
        <ele>457.6</ele>
        <time>2015-06-24T13:03:41Z</time>
      </trkpt>
      <trkpt lat="44.18002" lon="5.07894">
        <ele>458.1</ele>
        <time>2015-06-24T13:03:49Z</time>
      </trkpt>
      <trkpt lat="44.18005" lon="5.07881">
        <ele>458.8</ele>
        <time>2015-06-24T13:03:56Z</time>
      </trkpt>
      <trkpt lat="44.18007" lon="5.07866">
        <ele>459.8</ele>
        <time>2015-06-24T13:04:03Z</time>
      </trkpt>
      <trkpt lat="44.18014" lon="5.07857">
        <ele>461.5</ele>
        <time>2015-06-24T13:04:14Z</time>
      </trkpt>
      <trkpt lat="44.18017" lon="5.07845">
        <ele>462</ele>
        <time>2015-06-24T13:04:22Z</time>
      </trkpt>
      <trkpt lat="44.18025" lon="5.07836">
        <ele>462.2</ele>
        <time>2015-06-24T13:04:33Z</time>
      </trkpt>
      <trkpt lat="44.18033" lon="5.07829">
        <ele>462.3</ele>
        <time>2015-06-24T13:04:43Z</time>
      </trkpt>
      <trkpt lat="44.18039" lon="5.07818">
        <ele>462.4</ele>
        <time>2015-06-24T13:04:51Z</time>
      </trkpt>
      <trkpt lat="44.18042" lon="5.07805">
        <ele>462.4</ele>
        <time>2015-06-24T13:04:54Z</time>
      </trkpt>
      <trkpt lat="44.18052" lon="5.07802">
        <ele>463.2</ele>
        <time>2015-06-24T13:05:12Z</time>
      </trkpt>
      <trkpt lat="44.18061" lon="5.078">
        <ele>463.5</ele>
        <time>2015-06-24T13:05:21Z</time>
      </trkpt>
      <trkpt lat="44.1807" lon="5.07796">
        <ele>463.7</ele>
        <time>2015-06-24T13:05:33Z</time>
      </trkpt>
      <trkpt lat="44.1808" lon="5.078">
        <ele>463.5</ele>
        <time>2015-06-24T13:05:54Z</time>
      </trkpt>
      <trkpt lat="44.18089" lon="5.07807">
        <ele>463.4</ele>
        <time>2015-06-24T13:06:04Z</time>
      </trkpt>
      <trkpt lat="44.18098" lon="5.0781">
        <ele>463.3</ele>
        <time>2015-06-24T13:06:13Z</time>
      </trkpt>
      <trkpt lat="44.18107" lon="5.07807">
        <ele>463.2</ele>
        <time>2015-06-24T13:06:18Z</time>
      </trkpt>
      <trkpt lat="44.1812" lon="5.07804">
        <ele>463.1</ele>
        <time>2015-06-24T13:06:23Z</time>
      </trkpt>
      <trkpt lat="44.18129" lon="5.07802">
        <ele>463.3</ele>
        <time>2015-06-24T13:06:29Z</time>
      </trkpt>
      <trkpt lat="44.18138" lon="5.07801">
        <ele>463.8</ele>
        <time>2015-06-24T13:06:38Z</time>
      </trkpt>
      <trkpt lat="44.18148" lon="5.07799">
        <ele>464.1</ele>
        <time>2015-06-24T13:06:43Z</time>
      </trkpt>
      <trkpt lat="44.18153" lon="5.07789">
        <ele>464.7</ele>
        <time>2015-06-24T13:06:53Z</time>
      </trkpt>
      <trkpt lat="44.18163" lon="5.0779">
        <ele>465.1</ele>
        <time>2015-06-24T13:07:00Z</time>
      </trkpt>
      <trkpt lat="44.18172" lon="5.07788">
        <ele>465.6</ele>
        <time>2015-06-24T13:07:07Z</time>
      </trkpt>
      <trkpt lat="44.18182" lon="5.07786">
        <ele>466.2</ele>
        <time>2015-06-24T13:07:16Z</time>
      </trkpt>
      <trkpt lat="44.18192" lon="5.07789">
        <ele>467</ele>
        <time>2015-06-24T13:07:25Z</time>
      </trkpt>
      <trkpt lat="44.18201" lon="5.07789">
        <ele>467.8</ele>
        <time>2015-06-24T13:07:34Z</time>
      </trkpt>
      <trkpt lat="44.18211" lon="5.07784">
        <ele>468.6</ele>
        <time>2015-06-24T13:07:40Z</time>
      </trkpt>
      <trkpt lat="44.18219" lon="5.07789">
        <ele>469.6</ele>
        <time>2015-06-24T13:07:49Z</time>
      </trkpt>
      <trkpt lat="44.18231" lon="5.07788">
        <ele>469.9</ele>
        <time>2015-06-24T13:07:52Z</time>
      </trkpt>
      <trkpt lat="44.1824" lon="5.07789">
        <ele>470.5</ele>
        <time>2015-06-24T13:07:58Z</time>
      </trkpt>
      <trkpt lat="44.18251" lon="5.07788">
        <ele>471.1</ele>
        <time>2015-06-24T13:08:12Z</time>
      </trkpt>
      <trkpt lat="44.1826" lon="5.07787">
        <ele>471.5</ele>
        <time>2015-06-24T13:08:21Z</time>
      </trkpt>
      <trkpt lat="44.1827" lon="5.07784">
        <ele>471.9</ele>
        <time>2015-06-24T13:08:32Z</time>
      </trkpt>
      <trkpt lat="44.1828" lon="5.07778">
        <ele>472.2</ele>
        <time>2015-06-24T13:08:40Z</time>
      </trkpt>
      <trkpt lat="44.18285" lon="5.07767">
        <ele>472.9</ele>
        <time>2015-06-24T13:08:59Z</time>
      </trkpt>
      <trkpt lat="44.18287" lon="5.07755">
        <ele>473.4</ele>
        <time>2015-06-24T13:09:11Z</time>
      </trkpt>
      <trkpt lat="44.18291" lon="5.07744">
        <ele>474.2</ele>
        <time>2015-06-24T13:09:18Z</time>
      </trkpt>
      <trkpt lat="44.18294" lon="5.07731">
        <ele>475.5</ele>
        <time>2015-06-24T13:09:26Z</time>
      </trkpt>
      <trkpt lat="44.18301" lon="5.07719">
        <ele>476.6</ele>
        <time>2015-06-24T13:09:34Z</time>
      </trkpt>
      <trkpt lat="44.18306" lon="5.07708">
        <ele>477.3</ele>
        <time>2015-06-24T13:09:39Z</time>
      </trkpt>
      <trkpt lat="44.18316" lon="5.07709">
        <ele>477.5</ele>
        <time>2015-06-24T13:09:41Z</time>
      </trkpt>
      <trkpt lat="44.18324" lon="5.07701">
        <ele>478.1</ele>
        <time>2015-06-24T13:09:47Z</time>
      </trkpt>
      <trkpt lat="44.1833" lon="5.07692">
        <ele>478.8</ele>
        <time>2015-06-24T13:09:54Z</time>
      </trkpt>
      <trkpt lat="44.18333" lon="5.07681">
        <ele>479.5</ele>
        <time>2015-06-24T13:10:02Z</time>
      </trkpt>
      <trkpt lat="44.18339" lon="5.07667">
        <ele>479.8</ele>
        <time>2015-06-24T13:10:10Z</time>
      </trkpt>
      <trkpt lat="44.18346" lon="5.07656">
        <ele>480.5</ele>
        <time>2015-06-24T13:10:16Z</time>
      </trkpt>
      <trkpt lat="44.18347" lon="5.07642">
        <ele>481.8</ele>
        <time>2015-06-24T13:10:24Z</time>
      </trkpt>
      <trkpt lat="44.18348" lon="5.07629">
        <ele>483.5</ele>
        <time>2015-06-24T13:10:33Z</time>
      </trkpt>
      <trkpt lat="44.18353" lon="5.07616">
        <ele>485.7</ele>
        <time>2015-06-24T13:10:44Z</time>
      </trkpt>
      <trkpt lat="44.18362" lon="5.07608">
        <ele>486.5</ele>
        <time>2015-06-24T13:10:51Z</time>
      </trkpt>
      <trkpt lat="44.18371" lon="5.07606">
        <ele>487</ele>
        <time>2015-06-24T13:10:58Z</time>
      </trkpt>
      <trkpt lat="44.18376" lon="5.07594">
        <ele>487.8</ele>
        <time>2015-06-24T13:11:07Z</time>
      </trkpt>
      <trkpt lat="44.18385" lon="5.07588">
        <ele>489.1</ele>
        <time>2015-06-24T13:11:18Z</time>
      </trkpt>
      <trkpt lat="44.18394" lon="5.0758">
        <ele>489.9</ele>
        <time>2015-06-24T13:11:24Z</time>
      </trkpt>
      <trkpt lat="44.18401" lon="5.07574">
        <ele>491</ele>
        <time>2015-06-24T13:11:33Z</time>
      </trkpt>
      <trkpt lat="44.18408" lon="5.07565">
        <ele>491.8</ele>
        <time>2015-06-24T13:11:42Z</time>
      </trkpt>
      <trkpt lat="44.18417" lon="5.07558">
        <ele>492.3</ele>
        <time>2015-06-24T13:11:51Z</time>
      </trkpt>
      <trkpt lat="44.18423" lon="5.07548">
        <ele>492.5</ele>
        <time>2015-06-24T13:11:55Z</time>
      </trkpt>
      <trkpt lat="44.18428" lon="5.07537">
        <ele>493</ele>
        <time>2015-06-24T13:12:02Z</time>
      </trkpt>
      <trkpt lat="44.18432" lon="5.07526">
        <ele>493.7</ele>
        <time>2015-06-24T13:12:12Z</time>
      </trkpt>
      <trkpt lat="44.18436" lon="5.07514">
        <ele>493.7</ele>
        <time>2015-06-24T13:12:23Z</time>
      </trkpt>
      <trkpt lat="44.18444" lon="5.07504">
        <ele>493.6</ele>
        <time>2015-06-24T13:12:30Z</time>
      </trkpt>
      <trkpt lat="44.18452" lon="5.07498">
        <ele>493.5</ele>
        <time>2015-06-24T13:12:41Z</time>
      </trkpt>
      <trkpt lat="44.1846" lon="5.0749">
        <ele>494.1</ele>
        <time>2015-06-24T13:12:51Z</time>
      </trkpt>
      <trkpt lat="44.18471" lon="5.0749">
        <ele>495</ele>
        <time>2015-06-24T13:13:01Z</time>
      </trkpt>
      <trkpt lat="44.1848" lon="5.0749">
        <ele>495.8</ele>
        <time>2015-06-24T13:13:08Z</time>
      </trkpt>
      <trkpt lat="44.1849" lon="5.07486">
        <ele>496.6</ele>
        <time>2015-06-24T13:13:15Z</time>
      </trkpt>
      <trkpt lat="44.18499" lon="5.07482">
        <ele>498.7</ele>
        <time>2015-06-24T13:13:30Z</time>
      </trkpt>
      <trkpt lat="44.18508" lon="5.07482">
        <ele>500.3</ele>
        <time>2015-06-24T13:13:40Z</time>
      </trkpt>
      <trkpt lat="44.18517" lon="5.07476">
        <ele>501.7</ele>
        <time>2015-06-24T13:13:50Z</time>
      </trkpt>
      <trkpt lat="44.18516" lon="5.07464">
        <ele>502.9</ele>
        <time>2015-06-24T13:14:00Z</time>
      </trkpt>
      <trkpt lat="44.18511" lon="5.07452">
        <ele>504.8</ele>
        <time>2015-06-24T13:14:10Z</time>
      </trkpt>
      <trkpt lat="44.18512" lon="5.07438">
        <ele>506.3</ele>
        <time>2015-06-24T13:14:18Z</time>
      </trkpt>
      <trkpt lat="44.18514" lon="5.07424">
        <ele>508.1</ele>
        <time>2015-06-24T13:14:27Z</time>
      </trkpt>
      <trkpt lat="44.18522" lon="5.07415">
        <ele>510</ele>
        <time>2015-06-24T13:14:41Z</time>
      </trkpt>
      <trkpt lat="44.18532" lon="5.07417">
        <ele>510.3</ele>
        <time>2015-06-24T13:14:44Z</time>
      </trkpt>
      <trkpt lat="44.18541" lon="5.07417">
        <ele>511.7</ele>
        <time>2015-06-24T13:14:54Z</time>
      </trkpt>
      <trkpt lat="44.18549" lon="5.07425">
        <ele>515.9</ele>
        <time>2015-06-24T13:15:10Z</time>
      </trkpt>
      <trkpt lat="44.18558" lon="5.07422">
        <ele>517.2</ele>
        <time>2015-06-24T13:15:16Z</time>
      </trkpt>
      <trkpt lat="44.18569" lon="5.0742">
        <ele>518.2</ele>
        <time>2015-06-24T13:15:21Z</time>
      </trkpt>
      <trkpt lat="44.18578" lon="5.07415">
        <ele>519.5</ele>
        <time>2015-06-24T13:15:29Z</time>
      </trkpt>
      <trkpt lat="44.18584" lon="5.07404">
        <ele>521.2</ele>
        <time>2015-06-24T13:15:39Z</time>
      </trkpt>
      <trkpt lat="44.18593" lon="5.07398">
        <ele>523.2</ele>
        <time>2015-06-24T13:15:49Z</time>
      </trkpt>
      <trkpt lat="44.18598" lon="5.07387">
        <ele>524.2</ele>
        <time>2015-06-24T13:15:56Z</time>
      </trkpt>
      <trkpt lat="44.18603" lon="5.07376">
        <ele>526</ele>
        <time>2015-06-24T13:16:07Z</time>
      </trkpt>
      <trkpt lat="44.18609" lon="5.07365">
        <ele>527.2</ele>
        <time>2015-06-24T13:16:18Z</time>
      </trkpt>
      <trkpt lat="44.18615" lon="5.07356">
        <ele>529.2</ele>
        <time>2015-06-24T13:16:28Z</time>
      </trkpt>
      <trkpt lat="44.18619" lon="5.07343">
        <ele>530.6</ele>
        <time>2015-06-24T13:16:38Z</time>
      </trkpt>
      <trkpt lat="44.18624" lon="5.07331">
        <ele>531</ele>
        <time>2015-06-24T13:16:45Z</time>
      </trkpt>
      <trkpt lat="44.18625" lon="5.07318">
        <ele>532.2</ele>
        <time>2015-06-24T13:16:55Z</time>
      </trkpt>
      <trkpt lat="44.18626" lon="5.07306">
        <ele>532.6</ele>
        <time>2015-06-24T13:17:00Z</time>
      </trkpt>
      <trkpt lat="44.18621" lon="5.07293">
        <ele>533.1</ele>
        <time>2015-06-24T13:17:06Z</time>
      </trkpt>
      <trkpt lat="44.18615" lon="5.07282">
        <ele>533.5</ele>
        <time>2015-06-24T13:17:16Z</time>
      </trkpt>
      <trkpt lat="44.18611" lon="5.07271">
        <ele>534.8</ele>
        <time>2015-06-24T13:17:25Z</time>
      </trkpt>
      <trkpt lat="44.18605" lon="5.0726">
        <ele>535.3</ele>
        <time>2015-06-24T13:17:32Z</time>
      </trkpt>
      <trkpt lat="44.18604" lon="5.07247">
        <ele>536.2</ele>
        <time>2015-06-24T13:17:41Z</time>
      </trkpt>
      <trkpt lat="44.18597" lon="5.07238">
        <ele>536.2</ele>
        <time>2015-06-24T13:17:50Z</time>
      </trkpt>
      <trkpt lat="44.18593" lon="5.07225">
        <ele>536.9</ele>
        <time>2015-06-24T13:17:58Z</time>
      </trkpt>
      <trkpt lat="44.18593" lon="5.07212">
        <ele>537.3</ele>
        <time>2015-06-24T13:18:04Z</time>
      </trkpt>
      <trkpt lat="44.18588" lon="5.07202">
        <ele>537.2</ele>
        <time>2015-06-24T13:18:21Z</time>
      </trkpt>
      <trkpt lat="44.18583" lon="5.07191">
        <ele>537.8</ele>
        <time>2015-06-24T13:18:43Z</time>
      </trkpt>
      <trkpt lat="44.18592" lon="5.0719">
        <ele>538.1</ele>
        <time>2015-06-24T13:19:46Z</time>
      </trkpt>
      <trkpt lat="44.18567" lon="5.0718">
        <ele>537</ele>
        <time>2015-06-24T13:21:23Z</time>
      </trkpt>
      <trkpt lat="44.18557" lon="5.07174">
        <ele>537.8</ele>
        <time>2015-06-24T13:21:30Z</time>
      </trkpt>
      <trkpt lat="44.18548" lon="5.07171">
        <ele>537.6</ele>
        <time>2015-06-24T13:21:36Z</time>
      </trkpt>
      <trkpt lat="44.1854" lon="5.07164">
        <ele>537.3</ele>
        <time>2015-06-24T13:21:44Z</time>
      </trkpt>
      <trkpt lat="44.18534" lon="5.07154">
        <ele>538.6</ele>
        <time>2015-06-24T13:21:56Z</time>
      </trkpt>
      <trkpt lat="44.18532" lon="5.07141">
        <ele>539.6</ele>
        <time>2015-06-24T13:22:04Z</time>
      </trkpt>
      <trkpt lat="44.18525" lon="5.07129">
        <ele>542.1</ele>
        <time>2015-06-24T13:22:18Z</time>
      </trkpt>
      <trkpt lat="44.18518" lon="5.07121">
        <ele>543.2</ele>
        <time>2015-06-24T13:22:27Z</time>
      </trkpt>
      <trkpt lat="44.18512" lon="5.07111">
        <ele>544.4</ele>
        <time>2015-06-24T13:22:35Z</time>
      </trkpt>
      <trkpt lat="44.18507" lon="5.071">
        <ele>545.6</ele>
        <time>2015-06-24T13:22:43Z</time>
      </trkpt>
      <trkpt lat="44.18506" lon="5.07083">
        <ele>546.1</ele>
        <time>2015-06-24T13:22:49Z</time>
      </trkpt>
      <trkpt lat="44.185" lon="5.07072">
        <ele>546.4</ele>
        <time>2015-06-24T13:22:55Z</time>
      </trkpt>
      <trkpt lat="44.18495" lon="5.07061">
        <ele>546.4</ele>
        <time>2015-06-24T13:23:00Z</time>
      </trkpt>
      <trkpt lat="44.18503" lon="5.07053">
        <ele>546.1</ele>
        <time>2015-06-24T13:23:23Z</time>
      </trkpt>
      <trkpt lat="44.1851" lon="5.07062">
        <ele>546.8</ele>
        <time>2015-06-24T13:23:31Z</time>
      </trkpt>
      <trkpt lat="44.18518" lon="5.07068">
        <ele>548.6</ele>
        <time>2015-06-24T13:23:41Z</time>
      </trkpt>
      <trkpt lat="44.18526" lon="5.07075">
        <ele>550.7</ele>
        <time>2015-06-24T13:23:50Z</time>
      </trkpt>
      <trkpt lat="44.18534" lon="5.07082">
        <ele>552.7</ele>
        <time>2015-06-24T13:23:59Z</time>
      </trkpt>
      <trkpt lat="44.18544" lon="5.0709">
        <ele>554.3</ele>
        <time>2015-06-24T13:24:07Z</time>
      </trkpt>
      <trkpt lat="44.18553" lon="5.07094">
        <ele>555.9</ele>
        <time>2015-06-24T13:24:16Z</time>
      </trkpt>
      <trkpt lat="44.18561" lon="5.07099">
        <ele>558.3</ele>
        <time>2015-06-24T13:24:28Z</time>
      </trkpt>
      <trkpt lat="44.1857" lon="5.07101">
        <ele>560.6</ele>
        <time>2015-06-24T13:24:38Z</time>
      </trkpt>
      <trkpt lat="44.1858" lon="5.07105">
        <ele>562.9</ele>
        <time>2015-06-24T13:24:48Z</time>
      </trkpt>
      <trkpt lat="44.1859" lon="5.07105">
        <ele>565.1</ele>
        <time>2015-06-24T13:24:58Z</time>
      </trkpt>
      <trkpt lat="44.18599" lon="5.07113">
        <ele>566.8</ele>
        <time>2015-06-24T13:25:05Z</time>
      </trkpt>
      <trkpt lat="44.18602" lon="5.07101">
        <ele>570.9</ele>
        <time>2015-06-24T13:25:23Z</time>
      </trkpt>
      <trkpt lat="44.18595" lon="5.07091">
        <ele>571.8</ele>
        <time>2015-06-24T13:25:32Z</time>
      </trkpt>
      <trkpt lat="44.18591" lon="5.07078">
        <ele>573.3</ele>
        <time>2015-06-24T13:25:45Z</time>
      </trkpt>
      <trkpt lat="44.18597" lon="5.07068">
        <ele>575.2</ele>
        <time>2015-06-24T13:25:57Z</time>
      </trkpt>
      <trkpt lat="44.18604" lon="5.07077">
        <ele>576.9</ele>
        <time>2015-06-24T13:26:05Z</time>
      </trkpt>
      <trkpt lat="44.18613" lon="5.07081">
        <ele>578.9</ele>
        <time>2015-06-24T13:26:15Z</time>
      </trkpt>
      <trkpt lat="44.18622" lon="5.0708">
        <ele>581</ele>
        <time>2015-06-24T13:26:26Z</time>
      </trkpt>
      <trkpt lat="44.18632" lon="5.07082">
        <ele>583</ele>
        <time>2015-06-24T13:26:36Z</time>
      </trkpt>
      <trkpt lat="44.18642" lon="5.07083">
        <ele>584.8</ele>
        <time>2015-06-24T13:26:44Z</time>
      </trkpt>
      <trkpt lat="44.18643" lon="5.0707">
        <ele>589.3</ele>
        <time>2015-06-24T13:27:04Z</time>
      </trkpt>
      <trkpt lat="44.18638" lon="5.07059">
        <ele>591.1</ele>
        <time>2015-06-24T13:27:15Z</time>
      </trkpt>
      <trkpt lat="44.18634" lon="5.07047">
        <ele>593.2</ele>
        <time>2015-06-24T13:27:27Z</time>
      </trkpt>
      <trkpt lat="44.1863" lon="5.07035">
        <ele>595.2</ele>
        <time>2015-06-24T13:27:38Z</time>
      </trkpt>
      <trkpt lat="44.18624" lon="5.07025">
        <ele>596.6</ele>
        <time>2015-06-24T13:27:47Z</time>
      </trkpt>
      <trkpt lat="44.18622" lon="5.07009">
        <ele>597.9</ele>
        <time>2015-06-24T13:27:55Z</time>
      </trkpt>
      <trkpt lat="44.18618" lon="5.06996">
        <ele>599.3</ele>
        <time>2015-06-24T13:28:01Z</time>
      </trkpt>
      <trkpt lat="44.1861" lon="5.06989">
        <ele>601.9</ele>
        <time>2015-06-24T13:28:14Z</time>
      </trkpt>
      <trkpt lat="44.18601" lon="5.06984">
        <ele>602.5</ele>
        <time>2015-06-24T13:28:23Z</time>
      </trkpt>
      <trkpt lat="44.18595" lon="5.06975">
        <ele>604.4</ele>
        <time>2015-06-24T13:28:36Z</time>
      </trkpt>
      <trkpt lat="44.18587" lon="5.06965">
        <ele>604.7</ele>
        <time>2015-06-24T13:28:46Z</time>
      </trkpt>
      <trkpt lat="44.18581" lon="5.06957">
        <ele>604.3</ele>
        <time>2015-06-24T13:28:49Z</time>
      </trkpt>
      <trkpt lat="44.18577" lon="5.06944">
        <ele>604.3</ele>
        <time>2015-06-24T13:28:53Z</time>
      </trkpt>
      <trkpt lat="44.1857" lon="5.06935">
        <ele>603.8</ele>
        <time>2015-06-24T13:29:00Z</time>
      </trkpt>
      <trkpt lat="44.18564" lon="5.06926">
        <ele>603.9</ele>
        <time>2015-06-24T13:29:11Z</time>
      </trkpt>
      <trkpt lat="44.18562" lon="5.06912">
        <ele>604.2</ele>
        <time>2015-06-24T13:29:27Z</time>
      </trkpt>
      <trkpt lat="44.18555" lon="5.06903">
        <ele>604.5</ele>
        <time>2015-06-24T13:29:38Z</time>
      </trkpt>
      <trkpt lat="44.18541" lon="5.06854">
        <ele>608</ele>
        <time>2015-06-24T13:30:22Z</time>
      </trkpt>
      <trkpt lat="44.18537" lon="5.06841">
        <ele>607.9</ele>
        <time>2015-06-24T13:30:43Z</time>
      </trkpt>
      <trkpt lat="44.18528" lon="5.06836">
        <ele>607</ele>
        <time>2015-06-24T13:30:52Z</time>
      </trkpt>
      <trkpt lat="44.18519" lon="5.06833">
        <ele>605.8</ele>
        <time>2015-06-24T13:31:01Z</time>
      </trkpt>
      <trkpt lat="44.1851" lon="5.06827">
        <ele>604.5</ele>
        <time>2015-06-24T13:31:11Z</time>
      </trkpt>
      <trkpt lat="44.18501" lon="5.06826">
        <ele>603.2</ele>
        <time>2015-06-24T13:31:21Z</time>
      </trkpt>
      <trkpt lat="44.18492" lon="5.06825">
        <ele>600.2</ele>
        <time>2015-06-24T13:31:35Z</time>
      </trkpt>
      <trkpt lat="44.18482" lon="5.06827">
        <ele>598.7</ele>
        <time>2015-06-24T13:31:43Z</time>
      </trkpt>
      <trkpt lat="44.18474" lon="5.06824">
        <ele>595.7</ele>
        <time>2015-06-24T13:31:57Z</time>
      </trkpt>
      <trkpt lat="44.18463" lon="5.06823">
        <ele>593.9</ele>
        <time>2015-06-24T13:32:11Z</time>
      </trkpt>
      <trkpt lat="44.18454" lon="5.06821">
        <ele>593</ele>
        <time>2015-06-24T13:32:18Z</time>
      </trkpt>
      <trkpt lat="44.18445" lon="5.0682">
        <ele>589.1</ele>
        <time>2015-06-24T13:32:41Z</time>
      </trkpt>
      <trkpt lat="44.18436" lon="5.0682">
        <ele>587</ele>
        <time>2015-06-24T13:32:54Z</time>
      </trkpt>
      <trkpt lat="44.18427" lon="5.06823">
        <ele>585.2</ele>
        <time>2015-06-24T13:33:04Z</time>
      </trkpt>
      <trkpt lat="44.18417" lon="5.06825">
        <ele>583.2</ele>
        <time>2015-06-24T13:33:16Z</time>
      </trkpt>
      <trkpt lat="44.18407" lon="5.06824">
        <ele>581.1</ele>
        <time>2015-06-24T13:33:29Z</time>
      </trkpt>
      <trkpt lat="44.184" lon="5.06813">
        <ele>578.2</ele>
        <time>2015-06-24T13:33:39Z</time>
      </trkpt>
      <trkpt lat="44.18393" lon="5.06803">
        <ele>573.1</ele>
        <time>2015-06-24T13:34:03Z</time>
      </trkpt>
      <trkpt lat="44.18392" lon="5.06788">
        <ele>572.8</ele>
        <time>2015-06-24T13:34:09Z</time>
      </trkpt>
      <trkpt lat="44.18383" lon="5.06788">
        <ele>572.5</ele>
        <time>2015-06-24T13:34:14Z</time>
      </trkpt>
      <trkpt lat="44.1838" lon="5.06776">
        <ele>572.5</ele>
        <time>2015-06-24T13:34:20Z</time>
      </trkpt>
      <trkpt lat="44.18373" lon="5.06765">
        <ele>572.8</ele>
        <time>2015-06-24T13:34:29Z</time>
      </trkpt>
      <trkpt lat="44.1837" lon="5.06753">
        <ele>575.5</ele>
        <time>2015-06-24T13:34:40Z</time>
      </trkpt>
      <trkpt lat="44.18371" lon="5.0674">
        <ele>577.3</ele>
        <time>2015-06-24T13:34:48Z</time>
      </trkpt>
      <trkpt lat="44.18362" lon="5.06732">
        <ele>578.5</ele>
        <time>2015-06-24T13:34:57Z</time>
      </trkpt>
      <trkpt lat="44.18354" lon="5.06725">
        <ele>579.5</ele>
        <time>2015-06-24T13:35:05Z</time>
      </trkpt>
      <trkpt lat="44.18342" lon="5.06728">
        <ele>579.9</ele>
        <time>2015-06-24T13:35:13Z</time>
      </trkpt>
      <trkpt lat="44.18333" lon="5.06733">
        <ele>580</ele>
        <time>2015-06-24T13:35:18Z</time>
      </trkpt>
      <trkpt lat="44.18326" lon="5.0674">
        <ele>580.1</ele>
        <time>2015-06-24T13:38:59Z</time>
      </trkpt>
      <trkpt lat="44.18322" lon="5.06753">
        <ele>581.7</ele>
        <time>2015-06-24T13:39:09Z</time>
      </trkpt>
      <trkpt lat="44.18319" lon="5.06767">
        <ele>582.5</ele>
        <time>2015-06-24T13:39:15Z</time>
      </trkpt>
      <trkpt lat="44.18322" lon="5.06737">
        <ele>586</ele>
        <time>2015-06-24T13:39:24Z</time>
      </trkpt>
      <trkpt lat="44.18322" lon="5.06724">
        <ele>583.4</ele>
        <time>2015-06-24T13:40:26Z</time>
      </trkpt>
      <trkpt lat="44.1832" lon="5.06738">
        <ele>583.3</ele>
        <time>2015-06-24T13:41:25Z</time>
      </trkpt>
      <trkpt lat="44.18319" lon="5.06751">
        <ele>583.4</ele>
        <time>2015-06-24T13:41:40Z</time>
      </trkpt>
      <trkpt lat="44.18314" lon="5.06762">
        <ele>583.4</ele>
        <time>2015-06-24T13:41:44Z</time>
      </trkpt>
      <trkpt lat="44.1831" lon="5.06775">
        <ele>583.5</ele>
        <time>2015-06-24T13:41:52Z</time>
      </trkpt>
      <trkpt lat="44.1831" lon="5.06788">
        <ele>584.9</ele>
        <time>2015-06-24T13:42:16Z</time>
      </trkpt>
      <trkpt lat="44.18317" lon="5.06777">
        <ele>585.1</ele>
        <time>2015-06-24T13:42:25Z</time>
      </trkpt>
      <trkpt lat="44.18327" lon="5.0678">
        <ele>585.1</ele>
        <time>2015-06-24T13:42:33Z</time>
      </trkpt>
      <trkpt lat="44.18335" lon="5.06786">
        <ele>585.1</ele>
        <time>2015-06-24T13:42:47Z</time>
      </trkpt>
      <trkpt lat="44.18343" lon="5.06778">
        <ele>585.1</ele>
        <time>2015-06-24T13:42:58Z</time>
      </trkpt>
      <trkpt lat="44.1835" lon="5.06771">
        <ele>584.9</ele>
        <time>2015-06-24T13:43:09Z</time>
      </trkpt>
      <trkpt lat="44.18359" lon="5.06779">
        <ele>584.9</ele>
        <time>2015-06-24T13:43:16Z</time>
      </trkpt>
      <trkpt lat="44.18368" lon="5.06787">
        <ele>585</ele>
        <time>2015-06-24T13:43:22Z</time>
      </trkpt>
      <trkpt lat="44.18377" lon="5.06792">
        <ele>585</ele>
        <time>2015-06-24T13:43:29Z</time>
      </trkpt>
      <trkpt lat="44.18385" lon="5.06799">
        <ele>585.1</ele>
        <time>2015-06-24T13:43:37Z</time>
      </trkpt>
      <trkpt lat="44.18393" lon="5.0681">
        <ele>584.6</ele>
        <time>2015-06-24T13:43:47Z</time>
      </trkpt>
      <trkpt lat="44.18401" lon="5.06817">
        <ele>584.1</ele>
        <time>2015-06-24T13:43:55Z</time>
      </trkpt>
      <trkpt lat="44.18405" lon="5.06829">
        <ele>583.6</ele>
        <time>2015-06-24T13:44:01Z</time>
      </trkpt>
      <trkpt lat="44.18411" lon="5.06839">
        <ele>582.9</ele>
        <time>2015-06-24T13:44:08Z</time>
      </trkpt>
      <trkpt lat="44.1842" lon="5.06842">
        <ele>582.2</ele>
        <time>2015-06-24T13:44:15Z</time>
      </trkpt>
      <trkpt lat="44.18409" lon="5.0684">
        <ele>580.8</ele>
        <time>2015-06-24T13:44:27Z</time>
      </trkpt>
      <trkpt lat="44.18399" lon="5.06837">
        <ele>579.8</ele>
        <time>2015-06-24T13:44:33Z</time>
      </trkpt>
      <trkpt lat="44.18388" lon="5.06831">
        <ele>579.1</ele>
        <time>2015-06-24T13:44:38Z</time>
      </trkpt>
      <trkpt lat="44.18379" lon="5.06835">
        <ele>578.2</ele>
        <time>2015-06-24T13:44:43Z</time>
      </trkpt>
      <trkpt lat="44.1837" lon="5.06828">
        <ele>577.1</ele>
        <time>2015-06-24T13:44:51Z</time>
      </trkpt>
      <trkpt lat="44.18361" lon="5.06833">
        <ele>576.3</ele>
        <time>2015-06-24T13:44:58Z</time>
      </trkpt>
      <trkpt lat="44.18352" lon="5.06838">
        <ele>575.2</ele>
        <time>2015-06-24T13:45:04Z</time>
      </trkpt>
      <trkpt lat="44.18343" lon="5.0684">
        <ele>573.8</ele>
        <time>2015-06-24T13:45:10Z</time>
      </trkpt>
      <trkpt lat="44.18333" lon="5.0684">
        <ele>571.4</ele>
        <time>2015-06-24T13:45:21Z</time>
      </trkpt>
      <trkpt lat="44.18323" lon="5.06844">
        <ele>568.9</ele>
        <time>2015-06-24T13:45:41Z</time>
      </trkpt>
      <trkpt lat="44.18321" lon="5.06856">
        <ele>567</ele>
        <time>2015-06-24T13:45:56Z</time>
      </trkpt>
      <trkpt lat="44.18313" lon="5.06863">
        <ele>566.2</ele>
        <time>2015-06-24T13:46:06Z</time>
      </trkpt>
      <trkpt lat="44.18303" lon="5.06865">
        <ele>565.1</ele>
        <time>2015-06-24T13:46:16Z</time>
      </trkpt>
      <trkpt lat="44.18292" lon="5.06871">
        <ele>564.2</ele>
        <time>2015-06-24T13:46:24Z</time>
      </trkpt>
      <trkpt lat="44.18282" lon="5.0687">
        <ele>563.7</ele>
        <time>2015-06-24T13:46:28Z</time>
      </trkpt>
      <trkpt lat="44.18272" lon="5.06869">
        <ele>563.3</ele>
        <time>2015-06-24T13:46:34Z</time>
      </trkpt>
      <trkpt lat="44.18263" lon="5.06868">
        <ele>562.4</ele>
        <time>2015-06-24T13:46:42Z</time>
      </trkpt>
      <trkpt lat="44.18253" lon="5.0687">
        <ele>561.9</ele>
        <time>2015-06-24T13:46:49Z</time>
      </trkpt>
      <trkpt lat="44.18243" lon="5.06869">
        <ele>561.4</ele>
        <time>2015-06-24T13:46:55Z</time>
      </trkpt>
      <trkpt lat="44.18233" lon="5.06866">
        <ele>560.1</ele>
        <time>2015-06-24T13:47:03Z</time>
      </trkpt>
      <trkpt lat="44.18224" lon="5.06866">
        <ele>557.4</ele>
        <time>2015-06-24T13:47:16Z</time>
      </trkpt>
      <trkpt lat="44.18216" lon="5.0686">
        <ele>556.1</ele>
        <time>2015-06-24T13:47:29Z</time>
      </trkpt>
      <trkpt lat="44.18209" lon="5.06852">
        <ele>554.8</ele>
        <time>2015-06-24T13:47:43Z</time>
      </trkpt>
      <trkpt lat="44.18198" lon="5.06849">
        <ele>554.2</ele>
        <time>2015-06-24T13:47:49Z</time>
      </trkpt>
      <trkpt lat="44.18189" lon="5.06842">
        <ele>553.8</ele>
        <time>2015-06-24T13:47:55Z</time>
      </trkpt>
      <trkpt lat="44.1818" lon="5.06837">
        <ele>553.5</ele>
        <time>2015-06-24T13:48:00Z</time>
      </trkpt>
      <trkpt lat="44.18172" lon="5.0683">
        <ele>553.1</ele>
        <time>2015-06-24T13:48:07Z</time>
      </trkpt>
      <trkpt lat="44.18161" lon="5.06827">
        <ele>552.9</ele>
        <time>2015-06-24T13:48:15Z</time>
      </trkpt>
      <trkpt lat="44.18153" lon="5.06824">
        <ele>552.8</ele>
        <time>2015-06-24T13:48:22Z</time>
      </trkpt>
      <trkpt lat="44.18145" lon="5.06816">
        <ele>553.2</ele>
        <time>2015-06-24T13:48:32Z</time>
      </trkpt>
      <trkpt lat="44.18136" lon="5.06813">
        <ele>553.8</ele>
        <time>2015-06-24T13:48:43Z</time>
      </trkpt>
      <trkpt lat="44.18127" lon="5.06809">
        <ele>554.6</ele>
        <time>2015-06-24T13:48:52Z</time>
      </trkpt>
      <trkpt lat="44.18117" lon="5.06806">
        <ele>555.4</ele>
        <time>2015-06-24T13:49:01Z</time>
      </trkpt>
      <trkpt lat="44.18108" lon="5.068">
        <ele>555.5</ele>
        <time>2015-06-24T13:49:09Z</time>
      </trkpt>
      <trkpt lat="44.181" lon="5.06793">
        <ele>554.9</ele>
        <time>2015-06-24T13:49:21Z</time>
      </trkpt>
      <trkpt lat="44.18093" lon="5.06785">
        <ele>554.1</ele>
        <time>2015-06-24T13:49:32Z</time>
      </trkpt>
      <trkpt lat="44.18086" lon="5.06776">
        <ele>553.5</ele>
        <time>2015-06-24T13:49:40Z</time>
      </trkpt>
      <trkpt lat="44.18078" lon="5.0677">
        <ele>552.8</ele>
        <time>2015-06-24T13:49:50Z</time>
      </trkpt>
      <trkpt lat="44.1807" lon="5.06761">
        <ele>551.7</ele>
        <time>2015-06-24T13:50:00Z</time>
      </trkpt>
      <trkpt lat="44.18063" lon="5.06751">
        <ele>550.6</ele>
        <time>2015-06-24T13:50:08Z</time>
      </trkpt>
      <trkpt lat="44.18058" lon="5.0674">
        <ele>550.3</ele>
        <time>2015-06-24T13:50:12Z</time>
      </trkpt>
      <trkpt lat="44.18049" lon="5.06732">
        <ele>549.8</ele>
        <time>2015-06-24T13:50:19Z</time>
      </trkpt>
      <trkpt lat="44.18042" lon="5.06721">
        <ele>549.4</ele>
        <time>2015-06-24T13:50:26Z</time>
      </trkpt>
      <trkpt lat="44.18035" lon="5.06711">
        <ele>549.1</ele>
        <time>2015-06-24T13:50:32Z</time>
      </trkpt>
      <trkpt lat="44.18028" lon="5.06703">
        <ele>549</ele>
        <time>2015-06-24T13:50:39Z</time>
      </trkpt>
      <trkpt lat="44.1802" lon="5.06696">
        <ele>548.9</ele>
        <time>2015-06-24T13:50:53Z</time>
      </trkpt>
      <trkpt lat="44.18011" lon="5.06688">
        <ele>548.6</ele>
        <time>2015-06-24T13:51:03Z</time>
      </trkpt>
      <trkpt lat="44.18004" lon="5.0668">
        <ele>548.2</ele>
        <time>2015-06-24T13:51:11Z</time>
      </trkpt>
      <trkpt lat="44.17997" lon="5.06671">
        <ele>547.5</ele>
        <time>2015-06-24T13:51:19Z</time>
      </trkpt>
      <trkpt lat="44.17989" lon="5.06665">
        <ele>547</ele>
        <time>2015-06-24T13:51:29Z</time>
      </trkpt>
      <trkpt lat="44.17982" lon="5.06655">
        <ele>546.9</ele>
        <time>2015-06-24T13:51:34Z</time>
      </trkpt>
      <trkpt lat="44.17972" lon="5.06647">
        <ele>546.7</ele>
        <time>2015-06-24T13:51:41Z</time>
      </trkpt>
      <trkpt lat="44.17965" lon="5.06638">
        <ele>546.3</ele>
        <time>2015-06-24T13:51:46Z</time>
      </trkpt>
      <trkpt lat="44.17961" lon="5.06625">
        <ele>546</ele>
        <time>2015-06-24T13:51:51Z</time>
      </trkpt>
      <trkpt lat="44.17953" lon="5.06617">
        <ele>545.4</ele>
        <time>2015-06-24T13:51:59Z</time>
      </trkpt>
      <trkpt lat="44.17944" lon="5.06611">
        <ele>545.2</ele>
        <time>2015-06-24T13:52:12Z</time>
      </trkpt>
      <trkpt lat="44.17935" lon="5.06608">
        <ele>545.5</ele>
        <time>2015-06-24T13:52:24Z</time>
      </trkpt>
      <trkpt lat="44.17928" lon="5.06596">
        <ele>545.3</ele>
        <time>2015-06-24T13:52:30Z</time>
      </trkpt>
      <trkpt lat="44.17921" lon="5.06589">
        <ele>545.2</ele>
        <time>2015-06-24T13:52:38Z</time>
      </trkpt>
      <trkpt lat="44.17913" lon="5.0658">
        <ele>545</ele>
        <time>2015-06-24T13:52:43Z</time>
      </trkpt>
      <trkpt lat="44.17908" lon="5.06569">
        <ele>544.8</ele>
        <time>2015-06-24T13:52:49Z</time>
      </trkpt>
      <trkpt lat="44.17902" lon="5.06559">
        <ele>544.7</ele>
        <time>2015-06-24T13:52:55Z</time>
      </trkpt>
      <trkpt lat="44.17893" lon="5.06553">
        <ele>545</ele>
        <time>2015-06-24T13:53:06Z</time>
      </trkpt>
      <trkpt lat="44.17885" lon="5.06547">
        <ele>545.3</ele>
        <time>2015-06-24T13:53:13Z</time>
      </trkpt>
      <trkpt lat="44.17876" lon="5.06543">
        <ele>545.4</ele>
        <time>2015-06-24T13:53:26Z</time>
      </trkpt>
      <trkpt lat="44.17868" lon="5.06536">
        <ele>545.7</ele>
        <time>2015-06-24T13:53:37Z</time>
      </trkpt>
      <trkpt lat="44.17858" lon="5.06532">
        <ele>546.4</ele>
        <time>2015-06-24T13:53:46Z</time>
      </trkpt>
      <trkpt lat="44.1785" lon="5.06524">
        <ele>546.8</ele>
        <time>2015-06-24T13:53:52Z</time>
      </trkpt>
      <trkpt lat="44.17844" lon="5.06514">
        <ele>547.1</ele>
        <time>2015-06-24T13:53:57Z</time>
      </trkpt>
      <trkpt lat="44.17836" lon="5.06508">
        <ele>547.4</ele>
        <time>2015-06-24T13:54:03Z</time>
      </trkpt>
      <trkpt lat="44.17827" lon="5.06505">
        <ele>547.5</ele>
        <time>2015-06-24T13:54:10Z</time>
      </trkpt>
      <trkpt lat="44.17818" lon="5.06498">
        <ele>547.3</ele>
        <time>2015-06-24T13:54:14Z</time>
      </trkpt>
      <trkpt lat="44.17808" lon="5.06497">
        <ele>546.9</ele>
        <time>2015-06-24T13:54:21Z</time>
      </trkpt>
      <trkpt lat="44.17799" lon="5.06495">
        <ele>546.4</ele>
        <time>2015-06-24T13:54:33Z</time>
      </trkpt>
      <trkpt lat="44.17792" lon="5.06505">
        <ele>545.9</ele>
        <time>2015-06-24T13:54:40Z</time>
      </trkpt>
      <trkpt lat="44.17784" lon="5.06513">
        <ele>545.9</ele>
        <time>2015-06-24T13:54:47Z</time>
      </trkpt>
      <trkpt lat="44.17775" lon="5.06512">
        <ele>545</ele>
        <time>2015-06-24T13:55:05Z</time>
      </trkpt>
      <trkpt lat="44.17766" lon="5.06514">
        <ele>543.9</ele>
        <time>2015-06-24T13:55:16Z</time>
      </trkpt>
      <trkpt lat="44.17757" lon="5.06511">
        <ele>543.4</ele>
        <time>2015-06-24T13:55:24Z</time>
      </trkpt>
      <trkpt lat="44.17748" lon="5.06517">
        <ele>543.2</ele>
        <time>2015-06-24T13:55:29Z</time>
      </trkpt>
      <trkpt lat="44.17743" lon="5.06506">
        <ele>542.9</ele>
        <time>2015-06-24T13:55:38Z</time>
      </trkpt>
      <trkpt lat="44.17746" lon="5.06491">
        <ele>542.7</ele>
        <time>2015-06-24T13:55:43Z</time>
      </trkpt>
      <trkpt lat="44.17747" lon="5.06478">
        <ele>542.6</ele>
        <time>2015-06-24T13:55:50Z</time>
      </trkpt>
      <trkpt lat="44.17747" lon="5.06464">
        <ele>542.5</ele>
        <time>2015-06-24T13:55:58Z</time>
      </trkpt>
      <trkpt lat="44.17753" lon="5.06451">
        <ele>542.4</ele>
        <time>2015-06-24T13:56:02Z</time>
      </trkpt>
      <trkpt lat="44.1775" lon="5.06437">
        <ele>541.4</ele>
        <time>2015-06-24T13:56:09Z</time>
      </trkpt>
      <trkpt lat="44.17748" lon="5.06425">
        <ele>540.7</ele>
        <time>2015-06-24T13:56:18Z</time>
      </trkpt>
      <trkpt lat="44.17746" lon="5.06412">
        <ele>540.8</ele>
        <time>2015-06-24T13:56:24Z</time>
      </trkpt>
      <trkpt lat="44.17746" lon="5.06398">
        <ele>541</ele>
        <time>2015-06-24T13:56:33Z</time>
      </trkpt>
      <trkpt lat="44.17749" lon="5.06387">
        <ele>541.3</ele>
        <time>2015-06-24T13:56:42Z</time>
      </trkpt>
      <trkpt lat="44.17749" lon="5.06374">
        <ele>542</ele>
        <time>2015-06-24T13:56:51Z</time>
      </trkpt>
      <trkpt lat="44.17748" lon="5.0636">
        <ele>541.9</ele>
        <time>2015-06-24T13:56:59Z</time>
      </trkpt>
      <trkpt lat="44.17744" lon="5.06347">
        <ele>541.9</ele>
        <time>2015-06-24T13:57:05Z</time>
      </trkpt>
      <trkpt lat="44.17738" lon="5.06336">
        <ele>542.3</ele>
        <time>2015-06-24T13:57:12Z</time>
      </trkpt>
      <trkpt lat="44.17734" lon="5.06325">
        <ele>542.4</ele>
        <time>2015-06-24T13:57:19Z</time>
      </trkpt>
      <trkpt lat="44.17731" lon="5.06313">
        <ele>542.1</ele>
        <time>2015-06-24T13:57:31Z</time>
      </trkpt>
      <trkpt lat="44.17735" lon="5.063">
        <ele>542</ele>
        <time>2015-06-24T13:57:35Z</time>
      </trkpt>
      <trkpt lat="44.17741" lon="5.06289">
        <ele>541.8</ele>
        <time>2015-06-24T13:57:38Z</time>
      </trkpt>
      <trkpt lat="44.17742" lon="5.06276">
        <ele>541.7</ele>
        <time>2015-06-24T13:57:44Z</time>
      </trkpt>
      <trkpt lat="44.17742" lon="5.06264">
        <ele>541.6</ele>
        <time>2015-06-24T13:57:51Z</time>
      </trkpt>
      <trkpt lat="44.17745" lon="5.06251">
        <ele>541.6</ele>
        <time>2015-06-24T13:57:56Z</time>
      </trkpt>
      <trkpt lat="44.1775" lon="5.0624">
        <ele>541.6</ele>
        <time>2015-06-24T13:58:01Z</time>
      </trkpt>
      <trkpt lat="44.17756" lon="5.06229">
        <ele>542.2</ele>
        <time>2015-06-24T13:58:08Z</time>
      </trkpt>
      <trkpt lat="44.17768" lon="5.0623">
        <ele>544.3</ele>
        <time>2015-06-24T13:58:16Z</time>
      </trkpt>
      <trkpt lat="44.17776" lon="5.06237">
        <ele>545.4</ele>
        <time>2015-06-24T13:58:22Z</time>
      </trkpt>
      <trkpt lat="44.17784" lon="5.06243">
        <ele>545.8</ele>
        <time>2015-06-24T13:58:25Z</time>
      </trkpt>
      <trkpt lat="44.17795" lon="5.06254">
        <ele>546.3</ele>
        <time>2015-06-24T13:58:29Z</time>
      </trkpt>
      <trkpt lat="44.17806" lon="5.06264">
        <ele>546.6</ele>
        <time>2015-06-24T13:58:33Z</time>
      </trkpt>
      <trkpt lat="44.17812" lon="5.06274">
        <ele>546.7</ele>
        <time>2015-06-24T13:58:37Z</time>
      </trkpt>
      <trkpt lat="44.17818" lon="5.06284">
        <ele>546.5</ele>
        <time>2015-06-24T13:58:40Z</time>
      </trkpt>
      <trkpt lat="44.17826" lon="5.06297">
        <ele>546.3</ele>
        <time>2015-06-24T13:58:43Z</time>
      </trkpt>
      <trkpt lat="44.17834" lon="5.06308">
        <ele>546.1</ele>
        <time>2015-06-24T13:58:47Z</time>
      </trkpt>
      <trkpt lat="44.17841" lon="5.06318">
        <ele>545.8</ele>
        <time>2015-06-24T13:58:50Z</time>
      </trkpt>
      <trkpt lat="44.17851" lon="5.06332">
        <ele>545.5</ele>
        <time>2015-06-24T13:58:53Z</time>
      </trkpt>
      <trkpt lat="44.17859" lon="5.06346">
        <ele>545.3</ele>
        <time>2015-06-24T13:58:56Z</time>
      </trkpt>
      <trkpt lat="44.17865" lon="5.06358">
        <ele>545.1</ele>
        <time>2015-06-24T13:58:58Z</time>
      </trkpt>
      <trkpt lat="44.17871" lon="5.06368">
        <ele>544.9</ele>
        <time>2015-06-24T13:59:00Z</time>
      </trkpt>
      <trkpt lat="44.17878" lon="5.0638">
        <ele>544.7</ele>
        <time>2015-06-24T13:59:02Z</time>
      </trkpt>
      <trkpt lat="44.17885" lon="5.06391">
        <ele>544.5</ele>
        <time>2015-06-24T13:59:04Z</time>
      </trkpt>
      <trkpt lat="44.17893" lon="5.06407">
        <ele>544.4</ele>
        <time>2015-06-24T13:59:06Z</time>
      </trkpt>
      <trkpt lat="44.17899" lon="5.06419">
        <ele>544.1</ele>
        <time>2015-06-24T13:59:08Z</time>
      </trkpt>
      <trkpt lat="44.17906" lon="5.0643">
        <ele>543.8</ele>
        <time>2015-06-24T13:59:10Z</time>
      </trkpt>
      <trkpt lat="44.17913" lon="5.06443">
        <ele>543.4</ele>
        <time>2015-06-24T13:59:12Z</time>
      </trkpt>
      <trkpt lat="44.17921" lon="5.06455">
        <ele>543</ele>
        <time>2015-06-24T13:59:14Z</time>
      </trkpt>
      <trkpt lat="44.17928" lon="5.06467">
        <ele>542.6</ele>
        <time>2015-06-24T13:59:16Z</time>
      </trkpt>
      <trkpt lat="44.17935" lon="5.06476">
        <ele>541.4</ele>
        <time>2015-06-24T13:59:22Z</time>
      </trkpt>
      <trkpt lat="44.17942" lon="5.06489">
        <ele>540.9</ele>
        <time>2015-06-24T13:59:24Z</time>
      </trkpt>
      <trkpt lat="44.17951" lon="5.06503">
        <ele>540.5</ele>
        <time>2015-06-24T13:59:26Z</time>
      </trkpt>
      <trkpt lat="44.1796" lon="5.06516">
        <ele>540.1</ele>
        <time>2015-06-24T13:59:28Z</time>
      </trkpt>
      <trkpt lat="44.17971" lon="5.06534">
        <ele>539.9</ele>
        <time>2015-06-24T13:59:29Z</time>
      </trkpt>
      <trkpt lat="44.1798" lon="5.06549">
        <ele>539.7</ele>
        <time>2015-06-24T13:59:31Z</time>
      </trkpt>
      <trkpt lat="44.1799" lon="5.06565">
        <ele>539.7</ele>
        <time>2015-06-24T13:59:33Z</time>
      </trkpt>
      <trkpt lat="44.17999" lon="5.06579">
        <ele>539.7</ele>
        <time>2015-06-24T13:59:35Z</time>
      </trkpt>
      <trkpt lat="44.1801" lon="5.06598">
        <ele>539.6</ele>
        <time>2015-06-24T13:59:37Z</time>
      </trkpt>
      <trkpt lat="44.18019" lon="5.06614">
        <ele>539.6</ele>
        <time>2015-06-24T13:59:39Z</time>
      </trkpt>
      <trkpt lat="44.18031" lon="5.06634">
        <ele>539.6</ele>
        <time>2015-06-24T13:59:40Z</time>
      </trkpt>
      <trkpt lat="44.18041" lon="5.06653">
        <ele>539.6</ele>
        <time>2015-06-24T13:59:42Z</time>
      </trkpt>
      <trkpt lat="44.18048" lon="5.06664">
        <ele>539.6</ele>
        <time>2015-06-24T13:59:43Z</time>
      </trkpt>
      <trkpt lat="44.1806" lon="5.06685">
        <ele>539.6</ele>
        <time>2015-06-24T13:59:45Z</time>
      </trkpt>
      <trkpt lat="44.18066" lon="5.06696">
        <ele>539.6</ele>
        <time>2015-06-24T13:59:46Z</time>
      </trkpt>
      <trkpt lat="44.18078" lon="5.06718">
        <ele>539.6</ele>
        <time>2015-06-24T13:59:47Z</time>
      </trkpt>
      <trkpt lat="44.18089" lon="5.06738">
        <ele>539.5</ele>
        <time>2015-06-24T13:59:49Z</time>
      </trkpt>
      <trkpt lat="44.18095" lon="5.06749">
        <ele>539.4</ele>
        <time>2015-06-24T13:59:50Z</time>
      </trkpt>
      <trkpt lat="44.181" lon="5.06759">
        <ele>539.3</ele>
        <time>2015-06-24T13:59:51Z</time>
      </trkpt>
      <trkpt lat="44.18111" lon="5.06781">
        <ele>539.3</ele>
        <time>2015-06-24T13:59:52Z</time>
      </trkpt>
      <trkpt lat="44.18117" lon="5.06792">
        <ele>539.2</ele>
        <time>2015-06-24T13:59:53Z</time>
      </trkpt>
      <trkpt lat="44.18127" lon="5.0681">
        <ele>539.1</ele>
        <time>2015-06-24T13:59:54Z</time>
      </trkpt>
      <trkpt lat="44.18135" lon="5.06827">
        <ele>539</ele>
        <time>2015-06-24T13:59:56Z</time>
      </trkpt>
      <trkpt lat="44.18141" lon="5.06837">
        <ele>538.9</ele>
        <time>2015-06-24T13:59:57Z</time>
      </trkpt>
      <trkpt lat="44.1815" lon="5.06859">
        <ele>538.7</ele>
        <time>2015-06-24T13:59:59Z</time>
      </trkpt>
      <trkpt lat="44.18159" lon="5.06878">
        <ele>538.5</ele>
        <time>2015-06-24T14:00:01Z</time>
      </trkpt>
      <trkpt lat="44.18165" lon="5.06889">
        <ele>538.4</ele>
        <time>2015-06-24T14:00:02Z</time>
      </trkpt>
      <trkpt lat="44.18174" lon="5.06905">
        <ele>537</ele>
        <time>2015-06-24T14:00:08Z</time>
      </trkpt>
      <trkpt lat="44.18163" lon="5.06881">
        <ele>536.7</ele>
        <time>2015-06-24T14:00:15Z</time>
      </trkpt>
      <trkpt lat="44.18148" lon="5.06846">
        <ele>535</ele>
        <time>2015-06-24T14:00:30Z</time>
      </trkpt>
      <trkpt lat="44.18142" lon="5.0683">
        <ele>535.4</ele>
        <time>2015-06-24T14:00:35Z</time>
      </trkpt>
      <trkpt lat="44.1814" lon="5.06816">
        <ele>535.3</ele>
        <time>2015-06-24T14:00:39Z</time>
      </trkpt>
      <trkpt lat="44.18142" lon="5.06803">
        <ele>535.3</ele>
        <time>2015-06-24T14:00:42Z</time>
      </trkpt>
      <trkpt lat="44.1814" lon="5.06789">
        <ele>535.3</ele>
        <time>2015-06-24T14:00:44Z</time>
      </trkpt>
      <trkpt lat="44.18141" lon="5.06771">
        <ele>535.3</ele>
        <time>2015-06-24T14:00:47Z</time>
      </trkpt>
      <trkpt lat="44.18138" lon="5.06753">
        <ele>535.3</ele>
        <time>2015-06-24T14:00:49Z</time>
      </trkpt>
      <trkpt lat="44.18135" lon="5.06738">
        <ele>535.5</ele>
        <time>2015-06-24T14:00:51Z</time>
      </trkpt>
      <trkpt lat="44.18131" lon="5.06724">
        <ele>535.8</ele>
        <time>2015-06-24T14:00:53Z</time>
      </trkpt>
      <trkpt lat="44.18129" lon="5.0671">
        <ele>537.3</ele>
        <time>2015-06-24T14:01:01Z</time>
      </trkpt>
      <trkpt lat="44.18149" lon="5.0674">
        <ele>538</ele>
        <time>2015-06-24T14:01:08Z</time>
      </trkpt>
      <trkpt lat="44.18168" lon="5.06777">
        <ele>538.9</ele>
        <time>2015-06-24T14:01:13Z</time>
      </trkpt>
      <trkpt lat="44.18176" lon="5.06796">
        <ele>539.3</ele>
        <time>2015-06-24T14:01:15Z</time>
      </trkpt>
      <trkpt lat="44.18183" lon="5.0681">
        <ele>539.7</ele>
        <time>2015-06-24T14:01:17Z</time>
      </trkpt>
      <trkpt lat="44.18192" lon="5.06828">
        <ele>540.1</ele>
        <time>2015-06-24T14:01:19Z</time>
      </trkpt>
      <trkpt lat="44.18198" lon="5.06843">
        <ele>540.4</ele>
        <time>2015-06-24T14:01:21Z</time>
      </trkpt>
      <trkpt lat="44.18207" lon="5.06858">
        <ele>540.9</ele>
        <time>2015-06-24T14:01:23Z</time>
      </trkpt>
      <trkpt lat="44.18214" lon="5.06873">
        <ele>541.3</ele>
        <time>2015-06-24T14:01:25Z</time>
      </trkpt>
      <trkpt lat="44.18222" lon="5.06887">
        <ele>541.7</ele>
        <time>2015-06-24T14:01:27Z</time>
      </trkpt>
      <trkpt lat="44.17744" lon="5.0579">
        <ele>543</ele>
        <time>2015-06-24T14:01:37Z</time>
      </trkpt>
      <trkpt lat="44.1774" lon="5.05777">
        <ele>545.2</ele>
        <time>2015-06-24T14:01:44Z</time>
      </trkpt>
      <trkpt lat="44.17735" lon="5.05766">
        <ele>546.3</ele>
        <time>2015-06-24T14:01:49Z</time>
      </trkpt>
      <trkpt lat="44.17735" lon="5.05753">
        <ele>547.7</ele>
        <time>2015-06-24T14:01:58Z</time>
      </trkpt>
      <trkpt lat="44.17742" lon="5.05745">
        <ele>550.6</ele>
        <time>2015-06-24T14:02:13Z</time>
      </trkpt>
      <trkpt lat="44.17743" lon="5.05732">
        <ele>551.3</ele>
        <time>2015-06-24T14:02:30Z</time>
      </trkpt>
      <trkpt lat="44.1775" lon="5.05722">
        <ele>550.9</ele>
        <time>2015-06-24T14:02:36Z</time>
      </trkpt>
      <trkpt lat="44.17747" lon="5.05708">
        <ele>550.5</ele>
        <time>2015-06-24T14:02:41Z</time>
      </trkpt>
      <trkpt lat="44.17747" lon="5.05695">
        <ele>549.9</ele>
        <time>2015-06-24T14:02:47Z</time>
      </trkpt>
      <trkpt lat="44.17744" lon="5.05682">
        <ele>549.6</ele>
        <time>2015-06-24T14:02:51Z</time>
      </trkpt>
      <trkpt lat="44.17742" lon="5.05667">
        <ele>549.1</ele>
        <time>2015-06-24T14:02:55Z</time>
      </trkpt>
      <trkpt lat="44.17742" lon="5.05654">
        <ele>548.5</ele>
        <time>2015-06-24T14:03:03Z</time>
      </trkpt>
      <trkpt lat="44.17746" lon="5.05642">
        <ele>548.1</ele>
        <time>2015-06-24T14:03:11Z</time>
      </trkpt>
      <trkpt lat="44.17751" lon="5.05631">
        <ele>547.4</ele>
        <time>2015-06-24T14:03:20Z</time>
      </trkpt>
      <trkpt lat="44.17755" lon="5.0561">
        <ele>546</ele>
        <time>2015-06-24T14:03:35Z</time>
      </trkpt>
      <trkpt lat="44.17764" lon="5.05603">
        <ele>545.2</ele>
        <time>2015-06-24T14:03:54Z</time>
      </trkpt>
      <trkpt lat="44.17773" lon="5.05608">
        <ele>545</ele>
        <time>2015-06-24T14:04:02Z</time>
      </trkpt>
      <trkpt lat="44.17774" lon="5.05594">
        <ele>543.9</ele>
        <time>2015-06-24T14:04:11Z</time>
      </trkpt>
      <trkpt lat="44.17783" lon="5.05589">
        <ele>542.7</ele>
        <time>2015-06-24T14:04:16Z</time>
      </trkpt>
      <trkpt lat="44.17791" lon="5.05582">
        <ele>541.7</ele>
        <time>2015-06-24T14:04:22Z</time>
      </trkpt>
      <trkpt lat="44.17801" lon="5.05575">
        <ele>540.7</ele>
        <time>2015-06-24T14:04:28Z</time>
      </trkpt>
      <trkpt lat="44.17809" lon="5.05567">
        <ele>539.6</ele>
        <time>2015-06-24T14:04:37Z</time>
      </trkpt>
      <trkpt lat="44.17819" lon="5.05559">
        <ele>536.1</ele>
        <time>2015-06-24T14:05:06Z</time>
      </trkpt>
      <trkpt lat="44.17828" lon="5.05556">
        <ele>535.3</ele>
        <time>2015-06-24T14:05:12Z</time>
      </trkpt>
      <trkpt lat="44.17837" lon="5.05555">
        <ele>534.6</ele>
        <time>2015-06-24T14:05:16Z</time>
      </trkpt>
      <trkpt lat="44.17848" lon="5.05555">
        <ele>534</ele>
        <time>2015-06-24T14:05:20Z</time>
      </trkpt>
      <trkpt lat="44.17858" lon="5.05555">
        <ele>533.6</ele>
        <time>2015-06-24T14:05:23Z</time>
      </trkpt>
      <trkpt lat="44.17867" lon="5.05552">
        <ele>532.8</ele>
        <time>2015-06-24T14:05:30Z</time>
      </trkpt>
      <trkpt lat="44.17876" lon="5.05548">
        <ele>531.9</ele>
        <time>2015-06-24T14:05:36Z</time>
      </trkpt>
      <trkpt lat="44.17886" lon="5.05545">
        <ele>530.7</ele>
        <time>2015-06-24T14:05:44Z</time>
      </trkpt>
      <trkpt lat="44.17895" lon="5.05543">
        <ele>529.9</ele>
        <time>2015-06-24T14:05:50Z</time>
      </trkpt>
      <trkpt lat="44.17904" lon="5.05539">
        <ele>529</ele>
        <time>2015-06-24T14:05:56Z</time>
      </trkpt>
      <trkpt lat="44.17913" lon="5.05533">
        <ele>528.3</ele>
        <time>2015-06-24T14:06:01Z</time>
      </trkpt>
      <trkpt lat="44.1792" lon="5.05527">
        <ele>527.3</ele>
        <time>2015-06-24T14:06:07Z</time>
      </trkpt>
      <trkpt lat="44.17925" lon="5.05515">
        <ele>526</ele>
        <time>2015-06-24T14:06:15Z</time>
      </trkpt>
      <trkpt lat="44.17933" lon="5.05506">
        <ele>525</ele>
        <time>2015-06-24T14:06:22Z</time>
      </trkpt>
      <trkpt lat="44.17943" lon="5.05499">
        <ele>524.2</ele>
        <time>2015-06-24T14:06:29Z</time>
      </trkpt>
      <trkpt lat="44.17951" lon="5.05493">
        <ele>523.3</ele>
        <time>2015-06-24T14:06:35Z</time>
      </trkpt>
      <trkpt lat="44.1796" lon="5.0549">
        <ele>522.6</ele>
        <time>2015-06-24T14:06:42Z</time>
      </trkpt>
      <trkpt lat="44.17969" lon="5.05483">
        <ele>522</ele>
        <time>2015-06-24T14:06:47Z</time>
      </trkpt>
      <trkpt lat="44.17971" lon="5.05468">
        <ele>521.4</ele>
        <time>2015-06-24T14:06:51Z</time>
      </trkpt>
      <trkpt lat="44.17963" lon="5.05461">
        <ele>520.3</ele>
        <time>2015-06-24T14:06:58Z</time>
      </trkpt>
      <trkpt lat="44.17954" lon="5.05462">
        <ele>519.4</ele>
        <time>2015-06-24T14:07:06Z</time>
      </trkpt>
      <trkpt lat="44.17946" lon="5.05467">
        <ele>518.8</ele>
        <time>2015-06-24T14:07:14Z</time>
      </trkpt>
      <trkpt lat="44.17936" lon="5.05468">
        <ele>518.6</ele>
        <time>2015-06-24T14:07:19Z</time>
      </trkpt>
      <trkpt lat="44.17927" lon="5.05463">
        <ele>518.5</ele>
        <time>2015-06-24T14:07:23Z</time>
      </trkpt>
      <trkpt lat="44.17918" lon="5.05464">
        <ele>518.3</ele>
        <time>2015-06-24T14:07:27Z</time>
      </trkpt>
      <trkpt lat="44.17907" lon="5.05462">
        <ele>517.9</ele>
        <time>2015-06-24T14:07:35Z</time>
      </trkpt>
      <trkpt lat="44.17898" lon="5.05459">
        <ele>517.8</ele>
        <time>2015-06-24T14:07:41Z</time>
      </trkpt>
      <trkpt lat="44.17888" lon="5.05459">
        <ele>517.4</ele>
        <time>2015-06-24T14:07:48Z</time>
      </trkpt>
      <trkpt lat="44.17878" lon="5.05461">
        <ele>516.2</ele>
        <time>2015-06-24T14:08:01Z</time>
      </trkpt>
      <trkpt lat="44.17869" lon="5.05453">
        <ele>515.7</ele>
        <time>2015-06-24T14:08:06Z</time>
      </trkpt>
      <trkpt lat="44.1786" lon="5.05448">
        <ele>514.9</ele>
        <time>2015-06-24T14:08:12Z</time>
      </trkpt>
      <trkpt lat="44.17851" lon="5.05443">
        <ele>514.2</ele>
        <time>2015-06-24T14:08:22Z</time>
      </trkpt>
      <trkpt lat="44.1784" lon="5.0544">
        <ele>514.5</ele>
        <time>2015-06-24T14:08:28Z</time>
      </trkpt>
      <trkpt lat="44.17831" lon="5.05437">
        <ele>514.1</ele>
        <time>2015-06-24T14:08:42Z</time>
      </trkpt>
      <trkpt lat="44.17822" lon="5.05438">
        <ele>513.1</ele>
        <time>2015-06-24T14:08:50Z</time>
      </trkpt>
      <trkpt lat="44.17812" lon="5.0544">
        <ele>511.9</ele>
        <time>2015-06-24T14:08:59Z</time>
      </trkpt>
      <trkpt lat="44.17803" lon="5.0544">
        <ele>511.1</ele>
        <time>2015-06-24T14:09:06Z</time>
      </trkpt>
      <trkpt lat="44.17793" lon="5.05447">
        <ele>510.7</ele>
        <time>2015-06-24T14:09:11Z</time>
      </trkpt>
      <trkpt lat="44.17784" lon="5.05444">
        <ele>510.3</ele>
        <time>2015-06-24T14:09:19Z</time>
      </trkpt>
      <trkpt lat="44.17775" lon="5.05444">
        <ele>509.7</ele>
        <time>2015-06-24T14:09:28Z</time>
      </trkpt>
      <trkpt lat="44.17765" lon="5.05443">
        <ele>509.2</ele>
        <time>2015-06-24T14:09:32Z</time>
      </trkpt>
      <trkpt lat="44.17756" lon="5.05439">
        <ele>508.5</ele>
        <time>2015-06-24T14:09:37Z</time>
      </trkpt>
      <trkpt lat="44.17747" lon="5.05432">
        <ele>507.6</ele>
        <time>2015-06-24T14:09:44Z</time>
      </trkpt>
      <trkpt lat="44.17741" lon="5.05421">
        <ele>506</ele>
        <time>2015-06-24T14:09:52Z</time>
      </trkpt>
      <trkpt lat="44.17734" lon="5.05411">
        <ele>504.7</ele>
        <time>2015-06-24T14:09:59Z</time>
      </trkpt>
      <trkpt lat="44.17729" lon="5.05401">
        <ele>503.3</ele>
        <time>2015-06-24T14:10:07Z</time>
      </trkpt>
      <trkpt lat="44.17722" lon="5.05391">
        <ele>501.7</ele>
        <time>2015-06-24T14:10:17Z</time>
      </trkpt>
      <trkpt lat="44.17712" lon="5.05389">
        <ele>500.2</ele>
        <time>2015-06-24T14:10:25Z</time>
      </trkpt>
      <trkpt lat="44.17703" lon="5.05388">
        <ele>499.5</ele>
        <time>2015-06-24T14:10:31Z</time>
      </trkpt>
      <trkpt lat="44.17694" lon="5.05391">
        <ele>498.9</ele>
        <time>2015-06-24T14:10:38Z</time>
      </trkpt>
      <trkpt lat="44.17684" lon="5.05393">
        <ele>498.2</ele>
        <time>2015-06-24T14:10:46Z</time>
      </trkpt>
      <trkpt lat="44.17675" lon="5.05389">
        <ele>497.7</ele>
        <time>2015-06-24T14:10:53Z</time>
      </trkpt>
      <trkpt lat="44.17664" lon="5.05387">
        <ele>497</ele>
        <time>2015-06-24T14:11:00Z</time>
      </trkpt>
      <trkpt lat="44.17658" lon="5.05399">
        <ele>496.3</ele>
        <time>2015-06-24T14:11:05Z</time>
      </trkpt>
      <trkpt lat="44.1765" lon="5.05405">
        <ele>495.6</ele>
        <time>2015-06-24T14:11:11Z</time>
      </trkpt>
      <trkpt lat="44.1764" lon="5.05406">
        <ele>494.1</ele>
        <time>2015-06-24T14:11:22Z</time>
      </trkpt>
      <trkpt lat="44.17632" lon="5.05413">
        <ele>493.4</ele>
        <time>2015-06-24T14:11:29Z</time>
      </trkpt>
      <trkpt lat="44.17622" lon="5.05416">
        <ele>492.4</ele>
        <time>2015-06-24T14:11:35Z</time>
      </trkpt>
      <trkpt lat="44.17613" lon="5.05422">
        <ele>491.7</ele>
        <time>2015-06-24T14:11:41Z</time>
      </trkpt>
      <trkpt lat="44.17604" lon="5.0542">
        <ele>490.7</ele>
        <time>2015-06-24T14:11:50Z</time>
      </trkpt>
      <trkpt lat="44.17594" lon="5.05421">
        <ele>489.7</ele>
        <time>2015-06-24T14:11:58Z</time>
      </trkpt>
      <trkpt lat="44.17585" lon="5.05419">
        <ele>488.8</ele>
        <time>2015-06-24T14:12:05Z</time>
      </trkpt>
      <trkpt lat="44.17575" lon="5.05426">
        <ele>487.8</ele>
        <time>2015-06-24T14:12:11Z</time>
      </trkpt>
      <trkpt lat="44.17567" lon="5.05431">
        <ele>486.9</ele>
        <time>2015-06-24T14:12:19Z</time>
      </trkpt>
      <trkpt lat="44.17557" lon="5.05432">
        <ele>486.4</ele>
        <time>2015-06-24T14:12:27Z</time>
      </trkpt>
      <trkpt lat="44.17547" lon="5.05435">
        <ele>486</ele>
        <time>2015-06-24T14:12:34Z</time>
      </trkpt>
      <trkpt lat="44.17539" lon="5.0544">
        <ele>485.1</ele>
        <time>2015-06-24T14:12:42Z</time>
      </trkpt>
      <trkpt lat="44.17528" lon="5.05441">
        <ele>484</ele>
        <time>2015-06-24T14:12:49Z</time>
      </trkpt>
      <trkpt lat="44.1752" lon="5.05432">
        <ele>482.2</ele>
        <time>2015-06-24T14:12:59Z</time>
      </trkpt>
      <trkpt lat="44.17515" lon="5.05421">
        <ele>481.2</ele>
        <time>2015-06-24T14:13:06Z</time>
      </trkpt>
      <trkpt lat="44.17512" lon="5.05408">
        <ele>480.5</ele>
        <time>2015-06-24T14:13:14Z</time>
      </trkpt>
      <trkpt lat="44.17515" lon="5.05395">
        <ele>477.3</ele>
        <time>2015-06-24T14:13:33Z</time>
      </trkpt>
      <trkpt lat="44.17524" lon="5.05389">
        <ele>476.7</ele>
        <time>2015-06-24T14:13:37Z</time>
      </trkpt>
      <trkpt lat="44.17529" lon="5.05378">
        <ele>475.3</ele>
        <time>2015-06-24T14:13:44Z</time>
      </trkpt>
      <trkpt lat="44.17536" lon="5.0537">
        <ele>474.2</ele>
        <time>2015-06-24T14:13:49Z</time>
      </trkpt>
      <trkpt lat="44.17539" lon="5.05354">
        <ele>473.6</ele>
        <time>2015-06-24T14:13:53Z</time>
      </trkpt>
      <trkpt lat="44.17536" lon="5.05339">
        <ele>473.1</ele>
        <time>2015-06-24T14:13:57Z</time>
      </trkpt>
      <trkpt lat="44.17531" lon="5.05328">
        <ele>472</ele>
        <time>2015-06-24T14:14:02Z</time>
      </trkpt>
      <trkpt lat="44.17521" lon="5.05329">
        <ele>470.2</ele>
        <time>2015-06-24T14:14:13Z</time>
      </trkpt>
      <trkpt lat="44.17511" lon="5.05329">
        <ele>469.4</ele>
        <time>2015-06-24T14:14:23Z</time>
      </trkpt>
      <trkpt lat="44.17501" lon="5.05332">
        <ele>469.1</ele>
        <time>2015-06-24T14:14:28Z</time>
      </trkpt>
      <trkpt lat="44.17491" lon="5.05329">
        <ele>468.5</ele>
        <time>2015-06-24T14:14:33Z</time>
      </trkpt>
      <trkpt lat="44.17481" lon="5.05332">
        <ele>467.7</ele>
        <time>2015-06-24T14:14:38Z</time>
      </trkpt>
      <trkpt lat="44.1747" lon="5.05333">
        <ele>466.9</ele>
        <time>2015-06-24T14:14:44Z</time>
      </trkpt>
      <trkpt lat="44.17462" lon="5.0534">
        <ele>466.4</ele>
        <time>2015-06-24T14:14:49Z</time>
      </trkpt>
      <trkpt lat="44.17488" lon="5.05286">
        <ele>458</ele>
        <time>2015-06-24T14:16:04Z</time>
      </trkpt>
      <trkpt lat="44.17495" lon="5.05274">
        <ele>457.5</ele>
        <time>2015-06-24T14:16:09Z</time>
      </trkpt>
      <trkpt lat="44.17496" lon="5.0526">
        <ele>456.7</ele>
        <time>2015-06-24T14:16:14Z</time>
      </trkpt>
      <trkpt lat="44.17505" lon="5.05256">
        <ele>456.2</ele>
        <time>2015-06-24T14:16:20Z</time>
      </trkpt>
      <trkpt lat="44.17515" lon="5.05255">
        <ele>455.2</ele>
        <time>2015-06-24T14:16:35Z</time>
      </trkpt>
      <trkpt lat="44.17525" lon="5.05255">
        <ele>454.9</ele>
        <time>2015-06-24T14:16:39Z</time>
      </trkpt>
      <trkpt lat="44.17533" lon="5.0525">
        <ele>454.3</ele>
        <time>2015-06-24T14:16:47Z</time>
      </trkpt>
      <trkpt lat="44.17542" lon="5.05247">
        <ele>453.8</ele>
        <time>2015-06-24T14:16:54Z</time>
      </trkpt>
      <trkpt lat="44.17551" lon="5.05243">
        <ele>453.4</ele>
        <time>2015-06-24T14:17:01Z</time>
      </trkpt>
      <trkpt lat="44.17555" lon="5.05231">
        <ele>452.7</ele>
        <time>2015-06-24T14:17:10Z</time>
      </trkpt>
      <trkpt lat="44.17564" lon="5.05227">
        <ele>451.7</ele>
        <time>2015-06-24T14:17:18Z</time>
      </trkpt>
      <trkpt lat="44.17573" lon="5.05223">
        <ele>451.2</ele>
        <time>2015-06-24T14:17:24Z</time>
      </trkpt>
      <trkpt lat="44.17584" lon="5.05221">
        <ele>450.7</ele>
        <time>2015-06-24T14:17:29Z</time>
      </trkpt>
      <trkpt lat="44.17594" lon="5.05215">
        <ele>450.3</ele>
        <time>2015-06-24T14:17:34Z</time>
      </trkpt>
      <trkpt lat="44.17605" lon="5.05214">
        <ele>449.5</ele>
        <time>2015-06-24T14:17:40Z</time>
      </trkpt>
      <trkpt lat="44.17615" lon="5.05209">
        <ele>449.1</ele>
        <time>2015-06-24T14:17:46Z</time>
      </trkpt>
      <trkpt lat="44.17624" lon="5.05203">
        <ele>448.9</ele>
        <time>2015-06-24T14:17:52Z</time>
      </trkpt>
      <trkpt lat="44.17627" lon="5.05191">
        <ele>449</ele>
        <time>2015-06-24T14:17:59Z</time>
      </trkpt>
      <trkpt lat="44.17633" lon="5.05181">
        <ele>449</ele>
        <time>2015-06-24T14:18:07Z</time>
      </trkpt>
      <trkpt lat="44.17638" lon="5.0517">
        <ele>448.4</ele>
        <time>2015-06-24T14:18:16Z</time>
      </trkpt>
      <trkpt lat="44.17647" lon="5.05163">
        <ele>448</ele>
        <time>2015-06-24T14:18:23Z</time>
      </trkpt>
      <trkpt lat="44.17652" lon="5.05153">
        <ele>447.9</ele>
        <time>2015-06-24T14:18:29Z</time>
      </trkpt>
      <trkpt lat="44.17657" lon="5.05141">
        <ele>447.5</ele>
        <time>2015-06-24T14:18:35Z</time>
      </trkpt>
      <trkpt lat="44.17659" lon="5.05128">
        <ele>446.6</ele>
        <time>2015-06-24T14:18:41Z</time>
      </trkpt>
      <trkpt lat="44.17658" lon="5.05114">
        <ele>446.1</ele>
        <time>2015-06-24T14:18:47Z</time>
      </trkpt>
      <trkpt lat="44.1766" lon="5.05102">
        <ele>446</ele>
        <time>2015-06-24T14:18:55Z</time>
      </trkpt>
      <trkpt lat="44.17667" lon="5.05093">
        <ele>445.4</ele>
        <time>2015-06-24T14:19:09Z</time>
      </trkpt>
      <trkpt lat="44.1767" lon="5.0508">
        <ele>444</ele>
        <time>2015-06-24T14:19:19Z</time>
      </trkpt>
      <trkpt lat="44.17662" lon="5.05074">
        <ele>440.6</ele>
        <time>2015-06-24T14:19:40Z</time>
      </trkpt>
      <trkpt lat="44.17653" lon="5.05072">
        <ele>438.9</ele>
        <time>2015-06-24T14:19:59Z</time>
      </trkpt>
      <trkpt lat="44.17646" lon="5.05064">
        <ele>438.4</ele>
        <time>2015-06-24T14:20:09Z</time>
      </trkpt>
      <trkpt lat="44.17637" lon="5.05061">
        <ele>437.8</ele>
        <time>2015-06-24T14:20:16Z</time>
      </trkpt>
      <trkpt lat="44.17629" lon="5.05054">
        <ele>437.2</ele>
        <time>2015-06-24T14:20:21Z</time>
      </trkpt>
      <trkpt lat="44.17617" lon="5.0505">
        <ele>436.5</ele>
        <time>2015-06-24T14:20:29Z</time>
      </trkpt>
      <trkpt lat="44.17607" lon="5.05047">
        <ele>436</ele>
        <time>2015-06-24T14:20:36Z</time>
      </trkpt>
      <trkpt lat="44.17598" lon="5.05046">
        <ele>434.8</ele>
        <time>2015-06-24T14:20:46Z</time>
      </trkpt>
      <trkpt lat="44.17588" lon="5.05044">
        <ele>433.7</ele>
        <time>2015-06-24T14:20:56Z</time>
      </trkpt>
      <trkpt lat="44.17578" lon="5.05042">
        <ele>432.9</ele>
        <time>2015-06-24T14:21:02Z</time>
      </trkpt>
      <trkpt lat="44.17569" lon="5.05042">
        <ele>431.8</ele>
        <time>2015-06-24T14:21:08Z</time>
      </trkpt>
      <trkpt lat="44.17554" lon="5.05041">
        <ele>430.4</ele>
        <time>2015-06-24T14:21:16Z</time>
      </trkpt>
      <trkpt lat="44.17544" lon="5.0504">
        <ele>429.7</ele>
        <time>2015-06-24T14:21:22Z</time>
      </trkpt>
      <trkpt lat="44.17525" lon="5.05033">
        <ele>426</ele>
        <time>2015-06-24T14:21:35Z</time>
      </trkpt>
      <trkpt lat="44.17519" lon="5.05044">
        <ele>425.5</ele>
        <time>2015-06-24T14:21:44Z</time>
      </trkpt>
      <trkpt lat="44.17523" lon="5.05058">
        <ele>425.1</ele>
        <time>2015-06-24T14:21:51Z</time>
      </trkpt>
      <trkpt lat="44.17516" lon="5.05067">
        <ele>425.3</ele>
        <time>2015-06-24T14:22:04Z</time>
      </trkpt>
      <trkpt lat="44.17506" lon="5.05067">
        <ele>425.5</ele>
        <time>2015-06-24T14:22:10Z</time>
      </trkpt>
      <trkpt lat="44.17496" lon="5.05068">
        <ele>425.8</ele>
        <time>2015-06-24T14:22:18Z</time>
      </trkpt>
      <trkpt lat="44.17486" lon="5.05071">
        <ele>425.9</ele>
        <time>2015-06-24T14:22:24Z</time>
      </trkpt>
      <trkpt lat="44.17477" lon="5.05076">
        <ele>426.2</ele>
        <time>2015-06-24T14:22:32Z</time>
      </trkpt>
      <trkpt lat="44.17468" lon="5.05082">
        <ele>426.5</ele>
        <time>2015-06-24T14:22:40Z</time>
      </trkpt>
      <trkpt lat="44.17462" lon="5.05091">
        <ele>426.4</ele>
        <time>2015-06-24T14:22:47Z</time>
      </trkpt>
      <trkpt lat="44.17452" lon="5.05093">
        <ele>426.2</ele>
        <time>2015-06-24T14:22:53Z</time>
      </trkpt>
      <trkpt lat="44.17442" lon="5.05098">
        <ele>426.2</ele>
        <time>2015-06-24T14:23:00Z</time>
      </trkpt>
      <trkpt lat="44.17432" lon="5.05097">
        <ele>426.4</ele>
        <time>2015-06-24T14:23:06Z</time>
      </trkpt>
      <trkpt lat="44.17421" lon="5.05097">
        <ele>426.5</ele>
        <time>2015-06-24T14:23:11Z</time>
      </trkpt>
      <trkpt lat="44.17412" lon="5.05093">
        <ele>426.1</ele>
        <time>2015-06-24T14:23:20Z</time>
      </trkpt>
      <trkpt lat="44.17403" lon="5.05096">
        <ele>425.6</ele>
        <time>2015-06-24T14:23:27Z</time>
      </trkpt>
      <trkpt lat="44.17393" lon="5.05095">
        <ele>425.3</ele>
        <time>2015-06-24T14:23:36Z</time>
      </trkpt>
      <trkpt lat="44.17385" lon="5.05091">
        <ele>425.5</ele>
        <time>2015-06-24T14:23:43Z</time>
      </trkpt>
      <trkpt lat="44.17375" lon="5.05092">
        <ele>425.8</ele>
        <time>2015-06-24T14:23:51Z</time>
      </trkpt>
      <trkpt lat="44.17365" lon="5.05092">
        <ele>426.7</ele>
        <time>2015-06-24T14:23:59Z</time>
      </trkpt>
      <trkpt lat="44.17356" lon="5.05094">
        <ele>427.6</ele>
        <time>2015-06-24T14:24:09Z</time>
      </trkpt>
      <trkpt lat="44.17347" lon="5.05096">
        <ele>428.8</ele>
        <time>2015-06-24T14:24:21Z</time>
      </trkpt>
      <trkpt lat="44.17338" lon="5.05102">
        <ele>429.6</ele>
        <time>2015-06-24T14:24:32Z</time>
      </trkpt>
      <trkpt lat="44.17332" lon="5.05112">
        <ele>429.8</ele>
        <time>2015-06-24T14:24:39Z</time>
      </trkpt>
      <trkpt lat="44.17326" lon="5.05122">
        <ele>429.9</ele>
        <time>2015-06-24T14:24:43Z</time>
      </trkpt>
      <trkpt lat="44.17317" lon="5.05131">
        <ele>430</ele>
        <time>2015-06-24T14:24:48Z</time>
      </trkpt>
      <trkpt lat="44.17309" lon="5.05137">
        <ele>430.1</ele>
        <time>2015-06-24T14:24:52Z</time>
      </trkpt>
      <trkpt lat="44.17302" lon="5.05145">
        <ele>430.1</ele>
        <time>2015-06-24T14:24:56Z</time>
      </trkpt>
      <trkpt lat="44.17295" lon="5.05155">
        <ele>430.1</ele>
        <time>2015-06-24T14:25:01Z</time>
      </trkpt>
      <trkpt lat="44.17288" lon="5.05163">
        <ele>430.1</ele>
        <time>2015-06-24T14:25:06Z</time>
      </trkpt>
      <trkpt lat="44.1728" lon="5.05172">
        <ele>430.1</ele>
        <time>2015-06-24T14:25:13Z</time>
      </trkpt>
      <trkpt lat="44.17276" lon="5.05183">
        <ele>430.2</ele>
        <time>2015-06-24T14:25:22Z</time>
      </trkpt>
      <trkpt lat="44.17268" lon="5.05175">
        <ele>432</ele>
        <time>2015-06-24T14:25:41Z</time>
      </trkpt>
      <trkpt lat="44.17265" lon="5.05163">
        <ele>430.5</ele>
        <time>2015-06-24T14:25:52Z</time>
      </trkpt>
      <trkpt lat="44.17256" lon="5.0515">
        <ele>429.1</ele>
        <time>2015-06-24T14:26:02Z</time>
      </trkpt>
      <trkpt lat="44.17253" lon="5.05137">
        <ele>427.9</ele>
        <time>2015-06-24T14:26:12Z</time>
      </trkpt>
      <trkpt lat="44.17245" lon="5.0513">
        <ele>424.9</ele>
        <time>2015-06-24T14:26:34Z</time>
      </trkpt>
      <trkpt lat="44.17244" lon="5.05116">
        <ele>423.8</ele>
        <time>2015-06-24T14:26:46Z</time>
      </trkpt>
      <trkpt lat="44.17237" lon="5.05106">
        <ele>423.3</ele>
        <time>2015-06-24T14:26:52Z</time>
      </trkpt>
      <trkpt lat="44.17231" lon="5.05096">
        <ele>422.7</ele>
        <time>2015-06-24T14:26:58Z</time>
      </trkpt>
      <trkpt lat="44.17227" lon="5.05085">
        <ele>422.2</ele>
        <time>2015-06-24T14:27:04Z</time>
      </trkpt>
      <trkpt lat="44.17226" lon="5.05071">
        <ele>420.8</ele>
        <time>2015-06-24T14:27:26Z</time>
      </trkpt>
      <trkpt lat="44.17222" lon="5.0506">
        <ele>419.6</ele>
        <time>2015-06-24T14:27:34Z</time>
      </trkpt>
      <trkpt lat="44.17216" lon="5.0505">
        <ele>418</ele>
        <time>2015-06-24T14:27:40Z</time>
      </trkpt>
      <trkpt lat="44.17213" lon="5.05038">
        <ele>416.5</ele>
        <time>2015-06-24T14:27:50Z</time>
      </trkpt>
      <trkpt lat="44.17217" lon="5.05027">
        <ele>415.1</ele>
        <time>2015-06-24T14:28:01Z</time>
      </trkpt>
      <trkpt lat="44.17209" lon="5.05018">
        <ele>414.6</ele>
        <time>2015-06-24T14:28:14Z</time>
      </trkpt>
      <trkpt lat="44.17203" lon="5.05008">
        <ele>414.7</ele>
        <time>2015-06-24T14:28:23Z</time>
      </trkpt>
      <trkpt lat="44.17195" lon="5.05005">
        <ele>414.3</ele>
        <time>2015-06-24T14:28:29Z</time>
      </trkpt>
      <trkpt lat="44.17185" lon="5.04995">
        <ele>413.7</ele>
        <time>2015-06-24T14:28:34Z</time>
      </trkpt>
      <trkpt lat="44.17175" lon="5.0499">
        <ele>412.6</ele>
        <time>2015-06-24T14:28:41Z</time>
      </trkpt>
      <trkpt lat="44.17165" lon="5.04987">
        <ele>412.1</ele>
        <time>2015-06-24T14:28:46Z</time>
      </trkpt>
      <trkpt lat="44.17157" lon="5.0498">
        <ele>411.3</ele>
        <time>2015-06-24T14:28:53Z</time>
      </trkpt>
      <trkpt lat="44.17148" lon="5.04981">
        <ele>410.8</ele>
        <time>2015-06-24T14:28:57Z</time>
      </trkpt>
      <trkpt lat="44.17139" lon="5.04979">
        <ele>410.3</ele>
        <time>2015-06-24T14:29:02Z</time>
      </trkpt>
      <trkpt lat="44.1713" lon="5.0497">
        <ele>410</ele>
        <time>2015-06-24T14:29:09Z</time>
      </trkpt>
      <trkpt lat="44.17121" lon="5.04962">
        <ele>409.9</ele>
        <time>2015-06-24T14:29:16Z</time>
      </trkpt>
      <trkpt lat="44.17111" lon="5.0496">
        <ele>410.6</ele>
        <time>2015-06-24T14:29:22Z</time>
      </trkpt>
      <trkpt lat="44.17102" lon="5.04955">
        <ele>411.1</ele>
        <time>2015-06-24T14:29:27Z</time>
      </trkpt>
      <trkpt lat="44.17093" lon="5.0495">
        <ele>411.7</ele>
        <time>2015-06-24T14:29:33Z</time>
      </trkpt>
      <trkpt lat="44.17084" lon="5.04946">
        <ele>413.1</ele>
        <time>2015-06-24T14:29:43Z</time>
      </trkpt>
      <trkpt lat="44.17074" lon="5.04945">
        <ele>414.1</ele>
        <time>2015-06-24T14:29:49Z</time>
      </trkpt>
      <trkpt lat="44.17065" lon="5.04944">
        <ele>415.3</ele>
        <time>2015-06-24T14:29:55Z</time>
      </trkpt>
      <trkpt lat="44.17056" lon="5.04945">
        <ele>416</ele>
        <time>2015-06-24T14:30:00Z</time>
      </trkpt>
      <trkpt lat="44.17045" lon="5.04941">
        <ele>416.6</ele>
        <time>2015-06-24T14:30:06Z</time>
      </trkpt>
      <trkpt lat="44.17035" lon="5.04933">
        <ele>416.9</ele>
        <time>2015-06-24T14:30:10Z</time>
      </trkpt>
      <trkpt lat="44.17025" lon="5.04928">
        <ele>417.2</ele>
        <time>2015-06-24T14:30:13Z</time>
      </trkpt>
      <trkpt lat="44.17018" lon="5.04919">
        <ele>418.1</ele>
        <time>2015-06-24T14:30:20Z</time>
      </trkpt>
      <trkpt lat="44.17007" lon="5.04915">
        <ele>418.8</ele>
        <time>2015-06-24T14:30:25Z</time>
      </trkpt>
      <trkpt lat="44.16999" lon="5.04908">
        <ele>419.6</ele>
        <time>2015-06-24T14:30:30Z</time>
      </trkpt>
      <trkpt lat="44.16991" lon="5.049">
        <ele>421.5</ele>
        <time>2015-06-24T14:30:41Z</time>
      </trkpt>
      <trkpt lat="44.16979" lon="5.04898">
        <ele>421.9</ele>
        <time>2015-06-24T14:30:44Z</time>
      </trkpt>
      <trkpt lat="44.16969" lon="5.04897">
        <ele>423.1</ele>
        <time>2015-06-24T14:30:51Z</time>
      </trkpt>
      <trkpt lat="44.16959" lon="5.04896">
        <ele>424.9</ele>
        <time>2015-06-24T14:31:00Z</time>
      </trkpt>
      <trkpt lat="44.16949" lon="5.0489">
        <ele>426</ele>
        <time>2015-06-24T14:31:08Z</time>
      </trkpt>
      <trkpt lat="44.16939" lon="5.04883">
        <ele>426.7</ele>
        <time>2015-06-24T14:31:13Z</time>
      </trkpt>
      <trkpt lat="44.16929" lon="5.04876">
        <ele>427.4</ele>
        <time>2015-06-24T14:31:18Z</time>
      </trkpt>
      <trkpt lat="44.16915" lon="5.04863">
        <ele>432.3</ele>
        <time>2015-06-24T14:32:50Z</time>
      </trkpt>
      <trkpt lat="44.16907" lon="5.04855">
        <ele>434.3</ele>
        <time>2015-06-24T14:33:33Z</time>
      </trkpt>
      <trkpt lat="44.16897" lon="5.04852">
        <ele>434.6</ele>
        <time>2015-06-24T14:33:44Z</time>
      </trkpt>
      <trkpt lat="44.1689" lon="5.04845">
        <ele>432.3</ele>
        <time>2015-06-24T14:34:00Z</time>
      </trkpt>
      <trkpt lat="44.16881" lon="5.0484">
        <ele>430.9</ele>
        <time>2015-06-24T14:34:13Z</time>
      </trkpt>
      <trkpt lat="44.16872" lon="5.04835">
        <ele>427.9</ele>
        <time>2015-06-24T14:34:28Z</time>
      </trkpt>
      <trkpt lat="44.16862" lon="5.04832">
        <ele>426.6</ele>
        <time>2015-06-24T14:34:36Z</time>
      </trkpt>
      <trkpt lat="44.16852" lon="5.04833">
        <ele>425.1</ele>
        <time>2015-06-24T14:34:48Z</time>
      </trkpt>
      <trkpt lat="44.16842" lon="5.04834">
        <ele>423.3</ele>
        <time>2015-06-24T14:35:02Z</time>
      </trkpt>
      <trkpt lat="44.16832" lon="5.04834">
        <ele>421.9</ele>
        <time>2015-06-24T14:35:10Z</time>
      </trkpt>
      <trkpt lat="44.16823" lon="5.04829">
        <ele>420.2</ele>
        <time>2015-06-24T14:35:22Z</time>
      </trkpt>
      <trkpt lat="44.16814" lon="5.04835">
        <ele>418</ele>
        <time>2015-06-24T14:35:38Z</time>
      </trkpt>
      <trkpt lat="44.16805" lon="5.04835">
        <ele>416.8</ele>
        <time>2015-06-24T14:35:50Z</time>
      </trkpt>
      <trkpt lat="44.16795" lon="5.04833">
        <ele>416.4</ele>
        <time>2015-06-24T14:35:54Z</time>
      </trkpt>
      <trkpt lat="44.16783" lon="5.0483">
        <ele>416.1</ele>
        <time>2015-06-24T14:36:01Z</time>
      </trkpt>
      <trkpt lat="44.16774" lon="5.04822">
        <ele>415.8</ele>
        <time>2015-06-24T14:36:09Z</time>
      </trkpt>
      <trkpt lat="44.16765" lon="5.04819">
        <ele>416.2</ele>
        <time>2015-06-24T14:36:16Z</time>
      </trkpt>
      <trkpt lat="44.16756" lon="5.04821">
        <ele>417.5</ele>
        <time>2015-06-24T14:36:24Z</time>
      </trkpt>
      <trkpt lat="44.16748" lon="5.04828">
        <ele>418.7</ele>
        <time>2015-06-24T14:36:32Z</time>
      </trkpt>
      <trkpt lat="44.16739" lon="5.04832">
        <ele>419.8</ele>
        <time>2015-06-24T14:36:40Z</time>
      </trkpt>
      <trkpt lat="44.1673" lon="5.04836">
        <ele>420.5</ele>
        <time>2015-06-24T14:36:46Z</time>
      </trkpt>
      <trkpt lat="44.16721" lon="5.04839">
        <ele>421</ele>
        <time>2015-06-24T14:36:52Z</time>
      </trkpt>
      <trkpt lat="44.16711" lon="5.04839">
        <ele>421.6</ele>
        <time>2015-06-24T14:37:00Z</time>
      </trkpt>
      <trkpt lat="44.16701" lon="5.04843">
        <ele>421.9</ele>
        <time>2015-06-24T14:37:05Z</time>
      </trkpt>
      <trkpt lat="44.16692" lon="5.04846">
        <ele>422.1</ele>
        <time>2015-06-24T14:37:11Z</time>
      </trkpt>
      <trkpt lat="44.16683" lon="5.04851">
        <ele>422.4</ele>
        <time>2015-06-24T14:37:19Z</time>
      </trkpt>
      <trkpt lat="44.16673" lon="5.04856">
        <ele>422.4</ele>
        <time>2015-06-24T14:37:27Z</time>
      </trkpt>
      <trkpt lat="44.16664" lon="5.04858">
        <ele>422.4</ele>
        <time>2015-06-24T14:37:32Z</time>
      </trkpt>
      <trkpt lat="44.16654" lon="5.04861">
        <ele>422.6</ele>
        <time>2015-06-24T14:37:41Z</time>
      </trkpt>
      <trkpt lat="44.16645" lon="5.04865">
        <ele>422.9</ele>
        <time>2015-06-24T14:37:50Z</time>
      </trkpt>
      <trkpt lat="44.16636" lon="5.04871">
        <ele>423.1</ele>
        <time>2015-06-24T14:37:58Z</time>
      </trkpt>
      <trkpt lat="44.16627" lon="5.04873">
        <ele>423.1</ele>
        <time>2015-06-24T14:38:04Z</time>
      </trkpt>
      <trkpt lat="44.16616" lon="5.04875">
        <ele>422.7</ele>
        <time>2015-06-24T14:38:11Z</time>
      </trkpt>
      <trkpt lat="44.16606" lon="5.04873">
        <ele>422.1</ele>
        <time>2015-06-24T14:38:20Z</time>
      </trkpt>
      <trkpt lat="44.16597" lon="5.0487">
        <ele>421.9</ele>
        <time>2015-06-24T14:38:25Z</time>
      </trkpt>
      <trkpt lat="44.16588" lon="5.04864">
        <ele>420.8</ele>
        <time>2015-06-24T14:38:35Z</time>
      </trkpt>
      <trkpt lat="44.16581" lon="5.04853">
        <ele>418.5</ele>
        <time>2015-06-24T14:38:47Z</time>
      </trkpt>
      <trkpt lat="44.16577" lon="5.04865">
        <ele>415</ele>
        <time>2015-06-24T14:39:02Z</time>
      </trkpt>
      <trkpt lat="44.16573" lon="5.04878">
        <ele>414.4</ele>
        <time>2015-06-24T14:39:07Z</time>
      </trkpt>
      <trkpt lat="44.16574" lon="5.04892">
        <ele>413.9</ele>
        <time>2015-06-24T14:39:16Z</time>
      </trkpt>
      <trkpt lat="44.16565" lon="5.04894">
        <ele>413</ele>
        <time>2015-06-24T14:39:42Z</time>
      </trkpt>
      <trkpt lat="44.16561" lon="5.04906">
        <ele>412.1</ele>
        <time>2015-06-24T14:39:53Z</time>
      </trkpt>
      <trkpt lat="44.16557" lon="5.04918">
        <ele>410.8</ele>
        <time>2015-06-24T14:40:07Z</time>
      </trkpt>
      <trkpt lat="44.16548" lon="5.04916">
        <ele>409.9</ele>
        <time>2015-06-24T14:40:17Z</time>
      </trkpt>
      <trkpt lat="44.16538" lon="5.04914">
        <ele>407.8</ele>
        <time>2015-06-24T14:40:31Z</time>
      </trkpt>
      <trkpt lat="44.16528" lon="5.04913">
        <ele>406.8</ele>
        <time>2015-06-24T14:40:40Z</time>
      </trkpt>
      <trkpt lat="44.16517" lon="5.04912">
        <ele>405.9</ele>
        <time>2015-06-24T14:40:45Z</time>
      </trkpt>
      <trkpt lat="44.16507" lon="5.04906">
        <ele>403.7</ele>
        <time>2015-06-24T14:40:54Z</time>
      </trkpt>
      <trkpt lat="44.16495" lon="5.04904">
        <ele>401.9</ele>
        <time>2015-06-24T14:41:00Z</time>
      </trkpt>
      <trkpt lat="44.16484" lon="5.04898">
        <ele>400.6</ele>
        <time>2015-06-24T14:41:05Z</time>
      </trkpt>
      <trkpt lat="44.16476" lon="5.04896">
        <ele>399.4</ele>
        <time>2015-06-24T14:41:12Z</time>
      </trkpt>
      <trkpt lat="44.16466" lon="5.04894">
        <ele>398.7</ele>
        <time>2015-06-24T14:41:21Z</time>
      </trkpt>
      <trkpt lat="44.16457" lon="5.0489">
        <ele>398.2</ele>
        <time>2015-06-24T14:41:29Z</time>
      </trkpt>
      <trkpt lat="44.16448" lon="5.04887">
        <ele>396.3</ele>
        <time>2015-06-24T14:41:40Z</time>
      </trkpt>
      <trkpt lat="44.16439" lon="5.04881">
        <ele>394.5</ele>
        <time>2015-06-24T14:41:49Z</time>
      </trkpt>
      <trkpt lat="44.1643" lon="5.04876">
        <ele>393.2</ele>
        <time>2015-06-24T14:41:55Z</time>
      </trkpt>
      <trkpt lat="44.1642" lon="5.04874">
        <ele>391.7</ele>
        <time>2015-06-24T14:42:10Z</time>
      </trkpt>
      <trkpt lat="44.16411" lon="5.04871">
        <ele>389.4</ele>
        <time>2015-06-24T14:42:28Z</time>
      </trkpt>
      <trkpt lat="44.16402" lon="5.04873">
        <ele>387.2</ele>
        <time>2015-06-24T14:42:44Z</time>
      </trkpt>
      <trkpt lat="44.16408" lon="5.04882">
        <ele>385</ele>
        <time>2015-06-24T14:43:08Z</time>
      </trkpt>
      <trkpt lat="44.16417" lon="5.04885">
        <ele>384.4</ele>
        <time>2015-06-24T14:43:23Z</time>
      </trkpt>
      <trkpt lat="44.16408" lon="5.04888">
        <ele>383.5</ele>
        <time>2015-06-24T14:43:45Z</time>
      </trkpt>
      <trkpt lat="44.16398" lon="5.04891">
        <ele>382.9</ele>
        <time>2015-06-24T14:43:53Z</time>
      </trkpt>
      <trkpt lat="44.16388" lon="5.04893">
        <ele>382.4</ele>
        <time>2015-06-24T14:43:58Z</time>
      </trkpt>
      <trkpt lat="44.16382" lon="5.04903">
        <ele>381.5</ele>
        <time>2015-06-24T14:44:04Z</time>
      </trkpt>
      <trkpt lat="44.16379" lon="5.04915">
        <ele>380.4</ele>
        <time>2015-06-24T14:44:12Z</time>
      </trkpt>
      <trkpt lat="44.16377" lon="5.04927">
        <ele>379.1</ele>
        <time>2015-06-24T14:44:20Z</time>
      </trkpt>
      <trkpt lat="44.16371" lon="5.04937">
        <ele>377.9</ele>
        <time>2015-06-24T14:44:27Z</time>
      </trkpt>
      <trkpt lat="44.16363" lon="5.04945">
        <ele>376.8</ele>
        <time>2015-06-24T14:44:33Z</time>
      </trkpt>
      <trkpt lat="44.16355" lon="5.04954">
        <ele>375.6</ele>
        <time>2015-06-24T14:44:40Z</time>
      </trkpt>
      <trkpt lat="44.1635" lon="5.04965">
        <ele>374.3</ele>
        <time>2015-06-24T14:44:47Z</time>
      </trkpt>
      <trkpt lat="44.16344" lon="5.04975">
        <ele>372.8</ele>
        <time>2015-06-24T14:44:55Z</time>
      </trkpt>
      <trkpt lat="44.1634" lon="5.04988">
        <ele>371.8</ele>
        <time>2015-06-24T14:45:00Z</time>
      </trkpt>
      <trkpt lat="44.1634" lon="5.05001">
        <ele>370.3</ele>
        <time>2015-06-24T14:45:07Z</time>
      </trkpt>
      <trkpt lat="44.1634" lon="5.05016">
        <ele>368.4</ele>
        <time>2015-06-24T14:45:15Z</time>
      </trkpt>
      <trkpt lat="44.16333" lon="5.05025">
        <ele>367.1</ele>
        <time>2015-06-24T14:45:20Z</time>
      </trkpt>
      <trkpt lat="44.16324" lon="5.05028">
        <ele>364.7</ele>
        <time>2015-06-24T14:45:29Z</time>
      </trkpt>
      <trkpt lat="44.16316" lon="5.0502">
        <ele>359.2</ele>
        <time>2015-06-24T14:46:02Z</time>
      </trkpt>
      <trkpt lat="44.16308" lon="5.05012">
        <ele>357.4</ele>
        <time>2015-06-24T14:46:13Z</time>
      </trkpt>
      <trkpt lat="44.16303" lon="5.05001">
        <ele>356.4</ele>
        <time>2015-06-24T14:46:21Z</time>
      </trkpt>
      <trkpt lat="44.16294" lon="5.04996">
        <ele>355</ele>
        <time>2015-06-24T14:46:30Z</time>
      </trkpt>
      <trkpt lat="44.16286" lon="5.04988">
        <ele>353.9</ele>
        <time>2015-06-24T14:46:40Z</time>
      </trkpt>
      <trkpt lat="44.1628" lon="5.04978">
        <ele>353.6</ele>
        <time>2015-06-24T14:46:49Z</time>
      </trkpt>
      <trkpt lat="44.16273" lon="5.0497">
        <ele>353.3</ele>
        <time>2015-06-24T14:46:57Z</time>
      </trkpt>
      <trkpt lat="44.16265" lon="5.04961">
        <ele>353</ele>
        <time>2015-06-24T14:47:06Z</time>
      </trkpt>
      <trkpt lat="44.16261" lon="5.0495">
        <ele>352.1</ele>
        <time>2015-06-24T14:47:17Z</time>
      </trkpt>
      <trkpt lat="44.16254" lon="5.0494">
        <ele>351.8</ele>
        <time>2015-06-24T14:47:28Z</time>
      </trkpt>
      <trkpt lat="44.16249" lon="5.04929">
        <ele>351.7</ele>
        <time>2015-06-24T14:47:32Z</time>
      </trkpt>
      <trkpt lat="44.16242" lon="5.04921">
        <ele>351.7</ele>
        <time>2015-06-24T14:47:39Z</time>
      </trkpt>
      <trkpt lat="44.16237" lon="5.04909">
        <ele>351.8</ele>
        <time>2015-06-24T14:47:44Z</time>
      </trkpt>
      <trkpt lat="44.16233" lon="5.04897">
        <ele>351.9</ele>
        <time>2015-06-24T14:47:50Z</time>
      </trkpt>
      <trkpt lat="44.16223" lon="5.04887">
        <ele>352.1</ele>
        <time>2015-06-24T14:47:57Z</time>
      </trkpt>
      <trkpt lat="44.16214" lon="5.04883">
        <ele>352.2</ele>
        <time>2015-06-24T14:48:00Z</time>
      </trkpt>
      <trkpt lat="44.16206" lon="5.04875">
        <ele>352.3</ele>
        <time>2015-06-24T14:48:05Z</time>
      </trkpt>
      <trkpt lat="44.16198" lon="5.04867">
        <ele>352.4</ele>
        <time>2015-06-24T14:48:10Z</time>
      </trkpt>
      <trkpt lat="44.16189" lon="5.04861">
        <ele>352.4</ele>
        <time>2015-06-24T14:48:17Z</time>
      </trkpt>
      <trkpt lat="44.16182" lon="5.0485">
        <ele>352.6</ele>
        <time>2015-06-24T14:48:23Z</time>
      </trkpt>
      <trkpt lat="44.16174" lon="5.04844">
        <ele>352.8</ele>
        <time>2015-06-24T14:48:26Z</time>
      </trkpt>
      <trkpt lat="44.16166" lon="5.04836">
        <ele>353.2</ele>
        <time>2015-06-24T14:48:33Z</time>
      </trkpt>
      <trkpt lat="44.16156" lon="5.0483">
        <ele>353.4</ele>
        <time>2015-06-24T14:48:40Z</time>
      </trkpt>
      <trkpt lat="44.16143" lon="5.04822">
        <ele>353.5</ele>
        <time>2015-06-24T14:48:47Z</time>
      </trkpt>
      <trkpt lat="44.16135" lon="5.04813">
        <ele>353.7</ele>
        <time>2015-06-24T14:48:53Z</time>
      </trkpt>
      <trkpt lat="44.1613" lon="5.04801">
        <ele>353.6</ele>
        <time>2015-06-24T14:48:57Z</time>
      </trkpt>
      <trkpt lat="44.16122" lon="5.04795">
        <ele>353.5</ele>
        <time>2015-06-24T14:49:01Z</time>
      </trkpt>
      <trkpt lat="44.16114" lon="5.04788">
        <ele>353.6</ele>
        <time>2015-06-24T14:49:10Z</time>
      </trkpt>
      <trkpt lat="44.16107" lon="5.04775">
        <ele>352.9</ele>
        <time>2015-06-24T14:49:20Z</time>
      </trkpt>
      <trkpt lat="44.16098" lon="5.04774">
        <ele>352.1</ele>
        <time>2015-06-24T14:49:30Z</time>
      </trkpt>
      <trkpt lat="44.1609" lon="5.04764">
        <ele>351</ele>
        <time>2015-06-24T14:49:38Z</time>
      </trkpt>
      <trkpt lat="44.1608" lon="5.04762">
        <ele>349.4</ele>
        <time>2015-06-24T14:49:49Z</time>
      </trkpt>
      <trkpt lat="44.15911" lon="5.04721">
        <ele>348</ele>
        <time>2015-06-24T14:49:58Z</time>
      </trkpt>
      <trkpt lat="44.15886" lon="5.047">
        <ele>348.2</ele>
        <time>2015-06-24T14:50:03Z</time>
      </trkpt>
      <trkpt lat="44.15881" lon="5.04689">
        <ele>348.1</ele>
        <time>2015-06-24T14:50:08Z</time>
      </trkpt>
      <trkpt lat="44.15873" lon="5.04683">
        <ele>348.2</ele>
        <time>2015-06-24T14:50:16Z</time>
      </trkpt>
      <trkpt lat="44.15864" lon="5.04682">
        <ele>348.9</ele>
        <time>2015-06-24T14:50:24Z</time>
      </trkpt>
      <trkpt lat="44.15854" lon="5.04678">
        <ele>349.5</ele>
        <time>2015-06-24T14:50:34Z</time>
      </trkpt>
      <trkpt lat="44.15847" lon="5.04685">
        <ele>350.1</ele>
        <time>2015-06-24T14:50:43Z</time>
      </trkpt>
      <trkpt lat="44.15837" lon="5.04676">
        <ele>350.2</ele>
        <time>2015-06-24T14:50:52Z</time>
      </trkpt>
      <trkpt lat="44.1583" lon="5.04668">
        <ele>350.3</ele>
        <time>2015-06-24T14:50:57Z</time>
      </trkpt>
      <trkpt lat="44.15824" lon="5.04659">
        <ele>350.4</ele>
        <time>2015-06-24T14:51:05Z</time>
      </trkpt>
      <trkpt lat="44.15817" lon="5.04668">
        <ele>350.5</ele>
        <time>2015-06-24T14:51:23Z</time>
      </trkpt>
      <trkpt lat="44.1582" lon="5.0468">
        <ele>350.5</ele>
        <time>2015-06-24T14:51:32Z</time>
      </trkpt>
      <trkpt lat="44.15821" lon="5.04694">
        <ele>350.4</ele>
        <time>2015-06-24T14:51:37Z</time>
      </trkpt>
      <trkpt lat="44.15817" lon="5.04706">
        <ele>349.9</ele>
        <time>2015-06-24T14:51:47Z</time>
      </trkpt>
      <trkpt lat="44.15809" lon="5.04713">
        <ele>349.7</ele>
        <time>2015-06-24T14:51:57Z</time>
      </trkpt>
      <trkpt lat="44.15799" lon="5.04717">
        <ele>349.2</ele>
        <time>2015-06-24T14:52:08Z</time>
      </trkpt>
      <trkpt lat="44.15789" lon="5.04718">
        <ele>348.9</ele>
        <time>2015-06-24T14:52:13Z</time>
      </trkpt>
      <trkpt lat="44.1578" lon="5.0472">
        <ele>348.7</ele>
        <time>2015-06-24T14:52:17Z</time>
      </trkpt>
      <trkpt lat="44.1577" lon="5.04718">
        <ele>348.6</ele>
        <time>2015-06-24T14:52:19Z</time>
      </trkpt>
      <trkpt lat="44.15761" lon="5.04718">
        <ele>348.3</ele>
        <time>2015-06-24T14:52:24Z</time>
      </trkpt>
      <trkpt lat="44.15752" lon="5.0472">
        <ele>348.1</ele>
        <time>2015-06-24T14:52:27Z</time>
      </trkpt>
      <trkpt lat="44.15743" lon="5.04726">
        <ele>347.9</ele>
        <time>2015-06-24T14:52:30Z</time>
      </trkpt>
      <trkpt lat="44.15734" lon="5.04729">
        <ele>347.6</ele>
        <time>2015-06-24T14:52:35Z</time>
      </trkpt>
      <trkpt lat="44.15725" lon="5.04733">
        <ele>347.1</ele>
        <time>2015-06-24T14:52:42Z</time>
      </trkpt>
      <trkpt lat="44.15719" lon="5.04742">
        <ele>346.2</ele>
        <time>2015-06-24T14:52:50Z</time>
      </trkpt>
      <trkpt lat="44.15686" lon="5.04756">
        <ele>345</ele>
        <time>2015-06-24T14:52:59Z</time>
      </trkpt>
      <trkpt lat="44.15672" lon="5.04762">
        <ele>344.7</ele>
        <time>2015-06-24T14:53:05Z</time>
      </trkpt>
      <trkpt lat="44.15668" lon="5.04776">
        <ele>344.1</ele>
        <time>2015-06-24T14:53:12Z</time>
      </trkpt>
      <trkpt lat="44.15666" lon="5.04789">
        <ele>343.6</ele>
        <time>2015-06-24T14:53:19Z</time>
      </trkpt>
      <trkpt lat="44.15666" lon="5.04802">
        <ele>343.3</ele>
        <time>2015-06-24T14:53:24Z</time>
      </trkpt>
      <trkpt lat="44.15661" lon="5.04814">
        <ele>342.9</ele>
        <time>2015-06-24T14:53:32Z</time>
      </trkpt>
      <trkpt lat="44.15656" lon="5.04825">
        <ele>342.8</ele>
        <time>2015-06-24T14:53:39Z</time>
      </trkpt>
      <trkpt lat="44.15649" lon="5.04836">
        <ele>342.8</ele>
        <time>2015-06-24T14:53:46Z</time>
      </trkpt>
      <trkpt lat="44.1564" lon="5.04841">
        <ele>342.9</ele>
        <time>2015-06-24T14:53:52Z</time>
      </trkpt>
      <trkpt lat="44.15632" lon="5.04848">
        <ele>343</ele>
        <time>2015-06-24T14:53:58Z</time>
      </trkpt>
      <trkpt lat="44.15627" lon="5.0486">
        <ele>343.2</ele>
        <time>2015-06-24T14:54:04Z</time>
      </trkpt>
      <trkpt lat="44.15634" lon="5.0487">
        <ele>343.4</ele>
        <time>2015-06-24T14:54:08Z</time>
      </trkpt>
      <trkpt lat="44.1564" lon="5.04879">
        <ele>343.8</ele>
        <time>2015-06-24T14:54:13Z</time>
      </trkpt>
      <trkpt lat="44.15645" lon="5.0489">
        <ele>344.3</ele>
        <time>2015-06-24T14:54:19Z</time>
      </trkpt>
      <trkpt lat="44.15652" lon="5.049">
        <ele>344.9</ele>
        <time>2015-06-24T14:54:28Z</time>
      </trkpt>
      <trkpt lat="44.15658" lon="5.04911">
        <ele>345.3</ele>
        <time>2015-06-24T14:54:35Z</time>
      </trkpt>
      <trkpt lat="44.15665" lon="5.04918">
        <ele>346.2</ele>
        <time>2015-06-24T14:54:52Z</time>
      </trkpt>
      <trkpt lat="44.15672" lon="5.04928">
        <ele>346.1</ele>
        <time>2015-06-24T14:54:59Z</time>
      </trkpt>
      <trkpt lat="44.15679" lon="5.04938">
        <ele>346.1</ele>
        <time>2015-06-24T14:55:06Z</time>
      </trkpt>
      <trkpt lat="44.15688" lon="5.04945">
        <ele>346.1</ele>
        <time>2015-06-24T14:55:12Z</time>
      </trkpt>
      <trkpt lat="44.15696" lon="5.04952">
        <ele>346.2</ele>
        <time>2015-06-24T14:55:18Z</time>
      </trkpt>
      <trkpt lat="44.15703" lon="5.04959">
        <ele>346</ele>
        <time>2015-06-24T14:55:25Z</time>
      </trkpt>
      <trkpt lat="44.15709" lon="5.04969">
        <ele>345.8</ele>
        <time>2015-06-24T14:55:32Z</time>
      </trkpt>
      <trkpt lat="44.15711" lon="5.04982">
        <ele>345.4</ele>
        <time>2015-06-24T14:55:38Z</time>
      </trkpt>
      <trkpt lat="44.15719" lon="5.04991">
        <ele>344.7</ele>
        <time>2015-06-24T14:55:48Z</time>
      </trkpt>
      <trkpt lat="44.15726" lon="5.04999">
        <ele>343.8</ele>
        <time>2015-06-24T14:55:58Z</time>
      </trkpt>
      <trkpt lat="44.15732" lon="5.05009">
        <ele>342.3</ele>
        <time>2015-06-24T14:56:17Z</time>
      </trkpt>
      <trkpt lat="44.15738" lon="5.05019">
        <ele>341.8</ele>
        <time>2015-06-24T14:56:23Z</time>
      </trkpt>
      <trkpt lat="44.15743" lon="5.05031">
        <ele>341.3</ele>
        <time>2015-06-24T14:56:30Z</time>
      </trkpt>
      <trkpt lat="44.15751" lon="5.0504">
        <ele>340.7</ele>
        <time>2015-06-24T14:56:37Z</time>
      </trkpt>
      <trkpt lat="44.15757" lon="5.0505">
        <ele>340.2</ele>
        <time>2015-06-24T14:56:43Z</time>
      </trkpt>
      <trkpt lat="44.15765" lon="5.05057">
        <ele>338.9</ele>
        <time>2015-06-24T14:56:54Z</time>
      </trkpt>
      <trkpt lat="44.15773" lon="5.05065">
        <ele>338.4</ele>
        <time>2015-06-24T14:56:59Z</time>
      </trkpt>
      <trkpt lat="44.1578" lon="5.05076">
        <ele>337.6</ele>
        <time>2015-06-24T14:57:06Z</time>
      </trkpt>
      <trkpt lat="44.1577" lon="5.05074">
        <ele>336</ele>
        <time>2015-06-24T14:57:17Z</time>
      </trkpt>
      <trkpt lat="44.15761" lon="5.05069">
        <ele>335.5</ele>
        <time>2015-06-24T14:57:20Z</time>
      </trkpt>
      <trkpt lat="44.15752" lon="5.05068">
        <ele>334.4</ele>
        <time>2015-06-24T14:57:27Z</time>
      </trkpt>
      <trkpt lat="44.15742" lon="5.0507">
        <ele>332.8</ele>
        <time>2015-06-24T14:57:37Z</time>
      </trkpt>
      <trkpt lat="44.15733" lon="5.05066">
        <ele>331.8</ele>
        <time>2015-06-24T14:57:43Z</time>
      </trkpt>
      <trkpt lat="44.15724" lon="5.0506">
        <ele>330.1</ele>
        <time>2015-06-24T14:57:52Z</time>
      </trkpt>
      <trkpt lat="44.15715" lon="5.0506">
        <ele>329.5</ele>
        <time>2015-06-24T14:57:56Z</time>
      </trkpt>
      <trkpt lat="44.15705" lon="5.05064">
        <ele>327.8</ele>
        <time>2015-06-24T14:58:08Z</time>
      </trkpt>
      <trkpt lat="44.15696" lon="5.05058">
        <ele>326.4</ele>
        <time>2015-06-24T14:58:19Z</time>
      </trkpt>
      <trkpt lat="44.15687" lon="5.05053">
        <ele>326</ele>
        <time>2015-06-24T14:58:23Z</time>
      </trkpt>
      <trkpt lat="44.15677" lon="5.05047">
        <ele>325.6</ele>
        <time>2015-06-24T14:58:27Z</time>
      </trkpt>
      <trkpt lat="44.15667" lon="5.05045">
        <ele>325.1</ele>
        <time>2015-06-24T14:58:33Z</time>
      </trkpt>
      <trkpt lat="44.15657" lon="5.05046">
        <ele>323.7</ele>
        <time>2015-06-24T14:58:43Z</time>
      </trkpt>
      <trkpt lat="44.15648" lon="5.05047">
        <ele>322.8</ele>
        <time>2015-06-24T14:58:49Z</time>
      </trkpt>
      <trkpt lat="44.15658" lon="5.05051">
        <ele>322.2</ele>
        <time>2015-06-24T14:58:54Z</time>
      </trkpt>
      <trkpt lat="44.15651" lon="5.05043">
        <ele>321.8</ele>
        <time>2015-06-24T14:58:57Z</time>
      </trkpt>
      <trkpt lat="44.1564" lon="5.05036">
        <ele>321.2</ele>
        <time>2015-06-24T14:59:02Z</time>
      </trkpt>
      <trkpt lat="44.15632" lon="5.0503">
        <ele>320.6</ele>
        <time>2015-06-24T14:59:06Z</time>
      </trkpt>
      <trkpt lat="44.15622" lon="5.05027">
        <ele>319.4</ele>
        <time>2015-06-24T14:59:12Z</time>
      </trkpt>
      <trkpt lat="44.15614" lon="5.05036">
        <ele>317.9</ele>
        <time>2015-06-24T14:59:18Z</time>
      </trkpt>
      <trkpt lat="44.15609" lon="5.05048">
        <ele>316.6</ele>
        <time>2015-06-24T14:59:23Z</time>
      </trkpt>
      <trkpt lat="44.15604" lon="5.05061">
        <ele>315.2</ele>
        <time>2015-06-24T14:59:29Z</time>
      </trkpt>
      <trkpt lat="44.15601" lon="5.05073">
        <ele>313.7</ele>
        <time>2015-06-24T14:59:37Z</time>
      </trkpt>
      <trkpt lat="44.15597" lon="5.05085">
        <ele>312.3</ele>
        <time>2015-06-24T14:59:46Z</time>
      </trkpt>
      <trkpt lat="44.15602" lon="5.05097">
        <ele>311.4</ele>
        <time>2015-06-24T14:59:52Z</time>
      </trkpt>
      <trkpt lat="44.15606" lon="5.0511">
        <ele>310.8</ele>
        <time>2015-06-24T14:59:56Z</time>
      </trkpt>
      <trkpt lat="44.15607" lon="5.05124">
        <ele>309.8</ele>
        <time>2015-06-24T15:00:03Z</time>
      </trkpt>
      <trkpt lat="44.15616" lon="5.05132">
        <ele>308.9</ele>
        <time>2015-06-24T15:00:11Z</time>
      </trkpt>
      <trkpt lat="44.15625" lon="5.05129">
        <ele>307.7</ele>
        <time>2015-06-24T15:00:25Z</time>
      </trkpt>
      <trkpt lat="44.15633" lon="5.05136">
        <ele>307</ele>
        <time>2015-06-24T15:00:33Z</time>
      </trkpt>
      <trkpt lat="44.15642" lon="5.05142">
        <ele>306.6</ele>
        <time>2015-06-24T15:00:38Z</time>
      </trkpt>
      <trkpt lat="44.15648" lon="5.05151">
        <ele>305.8</ele>
        <time>2015-06-24T15:00:46Z</time>
      </trkpt>
      <trkpt lat="44.15656" lon="5.05159">
        <ele>305.1</ele>
        <time>2015-06-24T15:00:53Z</time>
      </trkpt>
      <trkpt lat="44.15663" lon="5.05169">
        <ele>304.2</ele>
        <time>2015-06-24T15:01:01Z</time>
      </trkpt>
      <trkpt lat="44.15668" lon="5.0518">
        <ele>303</ele>
        <time>2015-06-24T15:01:11Z</time>
      </trkpt>
      <trkpt lat="44.15675" lon="5.05189">
        <ele>302.1</ele>
        <time>2015-06-24T15:01:19Z</time>
      </trkpt>
      <trkpt lat="44.15678" lon="5.05202">
        <ele>301.1</ele>
        <time>2015-06-24T15:01:26Z</time>
      </trkpt>
      <trkpt lat="44.15669" lon="5.05206">
        <ele>299.3</ele>
        <time>2015-06-24T15:01:38Z</time>
      </trkpt>
      <trkpt lat="44.15658" lon="5.05207">
        <ele>297</ele>
        <time>2015-06-24T15:01:48Z</time>
      </trkpt>
      <trkpt lat="44.15649" lon="5.05204">
        <ele>294.6</ele>
        <time>2015-06-24T15:01:55Z</time>
      </trkpt>
      <trkpt lat="44.1564" lon="5.05208">
        <ele>292.9</ele>
        <time>2015-06-24T15:02:02Z</time>
      </trkpt>
      <trkpt lat="44.15631" lon="5.05209">
        <ele>291.3</ele>
        <time>2015-06-24T15:02:10Z</time>
      </trkpt>
      <trkpt lat="44.1562" lon="5.05213">
        <ele>288.8</ele>
        <time>2015-06-24T15:02:19Z</time>
      </trkpt>
      <trkpt lat="44.1561" lon="5.05216">
        <ele>288.1</ele>
        <time>2015-06-24T15:02:23Z</time>
      </trkpt>
      <trkpt lat="44.15601" lon="5.05215">
        <ele>286.5</ele>
        <time>2015-06-24T15:02:34Z</time>
      </trkpt>
      <trkpt lat="44.15591" lon="5.05219">
        <ele>285</ele>
        <time>2015-06-24T15:02:44Z</time>
      </trkpt>
      <trkpt lat="44.15582" lon="5.05225">
        <ele>283.9</ele>
        <time>2015-06-24T15:02:51Z</time>
      </trkpt>
      <trkpt lat="44.15575" lon="5.05233">
        <ele>281.1</ele>
        <time>2015-06-24T15:03:30Z</time>
      </trkpt>
      <trkpt lat="44.15565" lon="5.05233">
        <ele>280.9</ele>
        <time>2015-06-24T15:03:41Z</time>
      </trkpt>
      <trkpt lat="44.15555" lon="5.05231">
        <ele>280.7</ele>
        <time>2015-06-24T15:03:49Z</time>
      </trkpt>
      <trkpt lat="44.15546" lon="5.05228">
        <ele>279.8</ele>
        <time>2015-06-24T15:03:58Z</time>
      </trkpt>
      <trkpt lat="44.15536" lon="5.05226">
        <ele>279.3</ele>
        <time>2015-06-24T15:04:03Z</time>
      </trkpt>
      <trkpt lat="44.15528" lon="5.05221">
        <ele>278.9</ele>
        <time>2015-06-24T15:04:08Z</time>
      </trkpt>
      <trkpt lat="44.15519" lon="5.05214">
        <ele>278.1</ele>
        <time>2015-06-24T15:04:14Z</time>
      </trkpt>
      <trkpt lat="44.15513" lon="5.05204">
        <ele>276.5</ele>
        <time>2015-06-24T15:04:24Z</time>
      </trkpt>
      <trkpt lat="44.15511" lon="5.05191">
        <ele>274.5</ele>
        <time>2015-06-24T15:04:34Z</time>
      </trkpt>
      <trkpt lat="44.15508" lon="5.05177">
        <ele>272.5</ele>
        <time>2015-06-24T15:04:45Z</time>
      </trkpt>
      <trkpt lat="44.15506" lon="5.05164">
        <ele>271.5</ele>
        <time>2015-06-24T15:04:54Z</time>
      </trkpt>
      <trkpt lat="44.15506" lon="5.05149">
        <ele>271</ele>
        <time>2015-06-24T15:05:00Z</time>
      </trkpt>
      <trkpt lat="44.15507" lon="5.05137">
        <ele>270.3</ele>
        <time>2015-06-24T15:05:07Z</time>
      </trkpt>
      <trkpt lat="44.15504" lon="5.05124">
        <ele>269.3</ele>
        <time>2015-06-24T15:05:16Z</time>
      </trkpt>
      <trkpt lat="44.15503" lon="5.05109">
        <ele>268.5</ele>
        <time>2015-06-24T15:05:23Z</time>
      </trkpt>
      <trkpt lat="44.15502" lon="5.05094">
        <ele>267</ele>
        <time>2015-06-24T15:05:30Z</time>
      </trkpt>
      <trkpt lat="44.15502" lon="5.05082">
        <ele>265.1</ele>
        <time>2015-06-24T15:05:37Z</time>
      </trkpt>
      <trkpt lat="44.15507" lon="5.0507">
        <ele>263.2</ele>
        <time>2015-06-24T15:05:47Z</time>
      </trkpt>
      <trkpt lat="44.15509" lon="5.05057">
        <ele>262.1</ele>
        <time>2015-06-24T15:05:55Z</time>
      </trkpt>
      <trkpt lat="44.15511" lon="5.05043">
        <ele>261.1</ele>
        <time>2015-06-24T15:06:01Z</time>
      </trkpt>
      <trkpt lat="44.15515" lon="5.05032">
        <ele>259.4</ele>
        <time>2015-06-24T15:06:10Z</time>
      </trkpt>
      <trkpt lat="44.15518" lon="5.05018">
        <ele>258.2</ele>
        <time>2015-06-24T15:06:21Z</time>
      </trkpt>
      <trkpt lat="44.1552" lon="5.05005">
        <ele>258</ele>
        <time>2015-06-24T15:06:28Z</time>
      </trkpt>
      <trkpt lat="44.1552" lon="5.04989">
        <ele>257.6</ele>
        <time>2015-06-24T15:06:34Z</time>
      </trkpt>
      <trkpt lat="44.1552" lon="5.04976">
        <ele>256.9</ele>
        <time>2015-06-24T15:06:41Z</time>
      </trkpt>
      <trkpt lat="44.15522" lon="5.04961">
        <ele>255.7</ele>
        <time>2015-06-24T15:06:49Z</time>
      </trkpt>
      <trkpt lat="44.15523" lon="5.04945">
        <ele>255</ele>
        <time>2015-06-24T15:06:55Z</time>
      </trkpt>
      <trkpt lat="44.1552" lon="5.04931">
        <ele>254.5</ele>
        <time>2015-06-24T15:07:01Z</time>
      </trkpt>
      <trkpt lat="44.15519" lon="5.04918">
        <ele>254.4</ele>
        <time>2015-06-24T15:07:04Z</time>
      </trkpt>
      <trkpt lat="44.15513" lon="5.04903">
        <ele>254.2</ele>
        <time>2015-06-24T15:07:07Z</time>
      </trkpt>
      <trkpt lat="44.15505" lon="5.04896">
        <ele>254</ele>
        <time>2015-06-24T15:07:18Z</time>
      </trkpt>
      <trkpt lat="44.15497" lon="5.04902">
        <ele>255.4</ele>
        <time>2015-06-24T15:07:32Z</time>
      </trkpt>
      <trkpt lat="44.15491" lon="5.04914">
        <ele>257.1</ele>
        <time>2015-06-24T15:07:47Z</time>
      </trkpt>
      <trkpt lat="44.15486" lon="5.04924">
        <ele>257.2</ele>
        <time>2015-06-24T15:07:49Z</time>
      </trkpt>
      <trkpt lat="44.15479" lon="5.04935">
        <ele>257.4</ele>
        <time>2015-06-24T15:07:51Z</time>
      </trkpt>
      <trkpt lat="44.15472" lon="5.04944">
        <ele>257.5</ele>
        <time>2015-06-24T15:07:53Z</time>
      </trkpt>
      <trkpt lat="44.15461" lon="5.04952">
        <ele>257.7</ele>
        <time>2015-06-24T15:07:55Z</time>
      </trkpt>
      <trkpt lat="44.15449" lon="5.04961">
        <ele>257.8</ele>
        <time>2015-06-24T15:07:57Z</time>
      </trkpt>
      <trkpt lat="44.15437" lon="5.04971">
        <ele>258</ele>
        <time>2015-06-24T15:07:59Z</time>
      </trkpt>
      <trkpt lat="44.15426" lon="5.04981">
        <ele>258.1</ele>
        <time>2015-06-24T15:08:01Z</time>
      </trkpt>
      <trkpt lat="44.15417" lon="5.04987">
        <ele>258.2</ele>
        <time>2015-06-24T15:08:03Z</time>
      </trkpt>
      <trkpt lat="44.15406" lon="5.04994">
        <ele>258.2</ele>
        <time>2015-06-24T15:08:06Z</time>
      </trkpt>
      <trkpt lat="44.15398" lon="5.05001">
        <ele>256.4</ele>
        <time>2015-06-24T15:08:24Z</time>
      </trkpt>
      <trkpt lat="44.15389" lon="5.05004">
        <ele>255.9</ele>
        <time>2015-06-24T15:08:30Z</time>
      </trkpt>
      <trkpt lat="44.1538" lon="5.05007">
        <ele>255.6</ele>
        <time>2015-06-24T15:08:34Z</time>
      </trkpt>
      <trkpt lat="44.1537" lon="5.05011">
        <ele>255.4</ele>
        <time>2015-06-24T15:08:38Z</time>
      </trkpt>
      <trkpt lat="44.15361" lon="5.05016">
        <ele>255.1</ele>
        <time>2015-06-24T15:08:43Z</time>
      </trkpt>
      <trkpt lat="44.15351" lon="5.05017">
        <ele>255</ele>
        <time>2015-06-24T15:08:45Z</time>
      </trkpt>
      <trkpt lat="44.15337" lon="5.05018">
        <ele>254.9</ele>
        <time>2015-06-24T15:08:47Z</time>
      </trkpt>
      <trkpt lat="44.15328" lon="5.0502">
        <ele>254.8</ele>
        <time>2015-06-24T15:08:50Z</time>
      </trkpt>
      <trkpt lat="44.15317" lon="5.05023">
        <ele>254.8</ele>
        <time>2015-06-24T15:08:53Z</time>
      </trkpt>
      <trkpt lat="44.15317" lon="5.05036">
        <ele>254.6</ele>
        <time>2015-06-24T15:09:20Z</time>
      </trkpt>
      <trkpt lat="44.15326" lon="5.05041">
        <ele>254</ele>
        <time>2015-06-24T15:09:30Z</time>
      </trkpt>
      <trkpt lat="44.15315" lon="5.05035">
        <ele>252.4</ele>
        <time>2015-06-24T15:10:05Z</time>
      </trkpt>
      <trkpt lat="44.15305" lon="5.05032">
        <ele>251.7</ele>
        <time>2015-06-24T15:10:13Z</time>
      </trkpt>
      <trkpt lat="44.15295" lon="5.05033">
        <ele>251.2</ele>
        <time>2015-06-24T15:10:19Z</time>
      </trkpt>
      <trkpt lat="44.15286" lon="5.05033">
        <ele>250.9</ele>
        <time>2015-06-24T15:10:24Z</time>
      </trkpt>
      <trkpt lat="44.15276" lon="5.05033">
        <ele>250.5</ele>
        <time>2015-06-24T15:10:30Z</time>
      </trkpt>
      <trkpt lat="44.15267" lon="5.05035">
        <ele>250.1</ele>
        <time>2015-06-24T15:10:37Z</time>
      </trkpt>
      <trkpt lat="44.15256" lon="5.05036">
        <ele>249.6</ele>
        <time>2015-06-24T15:10:43Z</time>
      </trkpt>
      <trkpt lat="44.15246" lon="5.05036">
        <ele>242.6</ele>
        <time>2015-06-24T15:13:13Z</time>
      </trkpt>
      <trkpt lat="44.15237" lon="5.05029">
        <ele>242.1</ele>
        <time>2015-06-24T15:13:19Z</time>
      </trkpt>
      <trkpt lat="44.15228" lon="5.05032">
        <ele>241.6</ele>
        <time>2015-06-24T15:13:24Z</time>
      </trkpt>
      <trkpt lat="44.15219" lon="5.05032">
        <ele>241.1</ele>
        <time>2015-06-24T15:13:31Z</time>
      </trkpt>
      <trkpt lat="44.15209" lon="5.05034">
        <ele>240.6</ele>
        <time>2015-06-24T15:13:39Z</time>
      </trkpt>
      <trkpt lat="44.152" lon="5.05034">
        <ele>240.3</ele>
        <time>2015-06-24T15:13:46Z</time>
      </trkpt>
      <trkpt lat="44.1519" lon="5.05034">
        <ele>240.2</ele>
        <time>2015-06-24T15:13:52Z</time>
      </trkpt>
      <trkpt lat="44.15181" lon="5.05033">
        <ele>240</ele>
        <time>2015-06-24T15:13:57Z</time>
      </trkpt>
      <trkpt lat="44.15172" lon="5.05035">
        <ele>239.6</ele>
        <time>2015-06-24T15:14:06Z</time>
      </trkpt>
      <trkpt lat="44.15162" lon="5.05033">
        <ele>239</ele>
        <time>2015-06-24T15:14:15Z</time>
      </trkpt>
      <trkpt lat="44.15153" lon="5.05028">
        <ele>238.5</ele>
        <time>2015-06-24T15:14:22Z</time>
      </trkpt>
      <trkpt lat="44.15143" lon="5.05031">
        <ele>238.1</ele>
        <time>2015-06-24T15:14:28Z</time>
      </trkpt>
      <trkpt lat="44.15134" lon="5.05038">
        <ele>237.7</ele>
        <time>2015-06-24T15:14:34Z</time>
      </trkpt>
      <trkpt lat="44.15127" lon="5.05047">
        <ele>237.4</ele>
        <time>2015-06-24T15:14:39Z</time>
      </trkpt>
      <trkpt lat="44.15122" lon="5.05059">
        <ele>237.1</ele>
        <time>2015-06-24T15:14:45Z</time>
      </trkpt>
      <trkpt lat="44.15116" lon="5.0507">
        <ele>236.6</ele>
        <time>2015-06-24T15:14:52Z</time>
      </trkpt>
      <trkpt lat="44.1511" lon="5.0508">
        <ele>235.1</ele>
        <time>2015-06-24T15:15:09Z</time>
      </trkpt>
      <trkpt lat="44.15103" lon="5.05089">
        <ele>234.6</ele>
        <time>2015-06-24T15:15:15Z</time>
      </trkpt>
      <trkpt lat="44.15098" lon="5.05102">
        <ele>234</ele>
        <time>2015-06-24T15:15:22Z</time>
      </trkpt>
      <trkpt lat="44.15094" lon="5.05115">
        <ele>233.3</ele>
        <time>2015-06-24T15:15:30Z</time>
      </trkpt>
      <trkpt lat="44.1509" lon="5.05127">
        <ele>232.5</ele>
        <time>2015-06-24T15:15:38Z</time>
      </trkpt>
      <trkpt lat="44.15086" lon="5.0514">
        <ele>231</ele>
        <time>2015-06-24T15:15:47Z</time>
      </trkpt>
      <trkpt lat="44.15082" lon="5.05151">
        <ele>229.6</ele>
        <time>2015-06-24T15:15:55Z</time>
      </trkpt>
      <trkpt lat="44.15077" lon="5.05162">
        <ele>228.5</ele>
        <time>2015-06-24T15:16:02Z</time>
      </trkpt>
      <trkpt lat="44.15071" lon="5.05171">
        <ele>227</ele>
        <time>2015-06-24T15:16:09Z</time>
      </trkpt>
      <trkpt lat="44.15061" lon="5.05176">
        <ele>225.7</ele>
        <time>2015-06-24T15:16:16Z</time>
      </trkpt>
      <trkpt lat="44.15052" lon="5.05182">
        <ele>223.5</ele>
        <time>2015-06-24T15:16:26Z</time>
      </trkpt>
      <trkpt lat="44.15048" lon="5.05197">
        <ele>222.4</ele>
        <time>2015-06-24T15:16:30Z</time>
      </trkpt>
      <trkpt lat="44.15036" lon="5.05202">
        <ele>221.5</ele>
        <time>2015-06-24T15:16:33Z</time>
      </trkpt>
      <trkpt lat="44.15027" lon="5.05204">
        <ele>220.9</ele>
        <time>2015-06-24T15:16:35Z</time>
      </trkpt>
      <trkpt lat="44.15018" lon="5.05207">
        <ele>220.3</ele>
        <time>2015-06-24T15:16:37Z</time>
      </trkpt>
      <trkpt lat="44.15009" lon="5.05211">
        <ele>219.3</ele>
        <time>2015-06-24T15:16:40Z</time>
      </trkpt>
      <trkpt lat="44.14998" lon="5.05212">
        <ele>217.5</ele>
        <time>2015-06-24T15:16:46Z</time>
      </trkpt>
      <trkpt lat="44.14986" lon="5.05212">
        <ele>215.2</ele>
        <time>2015-06-24T15:16:54Z</time>
      </trkpt>
      <trkpt lat="44.14977" lon="5.05209">
        <ele>213.5</ele>
        <time>2015-06-24T15:17:00Z</time>
      </trkpt>
      <trkpt lat="44.14972" lon="5.05197">
        <ele>210.3</ele>
        <time>2015-06-24T15:17:13Z</time>
      </trkpt>
      <trkpt lat="44.14964" lon="5.05185">
        <ele>207.8</ele>
        <time>2015-06-24T15:17:26Z</time>
      </trkpt>
      <trkpt lat="44.14954" lon="5.05182">
        <ele>206.3</ele>
        <time>2015-06-24T15:17:39Z</time>
      </trkpt>
      <trkpt lat="44.14944" lon="5.0518">
        <ele>205.6</ele>
        <time>2015-06-24T15:17:46Z</time>
      </trkpt>
      <trkpt lat="44.14937" lon="5.0517">
        <ele>205.1</ele>
        <time>2015-06-24T15:17:52Z</time>
      </trkpt>
      <trkpt lat="44.14927" lon="5.05167">
        <ele>204.4</ele>
        <time>2015-06-24T15:18:00Z</time>
      </trkpt>
      <trkpt lat="44.14917" lon="5.05168">
        <ele>203.8</ele>
        <time>2015-06-24T15:18:07Z</time>
      </trkpt>
      <trkpt lat="44.14909" lon="5.05173">
        <ele>203.6</ele>
        <time>2015-06-24T15:18:13Z</time>
      </trkpt>
      <trkpt lat="44.14899" lon="5.0517">
        <ele>203.4</ele>
        <time>2015-06-24T15:18:20Z</time>
      </trkpt>
      <trkpt lat="44.14891" lon="5.05177">
        <ele>203.5</ele>
        <time>2015-06-24T15:18:27Z</time>
      </trkpt>
      <trkpt lat="44.14881" lon="5.05182">
        <ele>203.9</ele>
        <time>2015-06-24T15:18:34Z</time>
      </trkpt>
      <trkpt lat="44.14871" lon="5.05181">
        <ele>204.1</ele>
        <time>2015-06-24T15:18:40Z</time>
      </trkpt>
      <trkpt lat="44.14862" lon="5.05178">
        <ele>204.4</ele>
        <time>2015-06-24T15:18:46Z</time>
      </trkpt>
      <trkpt lat="44.14858" lon="5.05163">
        <ele>204.6</ele>
        <time>2015-06-24T15:18:51Z</time>
      </trkpt>
      <trkpt lat="44.14854" lon="5.0515">
        <ele>204.7</ele>
        <time>2015-06-24T15:18:55Z</time>
      </trkpt>
      <trkpt lat="44.14846" lon="5.05141">
        <ele>204.7</ele>
        <time>2015-06-24T15:19:01Z</time>
      </trkpt>
      <trkpt lat="44.14836" lon="5.05137">
        <ele>204.8</ele>
        <time>2015-06-24T15:19:08Z</time>
      </trkpt>
      <trkpt lat="44.14827" lon="5.05142">
        <ele>204.6</ele>
        <time>2015-06-24T15:19:17Z</time>
      </trkpt>
      <trkpt lat="44.14818" lon="5.05141">
        <ele>204.2</ele>
        <time>2015-06-24T15:19:28Z</time>
      </trkpt>
      <trkpt lat="44.14811" lon="5.05133">
        <ele>203.6</ele>
        <time>2015-06-24T15:19:41Z</time>
      </trkpt>
      <trkpt lat="44.14804" lon="5.05126">
        <ele>203.6</ele>
        <time>2015-06-24T15:19:51Z</time>
      </trkpt>
      <trkpt lat="44.14795" lon="5.05123">
        <ele>203.7</ele>
        <time>2015-06-24T15:19:59Z</time>
      </trkpt>
      <trkpt lat="44.14785" lon="5.05121">
        <ele>203.8</ele>
        <time>2015-06-24T15:20:03Z</time>
      </trkpt>
      <trkpt lat="44.14775" lon="5.05121">
        <ele>203.8</ele>
        <time>2015-06-24T15:20:06Z</time>
      </trkpt>
      <trkpt lat="44.14764" lon="5.05124">
        <ele>203.5</ele>
        <time>2015-06-24T15:20:10Z</time>
      </trkpt>
      <trkpt lat="44.14755" lon="5.05124">
        <ele>203.3</ele>
        <time>2015-06-24T15:20:14Z</time>
      </trkpt>
      <trkpt lat="44.14745" lon="5.05127">
        <ele>202.7</ele>
        <time>2015-06-24T15:20:20Z</time>
      </trkpt>
      <trkpt lat="44.14736" lon="5.05129">
        <ele>202.1</ele>
        <time>2015-06-24T15:20:25Z</time>
      </trkpt>
      <trkpt lat="44.14726" lon="5.05131">
        <ele>201.3</ele>
        <time>2015-06-24T15:20:41Z</time>
      </trkpt>
      <trkpt lat="44.14716" lon="5.05129">
        <ele>201</ele>
        <time>2015-06-24T15:20:48Z</time>
      </trkpt>
      <trkpt lat="44.14707" lon="5.05129">
        <ele>200.8</ele>
        <time>2015-06-24T15:20:54Z</time>
      </trkpt>
      <trkpt lat="44.14698" lon="5.05128">
        <ele>200.5</ele>
        <time>2015-06-24T15:21:02Z</time>
      </trkpt>
      <trkpt lat="44.14688" lon="5.05134">
        <ele>200.1</ele>
        <time>2015-06-24T15:21:08Z</time>
      </trkpt>
      <trkpt lat="44.14679" lon="5.05139">
        <ele>199.3</ele>
        <time>2015-06-24T15:21:17Z</time>
      </trkpt>
      <trkpt lat="44.14672" lon="5.05147">
        <ele>192.1</ele>
        <time>2015-06-24T15:22:57Z</time>
      </trkpt>
      <trkpt lat="44.14662" lon="5.05149">
        <ele>188.9</ele>
        <time>2015-06-24T15:24:12Z</time>
      </trkpt>
      <trkpt lat="44.14653" lon="5.05156">
        <ele>188.3</ele>
        <time>2015-06-24T15:24:18Z</time>
      </trkpt>
      <trkpt lat="44.14644" lon="5.05161">
        <ele>188.1</ele>
        <time>2015-06-24T15:24:27Z</time>
      </trkpt>
      <trkpt lat="44.14636" lon="5.05168">
        <ele>188.2</ele>
        <time>2015-06-24T15:24:33Z</time>
      </trkpt>
      <trkpt lat="44.14627" lon="5.05173">
        <ele>187.9</ele>
        <time>2015-06-24T15:24:42Z</time>
      </trkpt>
      <trkpt lat="44.14618" lon="5.05168">
        <ele>187.5</ele>
        <time>2015-06-24T15:24:49Z</time>
      </trkpt>
      <trkpt lat="44.14622" lon="5.05155">
        <ele>186.9</ele>
        <time>2015-06-24T15:25:00Z</time>
      </trkpt>
      <trkpt lat="44.14622" lon="5.05141">
        <ele>186.1</ele>
        <time>2015-06-24T15:25:06Z</time>
      </trkpt>
      <trkpt lat="44.14614" lon="5.0515">
        <ele>182.6</ele>
        <time>2015-06-24T15:25:29Z</time>
      </trkpt>
      <trkpt lat="44.14624" lon="5.05152">
        <ele>180</ele>
        <time>2015-06-24T15:26:23Z</time>
      </trkpt>
      <trkpt lat="44.1462" lon="5.05153">
        <ele>173.8</ele>
        <time>2015-06-24T15:28:34Z</time>
      </trkpt>
      <trkpt lat="44.14685" lon="5.05098">
        <ele>131.5</ele>
        <time>2015-06-24T16:01:18Z</time>
      </trkpt>
      <trkpt lat="44.14682" lon="5.05084">
        <ele>130.5</ele>
        <time>2015-06-24T16:01:25Z</time>
      </trkpt>
      <trkpt lat="44.1469" lon="5.05071">
        <ele>129</ele>
        <time>2015-06-24T16:01:40Z</time>
      </trkpt>
      <trkpt lat="44.14698" lon="5.05064">
        <ele>128.4</ele>
        <time>2015-06-24T16:01:48Z</time>
      </trkpt>
      <trkpt lat="44.14689" lon="5.05067">
        <ele>127.9</ele>
        <time>2015-06-24T16:02:23Z</time>
      </trkpt>
      <trkpt lat="44.14683" lon="5.05057">
        <ele>128.2</ele>
        <time>2015-06-24T16:02:51Z</time>
      </trkpt>
      <trkpt lat="44.14685" lon="5.05043">
        <ele>128.3</ele>
        <time>2015-06-24T16:02:57Z</time>
      </trkpt>
      <trkpt lat="44.14688" lon="5.0503">
        <ele>129.3</ele>
        <time>2015-06-24T16:03:07Z</time>
      </trkpt>
      <trkpt lat="44.1468" lon="5.05022">
        <ele>130.6</ele>
        <time>2015-06-24T16:03:14Z</time>
      </trkpt>
      <trkpt lat="44.14671" lon="5.05017">
        <ele>133.3</ele>
        <time>2015-06-24T16:03:25Z</time>
      </trkpt>
      <trkpt lat="44.14664" lon="5.05009">
        <ele>136.7</ele>
        <time>2015-06-24T16:03:38Z</time>
      </trkpt>
      <trkpt lat="44.14658" lon="5.05">
        <ele>138.3</ele>
        <time>2015-06-24T16:03:44Z</time>
      </trkpt>
      <trkpt lat="44.1465" lon="5.04992">
        <ele>140.7</ele>
        <time>2015-06-24T16:03:53Z</time>
      </trkpt>
      <trkpt lat="44.14643" lon="5.04984">
        <ele>142.6</ele>
        <time>2015-06-24T16:04:00Z</time>
      </trkpt>
      <trkpt lat="44.14638" lon="5.04972">
        <ele>144.9</ele>
        <time>2015-06-24T16:04:09Z</time>
      </trkpt>
      <trkpt lat="44.14636" lon="5.04958">
        <ele>146.4</ele>
        <time>2015-06-24T16:04:15Z</time>
      </trkpt>
      <trkpt lat="44.14635" lon="5.04945">
        <ele>147.4</ele>
        <time>2015-06-24T16:04:21Z</time>
      </trkpt>
      <trkpt lat="44.14637" lon="5.04931">
        <ele>148.4</ele>
        <time>2015-06-24T16:04:30Z</time>
      </trkpt>
      <trkpt lat="44.1464" lon="5.04918">
        <ele>149.4</ele>
        <time>2015-06-24T16:04:38Z</time>
      </trkpt>
      <trkpt lat="44.14643" lon="5.04905">
        <ele>151.5</ele>
        <time>2015-06-24T16:04:48Z</time>
      </trkpt>
      <trkpt lat="44.14645" lon="5.04893">
        <ele>153.7</ele>
        <time>2015-06-24T16:04:57Z</time>
      </trkpt>
      <trkpt lat="44.14642" lon="5.04879">
        <ele>155.3</ele>
        <time>2015-06-24T16:05:03Z</time>
      </trkpt>
      <trkpt lat="44.14634" lon="5.04872">
        <ele>156.9</ele>
        <time>2015-06-24T16:05:09Z</time>
      </trkpt>
      <trkpt lat="44.14629" lon="5.04861">
        <ele>160.5</ele>
        <time>2015-06-24T16:05:24Z</time>
      </trkpt>
      <trkpt lat="44.1462" lon="5.04861">
        <ele>161.7</ele>
        <time>2015-06-24T16:05:29Z</time>
      </trkpt>
      <trkpt lat="44.1461" lon="5.04861">
        <ele>162.5</ele>
        <time>2015-06-24T16:05:32Z</time>
      </trkpt>
      <trkpt lat="44.14601" lon="5.04863">
        <ele>163.4</ele>
        <time>2015-06-24T16:05:36Z</time>
      </trkpt>
      <trkpt lat="44.14593" lon="5.04856">
        <ele>165.7</ele>
        <time>2015-06-24T16:05:45Z</time>
      </trkpt>
      <trkpt lat="44.14586" lon="5.04846">
        <ele>167.6</ele>
        <time>2015-06-24T16:05:52Z</time>
      </trkpt>
      <trkpt lat="44.14579" lon="5.04837">
        <ele>169.2</ele>
        <time>2015-06-24T16:05:59Z</time>
      </trkpt>
      <trkpt lat="44.1458" lon="5.04823">
        <ele>173.7</ele>
        <time>2015-06-24T16:06:24Z</time>
      </trkpt>
      <trkpt lat="44.14576" lon="5.0481">
        <ele>174.9</ele>
        <time>2015-06-24T16:06:30Z</time>
      </trkpt>
      <trkpt lat="44.14573" lon="5.04798">
        <ele>175.8</ele>
        <time>2015-06-24T16:06:35Z</time>
      </trkpt>
      <trkpt lat="44.14567" lon="5.04786">
        <ele>176.7</ele>
        <time>2015-06-24T16:06:41Z</time>
      </trkpt>
      <trkpt lat="44.14559" lon="5.04779">
        <ele>177.3</ele>
        <time>2015-06-24T16:06:46Z</time>
      </trkpt>
      <trkpt lat="44.14551" lon="5.04772">
        <ele>179.4</ele>
        <time>2015-06-24T16:06:58Z</time>
      </trkpt>
      <trkpt lat="44.14543" lon="5.04766">
        <ele>181.7</ele>
        <time>2015-06-24T16:07:07Z</time>
      </trkpt>
      <trkpt lat="44.14538" lon="5.04753">
        <ele>183.1</ele>
        <time>2015-06-24T16:07:15Z</time>
      </trkpt>
      <trkpt lat="44.14532" lon="5.04742">
        <ele>184</ele>
        <time>2015-06-24T16:07:20Z</time>
      </trkpt>
      <trkpt lat="44.14525" lon="5.04733">
        <ele>185</ele>
        <time>2015-06-24T16:07:26Z</time>
      </trkpt>
      <trkpt lat="44.14518" lon="5.04725">
        <ele>186.4</ele>
        <time>2015-06-24T16:07:34Z</time>
      </trkpt>
      <trkpt lat="44.14512" lon="5.04714">
        <ele>188.1</ele>
        <time>2015-06-24T16:07:41Z</time>
      </trkpt>
      <trkpt lat="44.14515" lon="5.04701">
        <ele>193.4</ele>
        <time>2015-06-24T16:08:00Z</time>
      </trkpt>
      <trkpt lat="44.14524" lon="5.04704">
        <ele>194.9</ele>
        <time>2015-06-24T16:08:08Z</time>
      </trkpt>
      <trkpt lat="44.14533" lon="5.04704">
        <ele>195.5</ele>
        <time>2015-06-24T16:08:12Z</time>
      </trkpt>
      <trkpt lat="44.14543" lon="5.04699">
        <ele>196.3</ele>
        <time>2015-06-24T16:08:20Z</time>
      </trkpt>
      <trkpt lat="44.1455" lon="5.04692">
        <ele>197.3</ele>
        <time>2015-06-24T16:08:26Z</time>
      </trkpt>
      <trkpt lat="44.14559" lon="5.0469">
        <ele>198.5</ele>
        <time>2015-06-24T16:08:35Z</time>
      </trkpt>
      <trkpt lat="44.14569" lon="5.04692">
        <ele>199.8</ele>
        <time>2015-06-24T16:08:47Z</time>
      </trkpt>
      <trkpt lat="44.14578" lon="5.04696">
        <ele>200.3</ele>
        <time>2015-06-24T16:08:55Z</time>
      </trkpt>
      <trkpt lat="44.14586" lon="5.04704">
        <ele>200.9</ele>
        <time>2015-06-24T16:09:04Z</time>
      </trkpt>
      <trkpt lat="44.14593" lon="5.04711">
        <ele>201.4</ele>
        <time>2015-06-24T16:09:11Z</time>
      </trkpt>
      <trkpt lat="44.14602" lon="5.04716">
        <ele>202.1</ele>
        <time>2015-06-24T16:09:19Z</time>
      </trkpt>
      <trkpt lat="44.14613" lon="5.04715">
        <ele>203.5</ele>
        <time>2015-06-24T16:09:37Z</time>
      </trkpt>
      <trkpt lat="44.14618" lon="5.04704">
        <ele>204.4</ele>
        <time>2015-06-24T16:09:45Z</time>
      </trkpt>
      <trkpt lat="44.14624" lon="5.04693">
        <ele>207.2</ele>
        <time>2015-06-24T16:10:04Z</time>
      </trkpt>
      <trkpt lat="44.14626" lon="5.0468">
        <ele>208.9</ele>
        <time>2015-06-24T16:10:12Z</time>
      </trkpt>
      <trkpt lat="44.14621" lon="5.0467">
        <ele>210.8</ele>
        <time>2015-06-24T16:10:20Z</time>
      </trkpt>
      <trkpt lat="44.1462" lon="5.04656">
        <ele>214.5</ele>
        <time>2015-06-24T16:10:34Z</time>
      </trkpt>
      <trkpt lat="44.14613" lon="5.04646">
        <ele>215.9</ele>
        <time>2015-06-24T16:10:40Z</time>
      </trkpt>
      <trkpt lat="44.14604" lon="5.04639">
        <ele>216.6</ele>
        <time>2015-06-24T16:10:43Z</time>
      </trkpt>
      <trkpt lat="44.14598" lon="5.04626">
        <ele>217.9</ele>
        <time>2015-06-24T16:10:49Z</time>
      </trkpt>
      <trkpt lat="44.146" lon="5.04613">
        <ele>220.2</ele>
        <time>2015-06-24T16:10:59Z</time>
      </trkpt>
      <trkpt lat="44.146" lon="5.04601">
        <ele>221.9</ele>
        <time>2015-06-24T16:11:13Z</time>
      </trkpt>
      <trkpt lat="44.14595" lon="5.04589">
        <ele>223.1</ele>
        <time>2015-06-24T16:11:41Z</time>
      </trkpt>
      <trkpt lat="44.14604" lon="5.04585">
        <ele>223.2</ele>
        <time>2015-06-24T16:11:51Z</time>
      </trkpt>
      <trkpt lat="44.14613" lon="5.04581">
        <ele>222.9</ele>
        <time>2015-06-24T16:11:58Z</time>
      </trkpt>
      <trkpt lat="44.14622" lon="5.04575">
        <ele>223.5</ele>
        <time>2015-06-24T16:12:09Z</time>
      </trkpt>
      <trkpt lat="44.14631" lon="5.04571">
        <ele>223.9</ele>
        <time>2015-06-24T16:12:14Z</time>
      </trkpt>
      <trkpt lat="44.1464" lon="5.04565">
        <ele>224</ele>
        <time>2015-06-24T16:12:20Z</time>
      </trkpt>
      <trkpt lat="44.14644" lon="5.04578">
        <ele>224.1</ele>
        <time>2015-06-24T16:12:26Z</time>
      </trkpt>
      <trkpt lat="44.1465" lon="5.04589">
        <ele>224.4</ele>
        <time>2015-06-24T16:12:34Z</time>
      </trkpt>
      <trkpt lat="44.14659" lon="5.04596">
        <ele>225.1</ele>
        <time>2015-06-24T16:12:40Z</time>
      </trkpt>
      <trkpt lat="44.14666" lon="5.04605">
        <ele>226</ele>
        <time>2015-06-24T16:12:48Z</time>
      </trkpt>
      <trkpt lat="44.14673" lon="5.04615">
        <ele>227</ele>
        <time>2015-06-24T16:12:58Z</time>
      </trkpt>
      <trkpt lat="44.14679" lon="5.04624">
        <ele>228.3</ele>
        <time>2015-06-24T16:13:16Z</time>
      </trkpt>
      <trkpt lat="44.14688" lon="5.04621">
        <ele>228.3</ele>
        <time>2015-06-24T16:13:23Z</time>
      </trkpt>
      <trkpt lat="44.14698" lon="5.04623">
        <ele>228.2</ele>
        <time>2015-06-24T16:13:29Z</time>
      </trkpt>
      <trkpt lat="44.14707" lon="5.04625">
        <ele>228</ele>
        <time>2015-06-24T16:13:32Z</time>
      </trkpt>
      <trkpt lat="44.14714" lon="5.04634">
        <ele>227.4</ele>
        <time>2015-06-24T16:13:41Z</time>
      </trkpt>
      <trkpt lat="44.14722" lon="5.04642">
        <ele>226.5</ele>
        <time>2015-06-24T16:13:48Z</time>
      </trkpt>
      <trkpt lat="44.14731" lon="5.04648">
        <ele>226</ele>
        <time>2015-06-24T16:13:55Z</time>
      </trkpt>
      <trkpt lat="44.14741" lon="5.04646">
        <ele>225.5</ele>
        <time>2015-06-24T16:14:02Z</time>
      </trkpt>
      <trkpt lat="44.14749" lon="5.04654">
        <ele>225.3</ele>
        <time>2015-06-24T16:14:09Z</time>
      </trkpt>
      <trkpt lat="44.14757" lon="5.04664">
        <ele>225.2</ele>
        <time>2015-06-24T16:14:15Z</time>
      </trkpt>
      <trkpt lat="44.14763" lon="5.04673">
        <ele>225.1</ele>
        <time>2015-06-24T16:14:22Z</time>
      </trkpt>
      <trkpt lat="44.14772" lon="5.04674">
        <ele>225.1</ele>
        <time>2015-06-24T16:14:32Z</time>
      </trkpt>
      <trkpt lat="44.1478" lon="5.0468">
        <ele>225.2</ele>
        <time>2015-06-24T16:14:43Z</time>
      </trkpt>
      <trkpt lat="44.14789" lon="5.04684">
        <ele>224.6</ele>
        <time>2015-06-24T16:14:52Z</time>
      </trkpt>
      <trkpt lat="44.148" lon="5.0469">
        <ele>224</ele>
        <time>2015-06-24T16:14:59Z</time>
      </trkpt>
      <trkpt lat="44.1481" lon="5.04695">
        <ele>223.5</ele>
        <time>2015-06-24T16:15:04Z</time>
      </trkpt>
      <trkpt lat="44.1482" lon="5.04692">
        <ele>222.8</ele>
        <time>2015-06-24T16:15:10Z</time>
      </trkpt>
      <trkpt lat="44.14832" lon="5.04689">
        <ele>222.2</ele>
        <time>2015-06-24T16:15:17Z</time>
      </trkpt>
      <trkpt lat="44.14841" lon="5.0468">
        <ele>222</ele>
        <time>2015-06-24T16:15:21Z</time>
      </trkpt>
      <trkpt lat="44.14846" lon="5.04669">
        <ele>222.4</ele>
        <time>2015-06-24T16:15:27Z</time>
      </trkpt>
      <trkpt lat="44.14855" lon="5.04662">
        <ele>224</ele>
        <time>2015-06-24T16:15:35Z</time>
      </trkpt>
      <trkpt lat="44.14862" lon="5.04653">
        <ele>225.6</ele>
        <time>2015-06-24T16:15:44Z</time>
      </trkpt>
      <trkpt lat="44.1487" lon="5.04645">
        <ele>227</ele>
        <time>2015-06-24T16:15:51Z</time>
      </trkpt>
      <trkpt lat="44.14876" lon="5.04635">
        <ele>229.1</ele>
        <time>2015-06-24T16:15:59Z</time>
      </trkpt>
      <trkpt lat="44.14884" lon="5.04625">
        <ele>230.8</ele>
        <time>2015-06-24T16:16:07Z</time>
      </trkpt>
      <trkpt lat="44.14895" lon="5.04619">
        <ele>233.1</ele>
        <time>2015-06-24T16:16:18Z</time>
      </trkpt>
      <trkpt lat="44.14903" lon="5.0461">
        <ele>234.6</ele>
        <time>2015-06-24T16:16:25Z</time>
      </trkpt>
      <trkpt lat="44.14911" lon="5.04605">
        <ele>236.6</ele>
        <time>2015-06-24T16:16:34Z</time>
      </trkpt>
      <trkpt lat="44.1492" lon="5.04603">
        <ele>239.3</ele>
        <time>2015-06-24T16:16:45Z</time>
      </trkpt>
      <trkpt lat="44.1493" lon="5.04601">
        <ele>241.2</ele>
        <time>2015-06-24T16:16:53Z</time>
      </trkpt>
      <trkpt lat="44.14939" lon="5.04594">
        <ele>243.4</ele>
        <time>2015-06-24T16:17:02Z</time>
      </trkpt>
      <trkpt lat="44.14946" lon="5.04584">
        <ele>244.8</ele>
        <time>2015-06-24T16:17:09Z</time>
      </trkpt>
      <trkpt lat="44.14951" lon="5.04574">
        <ele>247</ele>
        <time>2015-06-24T16:17:19Z</time>
      </trkpt>
      <trkpt lat="44.14961" lon="5.0457">
        <ele>249.1</ele>
        <time>2015-06-24T16:17:29Z</time>
      </trkpt>
      <trkpt lat="44.1497" lon="5.04564">
        <ele>250.8</ele>
        <time>2015-06-24T16:17:37Z</time>
      </trkpt>
      <trkpt lat="44.14979" lon="5.04559">
        <ele>252.3</ele>
        <time>2015-06-24T16:17:45Z</time>
      </trkpt>
      <trkpt lat="44.14986" lon="5.0455">
        <ele>253.7</ele>
        <time>2015-06-24T16:17:55Z</time>
      </trkpt>
      <trkpt lat="44.1499" lon="5.04538">
        <ele>254.6</ele>
        <time>2015-06-24T16:18:04Z</time>
      </trkpt>
      <trkpt lat="44.14996" lon="5.04527">
        <ele>255.3</ele>
        <time>2015-06-24T16:18:11Z</time>
      </trkpt>
      <trkpt lat="44.15002" lon="5.04514">
        <ele>256.1</ele>
        <time>2015-06-24T16:18:18Z</time>
      </trkpt>
      <trkpt lat="44.15008" lon="5.04503">
        <ele>256.9</ele>
        <time>2015-06-24T16:18:26Z</time>
      </trkpt>
      <trkpt lat="44.15018" lon="5.04501">
        <ele>257.8</ele>
        <time>2015-06-24T16:18:33Z</time>
      </trkpt>
      <trkpt lat="44.15028" lon="5.04495">
        <ele>259.1</ele>
        <time>2015-06-24T16:18:43Z</time>
      </trkpt>
      <trkpt lat="44.15037" lon="5.04491">
        <ele>259.7</ele>
        <time>2015-06-24T16:18:50Z</time>
      </trkpt>
      <trkpt lat="44.15045" lon="5.04482">
        <ele>260.8</ele>
        <time>2015-06-24T16:19:04Z</time>
      </trkpt>
      <trkpt lat="44.15048" lon="5.04469">
        <ele>261.2</ele>
        <time>2015-06-24T16:19:11Z</time>
      </trkpt>
      <trkpt lat="44.15051" lon="5.04457">
        <ele>262.2</ele>
        <time>2015-06-24T16:19:20Z</time>
      </trkpt>
      <trkpt lat="44.15055" lon="5.04444">
        <ele>263.3</ele>
        <time>2015-06-24T16:19:27Z</time>
      </trkpt>
      <trkpt lat="44.15059" lon="5.04431">
        <ele>264.6</ele>
        <time>2015-06-24T16:19:34Z</time>
      </trkpt>
      <trkpt lat="44.15057" lon="5.04417">
        <ele>265.7</ele>
        <time>2015-06-24T16:19:40Z</time>
      </trkpt>
      <trkpt lat="44.15066" lon="5.0441">
        <ele>267</ele>
        <time>2015-06-24T16:19:49Z</time>
      </trkpt>
      <trkpt lat="44.15076" lon="5.0441">
        <ele>267.7</ele>
        <time>2015-06-24T16:19:53Z</time>
      </trkpt>
      <trkpt lat="44.15086" lon="5.04407">
        <ele>269.9</ele>
        <time>2015-06-24T16:20:12Z</time>
      </trkpt>
      <trkpt lat="44.15092" lon="5.04397">
        <ele>271.1</ele>
        <time>2015-06-24T16:20:22Z</time>
      </trkpt>
      <trkpt lat="44.15099" lon="5.04389">
        <ele>272.6</ele>
        <time>2015-06-24T16:20:31Z</time>
      </trkpt>
      <trkpt lat="44.151" lon="5.04375">
        <ele>274.4</ele>
        <time>2015-06-24T16:20:46Z</time>
      </trkpt>
      <trkpt lat="44.15097" lon="5.04361">
        <ele>274.9</ele>
        <time>2015-06-24T16:20:57Z</time>
      </trkpt>
      <trkpt lat="44.15088" lon="5.04353">
        <ele>274.2</ele>
        <time>2015-06-24T16:21:13Z</time>
      </trkpt>
      <trkpt lat="44.15079" lon="5.04353">
        <ele>273.1</ele>
        <time>2015-06-24T16:21:22Z</time>
      </trkpt>
      <trkpt lat="44.15071" lon="5.04346">
        <ele>272.3</ele>
        <time>2015-06-24T16:21:27Z</time>
      </trkpt>
      <trkpt lat="44.15063" lon="5.04339">
        <ele>271.1</ele>
        <time>2015-06-24T16:21:37Z</time>
      </trkpt>
      <trkpt lat="44.15055" lon="5.04332">
        <ele>270.1</ele>
        <time>2015-06-24T16:21:46Z</time>
      </trkpt>
      <trkpt lat="44.1505" lon="5.04322">
        <ele>269.6</ele>
        <time>2015-06-24T16:21:54Z</time>
      </trkpt>
      <trkpt lat="44.15043" lon="5.04312">
        <ele>269.5</ele>
        <time>2015-06-24T16:21:56Z</time>
      </trkpt>
      <trkpt lat="44.15036" lon="5.04305">
        <ele>269.1</ele>
        <time>2015-06-24T16:22:03Z</time>
      </trkpt>
      <trkpt lat="44.15028" lon="5.04297">
        <ele>268.9</ele>
        <time>2015-06-24T16:22:11Z</time>
      </trkpt>
      <trkpt lat="44.15026" lon="5.04284">
        <ele>267.2</ele>
        <time>2015-06-24T16:22:26Z</time>
      </trkpt>
      <trkpt lat="44.15024" lon="5.04264">
        <ele>266.2</ele>
        <time>2015-06-24T16:22:33Z</time>
      </trkpt>
      <trkpt lat="44.15024" lon="5.04251">
        <ele>265.2</ele>
        <time>2015-06-24T16:22:45Z</time>
      </trkpt>
      <trkpt lat="44.15026" lon="5.04238">
        <ele>265</ele>
        <time>2015-06-24T16:22:52Z</time>
      </trkpt>
      <trkpt lat="44.1503" lon="5.04226">
        <ele>264.8</ele>
        <time>2015-06-24T16:23:03Z</time>
      </trkpt>
      <trkpt lat="44.15031" lon="5.04213">
        <ele>264.7</ele>
        <time>2015-06-24T16:23:11Z</time>
      </trkpt>
      <trkpt lat="44.1504" lon="5.04202">
        <ele>264.4</ele>
        <time>2015-06-24T16:23:15Z</time>
      </trkpt>
      <trkpt lat="44.15048" lon="5.04192">
        <ele>263.7</ele>
        <time>2015-06-24T16:23:21Z</time>
      </trkpt>
      <trkpt lat="44.15053" lon="5.0418">
        <ele>263</ele>
        <time>2015-06-24T16:23:30Z</time>
      </trkpt>
      <trkpt lat="44.15047" lon="5.04167">
        <ele>263.2</ele>
        <time>2015-06-24T16:23:35Z</time>
      </trkpt>
      <trkpt lat="44.15044" lon="5.04154">
        <ele>263.5</ele>
        <time>2015-06-24T16:23:43Z</time>
      </trkpt>
      <trkpt lat="44.15042" lon="5.04141">
        <ele>263.7</ele>
        <time>2015-06-24T16:23:50Z</time>
      </trkpt>
      <trkpt lat="44.1504" lon="5.04127">
        <ele>263.9</ele>
        <time>2015-06-24T16:24:02Z</time>
      </trkpt>
      <trkpt lat="44.15041" lon="5.04114">
        <ele>263.4</ele>
        <time>2015-06-24T16:24:09Z</time>
      </trkpt>
      <trkpt lat="44.15039" lon="5.04099">
        <ele>263.3</ele>
        <time>2015-06-24T16:24:16Z</time>
      </trkpt>
      <trkpt lat="44.15041" lon="5.04086">
        <ele>263.1</ele>
        <time>2015-06-24T16:24:23Z</time>
      </trkpt>
      <trkpt lat="44.15046" lon="5.04075">
        <ele>262.8</ele>
        <time>2015-06-24T16:24:32Z</time>
      </trkpt>
      <trkpt lat="44.15045" lon="5.0406">
        <ele>262.5</ele>
        <time>2015-06-24T16:24:43Z</time>
      </trkpt>
      <trkpt lat="44.15044" lon="5.04046">
        <ele>262.6</ele>
        <time>2015-06-24T16:24:51Z</time>
      </trkpt>
      <trkpt lat="44.15042" lon="5.04033">
        <ele>263.1</ele>
        <time>2015-06-24T16:24:57Z</time>
      </trkpt>
      <trkpt lat="44.15042" lon="5.04019">
        <ele>264.1</ele>
        <time>2015-06-24T16:25:06Z</time>
      </trkpt>
      <trkpt lat="44.15041" lon="5.04006">
        <ele>264.7</ele>
        <time>2015-06-24T16:25:15Z</time>
      </trkpt>
      <trkpt lat="44.15041" lon="5.03993">
        <ele>264.9</ele>
        <time>2015-06-24T16:25:22Z</time>
      </trkpt>
      <trkpt lat="44.15037" lon="5.03982">
        <ele>265.8</ele>
        <time>2015-06-24T16:25:33Z</time>
      </trkpt>
      <trkpt lat="44.15028" lon="5.03979">
        <ele>266.9</ele>
        <time>2015-06-24T16:25:49Z</time>
      </trkpt>
      <trkpt lat="44.15019" lon="5.03975">
        <ele>267.3</ele>
        <time>2015-06-24T16:25:57Z</time>
      </trkpt>
      <trkpt lat="44.1501" lon="5.03971">
        <ele>267.5</ele>
        <time>2015-06-24T16:26:00Z</time>
      </trkpt>
      <trkpt lat="44.15001" lon="5.03965">
        <ele>267.7</ele>
        <time>2015-06-24T16:26:06Z</time>
      </trkpt>
      <trkpt lat="44.14994" lon="5.03957">
        <ele>267.9</ele>
        <time>2015-06-24T16:26:14Z</time>
      </trkpt>
      <trkpt lat="44.14994" lon="5.03943">
        <ele>267.5</ele>
        <time>2015-06-24T16:26:27Z</time>
      </trkpt>
      <trkpt lat="44.14997" lon="5.03931">
        <ele>266.6</ele>
        <time>2015-06-24T16:26:38Z</time>
      </trkpt>
      <trkpt lat="44.15002" lon="5.03918">
        <ele>266.1</ele>
        <time>2015-06-24T16:26:44Z</time>
      </trkpt>
      <trkpt lat="44.14999" lon="5.03904">
        <ele>264.9</ele>
        <time>2015-06-24T16:26:51Z</time>
      </trkpt>
      <trkpt lat="44.14995" lon="5.03891">
        <ele>263.4</ele>
        <time>2015-06-24T16:26:57Z</time>
      </trkpt>
      <trkpt lat="44.14992" lon="5.03877">
        <ele>262.2</ele>
        <time>2015-06-24T16:27:04Z</time>
      </trkpt>
      <trkpt lat="44.14987" lon="5.03867">
        <ele>260.6</ele>
        <time>2015-06-24T16:27:13Z</time>
      </trkpt>
      <trkpt lat="44.14981" lon="5.03855">
        <ele>259.8</ele>
        <time>2015-06-24T16:27:20Z</time>
      </trkpt>
      <trkpt lat="44.14973" lon="5.03848">
        <ele>259.3</ele>
        <time>2015-06-24T16:27:26Z</time>
      </trkpt>
      <trkpt lat="44.14967" lon="5.03838">
        <ele>258.7</ele>
        <time>2015-06-24T16:27:31Z</time>
      </trkpt>
      <trkpt lat="44.1496" lon="5.03829">
        <ele>258</ele>
        <time>2015-06-24T16:27:39Z</time>
      </trkpt>
      <trkpt lat="44.14955" lon="5.03815">
        <ele>257.2</ele>
        <time>2015-06-24T16:27:46Z</time>
      </trkpt>
      <trkpt lat="44.14947" lon="5.03808">
        <ele>256.4</ele>
        <time>2015-06-24T16:27:53Z</time>
      </trkpt>
      <trkpt lat="44.14937" lon="5.03803">
        <ele>255.2</ele>
        <time>2015-06-24T16:28:02Z</time>
      </trkpt>
      <trkpt lat="44.1493" lon="5.03795">
        <ele>253.8</ele>
        <time>2015-06-24T16:28:12Z</time>
      </trkpt>
      <trkpt lat="44.1492" lon="5.03786">
        <ele>252.8</ele>
        <time>2015-06-24T16:28:20Z</time>
      </trkpt>
      <trkpt lat="44.14911" lon="5.03783">
        <ele>251.3</ele>
        <time>2015-06-24T16:28:29Z</time>
      </trkpt>
      <trkpt lat="44.14901" lon="5.03784">
        <ele>250.2</ele>
        <time>2015-06-24T16:28:39Z</time>
      </trkpt>
      <trkpt lat="44.14896" lon="5.03774">
        <ele>249.7</ele>
        <time>2015-06-24T16:28:48Z</time>
      </trkpt>
      <trkpt lat="44.14894" lon="5.03762">
        <ele>249.6</ele>
        <time>2015-06-24T16:28:56Z</time>
      </trkpt>
      <trkpt lat="44.149" lon="5.03751">
        <ele>250.1</ele>
        <time>2015-06-24T16:29:05Z</time>
      </trkpt>
      <trkpt lat="44.1491" lon="5.0374">
        <ele>251.8</ele>
        <time>2015-06-24T16:29:17Z</time>
      </trkpt>
      <trkpt lat="44.14918" lon="5.03731">
        <ele>252.6</ele>
        <time>2015-06-24T16:29:21Z</time>
      </trkpt>
      <trkpt lat="44.14924" lon="5.0372">
        <ele>254.2</ele>
        <time>2015-06-24T16:29:29Z</time>
      </trkpt>
      <trkpt lat="44.14925" lon="5.03707">
        <ele>256.2</ele>
        <time>2015-06-24T16:29:39Z</time>
      </trkpt>
      <trkpt lat="44.14922" lon="5.03694">
        <ele>258.1</ele>
        <time>2015-06-24T16:29:48Z</time>
      </trkpt>
      <trkpt lat="44.14916" lon="5.0368">
        <ele>259.7</ele>
        <time>2015-06-24T16:29:59Z</time>
      </trkpt>
      <trkpt lat="44.14907" lon="5.03676">
        <ele>260.7</ele>
        <time>2015-06-24T16:30:06Z</time>
      </trkpt>
      <trkpt lat="44.14904" lon="5.03663">
        <ele>261.8</ele>
        <time>2015-06-24T16:30:15Z</time>
      </trkpt>
      <trkpt lat="44.14901" lon="5.03651">
        <ele>262.7</ele>
        <time>2015-06-24T16:30:23Z</time>
      </trkpt>
      <trkpt lat="44.14895" lon="5.03641">
        <ele>263.6</ele>
        <time>2015-06-24T16:30:33Z</time>
      </trkpt>
      <trkpt lat="44.14894" lon="5.03629">
        <ele>264.1</ele>
        <time>2015-06-24T16:30:43Z</time>
      </trkpt>
      <trkpt lat="44.14889" lon="5.03616">
        <ele>264.3</ele>
        <time>2015-06-24T16:30:52Z</time>
      </trkpt>
      <trkpt lat="44.14882" lon="5.03608">
        <ele>264.1</ele>
        <time>2015-06-24T16:31:00Z</time>
      </trkpt>
      <trkpt lat="44.14873" lon="5.03604">
        <ele>263.9</ele>
        <time>2015-06-24T16:31:10Z</time>
      </trkpt>
      <trkpt lat="44.14863" lon="5.03601">
        <ele>263.7</ele>
        <time>2015-06-24T16:31:19Z</time>
      </trkpt>
      <trkpt lat="44.14853" lon="5.03601">
        <ele>263.7</ele>
        <time>2015-06-24T16:31:27Z</time>
      </trkpt>
      <trkpt lat="44.14844" lon="5.03602">
        <ele>263.8</ele>
        <time>2015-06-24T16:31:33Z</time>
      </trkpt>
      <trkpt lat="44.14835" lon="5.03601">
        <ele>263.9</ele>
        <time>2015-06-24T16:31:39Z</time>
      </trkpt>
      <trkpt lat="44.14828" lon="5.03592">
        <ele>264.4</ele>
        <time>2015-06-24T16:31:46Z</time>
      </trkpt>
      <trkpt lat="44.14819" lon="5.03586">
        <ele>265.3</ele>
        <time>2015-06-24T16:31:58Z</time>
      </trkpt>
      <trkpt lat="44.14812" lon="5.03579">
        <ele>266.1</ele>
        <time>2015-06-24T16:32:05Z</time>
      </trkpt>
      <trkpt lat="44.14803" lon="5.0357">
        <ele>268.9</ele>
        <time>2015-06-24T16:32:19Z</time>
      </trkpt>
      <trkpt lat="44.14793" lon="5.03568">
        <ele>269.9</ele>
        <time>2015-06-24T16:32:24Z</time>
      </trkpt>
      <trkpt lat="44.14783" lon="5.03566">
        <ele>271.3</ele>
        <time>2015-06-24T16:32:31Z</time>
      </trkpt>
      <trkpt lat="44.14774" lon="5.03561">
        <ele>272.4</ele>
        <time>2015-06-24T16:32:39Z</time>
      </trkpt>
      <trkpt lat="44.14766" lon="5.03554">
        <ele>273.1</ele>
        <time>2015-06-24T16:32:47Z</time>
      </trkpt>
      <trkpt lat="44.14763" lon="5.03541">
        <ele>273.4</ele>
        <time>2015-06-24T16:33:01Z</time>
      </trkpt>
      <trkpt lat="44.14763" lon="5.03528">
        <ele>273.9</ele>
        <time>2015-06-24T16:33:10Z</time>
      </trkpt>
      <trkpt lat="44.14768" lon="5.03518">
        <ele>273.9</ele>
        <time>2015-06-24T16:33:25Z</time>
      </trkpt>
      <trkpt lat="44.14759" lon="5.03512">
        <ele>272.3</ele>
        <time>2015-06-24T16:33:50Z</time>
      </trkpt>
      <trkpt lat="44.14756" lon="5.03497">
        <ele>268.7</ele>
        <time>2015-06-24T16:34:21Z</time>
      </trkpt>
      <trkpt lat="44.14765" lon="5.03497">
        <ele>267.1</ele>
        <time>2015-06-24T16:34:30Z</time>
      </trkpt>
      <trkpt lat="44.14775" lon="5.03503">
        <ele>266.4</ele>
        <time>2015-06-24T16:34:36Z</time>
      </trkpt>
      <trkpt lat="44.14784" lon="5.03504">
        <ele>265.6</ele>
        <time>2015-06-24T16:34:42Z</time>
      </trkpt>
      <trkpt lat="44.14777" lon="5.03491">
        <ele>265.5</ele>
        <time>2015-06-24T16:34:43Z</time>
      </trkpt>
      <trkpt lat="44.14786" lon="5.03498">
        <ele>265</ele>
        <time>2015-06-24T16:34:48Z</time>
      </trkpt>
      <trkpt lat="44.14794" lon="5.03508">
        <ele>264.8</ele>
        <time>2015-06-24T16:34:51Z</time>
      </trkpt>
      <trkpt lat="44.14803" lon="5.0351">
        <ele>264.4</ele>
        <time>2015-06-24T16:34:56Z</time>
      </trkpt>
      <trkpt lat="44.14797" lon="5.03497">
        <ele>264.2</ele>
        <time>2015-06-24T16:34:58Z</time>
      </trkpt>
      <trkpt lat="44.14808" lon="5.03498">
        <ele>263.8</ele>
        <time>2015-06-24T16:35:05Z</time>
      </trkpt>
      <trkpt lat="44.14817" lon="5.03505">
        <ele>263.5</ele>
        <time>2015-06-24T16:35:10Z</time>
      </trkpt>
      <trkpt lat="44.14827" lon="5.03514">
        <ele>263.2</ele>
        <time>2015-06-24T16:35:14Z</time>
      </trkpt>
      <trkpt lat="44.14827" lon="5.03501">
        <ele>259.9</ele>
        <time>2015-06-24T16:35:29Z</time>
      </trkpt>
      <trkpt lat="44.14834" lon="5.03509">
        <ele>258.7</ele>
        <time>2015-06-24T16:35:34Z</time>
      </trkpt>
      <trkpt lat="44.1484" lon="5.03519">
        <ele>258</ele>
        <time>2015-06-24T16:35:38Z</time>
      </trkpt>
      <trkpt lat="44.1485" lon="5.03521">
        <ele>256.8</ele>
        <time>2015-06-24T16:35:46Z</time>
      </trkpt>
      <trkpt lat="44.14859" lon="5.03525">
        <ele>255.6</ele>
        <time>2015-06-24T16:35:53Z</time>
      </trkpt>
      <trkpt lat="44.14863" lon="5.03508">
        <ele>255.1</ele>
        <time>2015-06-24T16:36:00Z</time>
      </trkpt>
      <trkpt lat="44.14874" lon="5.03507">
        <ele>255.3</ele>
        <time>2015-06-24T16:36:04Z</time>
      </trkpt>
      <trkpt lat="44.14885" lon="5.03506">
        <ele>256.7</ele>
        <time>2015-06-24T16:36:13Z</time>
      </trkpt>
      <trkpt lat="44.14875" lon="5.03502">
        <ele>263.5</ele>
        <time>2015-06-24T16:39:31Z</time>
      </trkpt>
      <trkpt lat="44.14867" lon="5.03493">
        <ele>263.2</ele>
        <time>2015-06-24T16:39:36Z</time>
      </trkpt>
      <trkpt lat="44.14859" lon="5.03484">
        <ele>262.9</ele>
        <time>2015-06-24T16:39:39Z</time>
      </trkpt>
      <trkpt lat="44.14851" lon="5.03474">
        <ele>262.7</ele>
        <time>2015-06-24T16:39:43Z</time>
      </trkpt>
      <trkpt lat="44.14843" lon="5.03464">
        <ele>262.5</ele>
        <time>2015-06-24T16:39:46Z</time>
      </trkpt>
      <trkpt lat="44.14834" lon="5.03454">
        <ele>262.2</ele>
        <time>2015-06-24T16:39:50Z</time>
      </trkpt>
      <trkpt lat="44.14826" lon="5.03444">
        <ele>262</ele>
        <time>2015-06-24T16:39:54Z</time>
      </trkpt>
      <trkpt lat="44.1482" lon="5.03434">
        <ele>261.8</ele>
        <time>2015-06-24T16:39:58Z</time>
      </trkpt>
      <trkpt lat="44.14812" lon="5.03425">
        <ele>261.7</ele>
        <time>2015-06-24T16:40:02Z</time>
      </trkpt>
      <trkpt lat="44.14802" lon="5.03418">
        <ele>261.7</ele>
        <time>2015-06-24T16:40:07Z</time>
      </trkpt>
      <trkpt lat="44.14795" lon="5.03409">
        <ele>261.7</ele>
        <time>2015-06-24T16:40:10Z</time>
      </trkpt>
      <trkpt lat="44.14788" lon="5.03397">
        <ele>261</ele>
        <time>2015-06-24T16:40:14Z</time>
      </trkpt>
      <trkpt lat="44.14779" lon="5.03382">
        <ele>260.7</ele>
        <time>2015-06-24T16:40:17Z</time>
      </trkpt>
      <trkpt lat="44.14767" lon="5.03362">
        <ele>260.6</ele>
        <time>2015-06-24T16:40:19Z</time>
      </trkpt>
      <trkpt lat="44.14761" lon="5.03353">
        <ele>260.6</ele>
        <time>2015-06-24T16:40:20Z</time>
      </trkpt>
      <trkpt lat="44.14709" lon="5.03264">
        <ele>260</ele>
        <time>2015-06-24T16:40:25Z</time>
      </trkpt>
      <trkpt lat="44.14692" lon="5.03239">
        <ele>260</ele>
        <time>2015-06-24T16:40:30Z</time>
      </trkpt>
      <trkpt lat="44.14684" lon="5.0323">
        <ele>260.3</ele>
        <time>2015-06-24T16:40:34Z</time>
      </trkpt>
      <trkpt lat="44.14676" lon="5.03222">
        <ele>260.6</ele>
        <time>2015-06-24T16:40:42Z</time>
      </trkpt>
      <trkpt lat="44.14667" lon="5.03215">
        <ele>260.9</ele>
        <time>2015-06-24T16:40:59Z</time>
      </trkpt>
      <trkpt lat="44.14661" lon="5.03205">
        <ele>260.9</ele>
        <time>2015-06-24T16:41:04Z</time>
      </trkpt>
      <trkpt lat="44.14654" lon="5.03196">
        <ele>260.9</ele>
        <time>2015-06-24T16:41:09Z</time>
      </trkpt>
      <trkpt lat="44.14647" lon="5.03187">
        <ele>260.9</ele>
        <time>2015-06-24T16:41:15Z</time>
      </trkpt>
      <trkpt lat="44.14641" lon="5.03177">
        <ele>260.7</ele>
        <time>2015-06-24T16:41:22Z</time>
      </trkpt>
      <trkpt lat="44.14634" lon="5.03168">
        <ele>260.5</ele>
        <time>2015-06-24T16:41:28Z</time>
      </trkpt>
      <trkpt lat="44.14625" lon="5.03162">
        <ele>260.3</ele>
        <time>2015-06-24T16:41:33Z</time>
      </trkpt>
      <trkpt lat="44.14621" lon="5.0315">
        <ele>260.4</ele>
        <time>2015-06-24T16:41:42Z</time>
      </trkpt>
      <trkpt lat="44.14622" lon="5.03136">
        <ele>260.7</ele>
        <time>2015-06-24T16:41:49Z</time>
      </trkpt>
      <trkpt lat="44.14625" lon="5.03123">
        <ele>260.5</ele>
        <time>2015-06-24T16:41:56Z</time>
      </trkpt>
      <trkpt lat="44.14627" lon="5.0311">
        <ele>260.2</ele>
        <time>2015-06-24T16:42:00Z</time>
      </trkpt>
      <trkpt lat="44.1462" lon="5.03098">
        <ele>259.6</ele>
        <time>2015-06-24T16:42:06Z</time>
      </trkpt>
      <trkpt lat="44.14613" lon="5.03089">
        <ele>258.6</ele>
        <time>2015-06-24T16:42:13Z</time>
      </trkpt>
      <trkpt lat="44.14609" lon="5.03077">
        <ele>257.9</ele>
        <time>2015-06-24T16:42:19Z</time>
      </trkpt>
      <trkpt lat="44.14604" lon="5.03066">
        <ele>257.8</ele>
        <time>2015-06-24T16:42:27Z</time>
      </trkpt>
      <trkpt lat="44.14597" lon="5.03057">
        <ele>258.5</ele>
        <time>2015-06-24T16:42:37Z</time>
      </trkpt>
      <trkpt lat="44.14594" lon="5.03044">
        <ele>259</ele>
        <time>2015-06-24T16:42:42Z</time>
      </trkpt>
      <trkpt lat="44.1459" lon="5.03032">
        <ele>260.1</ele>
        <time>2015-06-24T16:42:50Z</time>
      </trkpt>
      <trkpt lat="44.14585" lon="5.0302">
        <ele>260.9</ele>
        <time>2015-06-24T16:42:58Z</time>
      </trkpt>
      <trkpt lat="44.14581" lon="5.03006">
        <ele>261.3</ele>
        <time>2015-06-24T16:43:05Z</time>
      </trkpt>
      <trkpt lat="44.14578" lon="5.02994">
        <ele>261.8</ele>
        <time>2015-06-24T16:43:14Z</time>
      </trkpt>
      <trkpt lat="44.14575" lon="5.02981">
        <ele>262.1</ele>
        <time>2015-06-24T16:43:23Z</time>
      </trkpt>
      <trkpt lat="44.14572" lon="5.02967">
        <ele>262.7</ele>
        <time>2015-06-24T16:43:31Z</time>
      </trkpt>
      <trkpt lat="44.14568" lon="5.02954">
        <ele>264.2</ele>
        <time>2015-06-24T16:43:40Z</time>
      </trkpt>
      <trkpt lat="44.14567" lon="5.02941">
        <ele>265.8</ele>
        <time>2015-06-24T16:43:47Z</time>
      </trkpt>
      <trkpt lat="44.14562" lon="5.02928">
        <ele>266.5</ele>
        <time>2015-06-24T16:43:52Z</time>
      </trkpt>
      <trkpt lat="44.14555" lon="5.02919">
        <ele>267.2</ele>
        <time>2015-06-24T16:43:58Z</time>
      </trkpt>
      <trkpt lat="44.14545" lon="5.02917">
        <ele>267.8</ele>
        <time>2015-06-24T16:44:03Z</time>
      </trkpt>
      <trkpt lat="44.14534" lon="5.02915">
        <ele>268.4</ele>
        <time>2015-06-24T16:44:08Z</time>
      </trkpt>
      <trkpt lat="44.14525" lon="5.02913">
        <ele>269</ele>
        <time>2015-06-24T16:44:14Z</time>
      </trkpt>
      <trkpt lat="44.14516" lon="5.0291">
        <ele>269.7</ele>
        <time>2015-06-24T16:44:20Z</time>
      </trkpt>
      <trkpt lat="44.14507" lon="5.02907">
        <ele>270.2</ele>
        <time>2015-06-24T16:44:28Z</time>
      </trkpt>
      <trkpt lat="44.14498" lon="5.02902">
        <ele>270.6</ele>
        <time>2015-06-24T16:44:35Z</time>
      </trkpt>
      <trkpt lat="44.14488" lon="5.02898">
        <ele>270.9</ele>
        <time>2015-06-24T16:44:42Z</time>
      </trkpt>
      <trkpt lat="44.14479" lon="5.02893">
        <ele>270.7</ele>
        <time>2015-06-24T16:44:50Z</time>
      </trkpt>
      <trkpt lat="44.14471" lon="5.02887">
        <ele>270.6</ele>
        <time>2015-06-24T16:44:57Z</time>
      </trkpt>
      <trkpt lat="44.14462" lon="5.02887">
        <ele>270.5</ele>
        <time>2015-06-24T16:45:03Z</time>
      </trkpt>
      <trkpt lat="44.14451" lon="5.02883">
        <ele>270.5</ele>
        <time>2015-06-24T16:45:11Z</time>
      </trkpt>
      <trkpt lat="44.14441" lon="5.02882">
        <ele>270.4</ele>
        <time>2015-06-24T16:45:19Z</time>
      </trkpt>
      <trkpt lat="44.14432" lon="5.02883">
        <ele>270.4</ele>
        <time>2015-06-24T16:45:26Z</time>
      </trkpt>
      <trkpt lat="44.14422" lon="5.02883">
        <ele>270.4</ele>
        <time>2015-06-24T16:45:33Z</time>
      </trkpt>
      <trkpt lat="44.14411" lon="5.02884">
        <ele>270.5</ele>
        <time>2015-06-24T16:45:41Z</time>
      </trkpt>
      <trkpt lat="44.14402" lon="5.02886">
        <ele>270.7</ele>
        <time>2015-06-24T16:45:48Z</time>
      </trkpt>
      <trkpt lat="44.14392" lon="5.02886">
        <ele>271.1</ele>
        <time>2015-06-24T16:45:55Z</time>
      </trkpt>
      <trkpt lat="44.14382" lon="5.02888">
        <ele>271.4</ele>
        <time>2015-06-24T16:46:02Z</time>
      </trkpt>
      <trkpt lat="44.14374" lon="5.02894">
        <ele>271.6</ele>
        <time>2015-06-24T16:46:08Z</time>
      </trkpt>
      <trkpt lat="44.14364" lon="5.02898">
        <ele>272</ele>
        <time>2015-06-24T16:46:14Z</time>
      </trkpt>
      <trkpt lat="44.14355" lon="5.02905">
        <ele>272.3</ele>
        <time>2015-06-24T16:46:21Z</time>
      </trkpt>
      <trkpt lat="44.14346" lon="5.02904">
        <ele>272.8</ele>
        <time>2015-06-24T16:46:29Z</time>
      </trkpt>
      <trkpt lat="44.14336" lon="5.029">
        <ele>273.4</ele>
        <time>2015-06-24T16:46:39Z</time>
      </trkpt>
      <trkpt lat="44.14325" lon="5.02898">
        <ele>273.8</ele>
        <time>2015-06-24T16:46:46Z</time>
      </trkpt>
      <trkpt lat="44.14316" lon="5.02901">
        <ele>274.1</ele>
        <time>2015-06-24T16:46:51Z</time>
      </trkpt>
      <trkpt lat="44.14306" lon="5.02898">
        <ele>274.7</ele>
        <time>2015-06-24T16:47:00Z</time>
      </trkpt>
      <trkpt lat="44.14299" lon="5.02908">
        <ele>275.3</ele>
        <time>2015-06-24T16:47:04Z</time>
      </trkpt>
      <trkpt lat="44.14289" lon="5.0291">
        <ele>276.3</ele>
        <time>2015-06-24T16:47:11Z</time>
      </trkpt>
      <trkpt lat="44.14279" lon="5.02911">
        <ele>277</ele>
        <time>2015-06-24T16:47:18Z</time>
      </trkpt>
      <trkpt lat="44.1427" lon="5.0291">
        <ele>277.6</ele>
        <time>2015-06-24T16:47:24Z</time>
      </trkpt>
      <trkpt lat="44.14261" lon="5.02914">
        <ele>278</ele>
        <time>2015-06-24T16:47:30Z</time>
      </trkpt>
      <trkpt lat="44.14252" lon="5.02913">
        <ele>278.7</ele>
        <time>2015-06-24T16:47:38Z</time>
      </trkpt>
      <trkpt lat="44.14242" lon="5.02912">
        <ele>279.2</ele>
        <time>2015-06-24T16:47:44Z</time>
      </trkpt>
      <trkpt lat="44.14232" lon="5.02914">
        <ele>279.6</ele>
        <time>2015-06-24T16:47:50Z</time>
      </trkpt>
      <trkpt lat="44.14223" lon="5.02911">
        <ele>280.4</ele>
        <time>2015-06-24T16:47:57Z</time>
      </trkpt>
      <trkpt lat="44.14214" lon="5.02915">
        <ele>281.3</ele>
        <time>2015-06-24T16:48:03Z</time>
      </trkpt>
      <trkpt lat="44.14205" lon="5.02911">
        <ele>282.8</ele>
        <time>2015-06-24T16:48:13Z</time>
      </trkpt>
      <trkpt lat="44.14199" lon="5.02899">
        <ele>284.2</ele>
        <time>2015-06-24T16:48:26Z</time>
      </trkpt>
      <trkpt lat="44.1419" lon="5.02893">
        <ele>284.6</ele>
        <time>2015-06-24T16:48:31Z</time>
      </trkpt>
      <trkpt lat="44.14181" lon="5.02886">
        <ele>284.7</ele>
        <time>2015-06-24T16:48:36Z</time>
      </trkpt>
      <trkpt lat="44.14172" lon="5.02884">
        <ele>285</ele>
        <time>2015-06-24T16:48:42Z</time>
      </trkpt>
      <trkpt lat="44.14164" lon="5.02875">
        <ele>285.3</ele>
        <time>2015-06-24T16:48:46Z</time>
      </trkpt>
      <trkpt lat="44.14155" lon="5.02871">
        <ele>286.2</ele>
        <time>2015-06-24T16:48:58Z</time>
      </trkpt>
      <trkpt lat="44.1415" lon="5.02859">
        <ele>286.6</ele>
        <time>2015-06-24T16:49:03Z</time>
      </trkpt>
      <trkpt lat="44.14143" lon="5.02848">
        <ele>287.1</ele>
        <time>2015-06-24T16:49:10Z</time>
      </trkpt>
      <trkpt lat="44.14143" lon="5.02833">
        <ele>287.5</ele>
        <time>2015-06-24T16:49:14Z</time>
      </trkpt>
      <trkpt lat="44.14137" lon="5.02823">
        <ele>287.8</ele>
        <time>2015-06-24T16:49:17Z</time>
      </trkpt>
      <trkpt lat="44.1413" lon="5.02814">
        <ele>288.1</ele>
        <time>2015-06-24T16:49:23Z</time>
      </trkpt>
      <trkpt lat="44.14122" lon="5.02807">
        <ele>288.3</ele>
        <time>2015-06-24T16:49:34Z</time>
      </trkpt>
      <trkpt lat="44.14113" lon="5.02799">
        <ele>288.3</ele>
        <time>2015-06-24T16:49:40Z</time>
      </trkpt>
      <trkpt lat="44.14106" lon="5.0279">
        <ele>288.3</ele>
        <time>2015-06-24T16:49:44Z</time>
      </trkpt>
      <trkpt lat="44.14096" lon="5.02787">
        <ele>288.4</ele>
        <time>2015-06-24T16:49:50Z</time>
      </trkpt>
      <trkpt lat="44.14089" lon="5.02779">
        <ele>288.5</ele>
        <time>2015-06-24T16:50:00Z</time>
      </trkpt>
      <trkpt lat="44.14087" lon="5.02766">
        <ele>288.7</ele>
        <time>2015-06-24T16:50:05Z</time>
      </trkpt>
      <trkpt lat="44.14078" lon="5.02763">
        <ele>288.9</ele>
        <time>2015-06-24T16:50:12Z</time>
      </trkpt>
      <trkpt lat="44.1407" lon="5.02755">
        <ele>289.1</ele>
        <time>2015-06-24T16:50:21Z</time>
      </trkpt>
      <trkpt lat="44.14063" lon="5.02747">
        <ele>289.2</ele>
        <time>2015-06-24T16:50:26Z</time>
      </trkpt>
      <trkpt lat="44.14055" lon="5.02738">
        <ele>289.7</ele>
        <time>2015-06-24T16:50:34Z</time>
      </trkpt>
      <trkpt lat="44.14046" lon="5.02731">
        <ele>290.4</ele>
        <time>2015-06-24T16:50:41Z</time>
      </trkpt>
      <trkpt lat="44.14043" lon="5.02719">
        <ele>284.2</ele>
        <time>2015-06-24T16:54:20Z</time>
      </trkpt>
      <trkpt lat="44.1404" lon="5.02706">
        <ele>283.8</ele>
        <time>2015-06-24T16:54:26Z</time>
      </trkpt>
      <trkpt lat="44.14034" lon="5.02697">
        <ele>283.6</ele>
        <time>2015-06-24T16:54:29Z</time>
      </trkpt>
      <trkpt lat="44.14027" lon="5.02688">
        <ele>283.3</ele>
        <time>2015-06-24T16:54:34Z</time>
      </trkpt>
      <trkpt lat="44.1402" lon="5.02677">
        <ele>283</ele>
        <time>2015-06-24T16:54:42Z</time>
      </trkpt>
      <trkpt lat="44.14011" lon="5.02665">
        <ele>282.9</ele>
        <time>2015-06-24T16:54:45Z</time>
      </trkpt>
      <trkpt lat="44.14005" lon="5.02653">
        <ele>282.9</ele>
        <time>2015-06-24T16:54:50Z</time>
      </trkpt>
      <trkpt lat="44.14" lon="5.02641">
        <ele>282.9</ele>
        <time>2015-06-24T16:54:53Z</time>
      </trkpt>
      <trkpt lat="44.13994" lon="5.02628">
        <ele>282.9</ele>
        <time>2015-06-24T16:54:56Z</time>
      </trkpt>
      <trkpt lat="44.13988" lon="5.02617">
        <ele>282.9</ele>
        <time>2015-06-24T16:55:01Z</time>
      </trkpt>
      <trkpt lat="44.1398" lon="5.02608">
        <ele>282.8</ele>
        <time>2015-06-24T16:55:07Z</time>
      </trkpt>
      <trkpt lat="44.13973" lon="5.02598">
        <ele>282.8</ele>
        <time>2015-06-24T16:55:10Z</time>
      </trkpt>
      <trkpt lat="44.13967" lon="5.02588">
        <ele>282.7</ele>
        <time>2015-06-24T16:55:15Z</time>
      </trkpt>
      <trkpt lat="44.13961" lon="5.02578">
        <ele>282.5</ele>
        <time>2015-06-24T16:55:20Z</time>
      </trkpt>
      <trkpt lat="44.13954" lon="5.02569">
        <ele>282.2</ele>
        <time>2015-06-24T16:55:28Z</time>
      </trkpt>
      <trkpt lat="44.13947" lon="5.0256">
        <ele>281.9</ele>
        <time>2015-06-24T16:55:34Z</time>
      </trkpt>
      <trkpt lat="44.13938" lon="5.02548">
        <ele>281.7</ele>
        <time>2015-06-24T16:55:42Z</time>
      </trkpt>
      <trkpt lat="44.13932" lon="5.02539">
        <ele>281.6</ele>
        <time>2015-06-24T16:55:48Z</time>
      </trkpt>
      <trkpt lat="44.13924" lon="5.02529">
        <ele>281.6</ele>
        <time>2015-06-24T16:55:52Z</time>
      </trkpt>
      <trkpt lat="44.13916" lon="5.02519">
        <ele>281.5</ele>
        <time>2015-06-24T16:55:57Z</time>
      </trkpt>
      <trkpt lat="44.13908" lon="5.02508">
        <ele>281.4</ele>
        <time>2015-06-24T16:56:00Z</time>
      </trkpt>
      <trkpt lat="44.139" lon="5.02501">
        <ele>281.3</ele>
        <time>2015-06-24T16:56:06Z</time>
      </trkpt>
      <trkpt lat="44.13892" lon="5.0249">
        <ele>281.2</ele>
        <time>2015-06-24T16:56:12Z</time>
      </trkpt>
      <trkpt lat="44.13886" lon="5.02482">
        <ele>281</ele>
        <time>2015-06-24T16:56:19Z</time>
      </trkpt>
      <trkpt lat="44.13878" lon="5.02472">
        <ele>281</ele>
        <time>2015-06-24T16:56:22Z</time>
      </trkpt>
      <trkpt lat="44.13872" lon="5.02463">
        <ele>281</ele>
        <time>2015-06-24T16:56:26Z</time>
      </trkpt>
      <trkpt lat="44.13864" lon="5.02454">
        <ele>280.9</ele>
        <time>2015-06-24T16:56:30Z</time>
      </trkpt>
      <trkpt lat="44.13856" lon="5.02445">
        <ele>280.5</ele>
        <time>2015-06-24T16:56:40Z</time>
      </trkpt>
      <trkpt lat="44.13848" lon="5.02437">
        <ele>280.3</ele>
        <time>2015-06-24T16:56:47Z</time>
      </trkpt>
      <trkpt lat="44.1384" lon="5.02429">
        <ele>280.2</ele>
        <time>2015-06-24T16:56:51Z</time>
      </trkpt>
      <trkpt lat="44.13831" lon="5.02423">
        <ele>279.8</ele>
        <time>2015-06-24T16:57:01Z</time>
      </trkpt>
      <trkpt lat="44.13824" lon="5.02413">
        <ele>279.4</ele>
        <time>2015-06-24T16:57:10Z</time>
      </trkpt>
      <trkpt lat="44.13819" lon="5.02402">
        <ele>278.7</ele>
        <time>2015-06-24T16:57:18Z</time>
      </trkpt>
      <trkpt lat="44.13787" lon="5.02336">
        <ele>277</ele>
        <time>2015-06-24T16:57:25Z</time>
      </trkpt>
      <trkpt lat="44.13782" lon="5.02326">
        <ele>277.7</ele>
        <time>2015-06-24T16:57:30Z</time>
      </trkpt>
      <trkpt lat="44.13763" lon="5.02294">
        <ele>278</ele>
        <time>2015-06-24T16:59:18Z</time>
      </trkpt>
      <trkpt lat="44.13755" lon="5.02287">
        <ele>279.2</ele>
        <time>2015-06-24T17:00:03Z</time>
      </trkpt>
      <trkpt lat="44.13747" lon="5.02279">
        <ele>279.2</ele>
        <time>2015-06-24T17:00:07Z</time>
      </trkpt>
      <trkpt lat="44.13736" lon="5.02256">
        <ele>278</ele>
        <time>2015-06-24T17:01:37Z</time>
      </trkpt>
      <trkpt lat="44.13724" lon="5.02232">
        <ele>278</ele>
        <time>2015-06-24T17:02:29Z</time>
      </trkpt>
      <trkpt lat="44.13716" lon="5.02226">
        <ele>278</ele>
        <time>2015-06-24T17:02:36Z</time>
      </trkpt>
      <trkpt lat="44.13707" lon="5.02233">
        <ele>277.8</ele>
        <time>2015-06-24T17:02:43Z</time>
      </trkpt>
      <trkpt lat="44.13698" lon="5.02238">
        <ele>277.4</ele>
        <time>2015-06-24T17:02:50Z</time>
      </trkpt>
      <trkpt lat="44.13689" lon="5.02244">
        <ele>277.1</ele>
        <time>2015-06-24T17:02:57Z</time>
      </trkpt>
      <trkpt lat="44.13678" lon="5.0225">
        <ele>276.8</ele>
        <time>2015-06-24T17:03:03Z</time>
      </trkpt>
      <trkpt lat="44.13668" lon="5.02251">
        <ele>276.7</ele>
        <time>2015-06-24T17:03:07Z</time>
      </trkpt>
      <trkpt lat="44.13662" lon="5.02261">
        <ele>276.5</ele>
        <time>2015-06-24T17:03:12Z</time>
      </trkpt>
      <trkpt lat="44.13654" lon="5.02267">
        <ele>276</ele>
        <time>2015-06-24T17:03:19Z</time>
      </trkpt>
      <trkpt lat="44.13646" lon="5.02275">
        <ele>275.6</ele>
        <time>2015-06-24T17:03:26Z</time>
      </trkpt>
      <trkpt lat="44.13636" lon="5.02277">
        <ele>275.2</ele>
        <time>2015-06-24T17:03:33Z</time>
      </trkpt>
      <trkpt lat="44.13627" lon="5.02282">
        <ele>274.8</ele>
        <time>2015-06-24T17:03:39Z</time>
      </trkpt>
      <trkpt lat="44.1362" lon="5.02291">
        <ele>274.6</ele>
        <time>2015-06-24T17:03:46Z</time>
      </trkpt>
      <trkpt lat="44.13611" lon="5.02297">
        <ele>274.3</ele>
        <time>2015-06-24T17:03:52Z</time>
      </trkpt>
      <trkpt lat="44.13604" lon="5.02305">
        <ele>274</ele>
        <time>2015-06-24T17:03:59Z</time>
      </trkpt>
      <trkpt lat="44.13596" lon="5.02313">
        <ele>273.8</ele>
        <time>2015-06-24T17:04:06Z</time>
      </trkpt>
      <trkpt lat="44.13589" lon="5.02322">
        <ele>273.6</ele>
        <time>2015-06-24T17:04:13Z</time>
      </trkpt>
      <trkpt lat="44.13583" lon="5.02333">
        <ele>273.5</ele>
        <time>2015-06-24T17:04:20Z</time>
      </trkpt>
      <trkpt lat="44.13576" lon="5.02341">
        <ele>273.4</ele>
        <time>2015-06-24T17:04:26Z</time>
      </trkpt>
      <trkpt lat="44.13569" lon="5.02351">
        <ele>273.4</ele>
        <time>2015-06-24T17:04:34Z</time>
      </trkpt>
      <trkpt lat="44.13562" lon="5.0236">
        <ele>273.2</ele>
        <time>2015-06-24T17:04:42Z</time>
      </trkpt>
      <trkpt lat="44.13555" lon="5.02368">
        <ele>272.6</ele>
        <time>2015-06-24T17:04:52Z</time>
      </trkpt>
      <trkpt lat="44.13545" lon="5.02371">
        <ele>271.7</ele>
        <time>2015-06-24T17:05:01Z</time>
      </trkpt>
      <trkpt lat="44.13536" lon="5.02375">
        <ele>270.5</ele>
        <time>2015-06-24T17:05:12Z</time>
      </trkpt>
      <trkpt lat="44.13526" lon="5.02378">
        <ele>269.2</ele>
        <time>2015-06-24T17:05:22Z</time>
      </trkpt>
      <trkpt lat="44.13517" lon="5.02385">
        <ele>268.4</ele>
        <time>2015-06-24T17:05:28Z</time>
      </trkpt>
      <trkpt lat="44.13508" lon="5.0239">
        <ele>267.2</ele>
        <time>2015-06-24T17:05:35Z</time>
      </trkpt>
      <trkpt lat="44.13498" lon="5.0239">
        <ele>266.5</ele>
        <time>2015-06-24T17:05:40Z</time>
      </trkpt>
      <trkpt lat="44.13489" lon="5.02397">
        <ele>265.9</ele>
        <time>2015-06-24T17:05:45Z</time>
      </trkpt>
      <trkpt lat="44.13482" lon="5.02404">
        <ele>265.3</ele>
        <time>2015-06-24T17:05:50Z</time>
      </trkpt>
      <trkpt lat="44.13474" lon="5.02412">
        <ele>264.5</ele>
        <time>2015-06-24T17:05:57Z</time>
      </trkpt>
      <trkpt lat="44.13464" lon="5.02418">
        <ele>264</ele>
        <time>2015-06-24T17:06:04Z</time>
      </trkpt>
      <trkpt lat="44.13456" lon="5.02422">
        <ele>263.7</ele>
        <time>2015-06-24T17:06:09Z</time>
      </trkpt>
      <trkpt lat="44.13446" lon="5.02424">
        <ele>263.3</ele>
        <time>2015-06-24T17:06:16Z</time>
      </trkpt>
      <trkpt lat="44.13436" lon="5.02424">
        <ele>263.1</ele>
        <time>2015-06-24T17:06:23Z</time>
      </trkpt>
      <trkpt lat="44.13427" lon="5.02425">
        <ele>262.7</ele>
        <time>2015-06-24T17:06:30Z</time>
      </trkpt>
      <trkpt lat="44.13419" lon="5.02431">
        <ele>262.2</ele>
        <time>2015-06-24T17:06:42Z</time>
      </trkpt>
      <trkpt lat="44.13412" lon="5.02442">
        <ele>262</ele>
        <time>2015-06-24T17:06:47Z</time>
      </trkpt>
      <trkpt lat="44.13404" lon="5.02451">
        <ele>261.9</ele>
        <time>2015-06-24T17:06:52Z</time>
      </trkpt>
      <trkpt lat="44.13396" lon="5.02458">
        <ele>261.7</ele>
        <time>2015-06-24T17:06:58Z</time>
      </trkpt>
      <trkpt lat="44.13387" lon="5.02463">
        <ele>261.5</ele>
        <time>2015-06-24T17:07:05Z</time>
      </trkpt>
      <trkpt lat="44.13378" lon="5.02469">
        <ele>260.7</ele>
        <time>2015-06-24T17:07:12Z</time>
      </trkpt>
      <trkpt lat="44.13369" lon="5.02473">
        <ele>260.2</ele>
        <time>2015-06-24T17:07:18Z</time>
      </trkpt>
      <trkpt lat="44.1336" lon="5.02478">
        <ele>259.9</ele>
        <time>2015-06-24T17:07:24Z</time>
      </trkpt>
      <trkpt lat="44.13351" lon="5.02483">
        <ele>259.7</ele>
        <time>2015-06-24T17:07:31Z</time>
      </trkpt>
      <trkpt lat="44.13343" lon="5.02491">
        <ele>259.5</ele>
        <time>2015-06-24T17:07:39Z</time>
      </trkpt>
      <trkpt lat="44.13337" lon="5.025">
        <ele>259.4</ele>
        <time>2015-06-24T17:07:46Z</time>
      </trkpt>
      <trkpt lat="44.13331" lon="5.0251">
        <ele>259.4</ele>
        <time>2015-06-24T17:07:53Z</time>
      </trkpt>
      <trkpt lat="44.13326" lon="5.02521">
        <ele>259.3</ele>
        <time>2015-06-24T17:07:59Z</time>
      </trkpt>
      <trkpt lat="44.1332" lon="5.02531">
        <ele>259</ele>
        <time>2015-06-24T17:08:05Z</time>
      </trkpt>
      <trkpt lat="44.13312" lon="5.02536">
        <ele>258.6</ele>
        <time>2015-06-24T17:08:12Z</time>
      </trkpt>
      <trkpt lat="44.13306" lon="5.02546">
        <ele>258.5</ele>
        <time>2015-06-24T17:08:17Z</time>
      </trkpt>
      <trkpt lat="44.13297" lon="5.02549">
        <ele>258.4</ele>
        <time>2015-06-24T17:08:24Z</time>
      </trkpt>
      <trkpt lat="44.13288" lon="5.02549">
        <ele>258.4</ele>
        <time>2015-06-24T17:08:31Z</time>
      </trkpt>
      <trkpt lat="44.13278" lon="5.02547">
        <ele>258.4</ele>
        <time>2015-06-24T17:08:38Z</time>
      </trkpt>
      <trkpt lat="44.13268" lon="5.02552">
        <ele>258.4</ele>
        <time>2015-06-24T17:08:45Z</time>
      </trkpt>
      <trkpt lat="44.13259" lon="5.0255">
        <ele>258.4</ele>
        <time>2015-06-24T17:08:50Z</time>
      </trkpt>
      <trkpt lat="44.13249" lon="5.02553">
        <ele>258.4</ele>
        <time>2015-06-24T17:08:57Z</time>
      </trkpt>
      <trkpt lat="44.1324" lon="5.0256">
        <ele>258.5</ele>
        <time>2015-06-24T17:09:04Z</time>
      </trkpt>
      <trkpt lat="44.13231" lon="5.02564">
        <ele>258.7</ele>
        <time>2015-06-24T17:09:11Z</time>
      </trkpt>
      <trkpt lat="44.13221" lon="5.02568">
        <ele>259</ele>
        <time>2015-06-24T17:09:20Z</time>
      </trkpt>
      <trkpt lat="44.13213" lon="5.02575">
        <ele>259.2</ele>
        <time>2015-06-24T17:09:26Z</time>
      </trkpt>
      <trkpt lat="44.13205" lon="5.02583">
        <ele>259.3</ele>
        <time>2015-06-24T17:09:32Z</time>
      </trkpt>
      <trkpt lat="44.13197" lon="5.02589">
        <ele>259.5</ele>
        <time>2015-06-24T17:09:38Z</time>
      </trkpt>
      <trkpt lat="44.13189" lon="5.02596">
        <ele>259.6</ele>
        <time>2015-06-24T17:09:44Z</time>
      </trkpt>
      <trkpt lat="44.13182" lon="5.02605">
        <ele>259.8</ele>
        <time>2015-06-24T17:09:50Z</time>
      </trkpt>
      <trkpt lat="44.13173" lon="5.02614">
        <ele>259.9</ele>
        <time>2015-06-24T17:09:57Z</time>
      </trkpt>
      <trkpt lat="44.13166" lon="5.02624">
        <ele>259.9</ele>
        <time>2015-06-24T17:10:03Z</time>
      </trkpt>
      <trkpt lat="44.1316" lon="5.02634">
        <ele>260</ele>
        <time>2015-06-24T17:10:10Z</time>
      </trkpt>
      <trkpt lat="44.13152" lon="5.02642">
        <ele>260</ele>
        <time>2015-06-24T17:10:16Z</time>
      </trkpt>
      <trkpt lat="44.13143" lon="5.02648">
        <ele>260.2</ele>
        <time>2015-06-24T17:10:23Z</time>
      </trkpt>
      <trkpt lat="44.13136" lon="5.02656">
        <ele>260.5</ele>
        <time>2015-06-24T17:10:30Z</time>
      </trkpt>
      <trkpt lat="44.13128" lon="5.02665">
        <ele>261.1</ele>
        <time>2015-06-24T17:10:39Z</time>
      </trkpt>
      <trkpt lat="44.13119" lon="5.02667">
        <ele>261.8</ele>
        <time>2015-06-24T17:10:46Z</time>
      </trkpt>
      <trkpt lat="44.1311" lon="5.02672">
        <ele>262.4</ele>
        <time>2015-06-24T17:10:52Z</time>
      </trkpt>
      <trkpt lat="44.13102" lon="5.02679">
        <ele>263.1</ele>
        <time>2015-06-24T17:10:59Z</time>
      </trkpt>
      <trkpt lat="44.13095" lon="5.02687">
        <ele>264</ele>
        <time>2015-06-24T17:11:06Z</time>
      </trkpt>
      <trkpt lat="44.13087" lon="5.02695">
        <ele>265.1</ele>
        <time>2015-06-24T17:11:14Z</time>
      </trkpt>
      <trkpt lat="44.13079" lon="5.02703">
        <ele>265.8</ele>
        <time>2015-06-24T17:11:20Z</time>
      </trkpt>
      <trkpt lat="44.1307" lon="5.02709">
        <ele>266.6</ele>
        <time>2015-06-24T17:11:26Z</time>
      </trkpt>
      <trkpt lat="44.13062" lon="5.02717">
        <ele>267.5</ele>
        <time>2015-06-24T17:11:33Z</time>
      </trkpt>
      <trkpt lat="44.13055" lon="5.02725">
        <ele>268.2</ele>
        <time>2015-06-24T17:11:40Z</time>
      </trkpt>
      <trkpt lat="44.13045" lon="5.02727">
        <ele>268.5</ele>
        <time>2015-06-24T17:11:50Z</time>
      </trkpt>
      <trkpt lat="44.13036" lon="5.02723">
        <ele>268.2</ele>
        <time>2015-06-24T17:11:59Z</time>
      </trkpt>
      <trkpt lat="44.13028" lon="5.02716">
        <ele>268.1</ele>
        <time>2015-06-24T17:12:10Z</time>
      </trkpt>
      <trkpt lat="44.13019" lon="5.0271">
        <ele>268</ele>
        <time>2015-06-24T17:12:17Z</time>
      </trkpt>
      <trkpt lat="44.1301" lon="5.02704">
        <ele>267.8</ele>
        <time>2015-06-24T17:12:22Z</time>
      </trkpt>
      <trkpt lat="44.13002" lon="5.02701">
        <ele>267.6</ele>
        <time>2015-06-24T17:12:28Z</time>
      </trkpt>
      <trkpt lat="44.12991" lon="5.027">
        <ele>267</ele>
        <time>2015-06-24T17:12:36Z</time>
      </trkpt>
      <trkpt lat="44.12982" lon="5.02699">
        <ele>266.2</ele>
        <time>2015-06-24T17:12:44Z</time>
      </trkpt>
      <trkpt lat="44.12972" lon="5.027">
        <ele>265.3</ele>
        <time>2015-06-24T17:12:54Z</time>
      </trkpt>
      <trkpt lat="44.12963" lon="5.02696">
        <ele>264.9</ele>
        <time>2015-06-24T17:13:00Z</time>
      </trkpt>
      <trkpt lat="44.12953" lon="5.02698">
        <ele>264.1</ele>
        <time>2015-06-24T17:13:10Z</time>
      </trkpt>
      <trkpt lat="44.12945" lon="5.0269">
        <ele>263.8</ele>
        <time>2015-06-24T17:13:16Z</time>
      </trkpt>
      <trkpt lat="44.12943" lon="5.02677">
        <ele>263.4</ele>
        <time>2015-06-24T17:13:23Z</time>
      </trkpt>
      <trkpt lat="44.12941" lon="5.02664">
        <ele>262.6</ele>
        <time>2015-06-24T17:13:32Z</time>
      </trkpt>
      <trkpt lat="44.12941" lon="5.02651">
        <ele>262.2</ele>
        <time>2015-06-24T17:13:38Z</time>
      </trkpt>
      <trkpt lat="44.12939" lon="5.02637">
        <ele>261.9</ele>
        <time>2015-06-24T17:13:44Z</time>
      </trkpt>
      <trkpt lat="44.12929" lon="5.0264">
        <ele>261.7</ele>
        <time>2015-06-24T17:14:02Z</time>
      </trkpt>
      <trkpt lat="44.12926" lon="5.02652">
        <ele>261.6</ele>
        <time>2015-06-24T17:14:09Z</time>
      </trkpt>
      <trkpt lat="44.12927" lon="5.02665">
        <ele>261.1</ele>
        <time>2015-06-24T17:14:17Z</time>
      </trkpt>
      <trkpt lat="44.12927" lon="5.02677">
        <ele>260.6</ele>
        <time>2015-06-24T17:14:22Z</time>
      </trkpt>
      <trkpt lat="44.12926" lon="5.0269">
        <ele>259.8</ele>
        <time>2015-06-24T17:14:30Z</time>
      </trkpt>
      <trkpt lat="44.12923" lon="5.02704">
        <ele>258.5</ele>
        <time>2015-06-24T17:14:38Z</time>
      </trkpt>
      <trkpt lat="44.12914" lon="5.02705">
        <ele>256.4</ele>
        <time>2015-06-24T17:14:53Z</time>
      </trkpt>
      <trkpt lat="44.12905" lon="5.02698">
        <ele>255.6</ele>
        <time>2015-06-24T17:14:58Z</time>
      </trkpt>
      <trkpt lat="44.12895" lon="5.027">
        <ele>254.4</ele>
        <time>2015-06-24T17:15:05Z</time>
      </trkpt>
      <trkpt lat="44.12885" lon="5.02702">
        <ele>253.2</ele>
        <time>2015-06-24T17:15:12Z</time>
      </trkpt>
      <trkpt lat="44.12876" lon="5.02699">
        <ele>252.1</ele>
        <time>2015-06-24T17:15:18Z</time>
      </trkpt>
      <trkpt lat="44.12865" lon="5.02697">
        <ele>250.8</ele>
        <time>2015-06-24T17:15:24Z</time>
      </trkpt>
      <trkpt lat="44.12856" lon="5.02694">
        <ele>249.3</ele>
        <time>2015-06-24T17:15:31Z</time>
      </trkpt>
      <trkpt lat="44.12846" lon="5.02691">
        <ele>248.3</ele>
        <time>2015-06-24T17:15:37Z</time>
      </trkpt>
      <trkpt lat="44.12837" lon="5.02687">
        <ele>247.5</ele>
        <time>2015-06-24T17:15:43Z</time>
      </trkpt>
      <trkpt lat="44.12827" lon="5.02684">
        <ele>246.8</ele>
        <time>2015-06-24T17:15:49Z</time>
      </trkpt>
      <trkpt lat="44.12818" lon="5.02687">
        <ele>246.2</ele>
        <time>2015-06-24T17:15:56Z</time>
      </trkpt>
      <trkpt lat="44.12807" lon="5.02687">
        <ele>245.9</ele>
        <time>2015-06-24T17:16:01Z</time>
      </trkpt>
      <trkpt lat="44.12798" lon="5.02688">
        <ele>245.6</ele>
        <time>2015-06-24T17:16:07Z</time>
      </trkpt>
      <trkpt lat="44.12788" lon="5.02691">
        <ele>245.4</ele>
        <time>2015-06-24T17:16:14Z</time>
      </trkpt>
      <trkpt lat="44.12778" lon="5.02692">
        <ele>245.3</ele>
        <time>2015-06-24T17:16:19Z</time>
      </trkpt>
      <trkpt lat="44.1277" lon="5.027">
        <ele>245.5</ele>
        <time>2015-06-24T17:16:25Z</time>
      </trkpt>
      <trkpt lat="44.12762" lon="5.02709">
        <ele>245.9</ele>
        <time>2015-06-24T17:16:32Z</time>
      </trkpt>
      <trkpt lat="44.12757" lon="5.0272">
        <ele>246.3</ele>
        <time>2015-06-24T17:16:38Z</time>
      </trkpt>
      <trkpt lat="44.12749" lon="5.02727">
        <ele>246.8</ele>
        <time>2015-06-24T17:16:46Z</time>
      </trkpt>
      <trkpt lat="44.12742" lon="5.02739">
        <ele>247.6</ele>
        <time>2015-06-24T17:16:58Z</time>
      </trkpt>
      <trkpt lat="44.12735" lon="5.02749">
        <ele>247.8</ele>
        <time>2015-06-24T17:17:03Z</time>
      </trkpt>
      <trkpt lat="44.12729" lon="5.02759">
        <ele>248.1</ele>
        <time>2015-06-24T17:17:09Z</time>
      </trkpt>
      <trkpt lat="44.12723" lon="5.02769">
        <ele>248.6</ele>
        <time>2015-06-24T17:17:18Z</time>
      </trkpt>
      <trkpt lat="44.12716" lon="5.02778">
        <ele>250.2</ele>
        <time>2015-06-24T17:17:26Z</time>
      </trkpt>
      <trkpt lat="44.12708" lon="5.02787">
        <ele>251</ele>
        <time>2015-06-24T17:17:32Z</time>
      </trkpt>
      <trkpt lat="44.12703" lon="5.02798">
        <ele>251.9</ele>
        <time>2015-06-24T17:17:38Z</time>
      </trkpt>
      <trkpt lat="44.12701" lon="5.0281">
        <ele>253.2</ele>
        <time>2015-06-24T17:17:46Z</time>
      </trkpt>
      <trkpt lat="44.12697" lon="5.02822">
        <ele>254.6</ele>
        <time>2015-06-24T17:17:56Z</time>
      </trkpt>
      <trkpt lat="44.12696" lon="5.02836">
        <ele>255.6</ele>
        <time>2015-06-24T17:18:06Z</time>
      </trkpt>
      <trkpt lat="44.12693" lon="5.02849">
        <ele>256</ele>
        <time>2015-06-24T17:18:12Z</time>
      </trkpt>
      <trkpt lat="44.12691" lon="5.02863">
        <ele>256.2</ele>
        <time>2015-06-24T17:18:15Z</time>
      </trkpt>
      <trkpt lat="44.1269" lon="5.02876">
        <ele>256.4</ele>
        <time>2015-06-24T17:18:21Z</time>
      </trkpt>
      <trkpt lat="44.12687" lon="5.02888">
        <ele>256.8</ele>
        <time>2015-06-24T17:18:29Z</time>
      </trkpt>
      <trkpt lat="44.12684" lon="5.02901">
        <ele>257.1</ele>
        <time>2015-06-24T17:18:37Z</time>
      </trkpt>
      <trkpt lat="44.12682" lon="5.02914">
        <ele>257.1</ele>
        <time>2015-06-24T17:18:46Z</time>
      </trkpt>
      <trkpt lat="44.12681" lon="5.02927">
        <ele>256.9</ele>
        <time>2015-06-24T17:18:54Z</time>
      </trkpt>
      <trkpt lat="44.12678" lon="5.0294">
        <ele>256.7</ele>
        <time>2015-06-24T17:19:01Z</time>
      </trkpt>
      <trkpt lat="44.12674" lon="5.02955">
        <ele>256.6</ele>
        <time>2015-06-24T17:19:06Z</time>
      </trkpt>
      <trkpt lat="44.12672" lon="5.02969">
        <ele>256.4</ele>
        <time>2015-06-24T17:19:17Z</time>
      </trkpt>
      <trkpt lat="44.12672" lon="5.02981">
        <ele>255.8</ele>
        <time>2015-06-24T17:19:29Z</time>
      </trkpt>
      <trkpt lat="44.12672" lon="5.02994">
        <ele>254.2</ele>
        <time>2015-06-24T17:19:38Z</time>
      </trkpt>
      <trkpt lat="44.12673" lon="5.03008">
        <ele>253.4</ele>
        <time>2015-06-24T17:19:47Z</time>
      </trkpt>
      <trkpt lat="44.12671" lon="5.03023">
        <ele>253</ele>
        <time>2015-06-24T17:19:53Z</time>
      </trkpt>
      <trkpt lat="44.12668" lon="5.03035">
        <ele>252.1</ele>
        <time>2015-06-24T17:20:04Z</time>
      </trkpt>
      <trkpt lat="44.12666" lon="5.03048">
        <ele>251.1</ele>
        <time>2015-06-24T17:20:14Z</time>
      </trkpt>
      <trkpt lat="44.12663" lon="5.0306">
        <ele>250.1</ele>
        <time>2015-06-24T17:20:22Z</time>
      </trkpt>
      <trkpt lat="44.12651" lon="5.03058">
        <ele>244</ele>
        <time>2015-06-24T17:21:40Z</time>
      </trkpt>
      <trkpt lat="44.12634" lon="5.03033">
        <ele>236</ele>
        <time>2015-06-24T17:23:03Z</time>
      </trkpt>
      <trkpt lat="44.12628" lon="5.03024">
        <ele>234.6</ele>
        <time>2015-06-24T17:23:16Z</time>
      </trkpt>
      <trkpt lat="44.12621" lon="5.0301">
        <ele>232.1</ele>
        <time>2015-06-24T17:23:44Z</time>
      </trkpt>
      <trkpt lat="44.12614" lon="5.02991">
        <ele>229.2</ele>
        <time>2015-06-24T17:24:07Z</time>
      </trkpt>
      <trkpt lat="44.1261" lon="5.02979">
        <ele>227.5</ele>
        <time>2015-06-24T17:24:20Z</time>
      </trkpt>
      <trkpt lat="44.12607" lon="5.02967">
        <ele>225.7</ele>
        <time>2015-06-24T17:24:33Z</time>
      </trkpt>
      <trkpt lat="44.12602" lon="5.02956">
        <ele>224.4</ele>
        <time>2015-06-24T17:24:42Z</time>
      </trkpt>
      <trkpt lat="44.12598" lon="5.02944">
        <ele>222.7</ele>
        <time>2015-06-24T17:24:57Z</time>
      </trkpt>
      <trkpt lat="44.12594" lon="5.02932">
        <ele>221.8</ele>
        <time>2015-06-24T17:25:06Z</time>
      </trkpt>
      <trkpt lat="44.12594" lon="5.0292">
        <ele>220.7</ele>
        <time>2015-06-24T17:25:17Z</time>
      </trkpt>
      <trkpt lat="44.1259" lon="5.02907">
        <ele>219.4</ele>
        <time>2015-06-24T17:25:28Z</time>
      </trkpt>
      <trkpt lat="44.12582" lon="5.02898">
        <ele>218.6</ele>
        <time>2015-06-24T17:25:43Z</time>
      </trkpt>
      <trkpt lat="44.12575" lon="5.02889">
        <ele>215</ele>
        <time>2015-06-24T17:26:30Z</time>
      </trkpt>
      <trkpt lat="44.12571" lon="5.02878">
        <ele>211.9</ele>
        <time>2015-06-24T17:27:00Z</time>
      </trkpt>
      <trkpt lat="44.12558" lon="5.02868">
        <ele>206.5</ele>
        <time>2015-06-24T17:27:48Z</time>
      </trkpt>
      <trkpt lat="44.12553" lon="5.02857">
        <ele>201.1</ele>
        <time>2015-06-24T17:29:11Z</time>
      </trkpt>
      <trkpt lat="44.12556" lon="5.02843">
        <ele>201.2</ele>
        <time>2015-06-24T17:29:16Z</time>
      </trkpt>
      <trkpt lat="44.12564" lon="5.02837">
        <ele>201.5</ele>
        <time>2015-06-24T17:29:22Z</time>
      </trkpt>
      <trkpt lat="44.12561" lon="5.02819">
        <ele>201.9</ele>
        <time>2015-06-24T17:29:32Z</time>
      </trkpt>
      <trkpt lat="44.12557" lon="5.02806">
        <ele>202.2</ele>
        <time>2015-06-24T17:29:39Z</time>
      </trkpt>
      <trkpt lat="44.12554" lon="5.02794">
        <ele>202.4</ele>
        <time>2015-06-24T17:29:45Z</time>
      </trkpt>
      <trkpt lat="44.1255" lon="5.02782">
        <ele>202.7</ele>
        <time>2015-06-24T17:29:54Z</time>
      </trkpt>
      <trkpt lat="44.1255" lon="5.02768">
        <ele>202.5</ele>
        <time>2015-06-24T17:29:59Z</time>
      </trkpt>
      <trkpt lat="44.12547" lon="5.02756">
        <ele>202.9</ele>
        <time>2015-06-24T17:30:03Z</time>
      </trkpt>
      <trkpt lat="44.12546" lon="5.02743">
        <ele>202.6</ele>
        <time>2015-06-24T17:30:09Z</time>
      </trkpt>
      <trkpt lat="44.12547" lon="5.0273">
        <ele>202.9</ele>
        <time>2015-06-24T17:30:19Z</time>
      </trkpt>
      <trkpt lat="44.12547" lon="5.02716">
        <ele>202.9</ele>
        <time>2015-06-24T17:30:27Z</time>
      </trkpt>
      <trkpt lat="44.12546" lon="5.02702">
        <ele>202.8</ele>
        <time>2015-06-24T17:30:41Z</time>
      </trkpt>
      <trkpt lat="44.12546" lon="5.02688">
        <ele>202.6</ele>
        <time>2015-06-24T17:30:48Z</time>
      </trkpt>
      <trkpt lat="44.12545" lon="5.02675">
        <ele>202.4</ele>
        <time>2015-06-24T17:30:51Z</time>
      </trkpt>
      <trkpt lat="44.12545" lon="5.02662">
        <ele>202.2</ele>
        <time>2015-06-24T17:30:55Z</time>
      </trkpt>
      <trkpt lat="44.12548" lon="5.02648">
        <ele>202</ele>
        <time>2015-06-24T17:31:01Z</time>
      </trkpt>
      <trkpt lat="44.12548" lon="5.02635">
        <ele>201.9</ele>
        <time>2015-06-24T17:31:07Z</time>
      </trkpt>
      <trkpt lat="44.12549" lon="5.02622">
        <ele>201.8</ele>
        <time>2015-06-24T17:31:13Z</time>
      </trkpt>
      <trkpt lat="44.12553" lon="5.02607">
        <ele>201.3</ele>
        <time>2015-06-24T17:31:21Z</time>
      </trkpt>
      <trkpt lat="44.12553" lon="5.02594">
        <ele>201.1</ele>
        <time>2015-06-24T17:31:29Z</time>
      </trkpt>
      <trkpt lat="44.12556" lon="5.02579">
        <ele>201.5</ele>
        <time>2015-06-24T17:31:36Z</time>
      </trkpt>
      <trkpt lat="44.12564" lon="5.02572">
        <ele>201.7</ele>
        <time>2015-06-24T17:31:44Z</time>
      </trkpt>
      <trkpt lat="44.1257" lon="5.02563">
        <ele>201.9</ele>
        <time>2015-06-24T17:31:53Z</time>
      </trkpt>
      <trkpt lat="44.12578" lon="5.02555">
        <ele>202</ele>
        <time>2015-06-24T17:31:59Z</time>
      </trkpt>
      <trkpt lat="44.12577" lon="5.0254">
        <ele>202.2</ele>
        <time>2015-06-24T17:32:05Z</time>
      </trkpt>
      <trkpt lat="44.12581" lon="5.02527">
        <ele>202.2</ele>
        <time>2015-06-24T17:32:14Z</time>
      </trkpt>
      <trkpt lat="44.12582" lon="5.02514">
        <ele>201.8</ele>
        <time>2015-06-24T17:32:24Z</time>
      </trkpt>
      <trkpt lat="44.12581" lon="5.02501">
        <ele>201.6</ele>
        <time>2015-06-24T17:32:34Z</time>
      </trkpt>
      <trkpt lat="44.12577" lon="5.02488">
        <ele>201.5</ele>
        <time>2015-06-24T17:32:43Z</time>
      </trkpt>
      <trkpt lat="44.12572" lon="5.02478">
        <ele>201.3</ele>
        <time>2015-06-24T17:32:47Z</time>
      </trkpt>
      <trkpt lat="44.12568" lon="5.02463">
        <ele>201.1</ele>
        <time>2015-06-24T17:32:55Z</time>
      </trkpt>
      <trkpt lat="44.12569" lon="5.0245">
        <ele>200.4</ele>
        <time>2015-06-24T17:33:06Z</time>
      </trkpt>
      <trkpt lat="44.12569" lon="5.02438">
        <ele>199.9</ele>
        <time>2015-06-24T17:33:15Z</time>
      </trkpt>
      <trkpt lat="44.12566" lon="5.02417">
        <ele>199.3</ele>
        <time>2015-06-24T17:33:25Z</time>
      </trkpt>
      <trkpt lat="44.12569" lon="5.02405">
        <ele>198.1</ele>
        <time>2015-06-24T17:33:37Z</time>
      </trkpt>
      <trkpt lat="44.12572" lon="5.02393">
        <ele>197</ele>
        <time>2015-06-24T17:33:48Z</time>
      </trkpt>
      <trkpt lat="44.12569" lon="5.02377">
        <ele>196</ele>
        <time>2015-06-24T17:33:58Z</time>
      </trkpt>
      <trkpt lat="44.12565" lon="5.02363">
        <ele>195.3</ele>
        <time>2015-06-24T17:34:05Z</time>
      </trkpt>
      <trkpt lat="44.12565" lon="5.02351">
        <ele>193.8</ele>
        <time>2015-06-24T17:34:16Z</time>
      </trkpt>
      <trkpt lat="44.12561" lon="5.02339">
        <ele>192.8</ele>
        <time>2015-06-24T17:34:23Z</time>
      </trkpt>
      <trkpt lat="44.12557" lon="5.02327">
        <ele>191.4</ele>
        <time>2015-06-24T17:34:32Z</time>
      </trkpt>
      <trkpt lat="44.12554" lon="5.02312">
        <ele>190.7</ele>
        <time>2015-06-24T17:34:36Z</time>
      </trkpt>
      <trkpt lat="44.12549" lon="5.023">
        <ele>190.3</ele>
        <time>2015-06-24T17:34:39Z</time>
      </trkpt>
      <trkpt lat="44.12543" lon="5.02291">
        <ele>189.2</ele>
        <time>2015-06-24T17:34:45Z</time>
      </trkpt>
      <trkpt lat="44.12542" lon="5.02277">
        <ele>187.6</ele>
        <time>2015-06-24T17:34:54Z</time>
      </trkpt>
      <trkpt lat="44.1254" lon="5.02264">
        <ele>186.2</ele>
        <time>2015-06-24T17:35:02Z</time>
      </trkpt>
      <trkpt lat="44.12541" lon="5.0225">
        <ele>185</ele>
        <time>2015-06-24T17:35:09Z</time>
      </trkpt>
      <trkpt lat="44.1254" lon="5.02237">
        <ele>184.1</ele>
        <time>2015-06-24T17:35:15Z</time>
      </trkpt>
      <trkpt lat="44.12535" lon="5.02225">
        <ele>182.9</ele>
        <time>2015-06-24T17:35:23Z</time>
      </trkpt>
      <trkpt lat="44.12533" lon="5.02212">
        <ele>181.7</ele>
        <time>2015-06-24T17:35:30Z</time>
      </trkpt>
      <trkpt lat="44.12533" lon="5.02198">
        <ele>180.5</ele>
        <time>2015-06-24T17:35:38Z</time>
      </trkpt>
      <trkpt lat="44.1253" lon="5.02186">
        <ele>178.9</ele>
        <time>2015-06-24T17:35:49Z</time>
      </trkpt>
      <trkpt lat="44.12527" lon="5.02174">
        <ele>177.9</ele>
        <time>2015-06-24T17:35:55Z</time>
      </trkpt>
      <trkpt lat="44.12526" lon="5.0216">
        <ele>176.8</ele>
        <time>2015-06-24T17:36:02Z</time>
      </trkpt>
      <trkpt lat="44.12525" lon="5.02146">
        <ele>175.7</ele>
        <time>2015-06-24T17:36:10Z</time>
      </trkpt>
      <trkpt lat="44.12521" lon="5.02134">
        <ele>174.8</ele>
        <time>2015-06-24T17:36:19Z</time>
      </trkpt>
      <trkpt lat="44.12519" lon="5.02121">
        <ele>173.8</ele>
        <time>2015-06-24T17:36:27Z</time>
      </trkpt>
      <trkpt lat="44.12516" lon="5.02109">
        <ele>172.9</ele>
        <time>2015-06-24T17:36:34Z</time>
      </trkpt>
      <trkpt lat="44.12514" lon="5.02095">
        <ele>172</ele>
        <time>2015-06-24T17:36:41Z</time>
      </trkpt>
      <trkpt lat="44.12513" lon="5.02082">
        <ele>171.1</ele>
        <time>2015-06-24T17:36:48Z</time>
      </trkpt>
      <trkpt lat="44.12511" lon="5.02069">
        <ele>170.2</ele>
        <time>2015-06-24T17:36:56Z</time>
      </trkpt>
      <trkpt lat="44.12506" lon="5.02057">
        <ele>169</ele>
        <time>2015-06-24T17:37:05Z</time>
      </trkpt>
      <trkpt lat="44.12502" lon="5.02045">
        <ele>167.9</ele>
        <time>2015-06-24T17:37:13Z</time>
      </trkpt>
      <trkpt lat="44.125" lon="5.02032">
        <ele>167</ele>
        <time>2015-06-24T17:37:20Z</time>
      </trkpt>
      <trkpt lat="44.12496" lon="5.0202">
        <ele>166.2</ele>
        <time>2015-06-24T17:37:27Z</time>
      </trkpt>
      <trkpt lat="44.12494" lon="5.02008">
        <ele>165.5</ele>
        <time>2015-06-24T17:37:35Z</time>
      </trkpt>
      <trkpt lat="44.12493" lon="5.01994">
        <ele>164.8</ele>
        <time>2015-06-24T17:37:44Z</time>
      </trkpt>
      <trkpt lat="44.12492" lon="5.0198">
        <ele>164.2</ele>
        <time>2015-06-24T17:37:52Z</time>
      </trkpt>
      <trkpt lat="44.12494" lon="5.01967">
        <ele>163.5</ele>
        <time>2015-06-24T17:37:59Z</time>
      </trkpt>
      <trkpt lat="44.12493" lon="5.01954">
        <ele>162.7</ele>
        <time>2015-06-24T17:38:06Z</time>
      </trkpt>
      <trkpt lat="44.12492" lon="5.01941">
        <ele>161.9</ele>
        <time>2015-06-24T17:38:14Z</time>
      </trkpt>
      <trkpt lat="44.12487" lon="5.01929">
        <ele>161.2</ele>
        <time>2015-06-24T17:38:22Z</time>
      </trkpt>
      <trkpt lat="44.12484" lon="5.01916">
        <ele>160.6</ele>
        <time>2015-06-24T17:38:29Z</time>
      </trkpt>
      <trkpt lat="44.12482" lon="5.01903">
        <ele>160.2</ele>
        <time>2015-06-24T17:38:36Z</time>
      </trkpt>
      <trkpt lat="44.12479" lon="5.0189">
        <ele>159.9</ele>
        <time>2015-06-24T17:38:43Z</time>
      </trkpt>
      <trkpt lat="44.12477" lon="5.01878">
        <ele>159.5</ele>
        <time>2015-06-24T17:38:49Z</time>
      </trkpt>
      <trkpt lat="44.12479" lon="5.01865">
        <ele>159.2</ele>
        <time>2015-06-24T17:38:54Z</time>
      </trkpt>
      <trkpt lat="44.12476" lon="5.01852">
        <ele>159</ele>
        <time>2015-06-24T17:39:00Z</time>
      </trkpt>
      <trkpt lat="44.12472" lon="5.0184">
        <ele>158.8</ele>
        <time>2015-06-24T17:39:07Z</time>
      </trkpt>
      <trkpt lat="44.12467" lon="5.01828">
        <ele>158.5</ele>
        <time>2015-06-24T17:39:15Z</time>
      </trkpt>
      <trkpt lat="44.12465" lon="5.01815">
        <ele>158.2</ele>
        <time>2015-06-24T17:39:22Z</time>
      </trkpt>
      <trkpt lat="44.12465" lon="5.01802">
        <ele>157.5</ele>
        <time>2015-06-24T17:39:30Z</time>
      </trkpt>
      <trkpt lat="44.12462" lon="5.0179">
        <ele>156.7</ele>
        <time>2015-06-24T17:39:36Z</time>
      </trkpt>
      <trkpt lat="44.12458" lon="5.01778">
        <ele>155.5</ele>
        <time>2015-06-24T17:39:43Z</time>
      </trkpt>
      <trkpt lat="44.12454" lon="5.01765">
        <ele>154.4</ele>
        <time>2015-06-24T17:39:49Z</time>
      </trkpt>
      <trkpt lat="44.1245" lon="5.01754">
        <ele>152.6</ele>
        <time>2015-06-24T17:40:01Z</time>
      </trkpt>
      <trkpt lat="44.12445" lon="5.01741">
        <ele>151.8</ele>
        <time>2015-06-24T17:40:08Z</time>
      </trkpt>
      <trkpt lat="44.1244" lon="5.0173">
        <ele>151.1</ele>
        <time>2015-06-24T17:40:14Z</time>
      </trkpt>
      <trkpt lat="44.12437" lon="5.01718">
        <ele>150.3</ele>
        <time>2015-06-24T17:40:20Z</time>
      </trkpt>
      <trkpt lat="44.12433" lon="5.01705">
        <ele>149.8</ele>
        <time>2015-06-24T17:40:26Z</time>
      </trkpt>
      <trkpt lat="44.1243" lon="5.01692">
        <ele>149.4</ele>
        <time>2015-06-24T17:40:32Z</time>
      </trkpt>
      <trkpt lat="44.12426" lon="5.01679">
        <ele>149.1</ele>
        <time>2015-06-24T17:40:39Z</time>
      </trkpt>
      <trkpt lat="44.12423" lon="5.01665">
        <ele>148.8</ele>
        <time>2015-06-24T17:40:45Z</time>
      </trkpt>
      <trkpt lat="44.1242" lon="5.01652">
        <ele>148.5</ele>
        <time>2015-06-24T17:40:51Z</time>
      </trkpt>
      <trkpt lat="44.12419" lon="5.01638">
        <ele>148.3</ele>
        <time>2015-06-24T17:40:58Z</time>
      </trkpt>
      <trkpt lat="44.12417" lon="5.01624">
        <ele>148.2</ele>
        <time>2015-06-24T17:41:04Z</time>
      </trkpt>
      <trkpt lat="44.12417" lon="5.01611">
        <ele>148.1</ele>
        <time>2015-06-24T17:41:10Z</time>
      </trkpt>
      <trkpt lat="44.12416" lon="5.01598">
        <ele>148.1</ele>
        <time>2015-06-24T17:41:17Z</time>
      </trkpt>
      <trkpt lat="44.12412" lon="5.01586">
        <ele>148.1</ele>
        <time>2015-06-24T17:41:23Z</time>
      </trkpt>
      <trkpt lat="44.1241" lon="5.01573">
        <ele>147.9</ele>
        <time>2015-06-24T17:41:28Z</time>
      </trkpt>
      <trkpt lat="44.12409" lon="5.01559">
        <ele>147.5</ele>
        <time>2015-06-24T17:41:34Z</time>
      </trkpt>
      <trkpt lat="44.12405" lon="5.01545">
        <ele>147</ele>
        <time>2015-06-24T17:41:40Z</time>
      </trkpt>
      <trkpt lat="44.12403" lon="5.01533">
        <ele>146.5</ele>
        <time>2015-06-24T17:41:46Z</time>
      </trkpt>
      <trkpt lat="44.124" lon="5.0152">
        <ele>145.9</ele>
        <time>2015-06-24T17:41:52Z</time>
      </trkpt>
      <trkpt lat="44.12397" lon="5.01507">
        <ele>145.3</ele>
        <time>2015-06-24T17:41:58Z</time>
      </trkpt>
      <trkpt lat="44.12394" lon="5.01493">
        <ele>144.7</ele>
        <time>2015-06-24T17:42:04Z</time>
      </trkpt>
      <trkpt lat="44.12392" lon="5.0148">
        <ele>144.2</ele>
        <time>2015-06-24T17:42:11Z</time>
      </trkpt>
      <trkpt lat="44.12387" lon="5.01467">
        <ele>143.7</ele>
        <time>2015-06-24T17:42:18Z</time>
      </trkpt>
      <trkpt lat="44.12384" lon="5.01455">
        <ele>143</ele>
        <time>2015-06-24T17:42:25Z</time>
      </trkpt>
      <trkpt lat="44.12381" lon="5.01441">
        <ele>142.3</ele>
        <time>2015-06-24T17:42:32Z</time>
      </trkpt>
      <trkpt lat="44.12379" lon="5.01429">
        <ele>141</ele>
        <time>2015-06-24T17:42:40Z</time>
      </trkpt>
      <trkpt lat="44.12376" lon="5.01415">
        <ele>139.5</ele>
        <time>2015-06-24T17:42:48Z</time>
      </trkpt>
      <trkpt lat="44.12375" lon="5.01403">
        <ele>138.1</ele>
        <time>2015-06-24T17:42:56Z</time>
      </trkpt>
      <trkpt lat="44.12375" lon="5.0139">
        <ele>136.6</ele>
        <time>2015-06-24T17:43:05Z</time>
      </trkpt>
      <trkpt lat="44.12372" lon="5.01378">
        <ele>135</ele>
        <time>2015-06-24T17:43:15Z</time>
      </trkpt>
      <trkpt lat="44.12369" lon="5.01365">
        <ele>132.9</ele>
        <time>2015-06-24T17:43:27Z</time>
      </trkpt>
      <trkpt lat="44.12363" lon="5.01355">
        <ele>130.7</ele>
        <time>2015-06-24T17:43:35Z</time>
      </trkpt>
      <trkpt lat="44.12364" lon="5.01342">
        <ele>128.7</ele>
        <time>2015-06-24T17:43:44Z</time>
      </trkpt>
      <trkpt lat="44.12362" lon="5.01329">
        <ele>127</ele>
        <time>2015-06-24T17:43:52Z</time>
      </trkpt>
      <trkpt lat="44.12363" lon="5.01316">
        <ele>125.6</ele>
        <time>2015-06-24T17:44:00Z</time>
      </trkpt>
      <trkpt lat="44.1236" lon="5.01303">
        <ele>123.5</ele>
        <time>2015-06-24T17:44:11Z</time>
      </trkpt>
      <trkpt lat="44.12357" lon="5.0129">
        <ele>121.7</ele>
        <time>2015-06-24T17:44:18Z</time>
      </trkpt>
      <trkpt lat="44.12356" lon="5.01276">
        <ele>120.4</ele>
        <time>2015-06-24T17:44:24Z</time>
      </trkpt>
      <trkpt lat="44.12357" lon="5.01264">
        <ele>119.1</ele>
        <time>2015-06-24T17:44:33Z</time>
      </trkpt>
      <trkpt lat="44.1236" lon="5.0125">
        <ele>119</ele>
        <time>2015-06-24T17:44:43Z</time>
      </trkpt>
      <trkpt lat="44.12366" lon="5.01239">
        <ele>118.6</ele>
        <time>2015-06-24T17:44:48Z</time>
      </trkpt>
      <trkpt lat="44.1237" lon="5.01227">
        <ele>118.2</ele>
        <time>2015-06-24T17:44:52Z</time>
      </trkpt>
      <trkpt lat="44.12373" lon="5.01214">
        <ele>117.7</ele>
        <time>2015-06-24T17:45:00Z</time>
      </trkpt>
      <trkpt lat="44.12371" lon="5.01202">
        <ele>117.3</ele>
        <time>2015-06-24T17:45:07Z</time>
      </trkpt>
      <trkpt lat="44.12364" lon="5.01191">
        <ele>115.8</ele>
        <time>2015-06-24T17:45:25Z</time>
      </trkpt>
      <trkpt lat="44.12354" lon="5.01187">
        <ele>115.3</ele>
        <time>2015-06-24T17:45:29Z</time>
      </trkpt>
      <trkpt lat="44.12343" lon="5.01182">
        <ele>114.3</ele>
        <time>2015-06-24T17:45:35Z</time>
      </trkpt>
      <trkpt lat="44.12336" lon="5.01174">
        <ele>113.5</ele>
        <time>2015-06-24T17:45:40Z</time>
      </trkpt>
      <trkpt lat="44.12329" lon="5.01183">
        <ele>112.4</ele>
        <time>2015-06-24T17:45:52Z</time>
      </trkpt>
      <trkpt lat="44.12325" lon="5.01171">
        <ele>110.8</ele>
        <time>2015-06-24T17:46:46Z</time>
      </trkpt>
      <trkpt lat="44.12324" lon="5.01155">
        <ele>110.3</ele>
        <time>2015-06-24T17:46:51Z</time>
      </trkpt>
      <trkpt lat="44.12326" lon="5.01142">
        <ele>109.6</ele>
        <time>2015-06-24T17:46:57Z</time>
      </trkpt>
      <trkpt lat="44.12318" lon="5.01134">
        <ele>108.4</ele>
        <time>2015-06-24T17:47:04Z</time>
      </trkpt>
      <trkpt lat="44.12311" lon="5.01125">
        <ele>107.3</ele>
        <time>2015-06-24T17:47:10Z</time>
      </trkpt>
      <trkpt lat="44.12303" lon="5.01118">
        <ele>106.3</ele>
        <time>2015-06-24T17:47:17Z</time>
      </trkpt>
      <trkpt lat="44.12293" lon="5.01114">
        <ele>105.5</ele>
        <time>2015-06-24T17:47:25Z</time>
      </trkpt>
      <trkpt lat="44.12284" lon="5.01109">
        <ele>104.4</ele>
        <time>2015-06-24T17:47:34Z</time>
      </trkpt>
      <trkpt lat="44.12278" lon="5.011">
        <ele>103.1</ele>
        <time>2015-06-24T17:47:43Z</time>
      </trkpt>
      <trkpt lat="44.12271" lon="5.01091">
        <ele>102</ele>
        <time>2015-06-24T17:47:50Z</time>
      </trkpt>
      <trkpt lat="44.12261" lon="5.01084">
        <ele>101.4</ele>
        <time>2015-06-24T17:47:56Z</time>
      </trkpt>
      <trkpt lat="44.12253" lon="5.01077">
        <ele>100.8</ele>
        <time>2015-06-24T17:48:01Z</time>
      </trkpt>
      <trkpt lat="44.12247" lon="5.01067">
        <ele>99.8</ele>
        <time>2015-06-24T17:48:09Z</time>
      </trkpt>
      <trkpt lat="44.12241" lon="5.01057">
        <ele>98.8</ele>
        <time>2015-06-24T17:48:17Z</time>
      </trkpt>
      <trkpt lat="44.12238" lon="5.01045">
        <ele>97.8</ele>
        <time>2015-06-24T17:48:27Z</time>
      </trkpt>
      <trkpt lat="44.12242" lon="5.01034">
        <ele>96.8</ele>
        <time>2015-06-24T17:48:35Z</time>
      </trkpt>
      <trkpt lat="44.1224" lon="5.01021">
        <ele>95.5</ele>
        <time>2015-06-24T17:48:42Z</time>
      </trkpt>
      <trkpt lat="44.1223" lon="5.01012">
        <ele>94</ele>
        <time>2015-06-24T17:48:53Z</time>
      </trkpt>
      <trkpt lat="44.12224" lon="5.01001">
        <ele>93.2</ele>
        <time>2015-06-24T17:49:00Z</time>
      </trkpt>
      <trkpt lat="44.12224" lon="5.00988">
        <ele>92.3</ele>
        <time>2015-06-24T17:49:07Z</time>
      </trkpt>
      <trkpt lat="44.12221" lon="5.00976">
        <ele>91.7</ele>
        <time>2015-06-24T17:49:13Z</time>
      </trkpt>
      <trkpt lat="44.12217" lon="5.00963">
        <ele>91</ele>
        <time>2015-06-24T17:49:22Z</time>
      </trkpt>
      <trkpt lat="44.12212" lon="5.00952">
        <ele>90.4</ele>
        <time>2015-06-24T17:49:29Z</time>
      </trkpt>
      <trkpt lat="44.12209" lon="5.00939">
        <ele>89.8</ele>
        <time>2015-06-24T17:49:37Z</time>
      </trkpt>
      <trkpt lat="44.12204" lon="5.00926">
        <ele>88.9</ele>
        <time>2015-06-24T17:49:44Z</time>
      </trkpt>
      <trkpt lat="44.12198" lon="5.00916">
        <ele>88.4</ele>
        <time>2015-06-24T17:49:50Z</time>
      </trkpt>
      <trkpt lat="44.12191" lon="5.00907">
        <ele>88</ele>
        <time>2015-06-24T17:49:56Z</time>
      </trkpt>
      <trkpt lat="44.1219" lon="5.00893">
        <ele>87.4</ele>
        <time>2015-06-24T17:50:05Z</time>
      </trkpt>
      <trkpt lat="44.12185" lon="5.00881">
        <ele>86.8</ele>
        <time>2015-06-24T17:50:12Z</time>
      </trkpt>
      <trkpt lat="44.12177" lon="5.00873">
        <ele>85.3</ele>
        <time>2015-06-24T17:50:35Z</time>
      </trkpt>
      <trkpt lat="44.12168" lon="5.0087">
        <ele>85.2</ele>
        <time>2015-06-24T17:50:38Z</time>
      </trkpt>
      <trkpt lat="44.12158" lon="5.0087">
        <ele>85</ele>
        <time>2015-06-24T17:50:42Z</time>
      </trkpt>
      <trkpt lat="44.12151" lon="5.00862">
        <ele>84.8</ele>
        <time>2015-06-24T17:50:52Z</time>
      </trkpt>
      <trkpt lat="44.12141" lon="5.00862">
        <ele>84.8</ele>
        <time>2015-06-24T17:50:58Z</time>
      </trkpt>
      <trkpt lat="44.12132" lon="5.00863">
        <ele>84.9</ele>
        <time>2015-06-24T17:51:06Z</time>
      </trkpt>
      <trkpt lat="44.12123" lon="5.00864">
        <ele>85</ele>
        <time>2015-06-24T17:51:13Z</time>
      </trkpt>
      <trkpt lat="44.12113" lon="5.00861">
        <ele>85</ele>
        <time>2015-06-24T17:51:19Z</time>
      </trkpt>
      <trkpt lat="44.12104" lon="5.00855">
        <ele>84.9</ele>
        <time>2015-06-24T17:51:24Z</time>
      </trkpt>
      <trkpt lat="44.12096" lon="5.00847">
        <ele>84.8</ele>
        <time>2015-06-24T17:51:31Z</time>
      </trkpt>
      <trkpt lat="44.12089" lon="5.00837">
        <ele>84.6</ele>
        <time>2015-06-24T17:51:37Z</time>
      </trkpt>
      <trkpt lat="44.12082" lon="5.00829">
        <ele>84.5</ele>
        <time>2015-06-24T17:51:44Z</time>
      </trkpt>
      <trkpt lat="44.12076" lon="5.00818">
        <ele>84.2</ele>
        <time>2015-06-24T17:51:51Z</time>
      </trkpt>
      <trkpt lat="44.1207" lon="5.00809">
        <ele>83.9</ele>
        <time>2015-06-24T17:51:57Z</time>
      </trkpt>
      <trkpt lat="44.12064" lon="5.00798">
        <ele>83.3</ele>
        <time>2015-06-24T17:52:05Z</time>
      </trkpt>
      <trkpt lat="44.12059" lon="5.00787">
        <ele>82.8</ele>
        <time>2015-06-24T17:52:13Z</time>
      </trkpt>
      <trkpt lat="44.12054" lon="5.00775">
        <ele>82.2</ele>
        <time>2015-06-24T17:52:21Z</time>
      </trkpt>
      <trkpt lat="44.12048" lon="5.00763">
        <ele>81.7</ele>
        <time>2015-06-24T17:52:28Z</time>
      </trkpt>
      <trkpt lat="44.12044" lon="5.00751">
        <ele>81.5</ele>
        <time>2015-06-24T17:52:33Z</time>
      </trkpt>
      <trkpt lat="44.12039" lon="5.00739">
        <ele>81.4</ele>
        <time>2015-06-24T17:52:41Z</time>
      </trkpt>
      <trkpt lat="44.12034" lon="5.00727">
        <ele>81.2</ele>
        <time>2015-06-24T17:52:47Z</time>
      </trkpt>
      <trkpt lat="44.12026" lon="5.00719">
        <ele>81.1</ele>
        <time>2015-06-24T17:52:52Z</time>
      </trkpt>
      <trkpt lat="44.12017" lon="5.00714">
        <ele>80.9</ele>
        <time>2015-06-24T17:52:57Z</time>
      </trkpt>
      <trkpt lat="44.12007" lon="5.00716">
        <ele>80.6</ele>
        <time>2015-06-24T17:53:05Z</time>
      </trkpt>
      <trkpt lat="44.11996" lon="5.00714">
        <ele>80.5</ele>
        <time>2015-06-24T17:53:12Z</time>
      </trkpt>
      <trkpt lat="44.11986" lon="5.00714">
        <ele>80.4</ele>
        <time>2015-06-24T17:53:20Z</time>
      </trkpt>
      <trkpt lat="44.11979" lon="5.00722">
        <ele>80.4</ele>
        <time>2015-06-24T17:53:28Z</time>
      </trkpt>
      <trkpt lat="44.11972" lon="5.00733">
        <ele>80.2</ele>
        <time>2015-06-24T17:53:38Z</time>
      </trkpt>
      <trkpt lat="44.11962" lon="5.00733">
        <ele>80</ele>
        <time>2015-06-24T17:53:43Z</time>
      </trkpt>
      <trkpt lat="44.11953" lon="5.00734">
        <ele>79.8</ele>
        <time>2015-06-24T17:53:50Z</time>
      </trkpt>
      <trkpt lat="44.11944" lon="5.00736">
        <ele>79.6</ele>
        <time>2015-06-24T17:53:56Z</time>
      </trkpt>
      <trkpt lat="44.11938" lon="5.00748">
        <ele>79.2</ele>
        <time>2015-06-24T17:54:09Z</time>
      </trkpt>
      <trkpt lat="44.11935" lon="5.0076">
        <ele>79.1</ele>
        <time>2015-06-24T17:54:14Z</time>
      </trkpt>
      <trkpt lat="44.11925" lon="5.00768">
        <ele>78.9</ele>
        <time>2015-06-24T17:54:19Z</time>
      </trkpt>
      <trkpt lat="44.11918" lon="5.00776">
        <ele>78.7</ele>
        <time>2015-06-24T17:54:24Z</time>
      </trkpt>
      <trkpt lat="44.11908" lon="5.00779">
        <ele>78.5</ele>
        <time>2015-06-24T17:54:29Z</time>
      </trkpt>
      <trkpt lat="44.11898" lon="5.00777">
        <ele>78.3</ele>
        <time>2015-06-24T17:54:33Z</time>
      </trkpt>
      <trkpt lat="44.11888" lon="5.00775">
        <ele>78.2</ele>
        <time>2015-06-24T17:54:38Z</time>
      </trkpt>
      <trkpt lat="44.11879" lon="5.00778">
        <ele>78.2</ele>
        <time>2015-06-24T17:54:43Z</time>
      </trkpt>
      <trkpt lat="44.11869" lon="5.0078">
        <ele>78.1</ele>
        <time>2015-06-24T17:54:48Z</time>
      </trkpt>
      <trkpt lat="44.11859" lon="5.00784">
        <ele>78.1</ele>
        <time>2015-06-24T17:54:54Z</time>
      </trkpt>
      <trkpt lat="44.1185" lon="5.00786">
        <ele>78.1</ele>
        <time>2015-06-24T17:54:59Z</time>
      </trkpt>
      <trkpt lat="44.1184" lon="5.00785">
        <ele>78.1</ele>
        <time>2015-06-24T17:55:06Z</time>
      </trkpt>
      <trkpt lat="44.11831" lon="5.00786">
        <ele>78</ele>
        <time>2015-06-24T17:55:12Z</time>
      </trkpt>
      <trkpt lat="44.11822" lon="5.00787">
        <ele>77.9</ele>
        <time>2015-06-24T17:55:18Z</time>
      </trkpt>
      <trkpt lat="44.11812" lon="5.00789">
        <ele>77.8</ele>
        <time>2015-06-24T17:55:24Z</time>
      </trkpt>
      <trkpt lat="44.11802" lon="5.0079">
        <ele>77.7</ele>
        <time>2015-06-24T17:55:30Z</time>
      </trkpt>
      <trkpt lat="44.11793" lon="5.0079">
        <ele>77.5</ele>
        <time>2015-06-24T17:55:37Z</time>
      </trkpt>
      <trkpt lat="44.11783" lon="5.00792">
        <ele>77.3</ele>
        <time>2015-06-24T17:55:44Z</time>
      </trkpt>
      <trkpt lat="44.11774" lon="5.00794">
        <ele>77.2</ele>
        <time>2015-06-24T17:55:51Z</time>
      </trkpt>
      <trkpt lat="44.11765" lon="5.00798">
        <ele>77.2</ele>
        <time>2015-06-24T17:55:57Z</time>
      </trkpt>
      <trkpt lat="44.11756" lon="5.00802">
        <ele>77</ele>
        <time>2015-06-24T17:56:04Z</time>
      </trkpt>
      <trkpt lat="44.11747" lon="5.00806">
        <ele>76.9</ele>
        <time>2015-06-24T17:56:09Z</time>
      </trkpt>
      <trkpt lat="44.11738" lon="5.00812">
        <ele>76.9</ele>
        <time>2015-06-24T17:56:16Z</time>
      </trkpt>
      <trkpt lat="44.1173" lon="5.00818">
        <ele>76.8</ele>
        <time>2015-06-24T17:56:22Z</time>
      </trkpt>
      <trkpt lat="44.11721" lon="5.00825">
        <ele>76.8</ele>
        <time>2015-06-24T17:56:30Z</time>
      </trkpt>
      <trkpt lat="44.11713" lon="5.0083">
        <ele>76.8</ele>
        <time>2015-06-24T17:56:38Z</time>
      </trkpt>
      <trkpt lat="44.11704" lon="5.00836">
        <ele>76.8</ele>
        <time>2015-06-24T17:57:16Z</time>
      </trkpt>
      <trkpt lat="44.11695" lon="5.00842">
        <ele>76.6</ele>
        <time>2015-06-24T17:57:22Z</time>
      </trkpt>
      <trkpt lat="44.11686" lon="5.00848">
        <ele>76.4</ele>
        <time>2015-06-24T17:57:29Z</time>
      </trkpt>
      <trkpt lat="44.11677" lon="5.00855">
        <ele>76.3</ele>
        <time>2015-06-24T17:57:36Z</time>
      </trkpt>
      <trkpt lat="44.11668" lon="5.00861">
        <ele>76.2</ele>
        <time>2015-06-24T17:57:43Z</time>
      </trkpt>
      <trkpt lat="44.1166" lon="5.00865">
        <ele>76.2</ele>
        <time>2015-06-24T17:57:50Z</time>
      </trkpt>
      <trkpt lat="44.1165" lon="5.00869">
        <ele>76.2</ele>
        <time>2015-06-24T17:57:57Z</time>
      </trkpt>
      <trkpt lat="44.11641" lon="5.00873">
        <ele>76.2</ele>
        <time>2015-06-24T17:58:05Z</time>
      </trkpt>
      <trkpt lat="44.11632" lon="5.00878">
        <ele>76.2</ele>
        <time>2015-06-24T17:58:27Z</time>
      </trkpt>
      <trkpt lat="44.11622" lon="5.00882">
        <ele>76.1</ele>
        <time>2015-06-24T17:58:33Z</time>
      </trkpt>
      <trkpt lat="44.11613" lon="5.00885">
        <ele>75.9</ele>
        <time>2015-06-24T17:58:39Z</time>
      </trkpt>
      <trkpt lat="44.11604" lon="5.00886">
        <ele>75.9</ele>
        <time>2015-06-24T17:58:45Z</time>
      </trkpt>
      <trkpt lat="44.11595" lon="5.00888">
        <ele>75.8</ele>
        <time>2015-06-24T17:58:51Z</time>
      </trkpt>
      <trkpt lat="44.11585" lon="5.00888">
        <ele>75.8</ele>
        <time>2015-06-24T17:58:58Z</time>
      </trkpt>
      <trkpt lat="44.11575" lon="5.0089">
        <ele>75.8</ele>
        <time>2015-06-24T17:59:05Z</time>
      </trkpt>
      <trkpt lat="44.11566" lon="5.00893">
        <ele>75.9</ele>
        <time>2015-06-24T17:59:12Z</time>
      </trkpt>
      <trkpt lat="44.11555" lon="5.00895">
        <ele>76</ele>
        <time>2015-06-24T17:59:22Z</time>
      </trkpt>
      <trkpt lat="44.11545" lon="5.009">
        <ele>76</ele>
        <time>2015-06-24T17:59:27Z</time>
      </trkpt>
      <trkpt lat="44.11536" lon="5.00901">
        <ele>76.1</ele>
        <time>2015-06-24T17:59:33Z</time>
      </trkpt>
      <trkpt lat="44.11527" lon="5.00905">
        <ele>76.1</ele>
        <time>2015-06-24T17:59:40Z</time>
      </trkpt>
      <trkpt lat="44.11517" lon="5.00908">
        <ele>76.2</ele>
        <time>2015-06-24T17:59:47Z</time>
      </trkpt>
      <trkpt lat="44.11508" lon="5.00912">
        <ele>76.2</ele>
        <time>2015-06-24T17:59:53Z</time>
      </trkpt>
      <trkpt lat="44.11499" lon="5.00916">
        <ele>76.3</ele>
        <time>2015-06-24T17:59:59Z</time>
      </trkpt>
      <trkpt lat="44.11489" lon="5.00917">
        <ele>76.3</ele>
        <time>2015-06-24T18:00:07Z</time>
      </trkpt>
      <trkpt lat="44.11478" lon="5.0092">
        <ele>76.5</ele>
        <time>2015-06-24T18:00:28Z</time>
      </trkpt>
      <trkpt lat="44.11478" lon="5.00933">
        <ele>76.5</ele>
        <time>2015-06-24T18:00:32Z</time>
      </trkpt>
      <trkpt lat="44.11478" lon="5.00948">
        <ele>76.6</ele>
        <time>2015-06-24T18:00:38Z</time>
      </trkpt>
      <trkpt lat="44.11471" lon="5.00957">
        <ele>76.6</ele>
        <time>2015-06-24T18:00:45Z</time>
      </trkpt>
      <trkpt lat="44.11462" lon="5.00959">
        <ele>76.7</ele>
        <time>2015-06-24T18:00:53Z</time>
      </trkpt>
      <trkpt lat="44.11453" lon="5.00969">
        <ele>76.7</ele>
        <time>2015-06-24T18:01:00Z</time>
      </trkpt>
      <trkpt lat="44.11444" lon="5.00971">
        <ele>76.7</ele>
        <time>2015-06-24T18:01:04Z</time>
      </trkpt>
      <trkpt lat="44.11434" lon="5.00969">
        <ele>76.8</ele>
        <time>2015-06-24T18:01:16Z</time>
      </trkpt>
      <trkpt lat="44.11425" lon="5.00973">
        <ele>76.9</ele>
        <time>2015-06-24T18:01:25Z</time>
      </trkpt>
      <trkpt lat="44.11418" lon="5.00983">
        <ele>76.9</ele>
        <time>2015-06-24T18:01:33Z</time>
      </trkpt>
      <trkpt lat="44.1141" lon="5.0099">
        <ele>76.9</ele>
        <time>2015-06-24T18:01:36Z</time>
      </trkpt>
      <trkpt lat="44.114" lon="5.00993">
        <ele>76.9</ele>
        <time>2015-06-24T18:01:45Z</time>
      </trkpt>
      <trkpt lat="44.11391" lon="5.01">
        <ele>76.7</ele>
        <time>2015-06-24T18:01:51Z</time>
      </trkpt>
      <trkpt lat="44.11383" lon="5.01006">
        <ele>76.5</ele>
        <time>2015-06-24T18:01:58Z</time>
      </trkpt>
      <trkpt lat="44.11372" lon="5.0101">
        <ele>76.3</ele>
        <time>2015-06-24T18:02:04Z</time>
      </trkpt>
      <trkpt lat="44.11363" lon="5.01018">
        <ele>76.2</ele>
        <time>2015-06-24T18:02:10Z</time>
      </trkpt>
      <trkpt lat="44.11355" lon="5.01022">
        <ele>76.1</ele>
        <time>2015-06-24T18:02:19Z</time>
      </trkpt>
      <trkpt lat="44.11345" lon="5.01025">
        <ele>76.1</ele>
        <time>2015-06-24T18:02:28Z</time>
      </trkpt>
      <trkpt lat="44.11337" lon="5.01031">
        <ele>76</ele>
        <time>2015-06-24T18:02:37Z</time>
      </trkpt>
      <trkpt lat="44.11328" lon="5.01037">
        <ele>76</ele>
        <time>2015-06-24T18:02:44Z</time>
      </trkpt>
      <trkpt lat="44.11317" lon="5.01039">
        <ele>76</ele>
        <time>2015-06-24T18:02:51Z</time>
      </trkpt>
      <trkpt lat="44.11308" lon="5.01039">
        <ele>76</ele>
        <time>2015-06-24T18:02:55Z</time>
      </trkpt>
      <trkpt lat="44.11298" lon="5.01039">
        <ele>76</ele>
        <time>2015-06-24T18:03:01Z</time>
      </trkpt>
      <trkpt lat="44.11289" lon="5.0104">
        <ele>76</ele>
        <time>2015-06-24T18:03:10Z</time>
      </trkpt>
      <trkpt lat="44.1128" lon="5.01042">
        <ele>75.8</ele>
        <time>2015-06-24T18:03:16Z</time>
      </trkpt>
      <trkpt lat="44.11271" lon="5.01048">
        <ele>75.6</ele>
        <time>2015-06-24T18:03:21Z</time>
      </trkpt>
      <trkpt lat="44.11264" lon="5.01058">
        <ele>75.4</ele>
        <time>2015-06-24T18:03:27Z</time>
      </trkpt>
      <trkpt lat="44.11258" lon="5.0107">
        <ele>75.3</ele>
        <time>2015-06-24T18:03:33Z</time>
      </trkpt>
      <trkpt lat="44.11253" lon="5.01082">
        <ele>75.2</ele>
        <time>2015-06-24T18:03:39Z</time>
      </trkpt>
      <trkpt lat="44.11244" lon="5.01087">
        <ele>75.2</ele>
        <time>2015-06-24T18:03:44Z</time>
      </trkpt>
      <trkpt lat="44.11234" lon="5.01089">
        <ele>75.2</ele>
        <time>2015-06-24T18:03:51Z</time>
      </trkpt>
      <trkpt lat="44.11224" lon="5.01092">
        <ele>75.2</ele>
        <time>2015-06-24T18:03:58Z</time>
      </trkpt>
      <trkpt lat="44.11215" lon="5.01097">
        <ele>75.2</ele>
        <time>2015-06-24T18:04:04Z</time>
      </trkpt>
      <trkpt lat="44.11205" lon="5.01093">
        <ele>75.2</ele>
        <time>2015-06-24T18:04:09Z</time>
      </trkpt>
      <trkpt lat="44.112" lon="5.0108">
        <ele>75.3</ele>
        <time>2015-06-24T18:04:14Z</time>
      </trkpt>
      <trkpt lat="44.11197" lon="5.01068">
        <ele>75.3</ele>
        <time>2015-06-24T18:04:19Z</time>
      </trkpt>
      <trkpt lat="44.11194" lon="5.01056">
        <ele>75.4</ele>
        <time>2015-06-24T18:04:24Z</time>
      </trkpt>
      <trkpt lat="44.1119" lon="5.01044">
        <ele>75.2</ele>
        <time>2015-06-24T18:04:29Z</time>
      </trkpt>
      <trkpt lat="44.11185" lon="5.01033">
        <ele>74.9</ele>
        <time>2015-06-24T18:04:35Z</time>
      </trkpt>
      <trkpt lat="44.11179" lon="5.01022">
        <ele>74.6</ele>
        <time>2015-06-24T18:04:41Z</time>
      </trkpt>
      <trkpt lat="44.1117" lon="5.0102">
        <ele>74.1</ele>
        <time>2015-06-24T18:04:50Z</time>
      </trkpt>
      <trkpt lat="44.11162" lon="5.01026">
        <ele>73.8</ele>
        <time>2015-06-24T18:04:56Z</time>
      </trkpt>
      <trkpt lat="44.11155" lon="5.01033">
        <ele>73.6</ele>
        <time>2015-06-24T18:05:02Z</time>
      </trkpt>
      <trkpt lat="44.11146" lon="5.01039">
        <ele>73.5</ele>
        <time>2015-06-24T18:05:08Z</time>
      </trkpt>
      <trkpt lat="44.11137" lon="5.01046">
        <ele>73.5</ele>
        <time>2015-06-24T18:05:14Z</time>
      </trkpt>
      <trkpt lat="44.11128" lon="5.01047">
        <ele>73.6</ele>
        <time>2015-06-24T18:05:20Z</time>
      </trkpt>
      <trkpt lat="44.1112" lon="5.01041">
        <ele>73.9</ele>
        <time>2015-06-24T18:05:27Z</time>
      </trkpt>
      <trkpt lat="44.11112" lon="5.01033">
        <ele>74</ele>
        <time>2015-06-24T18:05:33Z</time>
      </trkpt>
      <trkpt lat="44.11104" lon="5.01025">
        <ele>74.2</ele>
        <time>2015-06-24T18:05:40Z</time>
      </trkpt>
      <trkpt lat="44.11095" lon="5.01019">
        <ele>74.3</ele>
        <time>2015-06-24T18:05:50Z</time>
      </trkpt>
      <trkpt lat="44.11086" lon="5.01015">
        <ele>74.4</ele>
        <time>2015-06-24T18:05:58Z</time>
      </trkpt>
      <trkpt lat="44.11077" lon="5.01011">
        <ele>74.5</ele>
        <time>2015-06-24T18:06:07Z</time>
      </trkpt>
      <trkpt lat="44.11068" lon="5.01006">
        <ele>74.5</ele>
        <time>2015-06-24T18:06:14Z</time>
      </trkpt>
      <trkpt lat="44.11058" lon="5.00999">
        <ele>74.5</ele>
        <time>2015-06-24T18:06:18Z</time>
      </trkpt>
      <trkpt lat="44.11049" lon="5.00993">
        <ele>74.5</ele>
        <time>2015-06-24T18:06:24Z</time>
      </trkpt>
      <trkpt lat="44.11041" lon="5.00984">
        <ele>74.6</ele>
        <time>2015-06-24T18:06:30Z</time>
      </trkpt>
      <trkpt lat="44.11034" lon="5.00975">
        <ele>74.6</ele>
        <time>2015-06-24T18:06:36Z</time>
      </trkpt>
      <trkpt lat="44.11025" lon="5.00969">
        <ele>74.6</ele>
        <time>2015-06-24T18:06:42Z</time>
      </trkpt>
      <trkpt lat="44.11014" lon="5.00963">
        <ele>74.2</ele>
        <time>2015-06-24T18:06:49Z</time>
      </trkpt>
      <trkpt lat="44.11007" lon="5.00956">
        <ele>74.3</ele>
        <time>2015-06-24T18:06:54Z</time>
      </trkpt>
      <trkpt lat="44.10999" lon="5.00949">
        <ele>74.3</ele>
        <time>2015-06-24T18:07:01Z</time>
      </trkpt>
      <trkpt lat="44.10989" lon="5.00949">
        <ele>73.5</ele>
        <time>2015-06-24T18:07:13Z</time>
      </trkpt>
      <trkpt lat="44.10981" lon="5.00941">
        <ele>73.3</ele>
        <time>2015-06-24T18:07:25Z</time>
      </trkpt>
      <trkpt lat="44.10974" lon="5.00932">
        <ele>73.3</ele>
        <time>2015-06-24T18:07:30Z</time>
      </trkpt>
      <trkpt lat="44.10967" lon="5.00923">
        <ele>73.2</ele>
        <time>2015-06-24T18:07:34Z</time>
      </trkpt>
      <trkpt lat="44.10958" lon="5.00916">
        <ele>73.2</ele>
        <time>2015-06-24T18:07:40Z</time>
      </trkpt>
      <trkpt lat="44.1095" lon="5.00907">
        <ele>73.2</ele>
        <time>2015-06-24T18:07:46Z</time>
      </trkpt>
      <trkpt lat="44.10942" lon="5.00897">
        <ele>73.2</ele>
        <time>2015-06-24T18:07:51Z</time>
      </trkpt>
      <trkpt lat="44.10934" lon="5.00889">
        <ele>73.2</ele>
        <time>2015-06-24T18:07:57Z</time>
      </trkpt>
      <trkpt lat="44.10926" lon="5.0088">
        <ele>73.2</ele>
        <time>2015-06-24T18:08:03Z</time>
      </trkpt>
      <trkpt lat="44.1092" lon="5.0087">
        <ele>73.2</ele>
        <time>2015-06-24T18:08:08Z</time>
      </trkpt>
      <trkpt lat="44.10913" lon="5.00859">
        <ele>73.2</ele>
        <time>2015-06-24T18:08:13Z</time>
      </trkpt>
      <trkpt lat="44.10905" lon="5.0085">
        <ele>73.2</ele>
        <time>2015-06-24T18:08:18Z</time>
      </trkpt>
      <trkpt lat="44.10898" lon="5.00841">
        <ele>73.2</ele>
        <time>2015-06-24T18:08:24Z</time>
      </trkpt>
      <trkpt lat="44.10889" lon="5.00834">
        <ele>73.2</ele>
        <time>2015-06-24T18:08:31Z</time>
      </trkpt>
      <trkpt lat="44.1088" lon="5.00828">
        <ele>73.1</ele>
        <time>2015-06-24T18:08:37Z</time>
      </trkpt>
      <trkpt lat="44.1087" lon="5.0082">
        <ele>73.1</ele>
        <time>2015-06-24T18:08:43Z</time>
      </trkpt>
      <trkpt lat="44.10863" lon="5.00812">
        <ele>73.1</ele>
        <time>2015-06-24T18:08:48Z</time>
      </trkpt>
      <trkpt lat="44.10856" lon="5.00803">
        <ele>73</ele>
        <time>2015-06-24T18:08:53Z</time>
      </trkpt>
      <trkpt lat="44.10848" lon="5.00795">
        <ele>72.9</ele>
        <time>2015-06-24T18:08:59Z</time>
      </trkpt>
      <trkpt lat="44.1084" lon="5.00789">
        <ele>72.8</ele>
        <time>2015-06-24T18:09:05Z</time>
      </trkpt>
      <trkpt lat="44.10831" lon="5.00782">
        <ele>72.7</ele>
        <time>2015-06-24T18:09:12Z</time>
      </trkpt>
      <trkpt lat="44.10822" lon="5.00776">
        <ele>72.7</ele>
        <time>2015-06-24T18:09:18Z</time>
      </trkpt>
      <trkpt lat="44.10816" lon="5.00767">
        <ele>72.6</ele>
        <time>2015-06-24T18:09:24Z</time>
      </trkpt>
      <trkpt lat="44.10808" lon="5.00757">
        <ele>72.6</ele>
        <time>2015-06-24T18:09:31Z</time>
      </trkpt>
      <trkpt lat="44.10801" lon="5.0075">
        <ele>72.5</ele>
        <time>2015-06-24T18:09:38Z</time>
      </trkpt>
      <trkpt lat="44.10793" lon="5.00739">
        <ele>72.4</ele>
        <time>2015-06-24T18:09:44Z</time>
      </trkpt>
      <trkpt lat="44.10787" lon="5.00731">
        <ele>72.4</ele>
        <time>2015-06-24T18:09:49Z</time>
      </trkpt>
      <trkpt lat="44.10779" lon="5.00725">
        <ele>72.2</ele>
        <time>2015-06-24T18:09:59Z</time>
      </trkpt>
      <trkpt lat="44.10769" lon="5.00722">
        <ele>72.1</ele>
        <time>2015-06-24T18:10:07Z</time>
      </trkpt>
      <trkpt lat="44.10759" lon="5.00716">
        <ele>72.1</ele>
        <time>2015-06-24T18:10:13Z</time>
      </trkpt>
      <trkpt lat="44.10753" lon="5.00706">
        <ele>72.1</ele>
        <time>2015-06-24T18:10:18Z</time>
      </trkpt>
      <trkpt lat="44.10747" lon="5.00696">
        <ele>72</ele>
        <time>2015-06-24T18:10:24Z</time>
      </trkpt>
      <trkpt lat="44.10738" lon="5.00688">
        <ele>71.6</ele>
        <time>2015-06-24T18:10:30Z</time>
      </trkpt>
      <trkpt lat="44.1073" lon="5.0068">
        <ele>71.1</ele>
        <time>2015-06-24T18:10:36Z</time>
      </trkpt>
      <trkpt lat="44.10721" lon="5.00674">
        <ele>70.5</ele>
        <time>2015-06-24T18:10:43Z</time>
      </trkpt>
      <trkpt lat="44.10714" lon="5.00665">
        <ele>70</ele>
        <time>2015-06-24T18:10:49Z</time>
      </trkpt>
      <trkpt lat="44.10706" lon="5.0066">
        <ele>69.5</ele>
        <time>2015-06-24T18:10:56Z</time>
      </trkpt>
      <trkpt lat="44.10696" lon="5.00656">
        <ele>69</ele>
        <time>2015-06-24T18:11:04Z</time>
      </trkpt>
      <trkpt lat="44.10687" lon="5.00649">
        <ele>68.7</ele>
        <time>2015-06-24T18:11:11Z</time>
      </trkpt>
      <trkpt lat="44.10679" lon="5.00644">
        <ele>68.5</ele>
        <time>2015-06-24T18:11:16Z</time>
      </trkpt>
      <trkpt lat="44.1067" lon="5.00637">
        <ele>68.1</ele>
        <time>2015-06-24T18:11:24Z</time>
      </trkpt>
      <trkpt lat="44.10661" lon="5.00632">
        <ele>67.9</ele>
        <time>2015-06-24T18:11:31Z</time>
      </trkpt>
      <trkpt lat="44.10655" lon="5.00621">
        <ele>67.7</ele>
        <time>2015-06-24T18:11:38Z</time>
      </trkpt>
      <trkpt lat="44.10654" lon="5.00609">
        <ele>67.6</ele>
        <time>2015-06-24T18:11:46Z</time>
      </trkpt>
      <trkpt lat="44.10654" lon="5.00595">
        <ele>67.6</ele>
        <time>2015-06-24T18:11:53Z</time>
      </trkpt>
      <trkpt lat="44.10658" lon="5.00583">
        <ele>67.5</ele>
        <time>2015-06-24T18:12:04Z</time>
      </trkpt>
      <trkpt lat="44.10661" lon="5.00571">
        <ele>67.3</ele>
        <time>2015-06-24T18:12:10Z</time>
      </trkpt>
      <trkpt lat="44.10664" lon="5.00557">
        <ele>67</ele>
        <time>2015-06-24T18:12:18Z</time>
      </trkpt>
      <trkpt lat="44.10665" lon="5.00543">
        <ele>66.7</ele>
        <time>2015-06-24T18:12:24Z</time>
      </trkpt>
      <trkpt lat="44.10667" lon="5.00528">
        <ele>66.4</ele>
        <time>2015-06-24T18:12:29Z</time>
      </trkpt>
      <trkpt lat="44.10667" lon="5.00515">
        <ele>66</ele>
        <time>2015-06-24T18:12:36Z</time>
      </trkpt>
      <trkpt lat="44.10674" lon="5.00504">
        <ele>65.8</ele>
        <time>2015-06-24T18:12:44Z</time>
      </trkpt>
      <trkpt lat="44.10679" lon="5.00493">
        <ele>65.7</ele>
        <time>2015-06-24T18:12:52Z</time>
      </trkpt>
      <trkpt lat="44.10683" lon="5.00481">
        <ele>65.6</ele>
        <time>2015-06-24T18:12:58Z</time>
      </trkpt>
      <trkpt lat="44.10684" lon="5.00467">
        <ele>65.6</ele>
        <time>2015-06-24T18:13:04Z</time>
      </trkpt>
      <trkpt lat="44.10689" lon="5.00456">
        <ele>65.5</ele>
        <time>2015-06-24T18:13:12Z</time>
      </trkpt>
      <trkpt lat="44.10691" lon="5.00442">
        <ele>65.4</ele>
        <time>2015-06-24T18:13:19Z</time>
      </trkpt>
      <trkpt lat="44.10692" lon="5.00427">
        <ele>65.3</ele>
        <time>2015-06-24T18:13:25Z</time>
      </trkpt>
      <trkpt lat="44.10692" lon="5.00413">
        <ele>65.2</ele>
        <time>2015-06-24T18:13:31Z</time>
      </trkpt>
      <trkpt lat="44.10692" lon="5.00398">
        <ele>65</ele>
        <time>2015-06-24T18:13:37Z</time>
      </trkpt>
      <trkpt lat="44.10695" lon="5.00385">
        <ele>64.8</ele>
        <time>2015-06-24T18:13:42Z</time>
      </trkpt>
      <trkpt lat="44.10699" lon="5.00373">
        <ele>64.5</ele>
        <time>2015-06-24T18:13:50Z</time>
      </trkpt>
      <trkpt lat="44.10705" lon="5.00363">
        <ele>64.8</ele>
        <time>2015-06-24T18:13:56Z</time>
      </trkpt>
      <trkpt lat="44.10706" lon="5.0035">
        <ele>65</ele>
        <time>2015-06-24T18:14:00Z</time>
      </trkpt>
      <trkpt lat="44.10711" lon="5.00337">
        <ele>65.5</ele>
        <time>2015-06-24T18:14:06Z</time>
      </trkpt>
      <trkpt lat="44.10719" lon="5.00329">
        <ele>66</ele>
        <time>2015-06-24T18:14:13Z</time>
      </trkpt>
      <trkpt lat="44.10726" lon="5.00321">
        <ele>66.5</ele>
        <time>2015-06-24T18:14:21Z</time>
      </trkpt>
      <trkpt lat="44.1073" lon="5.00307">
        <ele>67.7</ele>
        <time>2015-06-24T18:14:37Z</time>
      </trkpt>
      <trkpt lat="44.10733" lon="5.00294">
        <ele>68.1</ele>
        <time>2015-06-24T18:14:53Z</time>
      </trkpt>
      <trkpt lat="44.10735" lon="5.00281">
        <ele>67.5</ele>
        <time>2015-06-24T18:15:03Z</time>
      </trkpt>
      <trkpt lat="44.10741" lon="5.00271">
        <ele>67.1</ele>
        <time>2015-06-24T18:15:08Z</time>
      </trkpt>
      <trkpt lat="44.10746" lon="5.00259">
        <ele>66.4</ele>
        <time>2015-06-24T18:15:16Z</time>
      </trkpt>
      <trkpt lat="44.10747" lon="5.00246">
        <ele>66.3</ele>
        <time>2015-06-24T18:15:21Z</time>
      </trkpt>
      <trkpt lat="44.10748" lon="5.00233">
        <ele>66.2</ele>
        <time>2015-06-24T18:15:26Z</time>
      </trkpt>
      <trkpt lat="44.10753" lon="5.00219">
        <ele>66</ele>
        <time>2015-06-24T18:15:31Z</time>
      </trkpt>
      <trkpt lat="44.10755" lon="5.00207">
        <ele>65.7</ele>
        <time>2015-06-24T18:15:35Z</time>
      </trkpt>
      <trkpt lat="44.10759" lon="5.00194">
        <ele>65.3</ele>
        <time>2015-06-24T18:15:39Z</time>
      </trkpt>
      <trkpt lat="44.10762" lon="5.0018">
        <ele>65</ele>
        <time>2015-06-24T18:15:43Z</time>
      </trkpt>
      <trkpt lat="44.10763" lon="5.00167">
        <ele>64.6</ele>
        <time>2015-06-24T18:15:47Z</time>
      </trkpt>
      <trkpt lat="44.10765" lon="5.00153">
        <ele>64.2</ele>
        <time>2015-06-24T18:15:52Z</time>
      </trkpt>
      <trkpt lat="44.10767" lon="5.00141">
        <ele>63.8</ele>
        <time>2015-06-24T18:15:56Z</time>
      </trkpt>
      <trkpt lat="44.1077" lon="5.00126">
        <ele>63.3</ele>
        <time>2015-06-24T18:16:01Z</time>
      </trkpt>
      <trkpt lat="44.10771" lon="5.00112">
        <ele>62.9</ele>
        <time>2015-06-24T18:16:07Z</time>
      </trkpt>
      <trkpt lat="44.10773" lon="5.00099">
        <ele>62.6</ele>
        <time>2015-06-24T18:16:13Z</time>
      </trkpt>
      <trkpt lat="44.10773" lon="5.00085">
        <ele>61.7</ele>
        <time>2015-06-24T18:16:29Z</time>
      </trkpt>
      <trkpt lat="44.10774" lon="5.00071">
        <ele>61.8</ele>
        <time>2015-06-24T18:16:36Z</time>
      </trkpt>
      <trkpt lat="44.10778" lon="5.00058">
        <ele>61.9</ele>
        <time>2015-06-24T18:16:42Z</time>
      </trkpt>
      <trkpt lat="44.10781" lon="5.00046">
        <ele>61.7</ele>
        <time>2015-06-24T18:16:48Z</time>
      </trkpt>
      <trkpt lat="44.10783" lon="5.00034">
        <ele>61.6</ele>
        <time>2015-06-24T18:16:54Z</time>
      </trkpt>
      <trkpt lat="44.10787" lon="5.00021">
        <ele>61.1</ele>
        <time>2015-06-24T18:17:01Z</time>
      </trkpt>
      <trkpt lat="44.1079" lon="5.00009">
        <ele>60.8</ele>
        <time>2015-06-24T18:17:07Z</time>
      </trkpt>
      <trkpt lat="44.10792" lon="4.99996">
        <ele>60.5</ele>
        <time>2015-06-24T18:17:14Z</time>
      </trkpt>
      <trkpt lat="44.10795" lon="4.99983">
        <ele>60.2</ele>
        <time>2015-06-24T18:17:21Z</time>
      </trkpt>
      <trkpt lat="44.10796" lon="4.9997">
        <ele>60.1</ele>
        <time>2015-06-24T18:17:28Z</time>
      </trkpt>
      <trkpt lat="44.10799" lon="4.99957">
        <ele>59.9</ele>
        <time>2015-06-24T18:17:35Z</time>
      </trkpt>
      <trkpt lat="44.10801" lon="4.99942">
        <ele>59.4</ele>
        <time>2015-06-24T18:17:47Z</time>
      </trkpt>
      <trkpt lat="44.10804" lon="4.99929">
        <ele>59.3</ele>
        <time>2015-06-24T18:17:53Z</time>
      </trkpt>
      <trkpt lat="44.1081" lon="4.99917">
        <ele>59.2</ele>
        <time>2015-06-24T18:18:01Z</time>
      </trkpt>
      <trkpt lat="44.10813" lon="4.99905">
        <ele>59.1</ele>
        <time>2015-06-24T18:18:09Z</time>
      </trkpt>
      <trkpt lat="44.10815" lon="4.99891">
        <ele>59.1</ele>
        <time>2015-06-24T18:18:16Z</time>
      </trkpt>
      <trkpt lat="44.10816" lon="4.99879">
        <ele>59</ele>
        <time>2015-06-24T18:18:23Z</time>
      </trkpt>
      <trkpt lat="44.10818" lon="4.99865">
        <ele>58.9</ele>
        <time>2015-06-24T18:18:29Z</time>
      </trkpt>
      <trkpt lat="44.10817" lon="4.99852">
        <ele>58.8</ele>
        <time>2015-06-24T18:18:35Z</time>
      </trkpt>
      <trkpt lat="44.10818" lon="4.99838">
        <ele>58.6</ele>
        <time>2015-06-24T18:18:43Z</time>
      </trkpt>
      <trkpt lat="44.10823" lon="4.99825">
        <ele>58.5</ele>
        <time>2015-06-24T18:18:50Z</time>
      </trkpt>
      <trkpt lat="44.10824" lon="4.99812">
        <ele>58.5</ele>
        <time>2015-06-24T18:18:56Z</time>
      </trkpt>
      <trkpt lat="44.10823" lon="4.99797">
        <ele>58.4</ele>
        <time>2015-06-24T18:19:02Z</time>
      </trkpt>
      <trkpt lat="44.10828" lon="4.99784">
        <ele>58.3</ele>
        <time>2015-06-24T18:19:09Z</time>
      </trkpt>
      <trkpt lat="44.10829" lon="4.9977">
        <ele>58.2</ele>
        <time>2015-06-24T18:19:15Z</time>
      </trkpt>
      <trkpt lat="44.10831" lon="4.99757">
        <ele>58.1</ele>
        <time>2015-06-24T18:19:21Z</time>
      </trkpt>
      <trkpt lat="44.10832" lon="4.99744">
        <ele>57.9</ele>
        <time>2015-06-24T18:19:30Z</time>
      </trkpt>
      <trkpt lat="44.10835" lon="4.99731">
        <ele>57.9</ele>
        <time>2015-06-24T18:19:36Z</time>
      </trkpt>
      <trkpt lat="44.10836" lon="4.99719">
        <ele>58</ele>
        <time>2015-06-24T18:19:43Z</time>
      </trkpt>
      <trkpt lat="44.10837" lon="4.99706">
        <ele>58.1</ele>
        <time>2015-06-24T18:19:48Z</time>
      </trkpt>
      <trkpt lat="44.10839" lon="4.99693">
        <ele>58.1</ele>
        <time>2015-06-24T18:19:53Z</time>
      </trkpt>
      <trkpt lat="44.10849" lon="4.99689">
        <ele>58</ele>
        <time>2015-06-24T18:19:59Z</time>
      </trkpt>
      <trkpt lat="44.10858" lon="4.9969">
        <ele>57.8</ele>
        <time>2015-06-24T18:20:05Z</time>
      </trkpt>
      <trkpt lat="44.10867" lon="4.99691">
        <ele>57.6</ele>
        <time>2015-06-24T18:20:11Z</time>
      </trkpt>
      <trkpt lat="44.10877" lon="4.99692">
        <ele>57.4</ele>
        <time>2015-06-24T18:20:19Z</time>
      </trkpt>
      <trkpt lat="44.10886" lon="4.99687">
        <ele>57.5</ele>
        <time>2015-06-24T18:20:25Z</time>
      </trkpt>
      <trkpt lat="44.10892" lon="4.99678">
        <ele>57.6</ele>
        <time>2015-06-24T18:20:31Z</time>
      </trkpt>
      <trkpt lat="44.10895" lon="4.99666">
        <ele>57.6</ele>
        <time>2015-06-24T18:20:36Z</time>
      </trkpt>
      <trkpt lat="44.109" lon="4.99652">
        <ele>57.7</ele>
        <time>2015-06-24T18:20:42Z</time>
      </trkpt>
      <trkpt lat="44.10904" lon="4.9964">
        <ele>57.6</ele>
        <time>2015-06-24T18:20:47Z</time>
      </trkpt>
      <trkpt lat="44.10908" lon="4.99628">
        <ele>57.6</ele>
        <time>2015-06-24T18:20:54Z</time>
      </trkpt>
      <trkpt lat="44.10911" lon="4.99615">
        <ele>57.5</ele>
        <time>2015-06-24T18:20:59Z</time>
      </trkpt>
      <trkpt lat="44.10914" lon="4.99602">
        <ele>57.5</ele>
        <time>2015-06-24T18:21:07Z</time>
      </trkpt>
      <trkpt lat="44.10917" lon="4.99589">
        <ele>57.4</ele>
        <time>2015-06-24T18:21:13Z</time>
      </trkpt>
      <trkpt lat="44.1092" lon="4.99577">
        <ele>57.3</ele>
        <time>2015-06-24T18:21:20Z</time>
      </trkpt>
      <trkpt lat="44.10923" lon="4.99565">
        <ele>57.2</ele>
        <time>2015-06-24T18:21:26Z</time>
      </trkpt>
      <trkpt lat="44.10925" lon="4.99552">
        <ele>57.3</ele>
        <time>2015-06-24T18:21:32Z</time>
      </trkpt>
      <trkpt lat="44.10927" lon="4.99539">
        <ele>57.6</ele>
        <time>2015-06-24T18:21:38Z</time>
      </trkpt>
      <trkpt lat="44.10929" lon="4.99526">
        <ele>57.9</ele>
        <time>2015-06-24T18:21:45Z</time>
      </trkpt>
      <trkpt lat="44.10931" lon="4.99513">
        <ele>58.2</ele>
        <time>2015-06-24T18:21:52Z</time>
      </trkpt>
      <trkpt lat="44.10931" lon="4.995">
        <ele>58.4</ele>
        <time>2015-06-24T18:21:57Z</time>
      </trkpt>
      <trkpt lat="44.10931" lon="4.99485">
        <ele>58.6</ele>
        <time>2015-06-24T18:22:01Z</time>
      </trkpt>
      <trkpt lat="44.10936" lon="4.99474">
        <ele>58.9</ele>
        <time>2015-06-24T18:22:07Z</time>
      </trkpt>
      <trkpt lat="44.10945" lon="4.99466">
        <ele>59.3</ele>
        <time>2015-06-24T18:22:13Z</time>
      </trkpt>
      <trkpt lat="44.10954" lon="4.99461">
        <ele>59.5</ele>
        <time>2015-06-24T18:22:19Z</time>
      </trkpt>
      <trkpt lat="44.10963" lon="4.99453">
        <ele>59.8</ele>
        <time>2015-06-24T18:22:27Z</time>
      </trkpt>
      <trkpt lat="44.10972" lon="4.9945">
        <ele>60</ele>
        <time>2015-06-24T18:22:36Z</time>
      </trkpt>
      <trkpt lat="44.1098" lon="4.99443">
        <ele>60.2</ele>
        <time>2015-06-24T18:22:43Z</time>
      </trkpt>
      <trkpt lat="44.10979" lon="4.99429">
        <ele>60.5</ele>
        <time>2015-06-24T18:22:56Z</time>
      </trkpt>
      <trkpt lat="44.10979" lon="4.99415">
        <ele>60.6</ele>
        <time>2015-06-24T18:23:04Z</time>
      </trkpt>
      <trkpt lat="44.10978" lon="4.99403">
        <ele>60.6</ele>
        <time>2015-06-24T18:23:12Z</time>
      </trkpt>
      <trkpt lat="44.10973" lon="4.99392">
        <ele>60.7</ele>
        <time>2015-06-24T18:23:19Z</time>
      </trkpt>
      <trkpt lat="44.10967" lon="4.99383">
        <ele>60.8</ele>
        <time>2015-06-24T18:23:27Z</time>
      </trkpt>
      <trkpt lat="44.10959" lon="4.99377">
        <ele>60.9</ele>
        <time>2015-06-24T18:23:31Z</time>
      </trkpt>
      <trkpt lat="44.10954" lon="4.99366">
        <ele>60.9</ele>
        <time>2015-06-24T18:23:35Z</time>
      </trkpt>
      <trkpt lat="44.10948" lon="4.99354">
        <ele>60.6</ele>
        <time>2015-06-24T18:23:40Z</time>
      </trkpt>
      <trkpt lat="44.10941" lon="4.99341">
        <ele>59.8</ele>
        <time>2015-06-24T18:23:47Z</time>
      </trkpt>
      <trkpt lat="44.10934" lon="4.99333">
        <ele>59.4</ele>
        <time>2015-06-24T18:23:51Z</time>
      </trkpt>
      <trkpt lat="44.10927" lon="4.99324">
        <ele>59.1</ele>
        <time>2015-06-24T18:23:55Z</time>
      </trkpt>
      <trkpt lat="44.10919" lon="4.99316">
        <ele>58.6</ele>
        <time>2015-06-24T18:24:00Z</time>
      </trkpt>
      <trkpt lat="44.10913" lon="4.99306">
        <ele>58.3</ele>
        <time>2015-06-24T18:24:05Z</time>
      </trkpt>
      <trkpt lat="44.10906" lon="4.99296">
        <ele>57.9</ele>
        <time>2015-06-24T18:24:11Z</time>
      </trkpt>
      <trkpt lat="44.10899" lon="4.99286">
        <ele>57.7</ele>
        <time>2015-06-24T18:24:18Z</time>
      </trkpt>
      <trkpt lat="44.1089" lon="4.9928">
        <ele>57.4</ele>
        <time>2015-06-24T18:24:26Z</time>
      </trkpt>
      <trkpt lat="44.10882" lon="4.99273">
        <ele>57.3</ele>
        <time>2015-06-24T18:24:31Z</time>
      </trkpt>
      <trkpt lat="44.10873" lon="4.99272">
        <ele>57.2</ele>
        <time>2015-06-24T18:24:35Z</time>
      </trkpt>
      <trkpt lat="44.10863" lon="4.9927">
        <ele>57.2</ele>
        <time>2015-06-24T18:24:39Z</time>
      </trkpt>
      <trkpt lat="44.10853" lon="4.99269">
        <ele>57.1</ele>
        <time>2015-06-24T18:24:44Z</time>
      </trkpt>
      <trkpt lat="44.10844" lon="4.99269">
        <ele>57</ele>
        <time>2015-06-24T18:24:49Z</time>
      </trkpt>
      <trkpt lat="44.10833" lon="4.99268">
        <ele>56.8</ele>
        <time>2015-06-24T18:24:55Z</time>
      </trkpt>
      <trkpt lat="44.10827" lon="4.99279">
        <ele>56.5</ele>
        <time>2015-06-24T18:25:03Z</time>
      </trkpt>
      <trkpt lat="44.10826" lon="4.99265">
        <ele>56</ele>
        <time>2015-06-24T18:25:12Z</time>
      </trkpt>
      <trkpt lat="44.10824" lon="4.99252">
        <ele>55.7</ele>
        <time>2015-06-24T18:25:20Z</time>
      </trkpt>
      <trkpt lat="44.10823" lon="4.99238">
        <ele>55.3</ele>
        <time>2015-06-24T18:25:30Z</time>
      </trkpt>
      <trkpt lat="44.10821" lon="4.99223">
        <ele>55.2</ele>
        <time>2015-06-24T18:25:33Z</time>
      </trkpt>
      <trkpt lat="44.10821" lon="4.9921">
        <ele>55.1</ele>
        <time>2015-06-24T18:25:39Z</time>
      </trkpt>
      <trkpt lat="44.1082" lon="4.99198">
        <ele>55</ele>
        <time>2015-06-24T18:25:43Z</time>
      </trkpt>
      <trkpt lat="44.10819" lon="4.99184">
        <ele>54.9</ele>
        <time>2015-06-24T18:25:49Z</time>
      </trkpt>
      <trkpt lat="44.10813" lon="4.99172">
        <ele>54.8</ele>
        <time>2015-06-24T18:25:54Z</time>
      </trkpt>
      <trkpt lat="44.10811" lon="4.99159">
        <ele>54.7</ele>
        <time>2015-06-24T18:25:59Z</time>
      </trkpt>
      <trkpt lat="44.1081" lon="4.99147">
        <ele>54.6</ele>
        <time>2015-06-24T18:26:04Z</time>
      </trkpt>
      <trkpt lat="44.10806" lon="4.99135">
        <ele>54.5</ele>
        <time>2015-06-24T18:26:09Z</time>
      </trkpt>
      <trkpt lat="44.10803" lon="4.99123">
        <ele>54.5</ele>
        <time>2015-06-24T18:26:14Z</time>
      </trkpt>
      <trkpt lat="44.10799" lon="4.9911">
        <ele>54.3</ele>
        <time>2015-06-24T18:26:20Z</time>
      </trkpt>
      <trkpt lat="44.10795" lon="4.99098">
        <ele>54.2</ele>
        <time>2015-06-24T18:26:26Z</time>
      </trkpt>
      <trkpt lat="44.10794" lon="4.99085">
        <ele>54.1</ele>
        <time>2015-06-24T18:26:32Z</time>
      </trkpt>
      <trkpt lat="44.10791" lon="4.99072">
        <ele>54</ele>
        <time>2015-06-24T18:26:37Z</time>
      </trkpt>
      <trkpt lat="44.10789" lon="4.99058">
        <ele>53.9</ele>
        <time>2015-06-24T18:26:44Z</time>
      </trkpt>
      <trkpt lat="44.10787" lon="4.99042">
        <ele>53.8</ele>
        <time>2015-06-24T18:26:52Z</time>
      </trkpt>
      <trkpt lat="44.10784" lon="4.99028">
        <ele>53.7</ele>
        <time>2015-06-24T18:26:57Z</time>
      </trkpt>
      <trkpt lat="44.10782" lon="4.99016">
        <ele>53.6</ele>
        <time>2015-06-24T18:27:02Z</time>
      </trkpt>
      <trkpt lat="44.10781" lon="4.99002">
        <ele>53.5</ele>
        <time>2015-06-24T18:27:09Z</time>
      </trkpt>
      <trkpt lat="44.10787" lon="4.98989">
        <ele>53.2</ele>
        <time>2015-06-24T18:27:19Z</time>
      </trkpt>
      <trkpt lat="44.10797" lon="4.98973">
        <ele>52.9</ele>
        <time>2015-06-24T18:27:24Z</time>
      </trkpt>
      <trkpt lat="44.10805" lon="4.98964">
        <ele>53</ele>
        <time>2015-06-24T18:27:35Z</time>
      </trkpt>
      <trkpt lat="44.10805" lon="4.98949">
        <ele>52.6</ele>
        <time>2015-06-24T18:27:44Z</time>
      </trkpt>
      <trkpt lat="44.108" lon="4.98937">
        <ele>52.2</ele>
        <time>2015-06-24T18:27:50Z</time>
      </trkpt>
      <trkpt lat="44.10796" lon="4.98925">
        <ele>51.8</ele>
        <time>2015-06-24T18:27:57Z</time>
      </trkpt>
      <trkpt lat="44.10793" lon="4.98913">
        <ele>51.4</ele>
        <time>2015-06-24T18:28:04Z</time>
      </trkpt>
      <trkpt lat="44.10792" lon="4.989">
        <ele>51.2</ele>
        <time>2015-06-24T18:28:12Z</time>
      </trkpt>
      <trkpt lat="44.10793" lon="4.98887">
        <ele>50.9</ele>
        <time>2015-06-24T18:28:21Z</time>
      </trkpt>
      <trkpt lat="44.10793" lon="4.98875">
        <ele>50.7</ele>
        <time>2015-06-24T18:28:30Z</time>
      </trkpt>
      <trkpt lat="44.10803" lon="4.98878">
        <ele>50.6</ele>
        <time>2015-06-24T18:28:36Z</time>
      </trkpt>
      <trkpt lat="44.10812" lon="4.9888">
        <ele>50.6</ele>
        <time>2015-06-24T18:28:41Z</time>
      </trkpt>
      <trkpt lat="44.10823" lon="4.98879">
        <ele>50.5</ele>
        <time>2015-06-24T18:28:48Z</time>
      </trkpt>
      <trkpt lat="44.10832" lon="4.98875">
        <ele>50.5</ele>
        <time>2015-06-24T18:28:55Z</time>
      </trkpt>
      <trkpt lat="44.1084" lon="4.9887">
        <ele>50.5</ele>
        <time>2015-06-24T18:29:01Z</time>
      </trkpt>
      <trkpt lat="44.1085" lon="4.98871">
        <ele>50.5</ele>
        <time>2015-06-24T18:29:09Z</time>
      </trkpt>
      <trkpt lat="44.1086" lon="4.98868">
        <ele>50.6</ele>
        <time>2015-06-24T18:29:16Z</time>
      </trkpt>
      <trkpt lat="44.10869" lon="4.98863">
        <ele>50.6</ele>
        <time>2015-06-24T18:29:21Z</time>
      </trkpt>
      <trkpt lat="44.10878" lon="4.98858">
        <ele>50.6</ele>
        <time>2015-06-24T18:29:26Z</time>
      </trkpt>
      <trkpt lat="44.10886" lon="4.98853">
        <ele>50.6</ele>
        <time>2015-06-24T18:29:32Z</time>
      </trkpt>
      <trkpt lat="44.10896" lon="4.98849">
        <ele>50.6</ele>
        <time>2015-06-24T18:29:38Z</time>
      </trkpt>
      <trkpt lat="44.10905" lon="4.98847">
        <ele>50.5</ele>
        <time>2015-06-24T18:29:42Z</time>
      </trkpt>
      <trkpt lat="44.10915" lon="4.98845">
        <ele>50.5</ele>
        <time>2015-06-24T18:29:52Z</time>
      </trkpt>
      <trkpt lat="44.10924" lon="4.98846">
        <ele>50.5</ele>
        <time>2015-06-24T18:30:00Z</time>
      </trkpt>
      <trkpt lat="44.10933" lon="4.98843">
        <ele>50.5</ele>
        <time>2015-06-24T18:30:07Z</time>
      </trkpt>
      <trkpt lat="44.10942" lon="4.98836">
        <ele>50.5</ele>
        <time>2015-06-24T18:30:13Z</time>
      </trkpt>
      <trkpt lat="44.10951" lon="4.98834">
        <ele>50.6</ele>
        <time>2015-06-24T18:30:20Z</time>
      </trkpt>
      <trkpt lat="44.1096" lon="4.98831">
        <ele>50.6</ele>
        <time>2015-06-24T18:30:26Z</time>
      </trkpt>
      <trkpt lat="44.10969" lon="4.98828">
        <ele>50.6</ele>
        <time>2015-06-24T18:30:31Z</time>
      </trkpt>
      <trkpt lat="44.10978" lon="4.98826">
        <ele>50.7</ele>
        <time>2015-06-24T18:30:38Z</time>
      </trkpt>
      <trkpt lat="44.10984" lon="4.98815">
        <ele>50.8</ele>
        <time>2015-06-24T18:30:43Z</time>
      </trkpt>
      <trkpt lat="44.10991" lon="4.98807">
        <ele>50.3</ele>
        <time>2015-06-24T18:31:09Z</time>
      </trkpt>
      <trkpt lat="44.10984" lon="4.98797">
        <ele>49.8</ele>
        <time>2015-06-24T18:31:23Z</time>
      </trkpt>
      <trkpt lat="44.10975" lon="4.98789">
        <ele>49.6</ele>
        <time>2015-06-24T18:31:29Z</time>
      </trkpt>
      <trkpt lat="44.10968" lon="4.98781">
        <ele>49.4</ele>
        <time>2015-06-24T18:31:35Z</time>
      </trkpt>
      <trkpt lat="44.1096" lon="4.98771">
        <ele>49.2</ele>
        <time>2015-06-24T18:31:41Z</time>
      </trkpt>
      <trkpt lat="44.10954" lon="4.98762">
        <ele>49.1</ele>
        <time>2015-06-24T18:31:47Z</time>
      </trkpt>
      <trkpt lat="44.10948" lon="4.98753">
        <ele>49</ele>
        <time>2015-06-24T18:31:53Z</time>
      </trkpt>
      <trkpt lat="44.10941" lon="4.98742">
        <ele>48.9</ele>
        <time>2015-06-24T18:31:59Z</time>
      </trkpt>
      <trkpt lat="44.10935" lon="4.9873">
        <ele>48.8</ele>
        <time>2015-06-24T18:32:07Z</time>
      </trkpt>
      <trkpt lat="44.10928" lon="4.98718">
        <ele>48.7</ele>
        <time>2015-06-24T18:32:11Z</time>
      </trkpt>
      <trkpt lat="44.1092" lon="4.9871">
        <ele>48.7</ele>
        <time>2015-06-24T18:32:16Z</time>
      </trkpt>
      <trkpt lat="44.10913" lon="4.98701">
        <ele>48.6</ele>
        <time>2015-06-24T18:32:22Z</time>
      </trkpt>
      <trkpt lat="44.10907" lon="4.98691">
        <ele>48.5</ele>
        <time>2015-06-24T18:32:29Z</time>
      </trkpt>
      <trkpt lat="44.10901" lon="4.98681">
        <ele>48.4</ele>
        <time>2015-06-24T18:32:35Z</time>
      </trkpt>
      <trkpt lat="44.10893" lon="4.98672">
        <ele>48.2</ele>
        <time>2015-06-24T18:32:41Z</time>
      </trkpt>
      <trkpt lat="44.10887" lon="4.98664">
        <ele>47.9</ele>
        <time>2015-06-24T18:32:48Z</time>
      </trkpt>
      <trkpt lat="44.1088" lon="4.98655">
        <ele>47.4</ele>
        <time>2015-06-24T18:32:59Z</time>
      </trkpt>
      <trkpt lat="44.10879" lon="4.9867">
        <ele>47.1</ele>
        <time>2015-06-24T18:33:05Z</time>
      </trkpt>
      <trkpt lat="44.1087" lon="4.9868">
        <ele>46.7</ele>
        <time>2015-06-24T18:33:12Z</time>
      </trkpt>
      <trkpt lat="44.1086" lon="4.98687">
        <ele>46.2</ele>
        <time>2015-06-24T18:33:20Z</time>
      </trkpt>
      <trkpt lat="44.1085" lon="4.98688">
        <ele>46</ele>
        <time>2015-06-24T18:33:31Z</time>
      </trkpt>
      <trkpt lat="44.10841" lon="4.98691">
        <ele>45.8</ele>
        <time>2015-06-24T18:33:39Z</time>
      </trkpt>
      <trkpt lat="44.1084" lon="4.98706">
        <ele>45.7</ele>
        <time>2015-06-24T18:33:48Z</time>
      </trkpt>
      <trkpt lat="44.10838" lon="4.9872">
        <ele>45.6</ele>
        <time>2015-06-24T18:33:54Z</time>
      </trkpt>
      <trkpt lat="44.10834" lon="4.98732">
        <ele>45.4</ele>
        <time>2015-06-24T18:34:01Z</time>
      </trkpt>
      <trkpt lat="44.10831" lon="4.98746">
        <ele>45.2</ele>
        <time>2015-06-24T18:34:11Z</time>
      </trkpt>
      <trkpt lat="44.10829" lon="4.98736">
        <ele>42.1</ele>
        <time>2015-06-24T18:35:55Z</time>
      </trkpt>
    </trkseg>
  </trk>
</gpx>